GFSGBSN_prec_precacc24_030.txt.gz
Total_Precipitation_Accumulation
0.11 0.12 0.12 0.10 0.09 0.09 0.09 0.10 0.08 0.06 0.05 0.05 0.06 0.04 0.01 0.00 0.00 0.00 0.00 0.00 0.00 0.00 0.01 0.02 0.05 0.10 0.06 0.06 0.01 0.00 0.00 0.00 0.00 0.01 0.02 0.03 0.05 0.03 0.03 0.01 0.02 0.00 0.00 0.00 0.00 0.00 0.00
0.10 0.09 0.08 0.09 0.10 0.12 0.12 0.11 0.11 0.12 0.10 0.05 0.05 0.05 0.03 0.01 0.00 0.00 0.00 0.00 0.00 0.00 0.00 0.01 0.09 0.13 0.03 0.02 0.00 0.00 0.00 0.00 0.00 0.01 0.02 0.05 0.05 0.01 0.02 0.01 0.02 0.00 0.00 0.00 0.00 0.00 0.00
0.08 0.09 0.08 0.08 0.10 0.13 0.13 0.12 0.13 0.15 0.12 0.10 0.07 0.07 0.05 0.03 0.00 0.00 0.00 0.00 0.00 0.00 0.00 0.03 0.17 0.10 0.04 0.00 0.00 0.00 0.00 0.00 0.00 0.00 0.00 0.01 0.06 0.14 0.07 0.03 0.00 0.00 0.01 0.00 0.00 0.00 0.00
0.08 0.09 0.08 0.09 0.11 0.12 0.11 0.12 0.12 0.11 0.11 0.15 0.14 0.09 0.08 0.06 0.03 0.01 0.01 0.02 0.02 0.02 0.01 0.05 0.17 0.12 0.05 0.00 0.00 0.00 0.00 0.00 0.00 0.00 0.00 0.01 0.16 0.15 0.10 0.06 0.03 0.03 0.04 0.01 0.00 0.00 0.00
0.07 0.07 0.07 0.08 0.09 0.10 0.10 0.10 0.09 0.09 0.12 0.16 0.18 0.13 0.10 0.10 0.07 0.06 0.07 0.07 0.06 0.07 0.07 0.07 0.05 0.08 0.02 0.00 0.00 0.00 0.00 0.00 0.00 0.00 0.00 0.02 0.15 0.19 0.11 0.11 0.11 0.08 0.03 0.01 0.00 0.00 0.00
0.06 0.07 0.08 0.08 0.08 0.08 0.09 0.10 0.11 0.11 0.15 0.19 0.20 0.19 0.13 0.12 0.09 0.07 0.14 0.18 0.16 0.11 0.10 0.09 0.04 0.08 0.01 0.00 0.00 0.00 0.00 0.00 0.05 0.11 0.07 0.07 0.15 0.30 0.20 0.21 0.11 0.02 0.01 0.00 0.00 0.00 0.00
0.06 0.06 0.07 0.07 0.07 0.08 0.08 0.11 0.12 0.11 0.11 0.14 0.16 0.18 0.19 0.17 0.15 0.09 0.18 0.51 0.19 0.09 0.09 0.02 0.02 0.00 0.00 0.00 0.00 0.00 0.00 0.00 0.03 0.16 0.11 0.10 0.20 0.26 0.18 0.10 0.02 0.01 0.02 0.01 0.00 0.00 0.00
0.09 0.13 0.13 0.12 0.12 0.14 0.16 0.16 0.16 0.14 0.13 0.12 0.14 0.20 0.22 0.24 0.21 0.22 0.24 0.18 0.04 0.02 0.07 0.02 0.00 0.00 0.00 0.01 0.02 0.02 0.00 0.01 0.03 0.12 0.16 0.23 0.22 0.05 0.09 0.06 0.07 0.04 0.04 0.04 0.01 0.00 0.01
0.12 0.13 0.13 0.12 0.16 0.18 0.21 0.21 0.19 0.19 0.19 0.18 0.19 0.20 0.29 0.40 0.40 0.39 0.26 0.14 0.11 0.11 0.39 0.17 0.01 0.01 0.01 0.03 0.03 0.10 0.00 0.03 0.04 0.09 0.28 0.31 0.17 0.04 0.18 0.14 0.14 0.13 0.04 0.03 0.03 0.01 0.01
0.17 0.22 0.24 0.24 0.22 0.20 0.22 0.26 0.32 0.37 0.36 0.38 0.32 0.33 0.37 0.54 0.71 0.33 0.31 0.35 0.39 0.50 1.14 0.22 0.02 0.03 0.07 0.19 0.12 0.01 0.00 0.04 0.08 0.06 0.21 0.25 0.14 0.13 0.23 0.23 0.12 0.15 0.07 0.01 0.05 0.10 0.08
0.24 0.35 0.36 0.31 0.33 0.33 0.31 0.27 0.28 0.38 0.45 0.44 0.47 0.47 0.54 0.69 0.72 0.36 0.29 0.45 0.54 0.87 0.80 0.03 0.02 0.01 0.03 0.15 0.14 0.04 0.00 0.14 0.14 0.14 0.40 0.38 0.18 0.22 0.22 0.27 0.08 0.16 0.10 0.03 0.09 0.16 0.16
0.39 0.34 0.29 0.31 0.35 0.39 0.37 0.35 0.33 0.31 0.31 0.42 0.47 0.56 0.74 0.87 0.65 0.37 0.40 0.64 0.70 0.82 0.33 0.04 0.06 0.06 0.11 0.10 0.14 0.19 0.05 0.13 0.37 0.43 0.45 0.24 0.12 0.21 0.17 0.14 0.11 0.17 0.20 0.20 0.14 0.36 0.36
0.31 0.30 0.33 0.36 0.36 0.38 0.37 0.37 0.38 0.42 0.33 0.35 0.48 0.56 0.97 0.85 0.61 0.41 0.58 0.69 0.82 0.46 0.15 0.23 0.17 0.19 0.14 0.08 0.17 0.17 0.19 0.28 1.04 0.73 0.74 0.72 0.48 0.24 0.20 0.43 0.42 0.55 0.67 0.85 0.56 0.50 0.40
0.34 0.37 0.34 0.34 0.35 0.36 0.46 0.47 0.57 0.62 0.46 0.47 0.56 0.86 1.08 0.94 0.64 0.47 0.68 0.64 0.54 0.15 0.23 0.26 0.17 0.19 0.21 0.06 0.20 0.11 0.28 0.29 0.47 0.32 0.52 0.68 0.64 0.35 0.26 0.69 0.77 0.57 0.78 0.78 0.33 0.15 0.12
0.38 0.39 0.40 0.40 0.45 0.47 0.53 0.59 0.53 0.50 0.38 0.57 0.80 1.28 1.98 1.14 1.01 0.68 0.81 0.73 0.26 0.22 0.29 0.28 0.28 0.18 0.10 0.06 0.27 0.12 0.15 0.13 0.18 0.09 0.43 0.51 0.45 0.20 0.14 0.37 0.52 0.61 0.82 0.47 0.40 0.18 0.16
0.40 0.42 0.47 0.56 0.59 0.67 0.70 0.61 0.70 0.60 0.46 0.63 1.04 1.34 1.84 1.17 1.05 1.25 1.37 0.56 0.28 0.41 0.42 0.30 0.19 0.07 0.03 0.07 0.32 0.12 0.09 0.05 0.08 0.02 0.17 0.37 0.57 0.36 0.39 0.49 0.63 0.58 0.36 0.48 0.88 0.47 0.17
0.43 0.44 0.50 0.65 0.67 0.76 0.82 0.70 0.75 0.94 0.81 0.73 0.90 1.62 1.14 1.40 1.69 1.91 1.13 0.45 0.29 0.30 0.40 0.31 0.10 0.09 0.04 0.03 0.22 0.05 0.05 0.03 0.03 0.00 0.12 0.48 0.71 0.48 0.64 0.73 0.52 0.71 0.84 0.45 0.36 0.21 0.25
0.41 0.43 0.48 0.62 0.68 0.68 0.85 0.70 0.56 0.91 0.89 0.82 0.99 1.09 1.13 1.70 2.50 1.46 0.60 0.61 0.38 0.25 0.26 0.31 0.16 0.05 0.05 0.03 0.16 0.05 0.02 0.02 0.01 0.01 0.11 0.40 0.76 0.60 0.31 0.29 0.09 0.34 0.35 0.26 0.39 0.19 0.20
0.34 0.36 0.48 0.53 0.61 0.66 0.82 0.75 0.54 0.72 1.14 1.36 1.07 1.10 1.87 1.14 1.22 0.70 0.55 0.60 0.38 0.22 0.27 0.32 0.10 0.03 0.02 0.04 0.07 0.02 0.02 0.00 0.00 0.01 0.11 0.42 0.88 0.65 0.32 0.70 0.40 0.54 0.36 0.47 0.57 0.36 0.29
0.30 0.35 0.39 0.37 0.43 0.54 0.74 0.57 0.50 0.63 0.90 1.09 1.01 1.22 2.36 1.70 0.57 0.58 0.69 0.55 0.35 0.19 0.25 0.29 0.14 0.06 0.05 0.04 0.02 0.01 0.04 0.00 0.00 0.00 0.06 0.38 0.48 0.54 0.34 0.57 0.56 0.24 0.22 0.47 0.78 0.64 0.21
0.30 0.35 0.33 0.32 0.39 0.47 0.59 0.59 0.62 0.70 0.74 0.92 0.81 0.52 0.54 0.60 0.34 0.35 0.74 0.64 0.49 0.45 0.30 0.26 0.16 0.06 0.04 0.04 0.02 0.01 0.02 0.01 0.00 0.00 0.07 0.41 0.67 0.78 0.35 0.11 0.40 0.36 0.22 0.34 0.52 0.41 0.34
0.33 0.34 0.31 0.32 0.33 0.41 0.50 0.62 0.69 0.99 1.32 0.87 0.67 0.27 0.10 0.03 0.02 0.16 0.68 0.84 0.59 0.52 0.40 0.19 0.08 0.03 0.05 0.02 0.00 0.00 0.00 0.01 0.01 0.01 0.06 0.32 0.82 0.91 0.56 0.19 0.14 0.30 0.40 0.39 0.39 0.36 0.43
0.27 0.30 0.32 0.27 0.30 0.36 0.43 0.57 0.82 1.18 1.62 1.06 0.66 0.16 0.09 0.09 0.04 0.12 0.43 0.65 0.50 0.45 0.29 0.09 0.07 0.11 0.07 0.01 0.00 0.00 0.00 0.00 0.04 0.04 0.16 0.26 0.47 0.69 0.43 0.32 0.24 0.50 0.47 0.43 0.29 0.26 0.33
0.25 0.31 0.35 0.28 0.25 0.28 0.30 0.38 0.50 0.71 0.98 0.86 0.49 0.28 0.21 0.12 0.04 0.06 0.20 0.40 0.41 0.37 0.36 0.08 0.10 0.10 0.05 0.02 0.03 0.03 0.08 0.02 0.03 0.07 0.07 0.10 0.21 0.42 0.36 0.40 0.46 0.36 0.41 0.32 0.34 0.32 0.29
0.28 0.30 0.33 0.28 0.23 0.23 0.23 0.34 0.49 0.61 0.84 0.52 0.26 0.21 0.18 0.09 0.03 0.03 0.15 0.33 0.45 0.46 0.51 0.22 0.06 0.05 0.05 0.05 0.12 0.11 0.17 0.19 0.08 0.04 0.01 0.01 0.12 0.18 0.10 0.06 0.09 0.01 0.04 0.16 0.17 0.19 0.10
0.25 0.28 0.28 0.28 0.21 0.23 0.29 0.36 0.44 0.53 0.53 0.36 0.33 0.17 0.14 0.11 0.06 0.02 0.04 0.15 0.42 0.42 0.49 0.32 0.12 0.05 0.12 0.18 0.15 0.12 0.13 0.09 0.07 0.09 0.02 0.00 0.08 0.21 0.03 0.01 0.00 0.00 0.00 0.00 0.00 0.00 0.00
0.24 0.26 0.26 0.26 0.23 0.18 0.23 0.29 0.25 0.33 0.45 0.34 0.40 0.24 0.21 0.11 0.03 0.01 0.02 0.05 0.29 0.48 0.52 0.35 0.28 0.10 0.15 0.31 0.21 0.15 0.03 0.00 0.00 0.01 0.01 0.01 0.05 0.14 0.09 0.04 0.00 0.00 0.00 0.00 0.00 0.00 0.00
0.22 0.24 0.28 0.25 0.21 0.17 0.16 0.23 0.26 0.26 0.48 0.39 0.29 0.22 0.21 0.13 0.03 0.00 0.00 0.01 0.17 0.40 0.53 0.44 0.51 0.27 0.19 0.33 0.25 0.10 0.02 0.01 0.00 0.00 0.00 0.00 0.01 0.02 0.03 0.03 0.00 0.00 0.00 0.00 0.00 0.00 0.00
0.23 0.25 0.27 0.23 0.19 0.18 0.15 0.18 0.22 0.19 0.36 0.47 0.26 0.27 0.24 0.17 0.05 0.01 0.01 0.01 0.05 0.25 0.50 0.43 0.36 0.14 0.10 0.14 0.09 0.05 0.02 0.00 0.00 0.00 0.00 0.00 0.00 0.00 0.00 0.00 0.00 0.00 0.00 0.00 0.00 0.00 0.00

GFSGBSN_prec_precacc24_033.txt.gz
Total_Precipitation_Accumulation
0.09 0.11 0.11 0.10 0.09 0.09 0.10 0.10 0.09 0.07 0.09 0.10 0.10 0.09 0.07 0.06 0.02 0.00 0.00 0.00 0.00 0.00 0.00 0.00 0.02 0.04 0.03 0.04 0.01 0.00 0.00 0.00 0.00 0.02 0.02 0.01 0.03 0.02 0.03 0.01 0.02 0.00 0.00 0.00 0.00 0.00 0.00
0.08 0.08 0.08 0.08 0.10 0.11 0.12 0.11 0.11 0.12 0.13 0.10 0.11 0.09 0.07 0.06 0.05 0.01 0.00 0.00 0.00 0.00 0.00 0.01 0.05 0.06 0.02 0.02 0.00 0.00 0.00 0.00 0.00 0.01 0.02 0.03 0.02 0.01 0.02 0.01 0.02 0.00 0.00 0.00 0.00 0.00 0.00
0.06 0.08 0.08 0.08 0.10 0.12 0.13 0.13 0.14 0.16 0.12 0.12 0.13 0.12 0.10 0.08 0.06 0.02 0.00 0.00 0.00 0.00 0.00 0.02 0.10 0.04 0.04 0.00 0.00 0.00 0.00 0.00 0.00 0.00 0.01 0.01 0.05 0.15 0.07 0.03 0.00 0.00 0.01 0.00 0.00 0.00 0.00
0.06 0.08 0.08 0.09 0.11 0.11 0.11 0.12 0.12 0.11 0.12 0.16 0.17 0.14 0.12 0.11 0.09 0.07 0.02 0.02 0.03 0.02 0.01 0.02 0.06 0.06 0.04 0.00 0.00 0.00 0.00 0.00 0.00 0.00 0.00 0.00 0.04 0.12 0.10 0.06 0.03 0.03 0.04 0.01 0.00 0.00 0.00
0.06 0.06 0.06 0.07 0.09 0.10 0.10 0.10 0.10 0.09 0.13 0.17 0.18 0.18 0.17 0.17 0.14 0.12 0.10 0.07 0.08 0.09 0.06 0.04 0.00 0.04 0.02 0.00 0.00 0.00 0.00 0.00 0.00 0.00 0.00 0.00 0.03 0.12 0.11 0.11 0.11 0.07 0.03 0.01 0.00 0.00 0.00
0.05 0.06 0.06 0.07 0.08 0.08 0.09 0.10 0.11 0.13 0.17 0.20 0.21 0.20 0.19 0.17 0.17 0.14 0.14 0.18 0.17 0.09 0.08 0.10 0.04 0.04 0.00 0.00 0.00 0.00 0.00 0.00 0.02 0.08 0.07 0.04 0.07 0.23 0.18 0.19 0.10 0.02 0.01 0.00 0.00 0.00 0.00
0.06 0.06 0.06 0.07 0.08 0.08 0.09 0.11 0.13 0.13 0.12 0.15 0.18 0.19 0.23 0.23 0.25 0.23 0.19 0.26 0.16 0.08 0.09 0.02 0.02 0.00 0.00 0.00 0.00 0.00 0.00 0.00 0.00 0.12 0.11 0.06 0.12 0.19 0.17 0.10 0.02 0.01 0.02 0.01 0.00 0.00 0.00
0.09 0.12 0.13 0.12 0.12 0.14 0.16 0.17 0.16 0.16 0.16 0.15 0.16 0.22 0.21 0.24 0.28 0.50 0.24 0.13 0.03 0.02 0.06 0.02 0.00 0.00 0.00 0.00 0.01 0.02 0.00 0.00 0.00 0.09 0.15 0.16 0.16 0.04 0.09 0.06 0.07 0.04 0.04 0.04 0.01 0.00 0.01
0.11 0.12 0.12 0.12 0.15 0.18 0.21 0.22 0.22 0.23 0.24 0.23 0.20 0.21 0.27 0.35 0.45 0.81 0.30 0.13 0.09 0.10 0.36 0.17 0.01 0.01 0.00 0.03 0.02 0.09 0.00 0.00 0.00 0.09 0.28 0.27 0.12 0.04 0.17 0.13 0.13 0.13 0.04 0.03 0.03 0.01 0.01
0.16 0.21 0.24 0.24 0.20 0.20 0.22 0.28 0.37 0.44 0.42 0.40 0.33 0.33 0.34 0.48 0.83 0.70 0.47 0.25 0.25 0.42 1.02 0.20 0.02 0.03 0.07 0.17 0.11 0.00 0.00 0.01 0.04 0.05 0.20 0.21 0.09 0.12 0.22 0.22 0.12 0.15 0.07 0.01 0.05 0.10 0.08
0.23 0.33 0.34 0.29 0.31 0.33 0.31 0.31 0.33 0.43 0.47 0.46 0.47 0.47 0.50 0.60 0.96 0.59 0.45 0.28 0.31 0.65 0.64 0.03 0.02 0.01 0.04 0.13 0.10 0.02 0.00 0.11 0.12 0.13 0.39 0.31 0.13 0.16 0.21 0.27 0.08 0.16 0.10 0.03 0.09 0.16 0.17
0.40 0.35 0.29 0.30 0.35 0.38 0.36 0.37 0.35 0.33 0.43 0.52 0.52 0.57 0.72 0.78 0.80 0.62 0.39 0.45 0.47 0.58 0.24 0.03 0.05 0.06 0.12 0.08 0.09 0.17 0.05 0.10 0.30 0.44 0.44 0.16 0.10 0.15 0.12 0.14 0.11 0.18 0.20 0.19 0.15 0.39 0.40
0.32 0.31 0.34 0.36 0.36 0.37 0.35 0.36 0.39 0.57 0.58 0.50 0.55 0.56 0.96 0.82 0.63 0.62 0.58 0.63 0.64 0.35 0.07 0.18 0.16 0.18 0.14 0.07 0.11 0.16 0.19 0.21 0.76 0.70 0.71 0.63 0.47 0.23 0.13 0.41 0.41 0.55 0.71 0.83 0.59 0.55 0.41
0.34 0.38 0.35 0.34 0.35 0.36 0.44 0.45 0.60 0.73 0.61 0.62 0.73 0.90 1.08 0.96 0.77 0.65 0.73 0.57 0.45 0.08 0.12 0.21 0.17 0.19 0.19 0.05 0.13 0.09 0.24 0.25 0.33 0.32 0.52 0.65 0.59 0.33 0.23 0.66 0.75 0.55 0.78 0.82 0.35 0.15 0.12
0.39 0.40 0.41 0.40 0.45 0.46 0.51 0.56 0.54 0.57 0.49 0.69 0.88 1.36 2.02 1.17 1.12 1.02 0.88 0.67 0.19 0.18 0.19 0.23 0.27 0.18 0.09 0.03 0.17 0.10 0.11 0.10 0.13 0.10 0.44 0.51 0.45 0.20 0.14 0.37 0.51 0.58 0.83 0.48 0.45 0.23 0.24
0.39 0.41 0.48 0.57 0.59 0.66 0.68 0.58 0.70 0.66 0.75 0.86 1.08 1.41 1.88 1.22 1.12 1.73 1.36 0.46 0.13 0.20 0.36 0.28 0.19 0.07 0.02 0.01 0.19 0.06 0.04 0.01 0.03 0.01 0.17 0.37 0.57 0.36 0.39 0.50 0.63 0.58 0.36 0.49 0.95 0.53 0.21
0.41 0.43 0.52 0.66 0.67 0.76 0.80 0.68 0.76 0.98 1.03 0.87 0.93 1.66 1.20 1.52 1.79 2.30 1.21 0.31 0.15 0.17 0.38 0.31 0.10 0.09 0.04 0.01 0.10 0.02 0.02 0.01 0.01 0.00 0.12 0.48 0.71 0.48 0.64 0.73 0.52 0.72 0.84 0.47 0.38 0.23 0.26
0.38 0.43 0.50 0.64 0.68 0.69 0.84 0.68 0.57 0.94 0.99 0.97 1.05 1.12 1.21 1.88 2.72 1.68 0.50 0.34 0.25 0.23 0.25 0.29 0.16 0.05 0.05 0.03 0.07 0.03 0.01 0.02 0.01 0.01 0.11 0.40 0.77 0.61 0.31 0.29 0.09 0.34 0.36 0.29 0.46 0.21 0.23
0.33 0.36 0.50 0.55 0.61 0.67 0.82 0.74 0.54 0.75 1.31 1.66 1.13 1.17 1.92 1.19 1.06 0.59 0.36 0.41 0.32 0.21 0.25 0.30 0.10 0.03 0.02 0.04 0.04 0.01 0.00 0.00 0.00 0.01 0.11 0.42 0.89 0.66 0.31 0.70 0.40 0.56 0.37 0.51 0.67 0.50 0.42
0.30 0.34 0.40 0.39 0.45 0.55 0.74 0.56 0.50 0.65 0.93 1.19 1.02 1.28 2.84 1.86 0.52 0.36 0.50 0.48 0.30 0.15 0.22 0.28 0.14 0.06 0.05 0.05 0.02 0.01 0.00 0.00 0.00 0.00 0.06 0.38 0.49 0.54 0.34 0.57 0.62 0.38 0.24 0.52 0.98 0.89 0.27
0.28 0.33 0.33 0.35 0.41 0.47 0.59 0.59 0.63 0.75 0.77 0.97 0.82 0.53 0.63 0.66 0.34 0.25 0.61 0.53 0.39 0.29 0.24 0.26 0.16 0.06 0.05 0.05 0.02 0.02 0.01 0.00 0.00 0.00 0.07 0.42 0.68 0.78 0.36 0.13 0.47 0.48 0.33 0.45 0.73 0.51 0.51
0.30 0.31 0.30 0.35 0.35 0.42 0.49 0.61 0.70 1.03 1.42 0.93 0.68 0.30 0.11 0.03 0.02 0.14 0.60 0.69 0.47 0.43 0.36 0.19 0.08 0.03 0.06 0.03 0.01 0.00 0.00 0.01 0.01 0.01 0.06 0.32 0.85 0.92 0.57 0.20 0.23 0.49 0.50 0.57 0.54 0.46 0.55
0.23 0.27 0.31 0.29 0.31 0.36 0.42 0.56 0.82 1.20 1.74 1.11 0.70 0.30 0.13 0.11 0.05 0.12 0.41 0.59 0.42 0.40 0.24 0.08 0.07 0.12 0.09 0.02 0.00 0.00 0.00 0.00 0.04 0.04 0.16 0.29 0.52 0.77 0.46 0.35 0.35 0.69 0.61 0.51 0.33 0.32 0.40
0.21 0.29 0.35 0.30 0.25 0.28 0.29 0.37 0.50 0.71 1.07 0.96 0.64 0.43 0.29 0.17 0.06 0.07 0.20 0.40 0.39 0.36 0.33 0.09 0.10 0.10 0.05 0.02 0.03 0.03 0.08 0.02 0.03 0.07 0.07 0.10 0.27 0.52 0.41 0.49 0.71 0.51 0.47 0.35 0.35 0.33 0.30
0.24 0.28 0.31 0.28 0.24 0.24 0.23 0.34 0.48 0.60 0.87 0.56 0.40 0.36 0.25 0.12 0.04 0.04 0.16 0.35 0.48 0.46 0.50 0.25 0.08 0.06 0.08 0.08 0.13 0.11 0.16 0.19 0.08 0.04 0.01 0.01 0.15 0.26 0.16 0.14 0.16 0.01 0.04 0.17 0.17 0.19 0.10
0.23 0.25 0.26 0.28 0.22 0.23 0.29 0.35 0.44 0.52 0.54 0.37 0.35 0.30 0.37 0.13 0.07 0.03 0.05 0.16 0.44 0.44 0.51 0.36 0.17 0.08 0.16 0.21 0.17 0.11 0.11 0.09 0.07 0.09 0.02 0.00 0.09 0.25 0.06 0.05 0.01 0.00 0.00 0.00 0.00 0.00 0.00
0.19 0.22 0.22 0.25 0.24 0.18 0.23 0.28 0.25 0.33 0.45 0.34 0.42 0.32 0.27 0.12 0.03 0.01 0.02 0.05 0.30 0.50 0.54 0.38 0.34 0.13 0.18 0.34 0.22 0.15 0.03 0.00 0.00 0.01 0.01 0.01 0.06 0.15 0.11 0.06 0.00 0.00 0.00 0.00 0.00 0.00 0.02
0.16 0.19 0.23 0.23 0.21 0.18 0.16 0.22 0.26 0.26 0.49 0.39 0.33 0.28 0.25 0.13 0.03 0.00 0.00 0.02 0.17 0.40 0.56 0.50 0.57 0.33 0.27 0.35 0.24 0.11 0.02 0.01 0.00 0.00 0.00 0.00 0.01 0.02 0.04 0.03 0.00 0.00 0.00 0.00 0.00 0.00 0.00
0.18 0.17 0.21 0.21 0.19 0.19 0.15 0.17 0.22 0.19 0.38 0.48 0.31 0.28 0.25 0.17 0.05 0.01 0.01 0.01 0.05 0.26 0.55 0.53 0.45 0.25 0.16 0.15 0.09 0.05 0.02 0.00 0.00 0.00 0.00 0.00 0.00 0.00 0.00 0.00 0.00 0.00 0.00 0.00 0.00 0.00 0.00

GFSGBSN_prec_precacc24_036.txt.gz
Total_Precipitation_Accumulation
0.08 0.09 0.10 0.10 0.09 0.08 0.09 0.10 0.09 0.07 0.09 0.10 0.11 0.11 0.11 0.09 0.08 0.07 0.01 0.00 0.00 0.00 0.00 0.00 0.02 0.02 0.02 0.03 0.01 0.00 0.00 0.00 0.00 0.03 0.02 0.00 0.00 0.01 0.01 0.01 0.02 0.00 0.00 0.00 0.00 0.00 0.00
0.07 0.07 0.07 0.08 0.09 0.11 0.11 0.11 0.11 0.12 0.13 0.10 0.11 0.10 0.09 0.09 0.08 0.08 0.03 0.00 0.00 0.00 0.00 0.00 0.04 0.04 0.02 0.01 0.00 0.00 0.00 0.00 0.00 0.01 0.02 0.03 0.01 0.00 0.01 0.00 0.02 0.00 0.00 0.00 0.00 0.00 0.00
0.06 0.07 0.07 0.07 0.10 0.12 0.12 0.12 0.14 0.16 0.13 0.13 0.13 0.12 0.11 0.11 0.11 0.10 0.07 0.01 0.00 0.00 0.00 0.01 0.05 0.03 0.03 0.00 0.00 0.00 0.00 0.00 0.00 0.00 0.01 0.02 0.03 0.10 0.06 0.01 0.00 0.00 0.01 0.00 0.00 0.00 0.00
0.05 0.06 0.07 0.08 0.11 0.11 0.11 0.12 0.13 0.11 0.12 0.16 0.17 0.15 0.13 0.14 0.14 0.14 0.12 0.04 0.02 0.02 0.00 0.00 0.02 0.04 0.03 0.00 0.00 0.00 0.00 0.00 0.00 0.00 0.01 0.00 0.01 0.05 0.08 0.05 0.02 0.02 0.03 0.01 0.00 0.00 0.00
0.05 0.05 0.06 0.06 0.08 0.09 0.10 0.10 0.09 0.09 0.13 0.18 0.20 0.18 0.18 0.18 0.18 0.19 0.15 0.13 0.08 0.07 0.05 0.04 0.00 0.03 0.01 0.00 0.00 0.00 0.00 0.00 0.00 0.00 0.00 0.00 0.02 0.05 0.08 0.10 0.09 0.06 0.02 0.01 0.00 0.00 0.00
0.05 0.06 0.06 0.06 0.07 0.08 0.09 0.10 0.11 0.12 0.17 0.21 0.22 0.20 0.18 0.17 0.20 0.23 0.30 0.29 0.17 0.10 0.08 0.12 0.03 0.03 0.00 0.00 0.00 0.00 0.00 0.00 0.00 0.01 0.01 0.02 0.04 0.06 0.08 0.16 0.08 0.02 0.01 0.00 0.00 0.00 0.00
0.06 0.05 0.05 0.06 0.07 0.08 0.09 0.12 0.13 0.13 0.13 0.16 0.20 0.21 0.24 0.23 0.26 0.34 0.70 0.55 0.10 0.05 0.08 0.02 0.02 0.00 0.00 0.00 0.00 0.00 0.00 0.00 0.00 0.03 0.04 0.03 0.07 0.04 0.04 0.07 0.02 0.01 0.02 0.01 0.00 0.00 0.00
0.08 0.11 0.12 0.12 0.11 0.14 0.16 0.17 0.18 0.18 0.18 0.19 0.21 0.22 0.21 0.23 0.28 0.61 0.79 0.41 0.02 0.00 0.03 0.01 0.00 0.00 0.00 0.00 0.00 0.00 0.00 0.00 0.00 0.01 0.03 0.13 0.08 0.00 0.02 0.04 0.07 0.04 0.05 0.04 0.01 0.00 0.01
0.11 0.11 0.12 0.11 0.15 0.17 0.21 0.22 0.24 0.26 0.29 0.29 0.23 0.22 0.28 0.35 0.44 0.86 0.63 0.28 0.03 0.06 0.26 0.14 0.01 0.01 0.00 0.03 0.01 0.02 0.00 0.00 0.00 0.01 0.06 0.23 0.08 0.02 0.08 0.10 0.12 0.13 0.04 0.03 0.03 0.01 0.01
0.16 0.20 0.23 0.23 0.19 0.19 0.23 0.28 0.39 0.47 0.45 0.42 0.34 0.34 0.34 0.47 0.81 0.69 0.64 0.27 0.18 0.31 0.70 0.15 0.01 0.02 0.06 0.13 0.10 0.00 0.00 0.01 0.03 0.01 0.08 0.19 0.04 0.09 0.15 0.20 0.12 0.15 0.07 0.01 0.05 0.10 0.07
0.24 0.33 0.34 0.29 0.30 0.31 0.30 0.30 0.33 0.43 0.49 0.53 0.60 0.56 0.54 0.64 0.95 0.62 0.54 0.33 0.30 0.48 0.50 0.02 0.02 0.01 0.04 0.12 0.08 0.02 0.00 0.11 0.09 0.09 0.22 0.25 0.04 0.08 0.18 0.25 0.08 0.16 0.10 0.03 0.09 0.16 0.17
0.39 0.35 0.30 0.31 0.34 0.37 0.35 0.35 0.34 0.31 0.48 0.70 0.66 0.63 0.77 0.80 0.81 0.63 0.41 0.57 0.58 0.43 0.19 0.02 0.02 0.05 0.11 0.08 0.07 0.10 0.04 0.10 0.20 0.42 0.42 0.12 0.04 0.08 0.10 0.13 0.10 0.17 0.20 0.19 0.15 0.40 0.42
0.31 0.32 0.36 0.37 0.36 0.36 0.35 0.36 0.37 0.54 0.63 0.59 0.64 0.67 1.00 0.83 0.63 0.62 0.82 0.84 0.78 0.29 0.03 0.12 0.09 0.14 0.13 0.08 0.07 0.12 0.19 0.20 0.40 0.62 0.62 0.43 0.32 0.08 0.12 0.37 0.37 0.55 0.71 0.81 0.59 0.58 0.42
0.32 0.37 0.36 0.35 0.35 0.35 0.45 0.44 0.58 0.70 0.64 0.67 0.87 0.92 1.13 0.96 0.78 0.75 1.09 0.83 0.42 0.06 0.06 0.14 0.15 0.18 0.19 0.05 0.06 0.07 0.25 0.24 0.14 0.31 0.50 0.35 0.43 0.18 0.21 0.61 0.70 0.53 0.78 0.82 0.34 0.15 0.12
0.36 0.39 0.41 0.42 0.45 0.47 0.51 0.55 0.51 0.55 0.54 0.86 0.89 1.36 2.06 1.18 1.14 1.19 1.14 0.78 0.16 0.11 0.11 0.15 0.26 0.17 0.07 0.03 0.04 0.08 0.11 0.09 0.03 0.09 0.41 0.33 0.35 0.15 0.13 0.33 0.50 0.54 0.82 0.48 0.47 0.24 0.25
0.35 0.40 0.48 0.58 0.59 0.67 0.68 0.58 0.67 0.63 0.80 1.01 1.13 1.43 1.95 1.27 1.10 1.88 1.48 0.52 0.08 0.11 0.19 0.26 0.19 0.06 0.02 0.01 0.06 0.06 0.04 0.00 0.00 0.01 0.16 0.33 0.53 0.33 0.38 0.43 0.58 0.56 0.35 0.50 0.98 0.54 0.21
0.36 0.42 0.52 0.66 0.65 0.78 0.81 0.69 0.73 0.96 1.06 0.98 0.98 1.69 1.25 1.56 1.72 2.42 1.47 0.32 0.10 0.10 0.22 0.30 0.10 0.09 0.04 0.01 0.01 0.01 0.01 0.00 0.00 0.00 0.12 0.48 0.70 0.47 0.64 0.69 0.47 0.71 0.83 0.48 0.42 0.23 0.27
0.29 0.40 0.47 0.62 0.66 0.70 0.85 0.68 0.54 0.93 1.03 1.06 1.10 1.26 1.22 1.85 2.62 1.72 0.64 0.24 0.15 0.15 0.23 0.28 0.15 0.05 0.05 0.02 0.01 0.01 0.00 0.00 0.00 0.01 0.11 0.40 0.77 0.60 0.31 0.29 0.09 0.34 0.36 0.30 0.55 0.24 0.29
0.23 0.31 0.47 0.52 0.60 0.67 0.83 0.73 0.51 0.75 1.48 1.87 1.22 1.40 1.93 1.16 1.04 0.55 0.37 0.25 0.23 0.19 0.24 0.27 0.10 0.03 0.02 0.04 0.04 0.00 0.00 0.00 0.00 0.01 0.11 0.42 0.90 0.66 0.31 0.70 0.40 0.56 0.37 0.51 0.72 0.67 0.60
0.19 0.26 0.36 0.36 0.44 0.55 0.74 0.55 0.48 0.66 0.99 1.25 1.16 1.37 2.82 1.89 0.47 0.17 0.26 0.30 0.26 0.14 0.21 0.23 0.13 0.06 0.05 0.05 0.02 0.01 0.00 0.00 0.00 0.00 0.06 0.38 0.49 0.54 0.34 0.57 0.63 0.44 0.28 0.57 1.18 1.16 0.34
0.18 0.25 0.29 0.32 0.40 0.47 0.59 0.58 0.62 0.77 0.74 0.99 0.84 0.54 0.64 0.65 0.31 0.11 0.35 0.33 0.34 0.24 0.19 0.22 0.15 0.06 0.05 0.05 0.02 0.02 0.00 0.00 0.00 0.00 0.07 0.42 0.69 0.78 0.36 0.13 0.47 0.50 0.39 0.54 0.99 0.64 0.63
0.16 0.21 0.26 0.32 0.33 0.40 0.49 0.61 0.69 1.04 1.44 1.07 0.71 0.31 0.13 0.06 0.03 0.08 0.41 0.42 0.36 0.31 0.24 0.17 0.08 0.03 0.06 0.03 0.01 0.00 0.00 0.01 0.01 0.01 0.06 0.33 0.86 0.93 0.57 0.21 0.25 0.58 0.56 0.67 0.63 0.53 0.61
0.14 0.18 0.27 0.27 0.27 0.33 0.42 0.56 0.81 1.19 1.76 1.15 0.70 0.33 0.15 0.12 0.05 0.09 0.29 0.39 0.31 0.29 0.14 0.07 0.07 0.12 0.09 0.02 0.00 0.00 0.00 0.00 0.04 0.04 0.17 0.29 0.55 0.81 0.47 0.37 0.37 0.78 0.73 0.57 0.35 0.33 0.41
0.13 0.21 0.30 0.26 0.20 0.26 0.29 0.37 0.49 0.70 1.09 1.00 0.69 0.52 0.36 0.18 0.06 0.06 0.18 0.33 0.32 0.31 0.27 0.08 0.10 0.10 0.05 0.02 0.03 0.03 0.08 0.02 0.03 0.07 0.07 0.11 0.29 0.56 0.43 0.50 0.78 0.57 0.51 0.35 0.35 0.33 0.30
0.13 0.18 0.25 0.23 0.17 0.19 0.23 0.34 0.48 0.59 0.85 0.57 0.53 0.48 0.33 0.14 0.06 0.04 0.16 0.32 0.41 0.43 0.46 0.25 0.09 0.07 0.08 0.10 0.15 0.11 0.16 0.17 0.08 0.04 0.01 0.00 0.13 0.28 0.18 0.16 0.17 0.02 0.05 0.17 0.20 0.25 0.13
0.12 0.14 0.18 0.18 0.13 0.18 0.29 0.35 0.43 0.51 0.50 0.36 0.43 0.43 0.44 0.15 0.07 0.03 0.05 0.15 0.39 0.42 0.50 0.38 0.22 0.11 0.16 0.25 0.19 0.11 0.11 0.08 0.07 0.08 0.02 0.00 0.08 0.25 0.08 0.08 0.01 0.00 0.00 0.00 0.01 0.10 0.16
0.13 0.13 0.14 0.16 0.13 0.12 0.23 0.28 0.25 0.33 0.42 0.33 0.44 0.44 0.32 0.12 0.03 0.01 0.02 0.05 0.28 0.47 0.52 0.41 0.35 0.15 0.18 0.37 0.22 0.12 0.02 0.00 0.00 0.01 0.01 0.01 0.06 0.16 0.10 0.07 0.00 0.00 0.00 0.00 0.00 0.09 0.10
0.12 0.12 0.12 0.16 0.12 0.14 0.16 0.22 0.25 0.26 0.47 0.37 0.34 0.34 0.29 0.14 0.03 0.00 0.00 0.02 0.17 0.39 0.54 0.50 0.58 0.33 0.27 0.36 0.26 0.08 0.01 0.00 0.00 0.00 0.00 0.00 0.01 0.02 0.04 0.02 0.00 0.00 0.00 0.00 0.00 0.00 0.00
0.12 0.10 0.11 0.15 0.12 0.15 0.14 0.17 0.21 0.19 0.35 0.45 0.32 0.30 0.28 0.18 0.05 0.01 0.01 0.01 0.05 0.26 0.55 0.54 0.49 0.28 0.20 0.16 0.09 0.05 0.02 0.00 0.00 0.00 0.00 0.00 0.00 0.00 0.00 0.00 0.00 0.00 0.00 0.00 0.00 0.00 0.00

GFSGBSN_prec_precacc24_039.txt.gz
Total_Precipitation_Accumulation
0.08 0.08 0.09 0.09 0.08 0.08 0.08 0.10 0.09 0.07 0.09 0.10 0.11 0.11 0.11 0.10 0.09 0.10 0.09 0.06 0.00 0.00 0.00 0.00 0.01 0.00 0.00 0.01 0.00 0.00 0.00 0.00 0.00 0.09 0.06 0.01 0.00 0.00 0.00 0.00 0.00 0.00 0.00 0.00 0.00 0.00 0.00
0.07 0.06 0.06 0.07 0.09 0.11 0.11 0.10 0.11 0.12 0.13 0.10 0.11 0.11 0.10 0.09 0.09 0.10 0.09 0.05 0.01 0.00 0.00 0.00 0.01 0.03 0.01 0.01 0.00 0.00 0.00 0.00 0.00 0.03 0.07 0.03 0.01 0.00 0.00 0.00 0.00 0.00 0.00 0.00 0.00 0.00 0.00
0.05 0.07 0.06 0.06 0.09 0.12 0.12 0.12 0.14 0.16 0.13 0.13 0.13 0.13 0.12 0.11 0.12 0.12 0.14 0.13 0.07 0.00 0.00 0.00 0.01 0.01 0.02 0.00 0.00 0.00 0.00 0.00 0.00 0.00 0.03 0.03 0.03 0.05 0.03 0.01 0.00 0.00 0.01 0.00 0.00 0.00 0.00
0.05 0.07 0.06 0.07 0.10 0.11 0.10 0.12 0.13 0.11 0.12 0.16 0.18 0.15 0.13 0.14 0.15 0.16 0.18 0.16 0.14 0.02 0.00 0.00 0.01 0.02 0.02 0.00 0.00 0.00 0.00 0.00 0.00 0.00 0.02 0.01 0.01 0.02 0.01 0.02 0.01 0.02 0.02 0.00 0.00 0.00 0.00
0.05 0.05 0.05 0.06 0.07 0.09 0.10 0.10 0.09 0.09 0.13 0.18 0.20 0.18 0.18 0.18 0.19 0.21 0.24 0.29 0.34 0.08 0.04 0.03 0.00 0.01 0.01 0.00 0.00 0.00 0.00 0.00 0.00 0.00 0.00 0.01 0.02 0.02 0.01 0.04 0.04 0.04 0.01 0.00 0.00 0.00 0.00
0.05 0.05 0.05 0.06 0.07 0.08 0.09 0.09 0.11 0.12 0.17 0.20 0.22 0.21 0.21 0.19 0.22 0.25 0.37 0.51 0.67 0.19 0.10 0.12 0.03 0.02 0.00 0.00 0.00 0.00 0.00 0.00 0.00 0.00 0.00 0.00 0.01 0.02 0.02 0.04 0.06 0.00 0.00 0.00 0.00 0.00 0.00
0.05 0.04 0.05 0.07 0.08 0.08 0.10 0.12 0.13 0.14 0.15 0.17 0.22 0.27 0.27 0.25 0.29 0.36 0.75 1.02 0.86 0.30 0.09 0.02 0.02 0.00 0.00 0.00 0.00 0.00 0.00 0.00 0.00 0.00 0.00 0.00 0.02 0.01 0.00 0.00 0.01 0.01 0.02 0.01 0.00 0.00 0.00
0.08 0.11 0.12 0.12 0.11 0.16 0.18 0.17 0.17 0.18 0.22 0.22 0.25 0.26 0.21 0.23 0.27 0.59 0.85 0.95 0.37 0.06 0.02 0.00 0.00 0.00 0.00 0.00 0.00 0.00 0.00 0.00 0.00 0.01 0.00 0.03 0.03 0.00 0.00 0.00 0.03 0.02 0.04 0.04 0.01 0.00 0.01
0.11 0.12 0.12 0.12 0.16 0.19 0.22 0.21 0.23 0.28 0.31 0.30 0.27 0.26 0.29 0.38 0.45 0.84 0.63 0.42 0.22 0.17 0.18 0.06 0.00 0.00 0.00 0.02 0.01 0.00 0.00 0.00 0.00 0.00 0.01 0.02 0.01 0.01 0.01 0.00 0.03 0.11 0.04 0.03 0.03 0.01 0.01
0.15 0.20 0.23 0.23 0.20 0.20 0.23 0.27 0.39 0.49 0.45 0.44 0.40 0.42 0.42 0.53 0.85 0.68 0.62 0.25 0.38 0.36 0.37 0.06 0.00 0.01 0.01 0.06 0.06 0.00 0.00 0.00 0.02 0.01 0.02 0.05 0.01 0.07 0.06 0.02 0.02 0.10 0.07 0.01 0.05 0.10 0.07
0.12 0.28 0.33 0.29 0.32 0.33 0.30 0.31 0.34 0.42 0.46 0.54 0.69 0.78 0.69 0.76 1.03 0.63 0.57 0.34 0.49 0.62 0.36 0.01 0.01 0.01 0.03 0.06 0.05 0.01 0.00 0.10 0.08 0.03 0.08 0.10 0.00 0.04 0.08 0.02 0.02 0.08 0.10 0.03 0.08 0.16 0.17
0.08 0.20 0.26 0.30 0.35 0.38 0.36 0.36 0.33 0.29 0.46 0.69 0.69 0.67 0.81 0.85 0.85 0.63 0.49 0.61 0.85 0.62 0.19 0.02 0.01 0.05 0.08 0.06 0.05 0.05 0.03 0.09 0.17 0.32 0.31 0.07 0.02 0.06 0.02 0.02 0.03 0.12 0.19 0.18 0.15 0.40 0.42
0.11 0.19 0.30 0.37 0.36 0.37 0.37 0.36 0.36 0.53 0.62 0.58 0.64 0.69 1.04 0.89 0.63 0.60 1.08 0.96 1.04 0.36 0.03 0.06 0.03 0.07 0.05 0.06 0.06 0.09 0.15 0.17 0.35 0.43 0.44 0.29 0.10 0.03 0.04 0.16 0.13 0.37 0.66 0.77 0.57 0.58 0.42
0.15 0.26 0.30 0.34 0.34 0.36 0.46 0.43 0.57 0.69 0.62 0.66 0.88 0.89 1.14 0.98 0.78 0.75 1.43 0.91 0.49 0.07 0.02 0.05 0.07 0.09 0.09 0.04 0.06 0.05 0.20 0.21 0.10 0.21 0.35 0.24 0.15 0.06 0.09 0.31 0.39 0.44 0.76 0.81 0.33 0.14 0.12
0.19 0.28 0.37 0.41 0.44 0.46 0.51 0.53 0.50 0.54 0.53 0.86 0.88 1.31 2.07 1.18 1.18 1.24 1.20 0.82 0.17 0.07 0.07 0.08 0.17 0.15 0.07 0.02 0.03 0.04 0.08 0.08 0.01 0.04 0.27 0.23 0.09 0.04 0.04 0.22 0.41 0.47 0.82 0.48 0.48 0.25 0.25
0.21 0.26 0.41 0.54 0.56 0.66 0.66 0.56 0.66 0.62 0.76 1.00 1.16 1.45 2.01 1.32 1.14 1.86 1.38 0.55 0.05 0.07 0.12 0.15 0.14 0.06 0.02 0.01 0.03 0.03 0.02 0.00 0.00 0.00 0.06 0.15 0.18 0.13 0.24 0.37 0.49 0.52 0.35 0.51 1.00 0.54 0.21
0.19 0.22 0.36 0.59 0.62 0.77 0.78 0.66 0.71 0.94 1.02 0.97 0.99 1.87 1.37 1.63 1.68 2.30 1.47 0.32 0.08 0.08 0.16 0.20 0.09 0.09 0.04 0.00 0.00 0.00 0.01 0.00 0.00 0.00 0.04 0.24 0.31 0.21 0.54 0.64 0.41 0.62 0.78 0.48 0.42 0.24 0.27
0.14 0.20 0.31 0.55 0.63 0.67 0.81 0.66 0.52 0.91 1.02 1.06 1.15 1.50 1.28 1.86 2.56 1.78 0.72 0.18 0.12 0.11 0.16 0.22 0.15 0.05 0.05 0.02 0.00 0.01 0.00 0.00 0.00 0.00 0.07 0.31 0.60 0.46 0.26 0.29 0.08 0.33 0.34 0.31 0.56 0.24 0.32
0.13 0.19 0.30 0.45 0.57 0.63 0.77 0.71 0.50 0.73 1.58 1.96 1.42 1.57 1.92 1.17 1.03 0.60 0.38 0.19 0.17 0.16 0.22 0.26 0.10 0.03 0.02 0.04 0.04 0.00 0.00 0.00 0.00 0.00 0.10 0.41 0.87 0.61 0.26 0.69 0.38 0.54 0.37 0.51 0.74 0.77 0.68
0.13 0.15 0.23 0.29 0.40 0.49 0.65 0.54 0.48 0.65 1.00 1.38 1.34 1.45 2.77 1.81 0.45 0.09 0.19 0.20 0.19 0.14 0.21 0.23 0.11 0.05 0.05 0.05 0.02 0.01 0.00 0.00 0.00 0.00 0.06 0.38 0.49 0.54 0.33 0.56 0.63 0.43 0.28 0.59 1.35 1.36 0.37
0.13 0.14 0.17 0.24 0.36 0.38 0.44 0.57 0.62 0.76 0.72 1.00 0.86 0.55 0.64 0.63 0.30 0.05 0.17 0.19 0.26 0.22 0.18 0.19 0.12 0.06 0.05 0.05 0.02 0.02 0.00 0.00 0.00 0.00 0.07 0.42 0.69 0.78 0.36 0.13 0.47 0.50 0.39 0.55 1.08 0.77 0.79
0.11 0.11 0.14 0.24 0.30 0.26 0.30 0.58 0.69 1.03 1.41 1.02 0.72 0.32 0.14 0.06 0.03 0.05 0.19 0.21 0.30 0.27 0.24 0.14 0.06 0.03 0.06 0.03 0.01 0.00 0.00 0.00 0.01 0.01 0.06 0.33 0.87 0.94 0.57 0.21 0.25 0.58 0.56 0.70 0.68 0.58 0.68
0.10 0.10 0.14 0.17 0.22 0.17 0.23 0.51 0.81 1.18 1.74 1.14 0.70 0.33 0.16 0.13 0.05 0.07 0.12 0.21 0.21 0.23 0.11 0.05 0.06 0.10 0.08 0.02 0.00 0.00 0.00 0.00 0.04 0.05 0.17 0.30 0.55 0.82 0.48 0.37 0.37 0.79 0.74 0.59 0.36 0.35 0.42
0.09 0.12 0.14 0.12 0.14 0.10 0.14 0.32 0.49 0.69 1.09 1.02 0.71 0.56 0.38 0.19 0.07 0.04 0.07 0.20 0.20 0.23 0.19 0.06 0.09 0.07 0.05 0.02 0.03 0.02 0.07 0.02 0.03 0.08 0.08 0.11 0.29 0.58 0.44 0.51 0.78 0.58 0.51 0.35 0.36 0.35 0.30
0.10 0.12 0.14 0.11 0.13 0.06 0.11 0.31 0.48 0.58 0.85 0.58 0.57 0.52 0.36 0.15 0.06 0.04 0.08 0.23 0.30 0.34 0.37 0.21 0.08 0.06 0.08 0.10 0.15 0.10 0.11 0.12 0.06 0.01 0.01 0.01 0.13 0.31 0.20 0.17 0.18 0.02 0.05 0.17 0.23 0.32 0.17
0.09 0.11 0.12 0.10 0.09 0.06 0.11 0.27 0.43 0.51 0.49 0.35 0.48 0.46 0.47 0.17 0.08 0.03 0.05 0.13 0.30 0.37 0.44 0.35 0.23 0.12 0.17 0.25 0.20 0.12 0.07 0.05 0.06 0.05 0.01 0.00 0.06 0.27 0.10 0.12 0.01 0.00 0.00 0.00 0.03 0.19 0.25
0.09 0.10 0.09 0.09 0.08 0.06 0.09 0.21 0.24 0.33 0.40 0.32 0.46 0.48 0.32 0.14 0.04 0.01 0.03 0.05 0.19 0.40 0.50 0.41 0.36 0.16 0.20 0.39 0.24 0.13 0.02 0.00 0.00 0.01 0.00 0.01 0.05 0.11 0.07 0.12 0.00 0.00 0.00 0.00 0.00 0.10 0.11
0.09 0.08 0.08 0.08 0.07 0.06 0.08 0.18 0.24 0.26 0.46 0.36 0.34 0.35 0.30 0.15 0.04 0.00 0.00 0.02 0.11 0.31 0.50 0.50 0.52 0.31 0.27 0.36 0.27 0.08 0.02 0.00 0.00 0.00 0.00 0.00 0.01 0.02 0.04 0.05 0.00 0.00 0.00 0.00 0.00 0.00 0.00
0.08 0.06 0.06 0.06 0.06 0.06 0.05 0.13 0.20 0.19 0.35 0.43 0.30 0.28 0.31 0.19 0.06 0.01 0.01 0.01 0.04 0.24 0.48 0.52 0.47 0.26 0.18 0.13 0.09 0.04 0.01 0.01 0.00 0.00 0.00 0.00 0.00 0.00 0.00 0.00 0.00 0.00 0.00 0.00 0.00 0.00 0.00

GFSGBSN_prec_precacc24_042.txt.gz
Total_Precipitation_Accumulation
0.07 0.08 0.09 0.09 0.08 0.08 0.08 0.09 0.08 0.07 0.09 0.10 0.11 0.12 0.11 0.10 0.09 0.10 0.09 0.11 0.10 0.05 0.00 0.00 0.01 0.00 0.00 0.01 0.00 0.00 0.00 0.00 0.03 0.17 0.10 0.01 0.00 0.00 0.00 0.00 0.00 0.00 0.00 0.00 0.00 0.00 0.00
0.06 0.05 0.06 0.07 0.08 0.10 0.10 0.10 0.10 0.12 0.13 0.11 0.12 0.11 0.10 0.10 0.10 0.10 0.09 0.08 0.14 0.11 0.02 0.00 0.00 0.02 0.01 0.00 0.00 0.00 0.00 0.00 0.00 0.06 0.15 0.06 0.01 0.00 0.00 0.00 0.00 0.00 0.00 0.00 0.00 0.00 0.00
0.05 0.07 0.06 0.06 0.09 0.12 0.12 0.12 0.14 0.15 0.13 0.13 0.13 0.13 0.12 0.12 0.12 0.13 0.14 0.16 0.16 0.14 0.04 0.00 0.01 0.01 0.01 0.00 0.00 0.00 0.00 0.00 0.00 0.01 0.12 0.08 0.03 0.05 0.03 0.01 0.00 0.00 0.00 0.00 0.00 0.00 0.00
0.06 0.07 0.06 0.07 0.10 0.11 0.11 0.13 0.13 0.12 0.12 0.16 0.18 0.15 0.13 0.14 0.15 0.17 0.19 0.18 0.27 0.24 0.08 0.00 0.01 0.01 0.01 0.00 0.00 0.00 0.00 0.00 0.00 0.00 0.05 0.05 0.02 0.02 0.01 0.01 0.00 0.01 0.00 0.00 0.00 0.00 0.00
0.06 0.05 0.05 0.06 0.07 0.08 0.10 0.10 0.10 0.10 0.14 0.19 0.20 0.18 0.18 0.19 0.21 0.22 0.24 0.31 0.44 0.41 0.22 0.06 0.00 0.01 0.00 0.00 0.00 0.00 0.00 0.00 0.00 0.00 0.01 0.01 0.01 0.01 0.00 0.02 0.01 0.01 0.00 0.00 0.00 0.00 0.00
0.05 0.05 0.05 0.07 0.07 0.09 0.11 0.11 0.13 0.12 0.18 0.22 0.23 0.22 0.24 0.23 0.27 0.30 0.39 0.52 0.78 0.74 0.42 0.17 0.03 0.01 0.00 0.00 0.00 0.00 0.00 0.00 0.00 0.00 0.01 0.03 0.01 0.00 0.00 0.02 0.01 0.00 0.00 0.00 0.00 0.00 0.00
0.03 0.04 0.06 0.08 0.08 0.10 0.13 0.16 0.14 0.14 0.16 0.20 0.25 0.28 0.33 0.27 0.29 0.39 0.77 1.02 1.10 1.16 0.50 0.08 0.02 0.00 0.00 0.00 0.00 0.00 0.00 0.00 0.00 0.01 0.00 0.00 0.00 0.00 0.00 0.00 0.00 0.00 0.00 0.00 0.00 0.00 0.00
0.03 0.05 0.10 0.12 0.13 0.18 0.21 0.21 0.18 0.19 0.24 0.25 0.26 0.27 0.25 0.25 0.27 0.59 0.86 0.95 0.63 0.52 0.31 0.07 0.00 0.00 0.00 0.00 0.00 0.00 0.00 0.00 0.00 0.00 0.00 0.01 0.01 0.00 0.00 0.00 0.00 0.00 0.00 0.00 0.00 0.00 0.01
0.04 0.05 0.07 0.11 0.17 0.21 0.25 0.23 0.25 0.30 0.33 0.30 0.27 0.29 0.35 0.47 0.46 0.85 0.64 0.42 0.37 0.57 0.36 0.10 0.00 0.00 0.00 0.01 0.01 0.00 0.00 0.00 0.00 0.00 0.00 0.00 0.00 0.00 0.00 0.00 0.00 0.00 0.00 0.00 0.00 0.00 0.01
0.05 0.05 0.07 0.11 0.19 0.20 0.23 0.28 0.39 0.51 0.45 0.42 0.40 0.45 0.55 0.68 0.98 0.72 0.63 0.25 0.47 0.76 0.46 0.12 0.03 0.01 0.01 0.03 0.02 0.00 0.00 0.00 0.02 0.01 0.01 0.03 0.00 0.00 0.00 0.00 0.00 0.00 0.00 0.00 0.01 0.05 0.06
0.06 0.06 0.09 0.12 0.26 0.31 0.30 0.31 0.34 0.41 0.45 0.52 0.69 0.78 0.72 0.84 1.21 0.68 0.61 0.37 0.60 0.88 0.42 0.07 0.02 0.01 0.03 0.02 0.01 0.00 0.00 0.06 0.07 0.01 0.04 0.06 0.00 0.00 0.00 0.00 0.00 0.00 0.00 0.00 0.01 0.06 0.14
0.05 0.10 0.16 0.18 0.22 0.30 0.34 0.35 0.33 0.26 0.44 0.68 0.68 0.66 0.82 0.87 0.90 0.64 0.59 0.71 0.97 0.90 0.36 0.10 0.02 0.05 0.07 0.04 0.03 0.02 0.02 0.07 0.14 0.26 0.26 0.03 0.00 0.01 0.00 0.00 0.00 0.01 0.03 0.05 0.08 0.35 0.40
0.08 0.16 0.19 0.19 0.19 0.24 0.33 0.36 0.35 0.50 0.59 0.56 0.63 0.67 1.04 0.92 0.69 0.65 1.19 1.01 1.10 0.48 0.13 0.03 0.02 0.05 0.03 0.03 0.04 0.04 0.11 0.15 0.31 0.39 0.41 0.23 0.05 0.00 0.01 0.04 0.02 0.07 0.25 0.41 0.38 0.51 0.41
0.11 0.18 0.20 0.21 0.22 0.24 0.42 0.42 0.56 0.65 0.59 0.65 0.88 0.87 1.14 1.02 0.86 0.76 1.66 0.99 0.47 0.10 0.05 0.01 0.02 0.04 0.03 0.02 0.05 0.04 0.16 0.16 0.07 0.20 0.25 0.17 0.10 0.03 0.01 0.02 0.05 0.05 0.18 0.54 0.27 0.13 0.11
0.14 0.19 0.21 0.24 0.28 0.35 0.49 0.51 0.47 0.49 0.51 0.86 0.86 1.28 2.10 1.22 1.18 1.22 1.32 0.81 0.25 0.04 0.02 0.03 0.08 0.10 0.05 0.02 0.02 0.04 0.07 0.06 0.01 0.03 0.12 0.07 0.04 0.01 0.00 0.00 0.09 0.22 0.35 0.35 0.47 0.25 0.25
0.15 0.17 0.21 0.26 0.33 0.53 0.61 0.53 0.62 0.58 0.75 1.00 1.10 1.40 2.08 1.33 1.01 1.74 1.33 0.57 0.13 0.02 0.03 0.08 0.07 0.04 0.03 0.01 0.02 0.03 0.01 0.00 0.00 0.00 0.00 0.02 0.09 0.05 0.14 0.15 0.11 0.25 0.16 0.46 0.99 0.54 0.21
0.13 0.16 0.21 0.30 0.34 0.66 0.73 0.62 0.66 0.90 0.99 0.94 0.97 1.99 1.46 1.66 1.54 2.13 1.40 0.45 0.05 0.02 0.07 0.11 0.05 0.08 0.03 0.00 0.00 0.00 0.00 0.00 0.00 0.00 0.00 0.03 0.10 0.06 0.27 0.33 0.16 0.27 0.57 0.44 0.42 0.23 0.26
0.10 0.16 0.19 0.31 0.38 0.57 0.74 0.60 0.47 0.86 0.99 1.04 1.11 1.50 1.36 1.85 2.41 1.72 0.75 0.19 0.03 0.05 0.10 0.12 0.09 0.05 0.04 0.02 0.00 0.00 0.00 0.00 0.00 0.00 0.00 0.04 0.24 0.18 0.11 0.11 0.06 0.16 0.29 0.30 0.57 0.24 0.32
0.11 0.14 0.16 0.23 0.36 0.52 0.69 0.59 0.39 0.69 1.59 1.98 1.41 1.55 1.89 1.17 0.98 0.67 0.45 0.11 0.06 0.11 0.17 0.20 0.08 0.03 0.02 0.04 0.03 0.00 0.00 0.00 0.00 0.00 0.03 0.20 0.44 0.31 0.16 0.45 0.28 0.41 0.32 0.51 0.75 0.83 0.72
0.12 0.11 0.13 0.14 0.28 0.39 0.54 0.36 0.29 0.59 1.03 1.49 1.32 1.43 2.71 1.75 0.49 0.24 0.17 0.11 0.10 0.11 0.19 0.22 0.11 0.05 0.05 0.05 0.02 0.01 0.00 0.00 0.00 0.00 0.03 0.26 0.35 0.24 0.24 0.52 0.59 0.43 0.27 0.59 1.42 1.46 0.39
0.11 0.10 0.10 0.14 0.23 0.26 0.33 0.26 0.37 0.72 0.71 0.97 0.83 0.52 0.63 0.61 0.31 0.12 0.08 0.09 0.14 0.17 0.18 0.18 0.12 0.05 0.05 0.05 0.02 0.02 0.00 0.00 0.00 0.00 0.06 0.35 0.59 0.62 0.30 0.13 0.47 0.50 0.39 0.55 1.12 0.80 0.87
0.10 0.09 0.09 0.14 0.16 0.18 0.20 0.23 0.39 0.99 1.38 0.95 0.67 0.32 0.12 0.06 0.03 0.06 0.07 0.05 0.16 0.18 0.22 0.13 0.06 0.03 0.06 0.03 0.01 0.00 0.00 0.00 0.01 0.01 0.06 0.32 0.85 0.93 0.57 0.21 0.25 0.58 0.56 0.70 0.69 0.59 0.70
0.10 0.08 0.10 0.10 0.10 0.11 0.12 0.18 0.47 1.09 1.68 1.10 0.69 0.33 0.16 0.13 0.05 0.06 0.04 0.05 0.10 0.15 0.08 0.05 0.06 0.08 0.07 0.02 0.00 0.00 0.00 0.00 0.03 0.05 0.17 0.30 0.55 0.83 0.48 0.37 0.37 0.80 0.74 0.59 0.37 0.35 0.44
0.09 0.10 0.11 0.08 0.08 0.06 0.06 0.12 0.34 0.63 1.09 1.02 0.71 0.54 0.32 0.17 0.06 0.04 0.04 0.09 0.09 0.14 0.12 0.05 0.08 0.06 0.04 0.02 0.02 0.02 0.06 0.02 0.03 0.08 0.08 0.12 0.29 0.58 0.44 0.51 0.79 0.58 0.51 0.35 0.36 0.36 0.32
0.10 0.10 0.10 0.07 0.06 0.05 0.04 0.10 0.32 0.55 0.84 0.58 0.57 0.49 0.31 0.14 0.06 0.04 0.07 0.11 0.18 0.23 0.25 0.15 0.07 0.04 0.07 0.10 0.13 0.09 0.10 0.11 0.06 0.01 0.01 0.01 0.13 0.31 0.21 0.17 0.18 0.02 0.05 0.17 0.23 0.33 0.18
0.09 0.09 0.08 0.06 0.05 0.04 0.04 0.09 0.24 0.42 0.47 0.34 0.48 0.43 0.41 0.15 0.07 0.03 0.04 0.06 0.20 0.30 0.35 0.30 0.21 0.12 0.15 0.25 0.20 0.12 0.04 0.03 0.04 0.03 0.01 0.00 0.07 0.28 0.10 0.13 0.01 0.00 0.00 0.00 0.03 0.19 0.25
0.09 0.09 0.07 0.05 0.04 0.04 0.04 0.06 0.16 0.30 0.39 0.29 0.46 0.46 0.24 0.12 0.05 0.02 0.03 0.05 0.12 0.33 0.43 0.37 0.33 0.16 0.20 0.34 0.20 0.12 0.02 0.00 0.01 0.02 0.01 0.02 0.05 0.13 0.09 0.14 0.01 0.00 0.00 0.00 0.00 0.10 0.11
0.09 0.07 0.05 0.05 0.03 0.04 0.03 0.03 0.13 0.22 0.43 0.32 0.34 0.31 0.23 0.13 0.05 0.01 0.01 0.03 0.06 0.23 0.44 0.45 0.49 0.31 0.27 0.28 0.20 0.07 0.01 0.01 0.00 0.00 0.00 0.01 0.01 0.02 0.03 0.04 0.00 0.00 0.00 0.00 0.00 0.00 0.00
0.08 0.06 0.04 0.04 0.03 0.03 0.02 0.03 0.12 0.17 0.33 0.40 0.30 0.24 0.22 0.17 0.07 0.02 0.01 0.01 0.02 0.15 0.40 0.46 0.45 0.26 0.17 0.10 0.07 0.05 0.02 0.01 0.00 0.00 0.00 0.00 0.00 0.01 0.00 0.00 0.00 0.00 0.00 0.00 0.00 0.00 0.00

GFSGBSN_prec_precacc24_045.txt.gz
Total_Precipitation_Accumulation
0.07 0.07 0.09 0.09 0.07 0.07 0.07 0.08 0.08 0.07 0.09 0.10 0.12 0.12 0.11 0.10 0.09 0.11 0.10 0.11 0.11 0.10 0.08 0.03 0.00 0.00 0.00 0.01 0.01 0.00 0.00 0.01 0.07 0.24 0.12 0.02 0.00 0.00 0.00 0.00 0.00 0.00 0.00 0.00 0.00 0.00 0.00
0.06 0.06 0.07 0.07 0.08 0.10 0.10 0.09 0.10 0.12 0.13 0.11 0.12 0.11 0.10 0.10 0.10 0.11 0.09 0.08 0.14 0.15 0.11 0.06 0.00 0.01 0.00 0.00 0.00 0.00 0.00 0.00 0.01 0.13 0.19 0.09 0.01 0.00 0.00 0.00 0.00 0.00 0.00 0.00 0.00 0.00 0.00
0.04 0.06 0.06 0.06 0.09 0.13 0.13 0.12 0.15 0.16 0.14 0.14 0.14 0.13 0.12 0.12 0.12 0.13 0.15 0.17 0.17 0.16 0.16 0.10 0.01 0.00 0.00 0.00 0.00 0.00 0.00 0.00 0.00 0.02 0.19 0.14 0.06 0.04 0.02 0.00 0.00 0.00 0.00 0.00 0.00 0.00 0.00
0.03 0.03 0.04 0.07 0.11 0.12 0.11 0.13 0.14 0.14 0.15 0.17 0.19 0.16 0.13 0.15 0.15 0.17 0.20 0.18 0.28 0.29 0.31 0.21 0.02 0.00 0.00 0.00 0.00 0.00 0.00 0.00 0.00 0.00 0.08 0.13 0.07 0.02 0.01 0.00 0.00 0.00 0.00 0.00 0.00 0.00 0.00
0.02 0.02 0.03 0.05 0.08 0.09 0.11 0.11 0.13 0.13 0.14 0.20 0.23 0.20 0.19 0.21 0.24 0.27 0.28 0.32 0.44 0.44 0.49 0.46 0.03 0.01 0.00 0.00 0.00 0.00 0.00 0.00 0.00 0.01 0.03 0.04 0.11 0.04 0.01 0.01 0.01 0.00 0.00 0.00 0.00 0.00 0.00
0.02 0.03 0.03 0.05 0.06 0.09 0.13 0.13 0.14 0.13 0.17 0.24 0.26 0.24 0.26 0.27 0.31 0.32 0.44 0.54 0.78 0.76 0.65 0.69 0.09 0.02 0.00 0.00 0.00 0.00 0.00 0.00 0.00 0.01 0.04 0.05 0.02 0.02 0.02 0.02 0.01 0.00 0.00 0.00 0.00 0.00 0.00
0.04 0.03 0.04 0.04 0.06 0.09 0.14 0.17 0.15 0.15 0.18 0.23 0.26 0.28 0.34 0.29 0.31 0.42 0.80 1.02 1.12 1.25 0.87 0.33 0.06 0.00 0.00 0.00 0.00 0.00 0.00 0.00 0.00 0.02 0.00 0.01 0.01 0.00 0.00 0.00 0.00 0.00 0.00 0.00 0.00 0.00 0.00
0.04 0.05 0.05 0.05 0.08 0.11 0.18 0.21 0.18 0.22 0.27 0.25 0.24 0.27 0.27 0.29 0.33 0.63 0.88 0.96 0.66 0.70 0.69 0.19 0.04 0.00 0.00 0.00 0.00 0.00 0.00 0.00 0.01 0.01 0.00 0.00 0.00 0.00 0.00 0.00 0.00 0.00 0.00 0.00 0.00 0.00 0.00
0.04 0.06 0.06 0.08 0.11 0.12 0.15 0.18 0.23 0.31 0.32 0.27 0.24 0.27 0.36 0.51 0.53 0.98 0.67 0.42 0.38 0.75 0.62 0.31 0.08 0.01 0.00 0.01 0.01 0.00 0.00 0.00 0.00 0.01 0.00 0.00 0.00 0.00 0.00 0.00 0.00 0.00 0.00 0.00 0.00 0.00 0.00
0.05 0.04 0.06 0.11 0.13 0.14 0.15 0.20 0.36 0.50 0.42 0.38 0.36 0.43 0.54 0.70 1.13 0.82 0.64 0.25 0.48 0.90 0.62 0.34 0.14 0.03 0.01 0.03 0.01 0.00 0.00 0.00 0.01 0.00 0.01 0.03 0.00 0.00 0.00 0.00 0.00 0.00 0.00 0.00 0.01 0.01 0.00
0.06 0.05 0.09 0.12 0.16 0.17 0.19 0.22 0.30 0.37 0.40 0.48 0.64 0.76 0.72 0.88 1.25 0.71 0.66 0.42 0.62 0.97 0.59 0.24 0.10 0.02 0.03 0.02 0.00 0.00 0.00 0.01 0.02 0.00 0.03 0.05 0.00 0.00 0.00 0.00 0.00 0.00 0.00 0.00 0.01 0.01 0.02
0.05 0.08 0.14 0.16 0.18 0.21 0.21 0.22 0.22 0.22 0.39 0.63 0.63 0.64 0.82 0.88 0.92 0.65 0.64 0.74 0.99 1.00 0.57 0.36 0.08 0.06 0.07 0.04 0.02 0.01 0.02 0.04 0.08 0.16 0.17 0.02 0.00 0.00 0.00 0.00 0.00 0.01 0.02 0.02 0.04 0.09 0.13
0.07 0.13 0.17 0.18 0.18 0.20 0.20 0.20 0.19 0.42 0.54 0.50 0.59 0.66 1.04 0.95 0.71 0.68 1.22 1.02 1.10 0.52 0.37 0.12 0.04 0.05 0.03 0.03 0.03 0.03 0.05 0.10 0.17 0.23 0.32 0.21 0.05 0.00 0.00 0.01 0.01 0.05 0.19 0.20 0.18 0.22 0.06
0.07 0.14 0.17 0.17 0.18 0.18 0.29 0.28 0.42 0.54 0.53 0.56 0.79 0.82 1.12 1.07 0.91 0.78 1.68 0.98 0.46 0.12 0.18 0.03 0.02 0.04 0.03 0.02 0.04 0.03 0.06 0.06 0.05 0.18 0.25 0.17 0.10 0.03 0.01 0.00 0.01 0.02 0.08 0.22 0.07 0.00 0.00
0.10 0.14 0.17 0.17 0.20 0.22 0.32 0.37 0.37 0.40 0.45 0.80 0.72 1.21 1.95 1.24 1.21 1.19 1.29 0.80 0.29 0.15 0.04 0.04 0.06 0.06 0.05 0.02 0.02 0.04 0.04 0.01 0.01 0.03 0.11 0.07 0.02 0.00 0.00 0.00 0.04 0.13 0.23 0.13 0.20 0.16 0.18
0.10 0.13 0.16 0.18 0.19 0.33 0.42 0.39 0.52 0.51 0.68 0.96 0.95 1.29 1.96 1.33 0.97 1.59 1.18 0.58 0.22 0.09 0.01 0.01 0.06 0.03 0.02 0.01 0.02 0.02 0.01 0.00 0.00 0.00 0.00 0.00 0.01 0.00 0.01 0.12 0.09 0.06 0.06 0.14 0.48 0.31 0.13
0.10 0.13 0.15 0.15 0.14 0.35 0.46 0.47 0.51 0.78 0.91 0.85 0.86 1.90 1.43 1.59 1.29 1.86 1.37 0.54 0.19 0.03 0.00 0.03 0.02 0.04 0.02 0.00 0.00 0.00 0.00 0.00 0.00 0.00 0.00 0.00 0.02 0.01 0.06 0.23 0.13 0.07 0.25 0.17 0.14 0.09 0.22
0.09 0.14 0.13 0.12 0.12 0.31 0.44 0.39 0.33 0.77 0.85 0.87 0.98 1.44 1.32 1.73 2.10 1.55 0.85 0.45 0.14 0.03 0.02 0.05 0.04 0.03 0.02 0.01 0.00 0.00 0.00 0.00 0.00 0.00 0.00 0.00 0.11 0.07 0.02 0.04 0.06 0.07 0.07 0.10 0.22 0.13 0.28
0.11 0.13 0.12 0.10 0.13 0.28 0.37 0.37 0.30 0.58 1.33 1.79 1.34 1.44 1.72 1.14 0.90 0.66 0.58 0.22 0.04 0.03 0.06 0.12 0.06 0.02 0.01 0.03 0.03 0.00 0.00 0.00 0.00 0.00 0.02 0.10 0.27 0.15 0.09 0.26 0.23 0.28 0.11 0.25 0.36 0.78 0.71
0.12 0.12 0.12 0.10 0.11 0.15 0.24 0.22 0.18 0.33 0.75 1.44 1.28 1.32 2.45 1.61 0.50 0.33 0.22 0.13 0.05 0.04 0.09 0.15 0.10 0.05 0.05 0.04 0.02 0.00 0.00 0.00 0.00 0.00 0.02 0.14 0.16 0.07 0.16 0.43 0.52 0.40 0.15 0.38 1.30 1.47 0.39
0.11 0.11 0.10 0.11 0.10 0.09 0.12 0.15 0.16 0.31 0.57 0.94 0.80 0.46 0.59 0.59 0.41 0.16 0.11 0.08 0.05 0.05 0.10 0.16 0.11 0.05 0.05 0.05 0.02 0.02 0.00 0.00 0.00 0.00 0.04 0.22 0.28 0.29 0.17 0.12 0.44 0.45 0.36 0.53 1.13 0.81 0.91
0.10 0.10 0.09 0.10 0.10 0.07 0.07 0.10 0.15 0.43 1.09 0.91 0.63 0.28 0.09 0.04 0.04 0.08 0.08 0.04 0.03 0.05 0.13 0.11 0.06 0.03 0.06 0.03 0.01 0.00 0.00 0.00 0.01 0.01 0.06 0.29 0.69 0.76 0.52 0.20 0.25 0.57 0.56 0.70 0.69 0.59 0.70
0.10 0.08 0.10 0.09 0.07 0.04 0.05 0.09 0.18 0.44 1.15 0.97 0.66 0.29 0.14 0.09 0.04 0.05 0.04 0.02 0.02 0.04 0.04 0.04 0.06 0.08 0.07 0.01 0.00 0.00 0.00 0.00 0.01 0.05 0.17 0.30 0.52 0.78 0.47 0.36 0.36 0.79 0.74 0.59 0.37 0.35 0.44
0.09 0.10 0.11 0.07 0.05 0.03 0.04 0.07 0.14 0.35 0.85 0.98 0.71 0.53 0.30 0.15 0.05 0.03 0.03 0.06 0.04 0.04 0.06 0.05 0.08 0.05 0.02 0.00 0.02 0.01 0.01 0.01 0.01 0.04 0.08 0.12 0.29 0.58 0.44 0.51 0.79 0.58 0.51 0.35 0.36 0.36 0.32
0.10 0.10 0.10 0.06 0.04 0.02 0.03 0.04 0.09 0.22 0.54 0.50 0.57 0.49 0.28 0.10 0.04 0.03 0.06 0.08 0.10 0.12 0.15 0.11 0.06 0.04 0.06 0.08 0.10 0.06 0.05 0.07 0.05 0.01 0.02 0.01 0.13 0.30 0.21 0.17 0.18 0.02 0.05 0.17 0.23 0.33 0.18
0.10 0.10 0.08 0.05 0.03 0.02 0.02 0.03 0.06 0.17 0.31 0.25 0.48 0.43 0.39 0.11 0.05 0.02 0.04 0.04 0.11 0.17 0.23 0.24 0.19 0.12 0.14 0.24 0.17 0.10 0.04 0.02 0.03 0.02 0.01 0.01 0.07 0.29 0.11 0.13 0.01 0.00 0.00 0.00 0.03 0.19 0.25
0.10 0.09 0.07 0.05 0.02 0.01 0.02 0.03 0.05 0.17 0.28 0.23 0.46 0.46 0.18 0.09 0.04 0.01 0.03 0.03 0.06 0.21 0.29 0.31 0.28 0.15 0.16 0.31 0.17 0.09 0.01 0.00 0.01 0.02 0.01 0.02 0.06 0.15 0.10 0.16 0.01 0.00 0.00 0.00 0.00 0.10 0.11
0.09 0.07 0.06 0.05 0.01 0.02 0.02 0.01 0.03 0.10 0.31 0.24 0.33 0.32 0.20 0.11 0.06 0.01 0.02 0.04 0.05 0.16 0.30 0.31 0.42 0.26 0.23 0.24 0.18 0.06 0.01 0.01 0.00 0.01 0.00 0.01 0.02 0.02 0.03 0.05 0.00 0.00 0.00 0.00 0.00 0.00 0.00
0.09 0.06 0.05 0.04 0.02 0.02 0.01 0.02 0.03 0.05 0.25 0.32 0.29 0.25 0.19 0.14 0.08 0.02 0.01 0.01 0.02 0.11 0.29 0.33 0.34 0.22 0.14 0.10 0.04 0.03 0.02 0.01 0.00 0.00 0.00 0.00 0.00 0.01 0.00 0.00 0.00 0.00 0.00 0.00 0.00 0.00 0.00

GFSGBSN_prec_precacc24_048.txt.gz
Total_Precipitation_Accumulation
0.01 0.03 0.07 0.10 0.08 0.06 0.07 0.09 0.08 0.08 0.10 0.12 0.14 0.14 0.13 0.11 0.10 0.11 0.10 0.12 0.11 0.10 0.09 0.11 0.14 0.01 0.01 0.01 0.01 0.00 0.02 0.01 0.10 0.29 0.13 0.02 0.00 0.00 0.00 0.00 0.00 0.00 0.00 0.00 0.00 0.00 0.00
0.02 0.02 0.02 0.03 0.07 0.11 0.11 0.10 0.11 0.13 0.16 0.14 0.15 0.14 0.11 0.10 0.10 0.11 0.09 0.09 0.15 0.16 0.12 0.13 0.20 0.04 0.01 0.00 0.00 0.00 0.04 0.02 0.03 0.16 0.19 0.10 0.01 0.00 0.00 0.00 0.00 0.00 0.00 0.00 0.00 0.00 0.00
0.03 0.03 0.02 0.02 0.03 0.10 0.13 0.13 0.15 0.17 0.16 0.15 0.15 0.16 0.13 0.13 0.14 0.15 0.16 0.18 0.17 0.16 0.16 0.22 0.33 0.05 0.00 0.00 0.00 0.00 0.01 0.02 0.03 0.05 0.20 0.15 0.08 0.03 0.02 0.00 0.00 0.00 0.00 0.00 0.00 0.00 0.00
0.03 0.03 0.03 0.03 0.03 0.04 0.08 0.13 0.15 0.15 0.15 0.17 0.21 0.18 0.15 0.18 0.18 0.18 0.21 0.21 0.28 0.29 0.31 0.30 0.38 0.11 0.01 0.00 0.00 0.00 0.00 0.00 0.00 0.01 0.11 0.17 0.13 0.02 0.01 0.00 0.00 0.00 0.00 0.00 0.00 0.00 0.00
0.03 0.03 0.03 0.04 0.04 0.05 0.07 0.10 0.13 0.13 0.14 0.20 0.25 0.21 0.22 0.25 0.28 0.28 0.31 0.34 0.45 0.44 0.48 0.60 0.45 0.08 0.00 0.00 0.00 0.00 0.00 0.00 0.01 0.04 0.06 0.10 0.23 0.07 0.01 0.01 0.00 0.00 0.00 0.00 0.00 0.00 0.00
0.03 0.03 0.03 0.05 0.05 0.08 0.11 0.12 0.13 0.12 0.17 0.24 0.26 0.22 0.26 0.29 0.35 0.33 0.44 0.54 0.78 0.76 0.66 1.13 0.46 0.11 0.01 0.00 0.00 0.00 0.00 0.00 0.03 0.05 0.08 0.10 0.23 0.22 0.05 0.02 0.00 0.00 0.00 0.00 0.00 0.00 0.00
0.04 0.03 0.05 0.04 0.07 0.10 0.12 0.12 0.09 0.12 0.18 0.24 0.25 0.25 0.31 0.30 0.33 0.49 0.82 1.02 1.12 1.26 0.93 0.63 0.22 0.04 0.00 0.00 0.00 0.00 0.00 0.01 0.03 0.04 0.01 0.02 0.02 0.06 0.07 0.00 0.00 0.00 0.00 0.00 0.00 0.00 0.00
0.03 0.05 0.05 0.06 0.09 0.11 0.11 0.11 0.10 0.16 0.26 0.23 0.22 0.23 0.25 0.29 0.35 0.68 0.92 0.96 0.66 0.71 0.71 0.28 0.15 0.05 0.00 0.00 0.00 0.00 0.00 0.00 0.02 0.01 0.00 0.01 0.00 0.00 0.01 0.00 0.00 0.00 0.00 0.00 0.00 0.00 0.00
0.03 0.06 0.05 0.08 0.11 0.12 0.12 0.11 0.15 0.23 0.28 0.23 0.22 0.23 0.31 0.49 0.51 0.98 0.72 0.43 0.39 0.75 0.65 0.35 0.24 0.06 0.00 0.00 0.00 0.00 0.00 0.00 0.00 0.00 0.00 0.00 0.00 0.00 0.00 0.00 0.00 0.00 0.00 0.00 0.00 0.00 0.00
0.05 0.04 0.06 0.11 0.13 0.14 0.14 0.16 0.20 0.27 0.27 0.32 0.32 0.37 0.50 0.68 1.13 0.82 0.65 0.25 0.48 0.90 0.67 0.42 0.31 0.08 0.01 0.02 0.01 0.00 0.00 0.00 0.00 0.00 0.00 0.01 0.00 0.00 0.00 0.00 0.00 0.00 0.00 0.00 0.00 0.01 0.00
0.06 0.04 0.09 0.11 0.14 0.16 0.18 0.21 0.25 0.21 0.17 0.35 0.58 0.68 0.69 0.91 1.27 0.72 0.68 0.43 0.62 1.00 0.71 0.36 0.21 0.07 0.03 0.01 0.00 0.01 0.00 0.00 0.01 0.00 0.01 0.02 0.00 0.00 0.00 0.00 0.00 0.00 0.00 0.00 0.01 0.01 0.01
0.04 0.07 0.13 0.13 0.14 0.18 0.19 0.21 0.19 0.13 0.25 0.48 0.54 0.56 0.79 0.88 0.93 0.65 0.65 0.75 0.99 1.03 0.82 0.63 0.15 0.10 0.09 0.04 0.02 0.01 0.01 0.03 0.04 0.06 0.06 0.01 0.00 0.00 0.00 0.00 0.00 0.01 0.01 0.02 0.04 0.07 0.10
0.06 0.11 0.14 0.14 0.14 0.16 0.18 0.17 0.14 0.31 0.41 0.37 0.46 0.60 1.00 0.96 0.72 0.69 1.24 1.03 1.10 0.57 0.59 0.33 0.10 0.06 0.05 0.03 0.03 0.03 0.03 0.05 0.07 0.09 0.11 0.09 0.03 0.00 0.00 0.00 0.00 0.04 0.17 0.18 0.18 0.20 0.05
0.07 0.13 0.14 0.14 0.15 0.16 0.17 0.13 0.31 0.35 0.36 0.35 0.63 0.58 1.06 1.08 0.92 0.78 1.69 0.99 0.48 0.16 0.31 0.13 0.02 0.05 0.04 0.02 0.03 0.03 0.04 0.04 0.03 0.09 0.15 0.09 0.05 0.02 0.01 0.00 0.01 0.02 0.08 0.22 0.07 0.00 0.00
0.09 0.14 0.15 0.15 0.14 0.13 0.19 0.26 0.30 0.31 0.31 0.53 0.42 0.63 1.65 1.19 1.17 1.18 1.29 0.80 0.33 0.25 0.18 0.10 0.09 0.05 0.07 0.02 0.02 0.03 0.03 0.01 0.00 0.01 0.05 0.04 0.01 0.00 0.00 0.00 0.04 0.11 0.19 0.13 0.18 0.14 0.16
0.10 0.12 0.15 0.15 0.11 0.12 0.20 0.29 0.40 0.43 0.60 0.79 0.47 0.59 1.60 1.26 0.93 1.52 1.14 0.62 0.28 0.14 0.02 0.01 0.08 0.03 0.03 0.02 0.02 0.02 0.01 0.00 0.00 0.00 0.00 0.00 0.01 0.00 0.00 0.01 0.03 0.05 0.04 0.13 0.41 0.21 0.07
0.09 0.12 0.15 0.13 0.08 0.09 0.13 0.27 0.37 0.67 0.84 0.69 0.46 1.14 1.17 1.47 1.05 1.64 1.32 0.63 0.34 0.06 0.01 0.00 0.00 0.01 0.00 0.00 0.00 0.00 0.00 0.00 0.00 0.00 0.00 0.00 0.01 0.00 0.01 0.01 0.01 0.02 0.12 0.14 0.10 0.03 0.02
0.09 0.14 0.14 0.11 0.06 0.07 0.10 0.19 0.17 0.57 0.75 0.62 0.57 1.02 1.12 1.58 1.62 1.33 0.96 0.62 0.26 0.07 0.01 0.00 0.00 0.01 0.01 0.00 0.01 0.00 0.00 0.00 0.00 0.00 0.00 0.00 0.06 0.03 0.00 0.00 0.01 0.03 0.03 0.06 0.21 0.05 0.13
0.10 0.13 0.12 0.10 0.07 0.05 0.08 0.15 0.12 0.40 1.09 1.33 1.01 1.08 1.51 0.99 0.70 0.63 0.73 0.32 0.10 0.04 0.02 0.03 0.01 0.01 0.01 0.02 0.02 0.00 0.00 0.00 0.00 0.00 0.00 0.04 0.16 0.10 0.06 0.16 0.17 0.25 0.08 0.14 0.25 0.56 0.48
0.11 0.11 0.12 0.09 0.09 0.05 0.05 0.06 0.05 0.22 0.47 0.94 0.92 1.05 2.20 1.37 0.39 0.34 0.33 0.26 0.12 0.02 0.02 0.03 0.03 0.03 0.04 0.04 0.02 0.00 0.00 0.00 0.00 0.00 0.00 0.07 0.10 0.04 0.10 0.27 0.47 0.40 0.14 0.22 0.82 1.09 0.26
0.11 0.10 0.10 0.10 0.09 0.05 0.04 0.03 0.06 0.24 0.24 0.56 0.57 0.35 0.52 0.51 0.37 0.17 0.12 0.08 0.05 0.01 0.01 0.06 0.05 0.03 0.05 0.05 0.02 0.02 0.00 0.00 0.00 0.00 0.03 0.13 0.15 0.09 0.08 0.06 0.34 0.40 0.29 0.30 0.73 0.48 0.72
0.09 0.09 0.09 0.10 0.09 0.04 0.02 0.02 0.05 0.21 0.34 0.49 0.48 0.25 0.09 0.04 0.04 0.07 0.07 0.04 0.04 0.01 0.02 0.03 0.03 0.02 0.06 0.03 0.01 0.00 0.00 0.00 0.00 0.00 0.05 0.20 0.34 0.33 0.29 0.18 0.23 0.44 0.35 0.45 0.39 0.33 0.43
0.09 0.08 0.10 0.09 0.06 0.03 0.01 0.01 0.04 0.21 0.46 0.48 0.56 0.29 0.14 0.09 0.04 0.04 0.03 0.01 0.02 0.02 0.01 0.01 0.04 0.08 0.07 0.01 0.00 0.00 0.00 0.00 0.01 0.04 0.16 0.28 0.32 0.54 0.37 0.32 0.34 0.72 0.65 0.49 0.28 0.28 0.33
0.08 0.10 0.11 0.07 0.05 0.02 0.01 0.01 0.03 0.12 0.43 0.53 0.64 0.53 0.26 0.13 0.04 0.02 0.01 0.03 0.03 0.02 0.02 0.03 0.05 0.05 0.02 0.00 0.01 0.01 0.01 0.01 0.01 0.02 0.07 0.12 0.28 0.54 0.43 0.46 0.78 0.58 0.50 0.35 0.36 0.36 0.32
0.07 0.10 0.10 0.06 0.04 0.01 0.01 0.01 0.02 0.06 0.23 0.27 0.49 0.49 0.26 0.09 0.04 0.02 0.03 0.07 0.08 0.06 0.06 0.08 0.05 0.04 0.06 0.06 0.07 0.04 0.02 0.02 0.01 0.01 0.01 0.01 0.13 0.30 0.21 0.17 0.18 0.02 0.05 0.17 0.23 0.33 0.18
0.07 0.09 0.08 0.05 0.03 0.01 0.01 0.00 0.01 0.03 0.10 0.14 0.38 0.42 0.38 0.09 0.04 0.01 0.01 0.03 0.09 0.10 0.12 0.17 0.18 0.11 0.11 0.13 0.13 0.05 0.02 0.01 0.01 0.02 0.01 0.01 0.07 0.28 0.11 0.13 0.01 0.00 0.00 0.00 0.03 0.19 0.25
0.07 0.08 0.07 0.05 0.02 0.01 0.01 0.00 0.01 0.04 0.09 0.11 0.36 0.45 0.18 0.08 0.04 0.01 0.01 0.02 0.04 0.12 0.17 0.21 0.24 0.15 0.16 0.25 0.12 0.06 0.01 0.00 0.01 0.02 0.02 0.03 0.07 0.16 0.11 0.17 0.01 0.00 0.00 0.00 0.00 0.10 0.11
0.07 0.07 0.06 0.05 0.01 0.01 0.01 0.00 0.01 0.03 0.08 0.08 0.24 0.30 0.19 0.10 0.05 0.02 0.02 0.04 0.04 0.09 0.18 0.21 0.31 0.21 0.21 0.21 0.15 0.04 0.01 0.01 0.00 0.01 0.00 0.01 0.01 0.02 0.04 0.06 0.00 0.00 0.00 0.00 0.00 0.00 0.00
0.06 0.06 0.05 0.04 0.03 0.02 0.00 0.01 0.01 0.02 0.10 0.12 0.23 0.23 0.16 0.14 0.08 0.02 0.01 0.01 0.02 0.09 0.20 0.25 0.26 0.21 0.13 0.09 0.04 0.02 0.02 0.01 0.00 0.01 0.00 0.00 0.00 0.01 0.00 0.00 0.00 0.00 0.00 0.00 0.00 0.00 0.00

GFSGBSN_prec_precacc24_051.txt.gz
Total_Precipitation_Accumulation
0.02 0.02 0.02 0.02 0.02 0.02 0.05 0.08 0.08 0.07 0.09 0.11 0.14 0.16 0.16 0.13 0.11 0.12 0.11 0.12 0.12 0.11 0.10 0.11 0.18 0.36 0.21 0.02 0.01 0.00 0.03 0.01 0.10 0.30 0.13 0.02 0.00 0.00 0.00 0.00 0.00 0.00 0.00 0.00 0.00 0.00 0.00
0.03 0.02 0.02 0.02 0.02 0.03 0.03 0.06 0.10 0.13 0.16 0.14 0.14 0.16 0.14 0.14 0.12 0.12 0.11 0.10 0.16 0.17 0.13 0.13 0.21 0.38 0.20 0.01 0.00 0.00 0.05 0.03 0.04 0.20 0.20 0.10 0.02 0.00 0.00 0.00 0.00 0.00 0.00 0.00 0.00 0.00 0.00
0.03 0.03 0.04 0.03 0.02 0.03 0.04 0.05 0.10 0.16 0.16 0.15 0.15 0.15 0.13 0.17 0.16 0.18 0.19 0.20 0.18 0.16 0.17 0.22 0.36 0.41 0.16 0.00 0.00 0.00 0.03 0.08 0.10 0.10 0.21 0.15 0.08 0.01 0.01 0.00 0.00 0.00 0.00 0.00 0.00 0.00 0.00
0.03 0.04 0.04 0.03 0.04 0.04 0.05 0.07 0.07 0.11 0.15 0.17 0.22 0.16 0.15 0.20 0.21 0.21 0.23 0.22 0.28 0.30 0.34 0.30 0.41 0.44 0.15 0.00 0.00 0.00 0.00 0.03 0.06 0.13 0.18 0.21 0.15 0.03 0.01 0.00 0.00 0.00 0.00 0.00 0.00 0.00 0.00
0.03 0.03 0.04 0.05 0.04 0.06 0.09 0.09 0.10 0.08 0.10 0.20 0.25 0.18 0.20 0.25 0.31 0.29 0.31 0.34 0.45 0.44 0.50 0.60 0.49 0.25 0.04 0.00 0.00 0.00 0.00 0.00 0.02 0.07 0.15 0.21 0.31 0.10 0.01 0.00 0.00 0.00 0.00 0.00 0.00 0.00 0.00
0.04 0.03 0.04 0.05 0.05 0.09 0.12 0.12 0.11 0.07 0.10 0.20 0.24 0.19 0.22 0.28 0.37 0.35 0.42 0.53 0.78 0.76 0.66 1.12 0.57 0.35 0.06 0.00 0.00 0.00 0.00 0.01 0.10 0.14 0.14 0.18 0.48 0.31 0.06 0.02 0.00 0.00 0.00 0.00 0.00 0.00 0.00
0.04 0.04 0.06 0.05 0.07 0.10 0.12 0.13 0.10 0.12 0.16 0.18 0.21 0.22 0.24 0.25 0.33 0.52 0.82 1.02 1.13 1.27 0.94 0.64 0.28 0.17 0.02 0.00 0.00 0.00 0.00 0.02 0.16 0.13 0.04 0.07 0.17 0.31 0.10 0.00 0.00 0.00 0.00 0.00 0.00 0.00 0.00
0.04 0.05 0.06 0.06 0.10 0.12 0.12 0.13 0.11 0.16 0.22 0.20 0.18 0.18 0.19 0.23 0.32 0.67 0.93 0.96 0.66 0.72 0.71 0.31 0.21 0.15 0.02 0.00 0.00 0.00 0.00 0.02 0.07 0.04 0.01 0.01 0.03 0.05 0.12 0.09 0.00 0.00 0.00 0.00 0.00 0.00 0.00
0.04 0.06 0.05 0.09 0.11 0.13 0.12 0.11 0.16 0.23 0.25 0.17 0.11 0.15 0.23 0.40 0.46 0.96 0.71 0.43 0.39 0.75 0.65 0.40 0.28 0.16 0.02 0.00 0.00 0.00 0.00 0.02 0.03 0.01 0.00 0.00 0.00 0.02 0.02 0.11 0.03 0.00 0.00 0.00 0.00 0.00 0.00
0.06 0.04 0.06 0.11 0.13 0.13 0.12 0.14 0.20 0.28 0.20 0.10 0.11 0.22 0.43 0.58 1.07 0.82 0.66 0.27 0.48 0.90 0.68 0.53 0.37 0.18 0.02 0.01 0.00 0.00 0.00 0.01 0.01 0.01 0.00 0.00 0.00 0.00 0.00 0.00 0.00 0.00 0.00 0.00 0.00 0.00 0.00
0.06 0.03 0.09 0.11 0.12 0.12 0.14 0.18 0.25 0.19 0.10 0.15 0.26 0.42 0.61 0.93 1.31 0.73 0.70 0.45 0.62 1.01 0.74 0.41 0.32 0.15 0.04 0.01 0.00 0.03 0.01 0.00 0.00 0.00 0.00 0.00 0.00 0.00 0.00 0.00 0.00 0.00 0.00 0.00 0.00 0.00 0.01
0.04 0.06 0.12 0.11 0.12 0.13 0.14 0.21 0.17 0.12 0.23 0.33 0.26 0.23 0.58 0.85 0.97 0.67 0.66 0.76 1.00 1.06 0.96 0.82 0.36 0.16 0.10 0.04 0.02 0.03 0.02 0.02 0.01 0.02 0.02 0.00 0.00 0.00 0.00 0.00 0.00 0.00 0.01 0.01 0.03 0.06 0.09
0.04 0.09 0.13 0.12 0.12 0.13 0.15 0.15 0.12 0.30 0.42 0.31 0.25 0.24 0.51 0.85 0.71 0.69 1.27 1.04 1.10 0.62 0.70 0.54 0.21 0.08 0.05 0.03 0.04 0.04 0.03 0.04 0.03 0.05 0.05 0.02 0.00 0.00 0.00 0.00 0.00 0.03 0.14 0.14 0.14 0.17 0.04
0.05 0.11 0.13 0.14 0.13 0.12 0.13 0.09 0.23 0.28 0.33 0.34 0.47 0.20 0.46 0.84 0.87 0.77 1.69 0.99 0.51 0.20 0.44 0.23 0.03 0.05 0.05 0.02 0.06 0.03 0.03 0.03 0.02 0.02 0.03 0.02 0.00 0.00 0.00 0.00 0.00 0.01 0.06 0.16 0.06 0.00 0.00
0.06 0.11 0.14 0.14 0.13 0.11 0.11 0.09 0.18 0.23 0.28 0.53 0.31 0.33 0.79 0.97 1.06 1.16 1.29 0.84 0.39 0.41 0.38 0.14 0.11 0.07 0.10 0.02 0.03 0.03 0.03 0.00 0.00 0.01 0.03 0.02 0.00 0.00 0.00 0.00 0.01 0.06 0.13 0.09 0.17 0.14 0.15
0.08 0.10 0.14 0.15 0.11 0.11 0.07 0.08 0.18 0.25 0.55 0.72 0.28 0.27 0.71 1.04 0.85 1.46 1.13 0.69 0.41 0.25 0.05 0.01 0.11 0.05 0.04 0.02 0.02 0.02 0.01 0.00 0.00 0.00 0.00 0.00 0.01 0.00 0.00 0.00 0.01 0.04 0.03 0.09 0.31 0.18 0.07
0.07 0.10 0.14 0.13 0.08 0.09 0.04 0.06 0.07 0.33 0.69 0.56 0.20 0.56 0.54 1.15 0.93 1.47 1.24 0.70 0.39 0.07 0.01 0.00 0.00 0.00 0.00 0.00 0.00 0.00 0.00 0.00 0.00 0.00 0.00 0.00 0.01 0.00 0.00 0.00 0.00 0.01 0.08 0.10 0.09 0.03 0.02
0.07 0.12 0.12 0.11 0.06 0.07 0.03 0.04 0.05 0.29 0.56 0.48 0.22 0.56 0.56 0.96 1.21 1.12 0.95 0.68 0.32 0.09 0.01 0.00 0.00 0.00 0.00 0.00 0.00 0.00 0.00 0.00 0.00 0.00 0.00 0.00 0.04 0.02 0.00 0.00 0.00 0.00 0.00 0.04 0.18 0.05 0.13
0.09 0.11 0.11 0.10 0.07 0.04 0.03 0.02 0.03 0.22 0.91 0.95 0.41 0.62 0.88 0.64 0.48 0.60 0.78 0.34 0.11 0.04 0.02 0.01 0.00 0.00 0.00 0.01 0.01 0.00 0.00 0.00 0.00 0.00 0.00 0.00 0.05 0.03 0.01 0.04 0.08 0.13 0.04 0.07 0.21 0.53 0.48
0.09 0.10 0.10 0.09 0.09 0.05 0.02 0.01 0.02 0.13 0.35 0.59 0.44 0.58 1.42 0.95 0.32 0.36 0.37 0.26 0.12 0.02 0.01 0.00 0.00 0.01 0.02 0.02 0.01 0.00 0.00 0.00 0.00 0.00 0.00 0.00 0.03 0.01 0.02 0.06 0.27 0.34 0.13 0.20 0.78 1.02 0.23
0.08 0.09 0.08 0.10 0.09 0.04 0.02 0.01 0.03 0.16 0.14 0.22 0.31 0.19 0.31 0.37 0.33 0.17 0.11 0.06 0.05 0.00 0.00 0.01 0.02 0.01 0.03 0.04 0.02 0.02 0.00 0.00 0.00 0.00 0.00 0.03 0.07 0.04 0.03 0.04 0.21 0.30 0.26 0.30 0.72 0.45 0.67
0.07 0.07 0.07 0.09 0.08 0.04 0.01 0.00 0.02 0.15 0.27 0.29 0.25 0.20 0.08 0.04 0.04 0.07 0.06 0.04 0.04 0.01 0.00 0.01 0.01 0.02 0.05 0.03 0.01 0.00 0.00 0.00 0.00 0.00 0.01 0.06 0.15 0.11 0.09 0.11 0.20 0.35 0.19 0.36 0.34 0.24 0.30
0.06 0.05 0.08 0.08 0.05 0.03 0.01 0.00 0.01 0.12 0.32 0.32 0.34 0.26 0.13 0.09 0.03 0.04 0.02 0.01 0.01 0.02 0.00 0.00 0.00 0.06 0.06 0.01 0.00 0.00 0.00 0.00 0.01 0.04 0.11 0.17 0.16 0.27 0.11 0.20 0.25 0.45 0.37 0.19 0.09 0.10 0.12
0.06 0.06 0.08 0.06 0.04 0.02 0.01 0.01 0.00 0.05 0.23 0.31 0.46 0.46 0.25 0.12 0.04 0.02 0.01 0.02 0.02 0.02 0.02 0.01 0.00 0.03 0.01 0.00 0.01 0.00 0.00 0.00 0.01 0.02 0.06 0.07 0.19 0.37 0.18 0.30 0.59 0.41 0.31 0.14 0.11 0.12 0.06
0.05 0.05 0.07 0.05 0.03 0.01 0.01 0.00 0.00 0.03 0.10 0.10 0.37 0.43 0.26 0.09 0.03 0.02 0.01 0.03 0.05 0.04 0.04 0.04 0.04 0.04 0.06 0.06 0.05 0.02 0.01 0.01 0.00 0.01 0.01 0.01 0.12 0.29 0.19 0.16 0.17 0.02 0.04 0.13 0.20 0.29 0.14
0.04 0.05 0.07 0.05 0.03 0.01 0.01 0.00 0.00 0.02 0.04 0.03 0.17 0.36 0.39 0.09 0.03 0.01 0.01 0.02 0.06 0.07 0.07 0.12 0.14 0.11 0.11 0.11 0.09 0.04 0.01 0.00 0.01 0.02 0.01 0.01 0.06 0.28 0.12 0.13 0.01 0.00 0.00 0.00 0.03 0.19 0.25
0.03 0.05 0.06 0.05 0.02 0.01 0.01 0.00 0.00 0.02 0.03 0.03 0.13 0.36 0.18 0.08 0.03 0.01 0.01 0.01 0.01 0.07 0.12 0.14 0.16 0.13 0.15 0.15 0.06 0.04 0.01 0.00 0.01 0.02 0.02 0.04 0.08 0.16 0.11 0.17 0.01 0.00 0.00 0.00 0.00 0.10 0.11
0.03 0.04 0.05 0.04 0.01 0.02 0.01 0.00 0.00 0.01 0.04 0.03 0.10 0.21 0.16 0.08 0.05 0.02 0.02 0.03 0.02 0.06 0.12 0.14 0.18 0.18 0.20 0.15 0.08 0.03 0.01 0.01 0.00 0.01 0.00 0.01 0.02 0.03 0.05 0.06 0.00 0.00 0.00 0.00 0.00 0.00 0.00
0.03 0.04 0.05 0.04 0.03 0.02 0.00 0.00 0.00 0.02 0.04 0.02 0.09 0.14 0.16 0.12 0.08 0.02 0.00 0.00 0.01 0.07 0.15 0.19 0.20 0.19 0.12 0.08 0.03 0.02 0.02 0.01 0.00 0.01 0.00 0.00 0.00 0.01 0.00 0.00 0.00 0.00 0.00 0.00 0.00 0.00 0.00

GFSGBSN_prec_precacc24_054.txt.gz
Total_Precipitation_Accumulation
0.02 0.03 0.02 0.03 0.03 0.02 0.03 0.03 0.04 0.06 0.08 0.10 0.11 0.14 0.16 0.15 0.13 0.13 0.14 0.14 0.12 0.11 0.10 0.12 0.19 0.37 0.46 0.19 0.03 0.01 0.03 0.02 0.10 0.29 0.12 0.04 0.01 0.00 0.00 0.00 0.00 0.00 0.00 0.00 0.00 0.00 0.00
0.03 0.02 0.04 0.03 0.02 0.03 0.03 0.05 0.05 0.06 0.09 0.12 0.13 0.13 0.12 0.14 0.13 0.14 0.14 0.12 0.17 0.18 0.13 0.14 0.22 0.40 0.37 0.10 0.01 0.00 0.05 0.05 0.05 0.19 0.19 0.10 0.02 0.00 0.00 0.00 0.00 0.00 0.00 0.00 0.00 0.00 0.00
0.03 0.03 0.04 0.03 0.03 0.04 0.05 0.06 0.07 0.06 0.09 0.11 0.13 0.12 0.10 0.15 0.17 0.19 0.22 0.22 0.19 0.18 0.17 0.23 0.38 0.44 0.29 0.04 0.01 0.00 0.03 0.15 0.11 0.11 0.21 0.15 0.07 0.00 0.00 0.00 0.00 0.00 0.00 0.00 0.00 0.00 0.00
0.03 0.04 0.03 0.03 0.04 0.05 0.07 0.08 0.07 0.09 0.09 0.07 0.14 0.13 0.11 0.17 0.20 0.22 0.26 0.22 0.28 0.32 0.37 0.36 0.43 0.48 0.21 0.01 0.01 0.00 0.03 0.10 0.11 0.22 0.27 0.27 0.16 0.03 0.00 0.00 0.00 0.00 0.00 0.00 0.00 0.00 0.00
0.04 0.04 0.04 0.05 0.04 0.07 0.10 0.09 0.11 0.09 0.07 0.12 0.14 0.13 0.16 0.18 0.27 0.29 0.32 0.34 0.44 0.46 0.50 0.64 0.52 0.28 0.07 0.01 0.03 0.00 0.02 0.06 0.04 0.16 0.28 0.36 0.42 0.12 0.01 0.00 0.00 0.00 0.00 0.00 0.00 0.00 0.00
0.04 0.04 0.05 0.05 0.06 0.10 0.13 0.12 0.12 0.09 0.11 0.16 0.16 0.12 0.18 0.21 0.31 0.33 0.42 0.50 0.76 0.76 0.67 1.14 0.59 0.41 0.07 0.02 0.02 0.00 0.00 0.02 0.13 0.18 0.28 0.30 0.56 0.35 0.06 0.01 0.00 0.00 0.00 0.00 0.00 0.00 0.00
0.04 0.04 0.06 0.05 0.08 0.12 0.14 0.14 0.09 0.12 0.16 0.20 0.19 0.16 0.18 0.17 0.25 0.51 0.81 1.01 1.13 1.30 0.97 0.65 0.30 0.23 0.03 0.05 0.03 0.01 0.00 0.04 0.29 0.24 0.22 0.29 0.29 0.37 0.10 0.00 0.00 0.00 0.00 0.00 0.00 0.00 0.00
0.04 0.06 0.05 0.06 0.11 0.15 0.13 0.13 0.10 0.16 0.24 0.22 0.17 0.10 0.10 0.13 0.25 0.64 0.93 0.96 0.66 0.72 0.72 0.32 0.28 0.24 0.05 0.09 0.03 0.00 0.00 0.04 0.15 0.14 0.14 0.26 0.25 0.13 0.17 0.10 0.01 0.00 0.00 0.00 0.00 0.00 0.00
0.04 0.06 0.03 0.08 0.12 0.14 0.13 0.10 0.15 0.23 0.23 0.17 0.11 0.12 0.16 0.29 0.34 0.83 0.70 0.43 0.39 0.75 0.65 0.42 0.36 0.22 0.09 0.06 0.01 0.00 0.00 0.05 0.09 0.06 0.08 0.10 0.07 0.13 0.10 0.22 0.07 0.00 0.00 0.00 0.00 0.00 0.00
0.06 0.04 0.05 0.11 0.13 0.13 0.11 0.12 0.19 0.25 0.17 0.10 0.13 0.20 0.34 0.61 0.81 0.68 0.59 0.26 0.48 0.90 0.68 0.58 0.42 0.22 0.14 0.04 0.00 0.00 0.01 0.04 0.05 0.06 0.03 0.02 0.00 0.06 0.05 0.08 0.11 0.02 0.00 0.00 0.00 0.00 0.00
0.06 0.02 0.08 0.11 0.13 0.11 0.11 0.16 0.19 0.13 0.09 0.15 0.31 0.41 0.37 0.66 0.96 0.69 0.68 0.44 0.62 1.01 0.76 0.44 0.36 0.22 0.16 0.03 0.00 0.03 0.02 0.01 0.01 0.06 0.01 0.01 0.00 0.00 0.01 0.01 0.03 0.00 0.00 0.00 0.00 0.00 0.01
0.03 0.05 0.11 0.11 0.12 0.11 0.11 0.15 0.12 0.09 0.23 0.35 0.30 0.19 0.26 0.29 0.60 0.62 0.66 0.76 1.00 1.08 1.06 0.87 0.45 0.24 0.14 0.05 0.02 0.03 0.03 0.02 0.01 0.01 0.00 0.00 0.00 0.00 0.00 0.00 0.00 0.00 0.00 0.01 0.01 0.04 0.07
0.03 0.07 0.11 0.12 0.11 0.11 0.12 0.11 0.08 0.21 0.38 0.32 0.27 0.23 0.22 0.22 0.38 0.63 1.23 1.04 1.11 0.69 0.78 0.65 0.34 0.11 0.06 0.05 0.05 0.05 0.05 0.03 0.02 0.03 0.03 0.01 0.00 0.00 0.00 0.00 0.00 0.02 0.07 0.06 0.07 0.10 0.03
0.04 0.09 0.12 0.12 0.11 0.11 0.13 0.06 0.09 0.16 0.24 0.29 0.44 0.13 0.20 0.22 0.51 0.70 1.65 1.00 0.56 0.25 0.56 0.41 0.06 0.06 0.06 0.04 0.09 0.06 0.03 0.02 0.01 0.01 0.01 0.00 0.00 0.00 0.00 0.00 0.00 0.01 0.03 0.06 0.02 0.00 0.00
0.05 0.09 0.12 0.12 0.11 0.10 0.11 0.03 0.04 0.09 0.22 0.44 0.24 0.17 0.41 0.22 0.55 1.03 1.26 0.84 0.45 0.52 0.60 0.23 0.11 0.08 0.11 0.05 0.07 0.04 0.03 0.00 0.00 0.01 0.01 0.00 0.00 0.00 0.00 0.00 0.00 0.02 0.03 0.02 0.08 0.06 0.09
0.05 0.08 0.12 0.12 0.09 0.11 0.07 0.03 0.02 0.08 0.43 0.62 0.20 0.19 0.38 0.32 0.47 1.27 1.08 0.78 0.51 0.30 0.08 0.01 0.13 0.07 0.05 0.03 0.03 0.02 0.01 0.00 0.00 0.00 0.00 0.00 0.00 0.00 0.00 0.00 0.00 0.01 0.01 0.04 0.13 0.07 0.04
0.05 0.08 0.12 0.11 0.07 0.09 0.04 0.03 0.01 0.08 0.34 0.41 0.14 0.48 0.40 0.54 0.58 1.17 1.17 0.75 0.43 0.07 0.01 0.00 0.00 0.00 0.00 0.00 0.00 0.00 0.00 0.00 0.00 0.00 0.00 0.00 0.00 0.00 0.00 0.00 0.00 0.01 0.03 0.05 0.07 0.02 0.02
0.05 0.09 0.10 0.09 0.06 0.06 0.03 0.02 0.01 0.09 0.30 0.34 0.19 0.50 0.37 0.50 0.62 0.82 0.92 0.68 0.32 0.09 0.01 0.00 0.00 0.00 0.00 0.00 0.00 0.00 0.00 0.00 0.00 0.00 0.00 0.00 0.01 0.01 0.00 0.00 0.00 0.00 0.00 0.04 0.18 0.05 0.13
0.06 0.08 0.08 0.07 0.07 0.04 0.03 0.01 0.01 0.09 0.60 0.66 0.39 0.57 0.48 0.35 0.21 0.47 0.75 0.34 0.11 0.04 0.02 0.01 0.00 0.00 0.00 0.00 0.00 0.00 0.00 0.00 0.00 0.00 0.00 0.00 0.02 0.01 0.00 0.00 0.00 0.02 0.01 0.05 0.18 0.48 0.45
0.06 0.06 0.08 0.07 0.08 0.04 0.02 0.00 0.01 0.06 0.22 0.46 0.35 0.37 0.71 0.42 0.20 0.36 0.37 0.25 0.12 0.02 0.01 0.00 0.00 0.00 0.00 0.01 0.00 0.00 0.00 0.00 0.00 0.00 0.00 0.00 0.01 0.00 0.00 0.00 0.07 0.20 0.06 0.12 0.65 0.86 0.19
0.06 0.05 0.05 0.07 0.07 0.04 0.01 0.00 0.02 0.09 0.08 0.17 0.09 0.04 0.13 0.16 0.19 0.16 0.11 0.05 0.04 0.00 0.00 0.00 0.01 0.00 0.01 0.01 0.01 0.01 0.00 0.00 0.00 0.00 0.00 0.00 0.02 0.00 0.00 0.01 0.07 0.14 0.17 0.21 0.62 0.40 0.60
0.04 0.04 0.04 0.06 0.06 0.03 0.01 0.00 0.01 0.08 0.20 0.22 0.07 0.06 0.04 0.03 0.03 0.07 0.06 0.03 0.03 0.01 0.00 0.00 0.00 0.00 0.01 0.01 0.01 0.00 0.00 0.00 0.00 0.00 0.00 0.01 0.05 0.02 0.01 0.02 0.11 0.28 0.16 0.31 0.30 0.23 0.27
0.04 0.03 0.04 0.05 0.04 0.02 0.01 0.00 0.00 0.04 0.19 0.10 0.06 0.17 0.09 0.04 0.01 0.02 0.01 0.01 0.01 0.01 0.00 0.00 0.00 0.01 0.01 0.00 0.00 0.00 0.00 0.00 0.00 0.01 0.01 0.05 0.09 0.14 0.05 0.05 0.13 0.30 0.27 0.16 0.07 0.10 0.11
0.04 0.03 0.03 0.05 0.04 0.02 0.01 0.00 0.00 0.02 0.14 0.17 0.24 0.31 0.18 0.08 0.03 0.01 0.00 0.01 0.02 0.01 0.01 0.00 0.00 0.00 0.00 0.00 0.00 0.00 0.00 0.00 0.01 0.01 0.01 0.03 0.10 0.17 0.09 0.11 0.33 0.22 0.10 0.03 0.02 0.03 0.03
0.03 0.03 0.03 0.04 0.03 0.01 0.01 0.00 0.00 0.00 0.05 0.07 0.32 0.34 0.19 0.07 0.03 0.01 0.01 0.02 0.04 0.00 0.00 0.03 0.03 0.02 0.04 0.05 0.04 0.02 0.01 0.01 0.00 0.00 0.01 0.01 0.05 0.17 0.12 0.11 0.09 0.01 0.01 0.01 0.05 0.14 0.08
0.03 0.02 0.03 0.04 0.03 0.01 0.01 0.00 0.00 0.00 0.02 0.02 0.16 0.33 0.37 0.09 0.02 0.01 0.01 0.01 0.03 0.03 0.03 0.07 0.11 0.08 0.09 0.10 0.06 0.03 0.01 0.00 0.00 0.02 0.01 0.01 0.04 0.20 0.11 0.13 0.01 0.00 0.00 0.00 0.03 0.19 0.25
0.02 0.02 0.03 0.04 0.02 0.01 0.01 0.00 0.00 0.00 0.02 0.01 0.07 0.25 0.15 0.08 0.03 0.01 0.01 0.01 0.01 0.03 0.05 0.09 0.10 0.08 0.13 0.14 0.04 0.03 0.01 0.00 0.01 0.02 0.02 0.04 0.08 0.14 0.11 0.17 0.01 0.00 0.00 0.00 0.00 0.10 0.11
0.02 0.02 0.03 0.04 0.02 0.02 0.01 0.00 0.00 0.00 0.02 0.01 0.06 0.16 0.12 0.07 0.05 0.02 0.02 0.03 0.01 0.02 0.04 0.07 0.09 0.09 0.16 0.13 0.05 0.02 0.01 0.01 0.00 0.01 0.00 0.02 0.02 0.03 0.05 0.06 0.00 0.00 0.00 0.00 0.00 0.00 0.00
0.02 0.03 0.03 0.04 0.03 0.02 0.00 0.01 0.00 0.01 0.03 0.01 0.07 0.06 0.09 0.07 0.06 0.02 0.00 0.00 0.00 0.01 0.06 0.12 0.13 0.14 0.11 0.07 0.02 0.02 0.02 0.01 0.00 0.01 0.00 0.00 0.00 0.01 0.00 0.00 0.00 0.00 0.00 0.00 0.00 0.00 0.00

GFSGBSN_prec_precacc24_057.txt.gz
Total_Precipitation_Accumulation
0.03 0.02 0.03 0.03 0.03 0.03 0.03 0.04 0.05 0.05 0.05 0.07 0.09 0.12 0.12 0.09 0.12 0.13 0.15 0.15 0.12 0.13 0.12 0.13 0.19 0.38 0.50 0.24 0.07 0.07 0.05 0.02 0.10 0.29 0.12 0.05 0.01 0.01 0.00 0.00 0.00 0.00 0.00 0.00 0.00 0.00 0.00
0.03 0.03 0.04 0.03 0.03 0.04 0.04 0.06 0.07 0.06 0.06 0.09 0.10 0.11 0.08 0.09 0.09 0.14 0.15 0.13 0.20 0.22 0.15 0.15 0.26 0.44 0.44 0.16 0.01 0.02 0.06 0.07 0.05 0.19 0.18 0.11 0.02 0.00 0.00 0.00 0.00 0.00 0.00 0.00 0.00 0.00 0.00
0.03 0.03 0.04 0.03 0.04 0.04 0.06 0.08 0.08 0.06 0.09 0.11 0.11 0.09 0.06 0.11 0.12 0.17 0.23 0.23 0.19 0.18 0.19 0.25 0.42 0.50 0.33 0.07 0.01 0.02 0.03 0.17 0.13 0.11 0.21 0.16 0.07 0.00 0.00 0.00 0.00 0.00 0.00 0.00 0.00 0.00 0.00
0.03 0.04 0.04 0.04 0.04 0.05 0.09 0.09 0.09 0.10 0.10 0.08 0.14 0.09 0.08 0.14 0.14 0.17 0.25 0.22 0.28 0.35 0.45 0.43 0.53 0.53 0.22 0.01 0.01 0.02 0.04 0.17 0.14 0.22 0.27 0.32 0.18 0.03 0.00 0.00 0.00 0.00 0.00 0.00 0.00 0.00 0.00
0.04 0.04 0.04 0.06 0.04 0.07 0.12 0.10 0.12 0.10 0.08 0.13 0.17 0.11 0.12 0.13 0.19 0.21 0.28 0.34 0.42 0.43 0.51 0.71 0.60 0.31 0.08 0.02 0.04 0.02 0.05 0.14 0.09 0.21 0.36 0.53 0.57 0.16 0.01 0.00 0.00 0.00 0.00 0.00 0.00 0.00 0.00
0.04 0.04 0.05 0.06 0.06 0.12 0.16 0.14 0.13 0.09 0.12 0.17 0.18 0.13 0.13 0.15 0.23 0.25 0.37 0.47 0.74 0.76 0.67 1.16 0.63 0.43 0.08 0.02 0.06 0.03 0.02 0.13 0.20 0.24 0.40 0.46 0.67 0.39 0.07 0.02 0.00 0.00 0.00 0.00 0.00 0.00 0.00
0.04 0.04 0.06 0.04 0.08 0.15 0.15 0.15 0.10 0.13 0.17 0.20 0.18 0.15 0.14 0.12 0.16 0.37 0.69 0.99 1.13 1.30 0.97 0.66 0.31 0.26 0.05 0.06 0.10 0.04 0.03 0.13 0.41 0.31 0.34 0.39 0.31 0.38 0.10 0.00 0.00 0.00 0.00 0.00 0.00 0.00 0.00
0.04 0.06 0.05 0.05 0.11 0.15 0.14 0.13 0.12 0.17 0.21 0.21 0.17 0.10 0.12 0.16 0.20 0.36 0.80 0.95 0.66 0.72 0.72 0.33 0.29 0.29 0.07 0.11 0.17 0.04 0.04 0.11 0.23 0.20 0.37 0.52 0.27 0.13 0.17 0.11 0.01 0.00 0.00 0.00 0.00 0.00 0.00
0.04 0.06 0.03 0.08 0.12 0.15 0.13 0.09 0.16 0.19 0.20 0.16 0.13 0.16 0.25 0.38 0.41 0.43 0.54 0.42 0.39 0.75 0.65 0.42 0.37 0.31 0.15 0.13 0.12 0.02 0.03 0.08 0.14 0.22 0.28 0.52 0.18 0.17 0.16 0.25 0.08 0.00 0.00 0.00 0.00 0.00 0.00
0.06 0.03 0.04 0.11 0.14 0.14 0.11 0.11 0.16 0.18 0.14 0.10 0.15 0.26 0.42 0.60 0.67 0.29 0.33 0.23 0.48 0.90 0.68 0.59 0.44 0.31 0.19 0.19 0.09 0.00 0.02 0.09 0.13 0.31 0.23 0.29 0.25 0.19 0.19 0.19 0.13 0.02 0.00 0.00 0.00 0.00 0.00
0.05 0.02 0.07 0.11 0.13 0.11 0.10 0.13 0.15 0.09 0.11 0.16 0.31 0.44 0.41 0.58 0.53 0.31 0.40 0.37 0.61 1.01 0.77 0.48 0.44 0.34 0.32 0.16 0.04 0.03 0.03 0.02 0.04 0.15 0.10 0.17 0.15 0.14 0.23 0.17 0.09 0.05 0.00 0.00 0.00 0.00 0.00
0.02 0.03 0.09 0.11 0.11 0.10 0.11 0.13 0.09 0.06 0.14 0.27 0.25 0.19 0.27 0.26 0.25 0.16 0.48 0.69 0.99 1.08 1.10 0.94 0.58 0.39 0.30 0.07 0.01 0.03 0.05 0.02 0.02 0.12 0.02 0.03 0.04 0.02 0.04 0.03 0.03 0.02 0.00 0.00 0.00 0.02 0.03
0.03 0.05 0.09 0.11 0.10 0.10 0.12 0.11 0.05 0.06 0.14 0.18 0.20 0.22 0.21 0.20 0.13 0.15 0.97 0.87 1.10 0.70 0.80 0.69 0.48 0.16 0.11 0.06 0.06 0.07 0.10 0.03 0.02 0.08 0.05 0.01 0.00 0.00 0.00 0.00 0.00 0.01 0.02 0.01 0.01 0.05 0.01
0.03 0.06 0.10 0.11 0.10 0.10 0.13 0.06 0.04 0.03 0.08 0.14 0.26 0.08 0.19 0.19 0.22 0.24 1.30 0.89 0.57 0.27 0.59 0.47 0.09 0.09 0.09 0.05 0.10 0.07 0.06 0.02 0.00 0.00 0.00 0.00 0.00 0.00 0.00 0.00 0.00 0.01 0.01 0.01 0.00 0.00 0.00
0.03 0.06 0.10 0.10 0.09 0.10 0.11 0.03 0.02 0.02 0.10 0.31 0.16 0.08 0.35 0.19 0.24 0.42 0.88 0.73 0.49 0.58 0.67 0.27 0.13 0.08 0.12 0.05 0.09 0.05 0.03 0.00 0.00 0.00 0.00 0.00 0.00 0.00 0.00 0.00 0.00 0.01 0.02 0.01 0.03 0.01 0.01
0.04 0.06 0.10 0.09 0.07 0.10 0.06 0.03 0.01 0.02 0.13 0.38 0.16 0.12 0.33 0.23 0.17 0.58 0.76 0.73 0.52 0.31 0.08 0.01 0.14 0.07 0.05 0.04 0.03 0.02 0.01 0.00 0.00 0.00 0.00 0.00 0.00 0.00 0.00 0.00 0.00 0.00 0.00 0.02 0.06 0.01 0.00
0.04 0.06 0.09 0.08 0.06 0.08 0.03 0.03 0.00 0.02 0.11 0.27 0.11 0.44 0.34 0.25 0.23 0.51 0.87 0.72 0.43 0.07 0.01 0.00 0.00 0.00 0.00 0.00 0.00 0.00 0.00 0.00 0.00 0.00 0.00 0.00 0.00 0.00 0.00 0.00 0.00 0.00 0.02 0.02 0.04 0.01 0.01
0.04 0.07 0.07 0.06 0.05 0.05 0.02 0.02 0.00 0.04 0.18 0.19 0.14 0.47 0.26 0.16 0.15 0.42 0.82 0.68 0.32 0.09 0.01 0.00 0.00 0.00 0.00 0.00 0.00 0.00 0.00 0.00 0.00 0.00 0.00 0.00 0.01 0.00 0.00 0.00 0.00 0.00 0.00 0.01 0.11 0.03 0.10
0.04 0.06 0.05 0.05 0.05 0.03 0.02 0.01 0.00 0.05 0.42 0.35 0.34 0.49 0.33 0.21 0.12 0.37 0.72 0.34 0.11 0.04 0.02 0.01 0.00 0.00 0.00 0.00 0.00 0.00 0.00 0.00 0.00 0.00 0.00 0.00 0.01 0.00 0.00 0.00 0.00 0.00 0.00 0.00 0.09 0.34 0.31
0.04 0.05 0.05 0.04 0.06 0.03 0.01 0.00 0.00 0.03 0.17 0.36 0.34 0.30 0.18 0.21 0.17 0.35 0.37 0.25 0.12 0.02 0.01 0.00 0.00 0.00 0.00 0.00 0.00 0.00 0.00 0.00 0.00 0.00 0.00 0.00 0.01 0.00 0.00 0.00 0.01 0.06 0.04 0.08 0.45 0.62 0.13
0.04 0.04 0.03 0.04 0.05 0.03 0.01 0.00 0.00 0.02 0.01 0.11 0.08 0.03 0.03 0.08 0.16 0.16 0.11 0.05 0.04 0.00 0.00 0.00 0.00 0.00 0.00 0.00 0.00 0.00 0.00 0.00 0.00 0.00 0.00 0.00 0.01 0.00 0.00 0.00 0.00 0.02 0.06 0.10 0.41 0.30 0.44
0.03 0.03 0.02 0.03 0.04 0.02 0.01 0.00 0.00 0.02 0.08 0.16 0.05 0.03 0.03 0.03 0.03 0.06 0.06 0.03 0.02 0.00 0.00 0.00 0.00 0.00 0.00 0.00 0.00 0.00 0.00 0.00 0.00 0.00 0.00 0.00 0.02 0.01 0.00 0.00 0.03 0.09 0.06 0.13 0.15 0.13 0.15
0.03 0.02 0.02 0.02 0.04 0.02 0.01 0.00 0.00 0.00 0.05 0.05 0.02 0.03 0.05 0.02 0.01 0.01 0.01 0.01 0.01 0.00 0.00 0.00 0.00 0.00 0.00 0.00 0.00 0.00 0.00 0.00 0.00 0.00 0.01 0.02 0.03 0.06 0.02 0.02 0.01 0.10 0.13 0.08 0.03 0.03 0.03
0.03 0.02 0.02 0.02 0.04 0.01 0.01 0.00 0.00 0.00 0.05 0.07 0.09 0.15 0.10 0.02 0.01 0.00 0.00 0.00 0.01 0.01 0.01 0.00 0.00 0.00 0.00 0.00 0.00 0.00 0.00 0.00 0.01 0.01 0.01 0.02 0.03 0.07 0.04 0.02 0.08 0.07 0.04 0.01 0.01 0.02 0.02
0.02 0.02 0.01 0.02 0.03 0.01 0.01 0.00 0.00 0.00 0.01 0.03 0.18 0.20 0.13 0.05 0.02 0.00 0.00 0.00 0.00 0.00 0.00 0.00 0.00 0.00 0.01 0.02 0.03 0.01 0.01 0.01 0.00 0.00 0.01 0.01 0.03 0.10 0.06 0.03 0.03 0.00 0.00 0.00 0.05 0.14 0.08
0.01 0.02 0.01 0.02 0.02 0.01 0.01 0.00 0.00 0.00 0.01 0.01 0.14 0.20 0.14 0.07 0.02 0.00 0.00 0.00 0.01 0.01 0.01 0.03 0.06 0.04 0.04 0.06 0.04 0.02 0.01 0.00 0.00 0.02 0.01 0.01 0.04 0.16 0.08 0.08 0.01 0.00 0.00 0.00 0.03 0.18 0.25
0.02 0.02 0.02 0.02 0.02 0.01 0.01 0.00 0.00 0.00 0.01 0.01 0.04 0.17 0.09 0.08 0.03 0.01 0.01 0.01 0.00 0.01 0.03 0.05 0.04 0.04 0.09 0.10 0.03 0.02 0.01 0.00 0.01 0.02 0.02 0.05 0.08 0.13 0.09 0.16 0.01 0.00 0.00 0.00 0.01 0.10 0.09
0.02 0.02 0.02 0.02 0.01 0.02 0.01 0.00 0.00 0.00 0.01 0.00 0.02 0.10 0.08 0.07 0.05 0.02 0.02 0.03 0.01 0.02 0.02 0.01 0.03 0.02 0.08 0.09 0.04 0.01 0.01 0.01 0.00 0.01 0.00 0.02 0.02 0.03 0.05 0.07 0.00 0.00 0.00 0.00 0.00 0.00 0.00
0.02 0.02 0.02 0.02 0.02 0.02 0.01 0.01 0.01 0.01 0.01 0.00 0.02 0.05 0.08 0.07 0.06 0.02 0.00 0.00 0.00 0.01 0.01 0.01 0.04 0.03 0.05 0.05 0.02 0.02 0.02 0.01 0.00 0.01 0.00 0.00 0.00 0.01 0.00 0.00 0.00 0.00 0.00 0.00 0.00 0.00 0.00

GFSGBSN_prec_precacc24_060.txt.gz
Total_Precipitation_Accumulation
0.03 0.03 0.03 0.04 0.03 0.04 0.03 0.05 0.08 0.07 0.06 0.07 0.09 0.12 0.11 0.08 0.05 0.08 0.16 0.16 0.13 0.14 0.13 0.14 0.19 0.40 0.53 0.26 0.07 0.11 0.09 0.04 0.14 0.30 0.11 0.05 0.03 0.02 0.01 0.00 0.00 0.00 0.00 0.00 0.00 0.00 0.00
0.03 0.03 0.04 0.03 0.04 0.04 0.04 0.08 0.10 0.08 0.07 0.10 0.12 0.15 0.11 0.09 0.06 0.08 0.13 0.14 0.21 0.24 0.17 0.16 0.28 0.52 0.49 0.18 0.01 0.04 0.13 0.07 0.06 0.21 0.18 0.11 0.03 0.01 0.01 0.00 0.00 0.00 0.00 0.00 0.00 0.00 0.00
0.04 0.04 0.04 0.04 0.05 0.04 0.06 0.11 0.12 0.08 0.10 0.12 0.13 0.13 0.06 0.11 0.11 0.12 0.17 0.22 0.21 0.20 0.20 0.28 0.47 0.61 0.36 0.07 0.02 0.05 0.10 0.17 0.16 0.11 0.20 0.16 0.08 0.01 0.00 0.00 0.00 0.00 0.00 0.00 0.00 0.00 0.00
0.03 0.04 0.04 0.05 0.05 0.06 0.10 0.12 0.11 0.11 0.12 0.11 0.17 0.13 0.12 0.17 0.14 0.11 0.16 0.20 0.28 0.36 0.49 0.54 0.65 0.60 0.23 0.01 0.02 0.03 0.07 0.19 0.17 0.23 0.26 0.37 0.22 0.03 0.00 0.00 0.00 0.00 0.00 0.00 0.00 0.00 0.00
0.04 0.04 0.04 0.06 0.05 0.08 0.14 0.12 0.13 0.11 0.12 0.15 0.18 0.13 0.13 0.12 0.15 0.13 0.19 0.26 0.40 0.42 0.51 0.80 0.69 0.35 0.10 0.04 0.06 0.02 0.06 0.17 0.12 0.23 0.41 0.68 0.69 0.21 0.02 0.00 0.00 0.00 0.00 0.00 0.00 0.00 0.00
0.03 0.04 0.05 0.05 0.05 0.12 0.16 0.14 0.13 0.12 0.15 0.18 0.20 0.15 0.14 0.16 0.20 0.19 0.20 0.27 0.68 0.73 0.65 1.15 0.64 0.47 0.08 0.03 0.10 0.04 0.03 0.18 0.28 0.29 0.54 0.69 0.87 0.48 0.10 0.02 0.00 0.00 0.00 0.00 0.00 0.00 0.00
0.04 0.05 0.06 0.04 0.07 0.15 0.15 0.15 0.10 0.16 0.18 0.23 0.22 0.19 0.18 0.19 0.27 0.33 0.18 0.50 1.08 1.30 0.97 0.67 0.32 0.28 0.09 0.11 0.14 0.08 0.05 0.35 0.57 0.34 0.36 0.43 0.51 0.45 0.11 0.01 0.00 0.00 0.00 0.00 0.00 0.00 0.00
0.04 0.06 0.05 0.04 0.10 0.16 0.14 0.13 0.12 0.17 0.22 0.21 0.17 0.15 0.18 0.26 0.44 0.36 0.22 0.60 0.64 0.72 0.72 0.33 0.31 0.30 0.08 0.16 0.20 0.16 0.08 0.50 0.34 0.22 0.40 0.56 0.29 0.14 0.18 0.11 0.01 0.00 0.00 0.00 0.00 0.00 0.00
0.04 0.05 0.02 0.08 0.12 0.15 0.13 0.09 0.15 0.17 0.19 0.13 0.14 0.19 0.26 0.39 0.46 0.50 0.14 0.17 0.38 0.75 0.65 0.44 0.40 0.36 0.19 0.19 0.17 0.13 0.14 0.23 0.19 0.28 0.47 0.60 0.20 0.19 0.16 0.26 0.08 0.00 0.00 0.00 0.00 0.00 0.00
0.05 0.03 0.03 0.10 0.12 0.13 0.10 0.10 0.16 0.16 0.13 0.09 0.15 0.28 0.42 0.58 0.66 0.24 0.05 0.03 0.40 0.89 0.71 0.65 0.52 0.39 0.25 0.24 0.18 0.03 0.28 0.17 0.18 0.51 0.46 0.50 0.36 0.23 0.21 0.20 0.13 0.03 0.00 0.00 0.00 0.00 0.00
0.04 0.01 0.06 0.09 0.12 0.11 0.09 0.13 0.13 0.09 0.10 0.09 0.18 0.36 0.37 0.54 0.51 0.24 0.20 0.15 0.43 0.99 0.83 0.57 0.51 0.42 0.36 0.21 0.19 0.10 0.22 0.16 0.15 0.31 0.29 0.41 0.42 0.21 0.30 0.22 0.10 0.06 0.00 0.00 0.00 0.00 0.00
0.02 0.02 0.07 0.09 0.09 0.09 0.10 0.13 0.08 0.06 0.09 0.09 0.11 0.13 0.21 0.22 0.23 0.09 0.26 0.31 0.64 1.04 1.16 0.97 0.62 0.43 0.31 0.17 0.05 0.09 0.10 0.17 0.10 0.17 0.10 0.31 0.37 0.21 0.16 0.20 0.14 0.03 0.00 0.00 0.00 0.00 0.01
0.02 0.04 0.07 0.09 0.08 0.08 0.10 0.10 0.05 0.05 0.08 0.08 0.10 0.11 0.16 0.19 0.13 0.10 0.47 0.36 0.71 0.66 0.83 0.77 0.55 0.18 0.13 0.10 0.05 0.09 0.10 0.05 0.04 0.15 0.16 0.30 0.14 0.11 0.08 0.07 0.09 0.03 0.01 0.00 0.00 0.02 0.00
0.01 0.05 0.08 0.08 0.07 0.08 0.11 0.06 0.04 0.02 0.04 0.08 0.11 0.04 0.13 0.18 0.19 0.07 0.72 0.44 0.47 0.27 0.64 0.54 0.11 0.11 0.12 0.06 0.10 0.10 0.06 0.01 0.00 0.01 0.04 0.05 0.04 0.04 0.04 0.00 0.01 0.00 0.01 0.00 0.00 0.00 0.00
0.02 0.05 0.08 0.07 0.06 0.07 0.08 0.03 0.02 0.01 0.05 0.12 0.09 0.07 0.30 0.17 0.19 0.08 0.38 0.45 0.47 0.60 0.69 0.29 0.13 0.09 0.13 0.06 0.09 0.07 0.03 0.00 0.00 0.00 0.00 0.00 0.00 0.00 0.00 0.00 0.00 0.00 0.00 0.00 0.01 0.00 0.00
0.02 0.04 0.07 0.06 0.05 0.06 0.04 0.02 0.01 0.01 0.07 0.18 0.09 0.09 0.25 0.18 0.10 0.14 0.36 0.56 0.52 0.31 0.08 0.01 0.14 0.07 0.05 0.04 0.03 0.02 0.01 0.00 0.00 0.00 0.00 0.00 0.00 0.00 0.00 0.00 0.00 0.00 0.00 0.01 0.02 0.00 0.00
0.02 0.04 0.06 0.05 0.04 0.04 0.02 0.02 0.00 0.02 0.06 0.13 0.05 0.41 0.29 0.16 0.11 0.17 0.44 0.62 0.43 0.07 0.01 0.00 0.00 0.00 0.00 0.00 0.00 0.00 0.00 0.00 0.00 0.00 0.00 0.00 0.00 0.00 0.00 0.00 0.00 0.00 0.01 0.00 0.01 0.00 0.00
0.02 0.05 0.04 0.04 0.03 0.03 0.01 0.01 0.00 0.03 0.13 0.09 0.08 0.32 0.20 0.10 0.08 0.23 0.57 0.65 0.32 0.09 0.01 0.00 0.00 0.00 0.00 0.00 0.00 0.00 0.00 0.00 0.00 0.00 0.00 0.00 0.00 0.00 0.00 0.00 0.00 0.00 0.00 0.00 0.02 0.00 0.03
0.03 0.05 0.04 0.03 0.02 0.02 0.01 0.00 0.00 0.04 0.23 0.15 0.24 0.23 0.18 0.16 0.09 0.33 0.59 0.31 0.11 0.04 0.02 0.01 0.00 0.00 0.00 0.00 0.00 0.00 0.00 0.00 0.00 0.00 0.00 0.00 0.00 0.00 0.00 0.00 0.00 0.00 0.00 0.00 0.03 0.17 0.14
0.02 0.04 0.04 0.03 0.03 0.02 0.00 0.00 0.00 0.01 0.08 0.29 0.20 0.18 0.09 0.10 0.14 0.34 0.35 0.24 0.12 0.02 0.01 0.00 0.00 0.00 0.00 0.00 0.00 0.00 0.00 0.00 0.00 0.00 0.00 0.00 0.00 0.00 0.00 0.00 0.00 0.00 0.00 0.02 0.25 0.34 0.06
0.02 0.03 0.03 0.02 0.02 0.02 0.00 0.00 0.00 0.00 0.00 0.09 0.06 0.03 0.01 0.05 0.15 0.16 0.11 0.05 0.04 0.00 0.00 0.00 0.00 0.00 0.00 0.00 0.00 0.00 0.00 0.00 0.00 0.00 0.00 0.00 0.01 0.00 0.00 0.00 0.00 0.00 0.00 0.01 0.15 0.17 0.31
0.02 0.02 0.02 0.02 0.02 0.02 0.00 0.00 0.00 0.00 0.00 0.01 0.02 0.02 0.01 0.00 0.02 0.06 0.05 0.03 0.02 0.00 0.00 0.00 0.00 0.00 0.00 0.00 0.00 0.00 0.00 0.00 0.00 0.00 0.00 0.00 0.01 0.01 0.00 0.00 0.00 0.00 0.00 0.03 0.05 0.06 0.09
0.02 0.02 0.02 0.01 0.02 0.01 0.00 0.00 0.00 0.00 0.01 0.01 0.01 0.00 0.03 0.01 0.00 0.01 0.00 0.01 0.01 0.00 0.00 0.00 0.00 0.00 0.00 0.00 0.00 0.00 0.00 0.00 0.00 0.00 0.00 0.02 0.01 0.01 0.01 0.00 0.00 0.02 0.01 0.02 0.02 0.02 0.03
0.01 0.01 0.02 0.01 0.02 0.01 0.01 0.00 0.00 0.00 0.01 0.03 0.04 0.07 0.03 0.01 0.00 0.00 0.00 0.00 0.01 0.01 0.00 0.00 0.00 0.00 0.00 0.00 0.00 0.00 0.00 0.00 0.01 0.01 0.01 0.01 0.01 0.03 0.02 0.00 0.01 0.01 0.00 0.00 0.01 0.02 0.02
0.01 0.01 0.01 0.01 0.01 0.01 0.00 0.00 0.00 0.00 0.00 0.02 0.06 0.08 0.05 0.03 0.01 0.00 0.00 0.00 0.00 0.00 0.00 0.00 0.00 0.00 0.00 0.00 0.01 0.01 0.01 0.01 0.00 0.00 0.01 0.01 0.01 0.05 0.03 0.01 0.01 0.00 0.00 0.00 0.03 0.08 0.05
0.01 0.01 0.01 0.01 0.02 0.01 0.01 0.00 0.00 0.00 0.00 0.01 0.07 0.08 0.07 0.05 0.01 0.00 0.00 0.00 0.00 0.00 0.00 0.01 0.01 0.01 0.02 0.02 0.03 0.02 0.00 0.00 0.00 0.02 0.00 0.01 0.02 0.11 0.06 0.05 0.00 0.00 0.00 0.00 0.02 0.09 0.10
0.01 0.01 0.01 0.01 0.01 0.01 0.01 0.00 0.00 0.00 0.00 0.00 0.03 0.05 0.04 0.08 0.03 0.01 0.01 0.00 0.00 0.01 0.01 0.03 0.02 0.02 0.04 0.05 0.02 0.01 0.01 0.00 0.01 0.02 0.03 0.05 0.07 0.11 0.07 0.12 0.00 0.00 0.00 0.00 0.01 0.01 0.01
0.01 0.01 0.01 0.01 0.01 0.01 0.01 0.01 0.00 0.00 0.00 0.00 0.01 0.04 0.04 0.06 0.05 0.02 0.02 0.03 0.01 0.02 0.01 0.00 0.00 0.01 0.04 0.04 0.02 0.01 0.00 0.00 0.00 0.01 0.00 0.02 0.02 0.03 0.05 0.06 0.00 0.00 0.00 0.00 0.00 0.00 0.00
0.02 0.02 0.01 0.01 0.02 0.01 0.01 0.01 0.01 0.01 0.01 0.00 0.01 0.02 0.05 0.07 0.06 0.02 0.00 0.00 0.00 0.01 0.01 0.00 0.00 0.00 0.00 0.02 0.01 0.02 0.01 0.01 0.00 0.01 0.00 0.00 0.00 0.01 0.00 0.00 0.00 0.00 0.00 0.00 0.00 0.00 0.00

GFSGBSN_prec_precacc24_066.txt.gz
Total_Precipitation_Accumulation
0.04 0.03 0.03 0.04 0.04 0.04 0.04 0.07 0.12 0.10 0.08 0.09 0.13 0.18 0.17 0.13 0.13 0.17 0.16 0.09 0.05 0.14 0.18 0.20 0.24 0.44 0.54 0.26 0.07 0.16 0.14 0.11 0.23 0.30 0.05 0.05 0.03 0.04 0.02 0.00 0.00 0.00 0.00 0.00 0.00 0.00 0.00
0.03 0.03 0.04 0.04 0.04 0.04 0.05 0.12 0.13 0.10 0.09 0.13 0.18 0.21 0.16 0.14 0.12 0.17 0.16 0.11 0.10 0.17 0.21 0.24 0.33 0.61 0.52 0.19 0.01 0.05 0.16 0.11 0.29 0.34 0.11 0.09 0.03 0.02 0.03 0.02 0.01 0.00 0.00 0.00 0.00 0.00 0.00
0.03 0.03 0.03 0.04 0.05 0.05 0.08 0.15 0.12 0.08 0.13 0.18 0.19 0.17 0.11 0.18 0.16 0.14 0.13 0.08 0.07 0.08 0.19 0.35 0.59 0.72 0.39 0.07 0.02 0.07 0.15 0.20 0.29 0.32 0.15 0.11 0.08 0.05 0.03 0.04 0.01 0.00 0.00 0.00 0.00 0.00 0.00
0.02 0.03 0.04 0.04 0.04 0.05 0.11 0.14 0.11 0.11 0.15 0.17 0.22 0.17 0.17 0.21 0.17 0.10 0.09 0.07 0.03 0.14 0.44 0.59 0.80 0.68 0.26 0.01 0.02 0.03 0.12 0.22 0.21 0.43 0.29 0.34 0.26 0.10 0.05 0.04 0.02 0.02 0.00 0.00 0.00 0.00 0.00
0.02 0.03 0.04 0.05 0.03 0.07 0.13 0.11 0.11 0.11 0.14 0.21 0.23 0.20 0.18 0.14 0.16 0.15 0.10 0.07 0.02 0.06 0.32 0.80 0.76 0.39 0.12 0.04 0.06 0.03 0.14 0.20 0.15 0.47 0.49 0.73 0.80 0.33 0.10 0.07 0.06 0.03 0.01 0.00 0.00 0.00 0.00
0.03 0.03 0.04 0.03 0.03 0.10 0.13 0.12 0.10 0.11 0.16 0.24 0.22 0.18 0.12 0.13 0.18 0.17 0.11 0.03 0.00 0.03 0.28 1.09 0.68 0.53 0.11 0.04 0.13 0.08 0.21 0.28 0.35 0.67 0.80 0.87 1.08 0.65 0.21 0.09 0.03 0.00 0.00 0.00 0.00 0.00 0.00
0.03 0.04 0.04 0.01 0.06 0.11 0.11 0.11 0.09 0.15 0.18 0.23 0.18 0.14 0.11 0.19 0.30 0.34 0.12 0.00 0.06 0.19 0.53 0.67 0.38 0.32 0.16 0.25 0.37 0.26 0.34 0.50 0.78 0.92 0.60 0.55 0.73 0.54 0.13 0.01 0.00 0.00 0.00 0.00 0.00 0.00 0.00
0.03 0.03 0.02 0.03 0.07 0.10 0.08 0.09 0.11 0.14 0.17 0.17 0.13 0.12 0.15 0.24 0.44 0.35 0.12 0.01 0.03 0.22 0.45 0.28 0.32 0.32 0.12 0.44 0.65 0.48 0.35 0.81 0.69 0.71 0.49 0.64 0.43 0.21 0.22 0.12 0.01 0.00 0.00 0.00 0.00 0.00 0.00
0.02 0.03 0.01 0.05 0.08 0.10 0.07 0.06 0.12 0.12 0.14 0.11 0.10 0.13 0.18 0.26 0.42 0.48 0.10 0.01 0.02 0.18 0.38 0.39 0.41 0.40 0.34 0.73 0.55 0.39 0.42 0.88 0.51 0.40 0.50 0.61 0.23 0.28 0.26 0.29 0.09 0.00 0.00 0.00 0.00 0.00 0.00
0.03 0.02 0.02 0.06 0.07 0.07 0.06 0.07 0.11 0.09 0.12 0.08 0.09 0.17 0.21 0.36 0.48 0.20 0.04 0.02 0.01 0.16 0.41 0.60 0.53 0.46 0.52 0.63 0.41 0.26 0.79 0.86 0.40 0.53 0.50 0.54 0.39 0.39 0.42 0.25 0.15 0.03 0.00 0.00 0.00 0.00 0.00
0.02 0.00 0.03 0.05 0.06 0.06 0.05 0.08 0.08 0.05 0.09 0.07 0.09 0.13 0.18 0.32 0.24 0.15 0.11 0.08 0.01 0.18 0.59 0.61 0.56 0.46 0.46 0.37 0.37 0.48 0.64 0.61 0.25 0.36 0.33 0.48 0.49 0.34 0.62 0.40 0.12 0.06 0.00 0.00 0.00 0.00 0.00
0.01 0.01 0.03 0.04 0.04 0.04 0.05 0.07 0.04 0.04 0.08 0.08 0.08 0.08 0.14 0.13 0.13 0.07 0.07 0.05 0.03 0.22 0.90 0.94 0.65 0.46 0.41 0.32 0.31 0.58 0.32 0.37 0.15 0.27 0.19 0.44 0.49 0.34 0.46 0.49 0.26 0.05 0.00 0.00 0.00 0.00 0.00
0.00 0.00 0.03 0.04 0.04 0.03 0.05 0.05 0.02 0.03 0.07 0.08 0.09 0.08 0.10 0.09 0.05 0.04 0.08 0.03 0.05 0.29 0.74 0.78 0.61 0.29 0.32 0.37 0.39 0.33 0.29 0.21 0.16 0.31 0.31 0.59 0.44 0.32 0.27 0.33 0.21 0.05 0.01 0.02 0.02 0.01 0.00
0.00 0.01 0.04 0.04 0.04 0.03 0.05 0.02 0.02 0.01 0.04 0.07 0.08 0.02 0.05 0.12 0.07 0.02 0.04 0.03 0.16 0.22 0.61 0.56 0.12 0.11 0.12 0.07 0.14 0.15 0.13 0.08 0.05 0.04 0.17 0.27 0.37 0.37 0.28 0.18 0.14 0.06 0.02 0.02 0.01 0.00 0.00
0.00 0.01 0.03 0.03 0.03 0.02 0.03 0.01 0.00 0.01 0.05 0.09 0.04 0.04 0.10 0.09 0.06 0.00 0.02 0.13 0.27 0.58 0.69 0.29 0.11 0.07 0.11 0.05 0.09 0.06 0.03 0.01 0.03 0.04 0.08 0.07 0.11 0.21 0.21 0.08 0.09 0.08 0.02 0.00 0.00 0.00 0.00
0.00 0.01 0.03 0.03 0.02 0.02 0.02 0.01 0.00 0.01 0.05 0.08 0.01 0.01 0.06 0.06 0.01 0.01 0.12 0.31 0.40 0.31 0.08 0.01 0.13 0.07 0.04 0.04 0.03 0.02 0.01 0.00 0.00 0.00 0.00 0.01 0.05 0.09 0.14 0.08 0.05 0.05 0.01 0.00 0.00 0.00 0.00
0.00 0.01 0.03 0.02 0.02 0.01 0.01 0.00 0.00 0.02 0.04 0.05 0.00 0.01 0.06 0.01 0.00 0.02 0.22 0.34 0.38 0.07 0.01 0.00 0.00 0.00 0.00 0.00 0.00 0.00 0.00 0.00 0.00 0.00 0.00 0.00 0.00 0.01 0.01 0.02 0.01 0.02 0.01 0.00 0.00 0.00 0.00
0.00 0.01 0.02 0.01 0.01 0.01 0.00 0.00 0.00 0.03 0.08 0.02 0.00 0.01 0.04 0.02 0.01 0.06 0.34 0.50 0.31 0.09 0.01 0.00 0.00 0.00 0.00 0.00 0.00 0.00 0.00 0.00 0.00 0.00 0.00 0.00 0.00 0.00 0.00 0.00 0.00 0.00 0.00 0.00 0.00 0.00 0.00
0.01 0.01 0.02 0.01 0.01 0.01 0.00 0.00 0.00 0.02 0.08 0.01 0.00 0.01 0.02 0.02 0.02 0.13 0.35 0.24 0.10 0.04 0.02 0.01 0.00 0.00 0.00 0.00 0.00 0.00 0.00 0.00 0.00 0.00 0.00 0.00 0.00 0.00 0.00 0.00 0.00 0.00 0.00 0.00 0.00 0.01 0.01
0.00 0.01 0.02 0.01 0.01 0.01 0.00 0.00 0.00 0.00 0.01 0.00 0.00 0.01 0.01 0.03 0.07 0.15 0.23 0.18 0.10 0.01 0.01 0.00 0.00 0.00 0.00 0.00 0.00 0.00 0.00 0.00 0.00 0.00 0.00 0.00 0.00 0.00 0.00 0.00 0.00 0.00 0.00 0.00 0.00 0.04 0.01
0.01 0.01 0.01 0.01 0.01 0.01 0.00 0.00 0.00 0.00 0.00 0.00 0.00 0.00 0.00 0.04 0.13 0.06 0.05 0.02 0.01 0.00 0.00 0.00 0.00 0.00 0.00 0.00 0.00 0.00 0.00 0.00 0.00 0.00 0.00 0.00 0.00 0.00 0.00 0.00 0.00 0.00 0.00 0.00 0.01 0.01 0.08
0.00 0.01 0.00 0.01 0.01 0.01 0.00 0.00 0.00 0.00 0.00 0.00 0.00 0.00 0.00 0.00 0.02 0.04 0.03 0.02 0.01 0.00 0.00 0.00 0.00 0.00 0.00 0.00 0.00 0.00 0.00 0.00 0.00 0.00 0.00 0.00 0.00 0.00 0.00 0.00 0.00 0.00 0.00 0.00 0.00 0.00 0.00
0.00 0.01 0.01 0.00 0.01 0.01 0.00 0.00 0.00 0.00 0.00 0.00 0.00 0.00 0.01 0.00 0.00 0.00 0.00 0.00 0.00 0.00 0.00 0.00 0.00 0.00 0.00 0.00 0.00 0.00 0.00 0.00 0.00 0.00 0.00 0.00 0.00 0.00 0.00 0.00 0.00 0.00 0.00 0.00 0.00 0.00 0.00
0.00 0.01 0.01 0.00 0.01 0.01 0.00 0.00 0.00 0.00 0.00 0.01 0.02 0.03 0.01 0.00 0.00 0.00 0.00 0.00 0.00 0.00 0.00 0.00 0.00 0.00 0.00 0.00 0.00 0.00 0.00 0.00 0.00 0.00 0.00 0.00 0.00 0.00 0.00 0.00 0.00 0.00 0.00 0.00 0.00 0.00 0.00
0.00 0.01 0.01 0.00 0.00 0.01 0.00 0.00 0.00 0.00 0.00 0.00 0.01 0.02 0.02 0.01 0.00 0.00 0.00 0.00 0.00 0.00 0.00 0.00 0.00 0.00 0.00 0.00 0.00 0.00 0.00 0.00 0.00 0.00 0.00 0.00 0.00 0.00 0.00 0.00 0.00 0.00 0.00 0.00 0.00 0.00 0.00
0.01 0.01 0.01 0.01 0.01 0.01 0.00 0.00 0.00 0.00 0.00 0.00 0.01 0.01 0.01 0.02 0.00 0.00 0.00 0.00 0.00 0.01 0.01 0.00 0.00 0.00 0.00 0.01 0.01 0.00 0.00 0.00 0.00 0.01 0.00 0.01 0.01 0.02 0.03 0.01 0.00 0.00 0.00 0.00 0.00 0.00 0.00
0.01 0.01 0.01 0.01 0.01 0.00 0.00 0.00 0.00 0.00 0.00 0.00 0.00 0.00 0.01 0.04 0.00 0.00 0.00 0.00 0.00 0.01 0.01 0.03 0.00 0.00 0.00 0.02 0.02 0.01 0.00 0.00 0.00 0.01 0.02 0.04 0.05 0.05 0.04 0.04 0.00 0.00 0.00 0.00 0.02 0.01 0.00
0.01 0.01 0.01 0.01 0.01 0.01 0.01 0.01 0.00 0.00 0.00 0.00 0.00 0.01 0.02 0.03 0.01 0.01 0.01 0.01 0.00 0.01 0.02 0.03 0.02 0.01 0.02 0.02 0.01 0.00 0.00 0.00 0.00 0.00 0.00 0.02 0.01 0.02 0.03 0.03 0.00 0.00 0.00 0.01 0.01 0.00 0.00
0.02 0.02 0.01 0.01 0.02 0.01 0.01 0.01 0.02 0.02 0.02 0.01 0.01 0.02 0.02 0.06 0.03 0.01 0.00 0.00 0.00 0.01 0.03 0.04 0.04 0.00 0.02 0.02 0.01 0.00 0.00 0.00 0.00 0.01 0.00 0.00 0.00 0.00 0.00 0.00 0.00 0.00 0.00 0.00 0.00 0.00 0.00

GFSGBSN_prec_precacc24_069.txt.gz
Total_Precipitation_Accumulation
0.04 0.03 0.03 0.04 0.04 0.04 0.04 0.07 0.12 0.10 0.08 0.10 0.15 0.21 0.19 0.17 0.18 0.20 0.18 0.11 0.09 0.10 0.12 0.20 0.26 0.45 0.54 0.26 0.07 0.16 0.14 0.10 0.20 0.43 0.11 0.05 0.03 0.04 0.02 0.00 0.00 0.00 0.00 0.00 0.00 0.00 0.00
0.03 0.02 0.03 0.03 0.04 0.04 0.05 0.12 0.13 0.09 0.09 0.14 0.20 0.22 0.17 0.16 0.17 0.19 0.16 0.12 0.12 0.17 0.16 0.19 0.35 0.61 0.52 0.19 0.01 0.05 0.16 0.10 0.30 0.43 0.22 0.06 0.02 0.02 0.03 0.03 0.01 0.00 0.00 0.00 0.00 0.00 0.00
0.02 0.02 0.03 0.04 0.04 0.03 0.06 0.14 0.11 0.08 0.12 0.17 0.20 0.18 0.12 0.19 0.20 0.17 0.12 0.08 0.06 0.06 0.07 0.25 0.58 0.71 0.39 0.07 0.02 0.08 0.15 0.20 0.30 0.38 0.19 0.07 0.05 0.05 0.03 0.05 0.02 0.01 0.00 0.00 0.00 0.00 0.00
0.01 0.03 0.03 0.04 0.03 0.04 0.09 0.13 0.09 0.08 0.13 0.16 0.21 0.17 0.17 0.21 0.19 0.14 0.09 0.06 0.03 0.09 0.21 0.38 0.78 0.67 0.26 0.01 0.02 0.03 0.12 0.22 0.21 0.46 0.37 0.30 0.22 0.09 0.06 0.04 0.03 0.05 0.01 0.01 0.00 0.00 0.00
0.02 0.03 0.03 0.03 0.02 0.06 0.12 0.09 0.08 0.08 0.14 0.20 0.22 0.19 0.17 0.12 0.13 0.13 0.06 0.06 0.02 0.03 0.05 0.40 0.72 0.39 0.12 0.04 0.06 0.03 0.14 0.20 0.15 0.50 0.53 0.75 0.74 0.32 0.11 0.09 0.09 0.08 0.02 0.00 0.00 0.00 0.00
0.02 0.02 0.03 0.02 0.03 0.09 0.11 0.09 0.07 0.10 0.16 0.21 0.19 0.17 0.11 0.10 0.13 0.16 0.06 0.01 0.00 0.01 0.04 0.57 0.63 0.51 0.12 0.04 0.13 0.08 0.21 0.29 0.35 0.75 0.89 1.02 1.13 0.66 0.21 0.11 0.05 0.01 0.00 0.00 0.00 0.00 0.00
0.01 0.02 0.03 0.01 0.04 0.09 0.08 0.08 0.07 0.13 0.15 0.18 0.16 0.14 0.10 0.16 0.27 0.30 0.09 0.00 0.04 0.12 0.16 0.42 0.34 0.32 0.16 0.25 0.39 0.27 0.35 0.54 0.80 1.04 0.77 0.61 0.75 0.54 0.12 0.01 0.00 0.00 0.00 0.00 0.00 0.00 0.00
0.01 0.03 0.02 0.02 0.05 0.08 0.06 0.06 0.09 0.11 0.13 0.15 0.13 0.12 0.13 0.20 0.37 0.29 0.09 0.01 0.00 0.04 0.06 0.16 0.30 0.35 0.17 0.44 0.70 0.54 0.38 0.91 0.75 0.85 0.73 0.73 0.43 0.21 0.22 0.12 0.01 0.01 0.00 0.00 0.00 0.00 0.00
0.02 0.02 0.01 0.03 0.05 0.07 0.05 0.05 0.11 0.08 0.11 0.11 0.09 0.12 0.17 0.21 0.34 0.34 0.06 0.01 0.01 0.01 0.11 0.18 0.38 0.43 0.36 0.74 0.71 0.62 0.48 0.97 0.62 0.60 0.64 0.67 0.23 0.28 0.26 0.29 0.09 0.00 0.00 0.00 0.00 0.00 0.00
0.02 0.01 0.01 0.03 0.05 0.05 0.05 0.06 0.09 0.06 0.10 0.08 0.09 0.16 0.20 0.33 0.33 0.10 0.02 0.02 0.00 0.01 0.21 0.40 0.47 0.48 0.56 0.65 0.64 0.46 0.91 1.11 0.55 0.69 0.57 0.56 0.39 0.39 0.42 0.25 0.15 0.03 0.00 0.00 0.00 0.00 0.00
0.02 0.00 0.01 0.04 0.05 0.05 0.04 0.06 0.05 0.04 0.09 0.07 0.09 0.13 0.18 0.29 0.19 0.12 0.06 0.03 0.00 0.06 0.44 0.52 0.59 0.62 0.59 0.39 0.39 0.56 0.82 0.85 0.32 0.43 0.36 0.48 0.50 0.34 0.62 0.40 0.13 0.07 0.00 0.00 0.00 0.00 0.00
0.01 0.00 0.02 0.04 0.03 0.04 0.03 0.05 0.02 0.03 0.08 0.07 0.08 0.08 0.13 0.12 0.11 0.06 0.01 0.02 0.01 0.11 0.72 0.80 0.80 0.54 0.41 0.32 0.33 0.62 0.41 0.51 0.16 0.28 0.19 0.44 0.50 0.35 0.47 0.57 0.30 0.07 0.02 0.00 0.00 0.00 0.00
0.00 0.00 0.02 0.04 0.03 0.02 0.03 0.04 0.01 0.02 0.07 0.08 0.08 0.06 0.08 0.07 0.03 0.01 0.05 0.02 0.04 0.24 0.50 0.70 0.63 0.36 0.38 0.45 0.44 0.36 0.32 0.23 0.16 0.31 0.32 0.59 0.45 0.34 0.29 0.50 0.43 0.10 0.03 0.03 0.03 0.01 0.00
0.00 0.00 0.02 0.03 0.02 0.02 0.04 0.02 0.01 0.01 0.04 0.06 0.07 0.01 0.03 0.06 0.02 0.01 0.02 0.03 0.15 0.20 0.48 0.53 0.12 0.11 0.13 0.09 0.19 0.23 0.17 0.09 0.05 0.04 0.17 0.27 0.37 0.37 0.28 0.26 0.45 0.19 0.02 0.03 0.01 0.00 0.00
0.00 0.01 0.02 0.02 0.02 0.01 0.03 0.01 0.00 0.01 0.04 0.06 0.02 0.00 0.02 0.02 0.01 0.00 0.01 0.12 0.22 0.46 0.65 0.26 0.08 0.06 0.09 0.05 0.09 0.09 0.06 0.02 0.03 0.04 0.08 0.07 0.11 0.21 0.22 0.08 0.22 0.23 0.02 0.00 0.00 0.00 0.00
0.00 0.00 0.01 0.01 0.01 0.01 0.02 0.01 0.00 0.01 0.04 0.04 0.00 0.00 0.01 0.00 0.00 0.01 0.10 0.26 0.31 0.22 0.07 0.00 0.09 0.06 0.04 0.03 0.02 0.01 0.01 0.00 0.00 0.00 0.00 0.01 0.07 0.12 0.16 0.10 0.11 0.09 0.02 0.01 0.00 0.00 0.00
0.00 0.00 0.01 0.01 0.01 0.01 0.01 0.00 0.00 0.01 0.02 0.02 0.00 0.01 0.01 0.00 0.00 0.01 0.12 0.24 0.24 0.04 0.01 0.00 0.00 0.00 0.00 0.00 0.00 0.00 0.00 0.00 0.00 0.00 0.00 0.00 0.01 0.05 0.05 0.09 0.05 0.05 0.05 0.00 0.00 0.00 0.00
0.00 0.01 0.01 0.00 0.01 0.00 0.00 0.00 0.00 0.01 0.02 0.00 0.00 0.00 0.00 0.00 0.01 0.04 0.21 0.24 0.18 0.06 0.00 0.00 0.00 0.00 0.00 0.00 0.00 0.00 0.00 0.00 0.00 0.00 0.00 0.00 0.00 0.00 0.00 0.00 0.00 0.00 0.01 0.01 0.00 0.00 0.00
0.00 0.00 0.01 0.01 0.00 0.00 0.00 0.00 0.00 0.00 0.01 0.00 0.00 0.00 0.00 0.00 0.01 0.11 0.22 0.12 0.07 0.02 0.01 0.00 0.00 0.00 0.00 0.00 0.00 0.00 0.00 0.00 0.00 0.00 0.00 0.00 0.00 0.00 0.00 0.00 0.00 0.00 0.00 0.00 0.00 0.00 0.00
0.00 0.01 0.01 0.00 0.00 0.00 0.00 0.00 0.00 0.00 0.00 0.00 0.00 0.00 0.00 0.00 0.00 0.06 0.17 0.15 0.07 0.01 0.00 0.00 0.00 0.00 0.00 0.00 0.00 0.00 0.00 0.00 0.00 0.00 0.00 0.00 0.00 0.00 0.00 0.00 0.00 0.00 0.00 0.00 0.00 0.01 0.00
0.00 0.00 0.01 0.00 0.00 0.00 0.00 0.00 0.00 0.00 0.00 0.00 0.00 0.00 0.00 0.01 0.01 0.00 0.01 0.00 0.00 0.00 0.00 0.00 0.00 0.00 0.00 0.00 0.00 0.00 0.00 0.00 0.00 0.00 0.00 0.00 0.00 0.00 0.00 0.00 0.00 0.00 0.00 0.00 0.00 0.00 0.02
0.00 0.00 0.00 0.00 0.00 0.00 0.00 0.00 0.00 0.00 0.00 0.00 0.00 0.00 0.00 0.00 0.00 0.00 0.00 0.00 0.00 0.00 0.00 0.00 0.00 0.00 0.00 0.00 0.00 0.00 0.00 0.00 0.00 0.00 0.00 0.00 0.00 0.00 0.00 0.00 0.00 0.00 0.00 0.00 0.00 0.00 0.00
0.00 0.00 0.00 0.00 0.00 0.00 0.00 0.00 0.00 0.00 0.00 0.00 0.00 0.00 0.01 0.00 0.00 0.00 0.00 0.00 0.00 0.00 0.00 0.00 0.00 0.00 0.00 0.00 0.00 0.00 0.00 0.00 0.00 0.00 0.00 0.00 0.00 0.00 0.00 0.00 0.00 0.00 0.00 0.00 0.00 0.00 0.00
0.00 0.00 0.01 0.00 0.00 0.00 0.00 0.00 0.00 0.00 0.00 0.00 0.01 0.03 0.01 0.00 0.00 0.00 0.00 0.00 0.00 0.00 0.00 0.00 0.00 0.00 0.00 0.00 0.00 0.00 0.00 0.00 0.00 0.00 0.00 0.00 0.00 0.00 0.00 0.00 0.00 0.00 0.00 0.00 0.00 0.00 0.00
0.00 0.01 0.01 0.00 0.00 0.00 0.00 0.00 0.00 0.00 0.00 0.00 0.01 0.02 0.02 0.01 0.00 0.00 0.00 0.00 0.00 0.00 0.00 0.00 0.00 0.00 0.00 0.00 0.00 0.00 0.00 0.00 0.00 0.00 0.00 0.00 0.00 0.00 0.00 0.00 0.00 0.00 0.00 0.00 0.00 0.00 0.00
0.00 0.01 0.01 0.01 0.01 0.01 0.00 0.00 0.00 0.00 0.00 0.00 0.00 0.00 0.01 0.01 0.00 0.00 0.00 0.00 0.00 0.01 0.01 0.01 0.00 0.00 0.00 0.01 0.02 0.00 0.00 0.00 0.00 0.01 0.00 0.00 0.00 0.01 0.02 0.01 0.00 0.00 0.00 0.00 0.00 0.00 0.00
0.00 0.01 0.01 0.01 0.01 0.00 0.00 0.00 0.00 0.00 0.00 0.00 0.00 0.00 0.01 0.02 0.00 0.00 0.00 0.00 0.00 0.02 0.02 0.04 0.02 0.00 0.00 0.02 0.04 0.01 0.00 0.00 0.00 0.01 0.02 0.03 0.03 0.03 0.02 0.02 0.00 0.00 0.00 0.00 0.02 0.01 0.00
0.01 0.01 0.01 0.00 0.01 0.01 0.01 0.01 0.00 0.00 0.00 0.00 0.00 0.00 0.01 0.01 0.00 0.00 0.00 0.00 0.00 0.01 0.04 0.05 0.10 0.11 0.03 0.02 0.02 0.00 0.00 0.00 0.00 0.00 0.00 0.01 0.01 0.02 0.02 0.02 0.00 0.00 0.00 0.01 0.01 0.00 0.00
0.02 0.02 0.01 0.01 0.01 0.01 0.01 0.01 0.02 0.02 0.02 0.02 0.01 0.01 0.02 0.04 0.01 0.00 0.00 0.00 0.00 0.01 0.03 0.05 0.09 0.08 0.07 0.03 0.01 0.00 0.00 0.00 0.00 0.01 0.00 0.00 0.00 0.00 0.00 0.00 0.00 0.00 0.00 0.00 0.00 0.00 0.00

GFSGBSN_prec_precacc24_072.txt.gz
Total_Precipitation_Accumulation
0.03 0.02 0.03 0.04 0.04 0.04 0.03 0.07 0.12 0.09 0.07 0.09 0.15 0.19 0.19 0.17 0.19 0.22 0.19 0.11 0.12 0.12 0.13 0.12 0.12 0.44 0.53 0.25 0.07 0.17 0.12 0.10 0.18 0.42 0.22 0.07 0.03 0.04 0.03 0.01 0.01 0.00 0.00 0.00 0.00 0.00 0.01
0.02 0.02 0.03 0.03 0.04 0.03 0.03 0.11 0.12 0.08 0.06 0.12 0.18 0.20 0.16 0.17 0.18 0.20 0.16 0.11 0.11 0.16 0.17 0.13 0.16 0.57 0.51 0.18 0.01 0.06 0.12 0.08 0.27 0.46 0.29 0.12 0.02 0.02 0.03 0.03 0.03 0.01 0.00 0.00 0.00 0.00 0.00
0.01 0.02 0.03 0.03 0.04 0.02 0.06 0.13 0.10 0.06 0.09 0.16 0.18 0.16 0.11 0.19 0.19 0.17 0.12 0.07 0.06 0.05 0.07 0.13 0.26 0.66 0.39 0.07 0.03 0.08 0.14 0.17 0.27 0.41 0.26 0.14 0.05 0.05 0.03 0.05 0.03 0.04 0.02 0.02 0.00 0.00 0.00
0.01 0.03 0.02 0.03 0.02 0.03 0.09 0.12 0.08 0.07 0.12 0.16 0.18 0.15 0.16 0.19 0.16 0.13 0.07 0.04 0.02 0.09 0.20 0.29 0.42 0.57 0.25 0.01 0.02 0.03 0.12 0.22 0.21 0.46 0.37 0.30 0.21 0.09 0.06 0.04 0.04 0.10 0.03 0.02 0.00 0.00 0.00
0.02 0.02 0.02 0.03 0.02 0.05 0.10 0.08 0.07 0.08 0.13 0.18 0.18 0.17 0.14 0.08 0.09 0.11 0.04 0.04 0.02 0.03 0.04 0.25 0.31 0.32 0.12 0.04 0.06 0.03 0.14 0.20 0.14 0.47 0.58 0.77 0.72 0.29 0.11 0.10 0.10 0.11 0.02 0.00 0.00 0.00 0.00
0.01 0.02 0.02 0.01 0.02 0.06 0.08 0.07 0.07 0.09 0.14 0.18 0.16 0.15 0.09 0.07 0.09 0.13 0.06 0.01 0.00 0.01 0.02 0.11 0.26 0.42 0.11 0.04 0.13 0.08 0.22 0.28 0.32 0.72 1.07 1.12 1.00 0.46 0.18 0.10 0.05 0.01 0.00 0.00 0.00 0.00 0.00
0.01 0.02 0.02 0.01 0.03 0.06 0.07 0.07 0.06 0.12 0.12 0.16 0.15 0.13 0.10 0.15 0.23 0.22 0.07 0.00 0.04 0.10 0.09 0.12 0.18 0.28 0.16 0.25 0.39 0.27 0.35 0.53 0.78 1.10 0.92 0.71 0.76 0.48 0.05 0.00 0.00 0.00 0.00 0.00 0.00 0.00 0.00
0.01 0.02 0.01 0.01 0.03 0.07 0.05 0.06 0.09 0.09 0.11 0.14 0.13 0.12 0.12 0.18 0.33 0.23 0.04 0.00 0.00 0.03 0.04 0.07 0.20 0.31 0.17 0.44 0.70 0.54 0.38 0.91 0.76 0.97 0.90 0.76 0.43 0.21 0.20 0.12 0.01 0.01 0.00 0.00 0.00 0.00 0.00
0.01 0.01 0.00 0.02 0.04 0.06 0.04 0.04 0.09 0.06 0.10 0.11 0.10 0.12 0.16 0.20 0.33 0.32 0.01 0.00 0.00 0.00 0.10 0.22 0.26 0.40 0.36 0.75 0.72 0.62 0.48 1.01 0.66 0.79 0.86 0.70 0.24 0.28 0.26 0.29 0.10 0.01 0.00 0.00 0.00 0.00 0.00
0.02 0.00 0.00 0.02 0.05 0.05 0.04 0.05 0.08 0.04 0.09 0.07 0.09 0.16 0.20 0.33 0.31 0.10 0.01 0.01 0.00 0.00 0.19 0.43 0.39 0.46 0.57 0.72 0.80 0.47 0.92 1.16 0.58 0.84 0.73 0.62 0.40 0.39 0.43 0.25 0.15 0.03 0.00 0.00 0.00 0.00 0.00
0.01 0.00 0.00 0.03 0.04 0.04 0.02 0.05 0.04 0.02 0.08 0.07 0.09 0.13 0.17 0.25 0.18 0.11 0.04 0.02 0.00 0.03 0.39 0.56 0.53 0.60 0.60 0.43 0.42 0.58 0.86 0.91 0.34 0.55 0.47 0.54 0.50 0.34 0.62 0.40 0.13 0.07 0.00 0.00 0.00 0.00 0.00
0.00 0.00 0.01 0.02 0.02 0.03 0.02 0.05 0.01 0.02 0.07 0.07 0.07 0.07 0.08 0.10 0.10 0.06 0.01 0.01 0.01 0.08 0.49 0.60 0.86 0.54 0.40 0.32 0.34 0.68 0.64 0.60 0.21 0.31 0.20 0.45 0.50 0.35 0.47 0.57 0.30 0.07 0.02 0.00 0.00 0.00 0.01
0.00 0.00 0.01 0.02 0.01 0.01 0.02 0.03 0.00 0.02 0.07 0.07 0.07 0.04 0.02 0.02 0.02 0.00 0.03 0.01 0.04 0.19 0.27 0.49 0.61 0.40 0.38 0.45 0.45 0.47 0.49 0.26 0.20 0.32 0.32 0.60 0.45 0.34 0.29 0.50 0.43 0.11 0.04 0.05 0.07 0.05 0.01
0.00 0.00 0.01 0.01 0.01 0.01 0.02 0.01 0.00 0.01 0.03 0.05 0.03 0.00 0.00 0.02 0.00 0.00 0.01 0.03 0.13 0.17 0.34 0.43 0.11 0.11 0.13 0.10 0.20 0.24 0.18 0.09 0.05 0.04 0.17 0.27 0.37 0.37 0.28 0.26 0.45 0.21 0.04 0.03 0.02 0.00 0.00
0.00 0.00 0.01 0.01 0.01 0.01 0.01 0.00 0.00 0.01 0.04 0.04 0.00 0.00 0.00 0.00 0.00 0.00 0.01 0.08 0.19 0.36 0.52 0.20 0.05 0.05 0.07 0.05 0.10 0.09 0.06 0.02 0.03 0.04 0.08 0.07 0.11 0.21 0.22 0.08 0.24 0.35 0.10 0.00 0.00 0.00 0.00
0.00 0.00 0.01 0.00 0.01 0.00 0.01 0.00 0.00 0.01 0.03 0.01 0.00 0.00 0.00 0.00 0.00 0.00 0.03 0.20 0.26 0.17 0.06 0.00 0.06 0.04 0.03 0.03 0.02 0.01 0.01 0.00 0.00 0.00 0.00 0.01 0.07 0.12 0.16 0.10 0.12 0.22 0.08 0.03 0.00 0.00 0.00
0.00 0.00 0.01 0.00 0.00 0.00 0.00 0.00 0.00 0.01 0.01 0.00 0.00 0.00 0.00 0.00 0.00 0.00 0.03 0.14 0.09 0.01 0.00 0.00 0.00 0.00 0.00 0.00 0.00 0.00 0.00 0.00 0.00 0.00 0.00 0.00 0.01 0.06 0.07 0.10 0.05 0.09 0.13 0.01 0.00 0.00 0.00
0.00 0.00 0.00 0.00 0.00 0.00 0.00 0.00 0.00 0.00 0.00 0.00 0.00 0.00 0.00 0.00 0.00 0.01 0.06 0.06 0.06 0.02 0.00 0.00 0.00 0.00 0.00 0.00 0.00 0.00 0.00 0.00 0.00 0.00 0.00 0.00 0.00 0.01 0.01 0.00 0.00 0.00 0.01 0.01 0.00 0.00 0.00
0.00 0.00 0.00 0.00 0.00 0.00 0.00 0.00 0.00 0.00 0.00 0.00 0.00 0.00 0.00 0.00 0.00 0.04 0.06 0.01 0.01 0.00 0.00 0.00 0.00 0.00 0.00 0.00 0.00 0.00 0.00 0.00 0.00 0.00 0.00 0.00 0.00 0.00 0.01 0.00 0.00 0.00 0.00 0.00 0.00 0.00 0.00
0.00 0.00 0.01 0.00 0.00 0.00 0.00 0.00 0.00 0.00 0.00 0.00 0.00 0.00 0.00 0.00 0.00 0.03 0.06 0.01 0.00 0.00 0.00 0.00 0.00 0.00 0.00 0.00 0.00 0.00 0.00 0.00 0.00 0.00 0.00 0.00 0.00 0.00 0.00 0.00 0.00 0.00 0.00 0.00 0.01 0.01 0.00
0.00 0.00 0.00 0.00 0.00 0.00 0.00 0.00 0.00 0.00 0.00 0.00 0.00 0.00 0.00 0.00 0.00 0.00 0.00 0.00 0.00 0.00 0.00 0.00 0.00 0.00 0.00 0.00 0.00 0.00 0.00 0.00 0.00 0.00 0.00 0.00 0.00 0.00 0.00 0.00 0.00 0.00 0.00 0.00 0.00 0.00 0.00
0.00 0.00 0.00 0.00 0.00 0.00 0.00 0.00 0.00 0.00 0.00 0.00 0.00 0.00 0.00 0.00 0.00 0.00 0.00 0.00 0.00 0.00 0.00 0.00 0.00 0.00 0.00 0.00 0.00 0.00 0.00 0.00 0.00 0.00 0.00 0.00 0.00 0.00 0.00 0.00 0.00 0.00 0.00 0.00 0.00 0.00 0.00
0.00 0.00 0.00 0.00 0.00 0.00 0.00 0.00 0.00 0.00 0.00 0.00 0.00 0.00 0.01 0.00 0.00 0.00 0.00 0.00 0.00 0.00 0.00 0.00 0.00 0.00 0.00 0.00 0.00 0.00 0.00 0.00 0.00 0.00 0.00 0.00 0.00 0.00 0.00 0.00 0.00 0.00 0.00 0.00 0.00 0.00 0.00
0.00 0.00 0.00 0.00 0.00 0.00 0.00 0.00 0.00 0.00 0.00 0.00 0.01 0.02 0.01 0.00 0.00 0.00 0.00 0.00 0.00 0.00 0.00 0.00 0.00 0.00 0.00 0.00 0.00 0.00 0.00 0.00 0.00 0.00 0.00 0.00 0.00 0.00 0.00 0.00 0.00 0.00 0.00 0.00 0.00 0.00 0.00
0.00 0.00 0.00 0.00 0.00 0.00 0.00 0.00 0.00 0.00 0.00 0.00 0.01 0.02 0.02 0.00 0.00 0.00 0.00 0.00 0.00 0.00 0.00 0.00 0.00 0.00 0.00 0.00 0.00 0.00 0.00 0.00 0.00 0.00 0.00 0.00 0.00 0.00 0.00 0.00 0.00 0.00 0.00 0.00 0.00 0.00 0.00
0.00 0.00 0.01 0.01 0.01 0.01 0.00 0.00 0.00 0.00 0.00 0.00 0.00 0.00 0.01 0.01 0.00 0.00 0.00 0.00 0.00 0.01 0.01 0.01 0.01 0.02 0.01 0.01 0.02 0.01 0.01 0.00 0.01 0.01 0.00 0.00 0.00 0.01 0.01 0.00 0.00 0.00 0.00 0.00 0.00 0.00 0.00
0.00 0.00 0.01 0.01 0.01 0.00 0.00 0.00 0.00 0.00 0.00 0.00 0.00 0.00 0.00 0.01 0.00 0.00 0.00 0.00 0.00 0.01 0.02 0.04 0.03 0.03 0.02 0.03 0.06 0.02 0.00 0.00 0.00 0.01 0.01 0.02 0.03 0.02 0.01 0.01 0.00 0.00 0.00 0.00 0.02 0.01 0.00
0.01 0.01 0.01 0.00 0.01 0.01 0.01 0.01 0.00 0.00 0.00 0.00 0.00 0.00 0.01 0.01 0.00 0.00 0.00 0.00 0.00 0.00 0.03 0.05 0.11 0.13 0.09 0.07 0.03 0.01 0.00 0.00 0.00 0.00 0.00 0.01 0.01 0.02 0.02 0.02 0.00 0.00 0.00 0.01 0.01 0.00 0.00
0.03 0.03 0.01 0.01 0.01 0.01 0.01 0.01 0.02 0.02 0.02 0.03 0.01 0.01 0.01 0.03 0.00 0.00 0.00 0.00 0.00 0.01 0.03 0.05 0.10 0.14 0.25 0.19 0.05 0.00 0.00 0.00 0.00 0.01 0.00 0.00 0.00 0.00 0.00 0.00 0.00 0.00 0.00 0.00 0.00 0.00 0.00

GFSGBSN_prec_precacc24_075.txt.gz
Total_Precipitation_Accumulation
0.03 0.01 0.02 0.03 0.03 0.03 0.02 0.06 0.12 0.09 0.07 0.08 0.14 0.17 0.16 0.16 0.18 0.22 0.18 0.11 0.12 0.12 0.13 0.11 0.08 0.09 0.34 0.25 0.07 0.17 0.12 0.09 0.17 0.41 0.24 0.08 0.03 0.05 0.03 0.01 0.02 0.00 0.00 0.01 0.09 0.05 0.04
0.01 0.01 0.03 0.02 0.03 0.02 0.02 0.10 0.11 0.08 0.06 0.12 0.17 0.18 0.14 0.15 0.16 0.19 0.15 0.10 0.10 0.15 0.16 0.13 0.14 0.24 0.31 0.18 0.02 0.06 0.11 0.08 0.27 0.43 0.33 0.18 0.02 0.02 0.04 0.04 0.06 0.01 0.00 0.01 0.02 0.01 0.01
0.01 0.02 0.01 0.02 0.04 0.02 0.05 0.12 0.08 0.05 0.08 0.15 0.17 0.14 0.11 0.16 0.16 0.14 0.08 0.05 0.05 0.05 0.07 0.13 0.23 0.31 0.23 0.07 0.03 0.09 0.12 0.13 0.21 0.36 0.30 0.21 0.06 0.05 0.03 0.05 0.06 0.05 0.03 0.02 0.00 0.00 0.01
0.01 0.01 0.01 0.02 0.02 0.03 0.07 0.09 0.06 0.06 0.11 0.15 0.16 0.14 0.15 0.16 0.13 0.10 0.04 0.02 0.02 0.08 0.18 0.29 0.39 0.24 0.11 0.01 0.02 0.03 0.12 0.19 0.15 0.35 0.35 0.32 0.21 0.09 0.06 0.04 0.08 0.14 0.04 0.02 0.00 0.00 0.00
0.00 0.01 0.02 0.02 0.01 0.04 0.08 0.06 0.06 0.07 0.12 0.17 0.16 0.16 0.12 0.06 0.06 0.09 0.03 0.02 0.02 0.02 0.03 0.25 0.26 0.15 0.08 0.04 0.06 0.03 0.14 0.20 0.13 0.45 0.57 0.76 0.68 0.26 0.11 0.11 0.11 0.12 0.02 0.00 0.00 0.00 0.00
0.00 0.01 0.01 0.01 0.01 0.05 0.07 0.06 0.06 0.08 0.13 0.16 0.15 0.14 0.08 0.06 0.07 0.12 0.04 0.00 0.00 0.01 0.01 0.10 0.14 0.18 0.05 0.04 0.13 0.08 0.22 0.28 0.26 0.66 1.12 1.14 0.79 0.37 0.17 0.10 0.05 0.01 0.00 0.00 0.00 0.00 0.00
0.00 0.01 0.01 0.00 0.02 0.05 0.06 0.05 0.05 0.09 0.10 0.15 0.13 0.12 0.09 0.14 0.23 0.18 0.05 0.00 0.04 0.09 0.07 0.10 0.12 0.15 0.14 0.25 0.39 0.27 0.35 0.52 0.67 1.08 1.13 0.84 0.65 0.24 0.03 0.00 0.00 0.00 0.00 0.00 0.00 0.00 0.00
0.00 0.01 0.00 0.01 0.02 0.05 0.04 0.04 0.06 0.08 0.09 0.12 0.11 0.11 0.12 0.18 0.32 0.22 0.04 0.00 0.00 0.02 0.04 0.05 0.13 0.20 0.15 0.44 0.71 0.54 0.38 0.90 0.72 1.02 1.12 0.94 0.44 0.16 0.10 0.03 0.01 0.01 0.00 0.00 0.00 0.00 0.00
0.01 0.00 0.00 0.01 0.02 0.04 0.03 0.03 0.08 0.05 0.08 0.09 0.09 0.11 0.16 0.20 0.33 0.32 0.01 0.00 0.00 0.00 0.10 0.18 0.25 0.30 0.34 0.75 0.72 0.62 0.48 0.99 0.63 0.84 1.05 0.78 0.25 0.26 0.23 0.19 0.06 0.01 0.00 0.00 0.00 0.00 0.00
0.01 0.00 0.00 0.01 0.03 0.03 0.02 0.03 0.06 0.03 0.07 0.07 0.08 0.15 0.17 0.30 0.31 0.10 0.00 0.00 0.00 0.00 0.20 0.35 0.34 0.37 0.56 0.72 0.80 0.48 0.92 1.16 0.57 0.89 0.89 0.68 0.40 0.39 0.43 0.25 0.15 0.03 0.00 0.00 0.00 0.00 0.00
0.00 0.00 0.00 0.01 0.02 0.02 0.01 0.03 0.02 0.02 0.07 0.06 0.07 0.09 0.10 0.14 0.11 0.09 0.02 0.00 0.00 0.02 0.38 0.62 0.44 0.53 0.61 0.44 0.43 0.58 0.86 0.94 0.36 0.61 0.63 0.62 0.50 0.34 0.62 0.40 0.13 0.07 0.00 0.00 0.00 0.00 0.00
0.00 0.00 0.00 0.01 0.01 0.01 0.01 0.02 0.01 0.01 0.06 0.05 0.05 0.03 0.03 0.01 0.04 0.04 0.00 0.00 0.00 0.04 0.35 0.45 0.70 0.50 0.40 0.33 0.35 0.67 0.65 0.64 0.26 0.40 0.28 0.46 0.50 0.35 0.47 0.57 0.30 0.07 0.02 0.00 0.00 0.00 0.01
0.00 0.00 0.00 0.01 0.00 0.01 0.00 0.01 0.00 0.01 0.05 0.05 0.03 0.01 0.00 0.00 0.00 0.00 0.00 0.00 0.03 0.13 0.16 0.29 0.54 0.41 0.39 0.46 0.45 0.47 0.50 0.29 0.25 0.38 0.41 0.63 0.46 0.34 0.29 0.50 0.43 0.11 0.05 0.08 0.08 0.07 0.01
0.00 0.00 0.01 0.01 0.00 0.01 0.01 0.00 0.00 0.01 0.03 0.03 0.00 0.00 0.00 0.00 0.00 0.00 0.00 0.02 0.09 0.12 0.22 0.33 0.10 0.11 0.14 0.10 0.17 0.27 0.19 0.10 0.05 0.04 0.18 0.29 0.38 0.37 0.28 0.26 0.45 0.21 0.04 0.04 0.02 0.00 0.00
0.00 0.00 0.01 0.00 0.00 0.00 0.00 0.00 0.00 0.01 0.02 0.01 0.00 0.00 0.00 0.00 0.00 0.00 0.00 0.03 0.12 0.20 0.31 0.15 0.03 0.04 0.05 0.05 0.09 0.09 0.06 0.02 0.03 0.04 0.08 0.07 0.11 0.21 0.22 0.08 0.24 0.35 0.11 0.00 0.00 0.00 0.00
0.00 0.00 0.00 0.00 0.00 0.00 0.00 0.00 0.00 0.00 0.01 0.00 0.00 0.00 0.00 0.00 0.00 0.00 0.01 0.11 0.13 0.07 0.03 0.00 0.03 0.02 0.02 0.03 0.02 0.01 0.00 0.00 0.00 0.00 0.00 0.01 0.07 0.12 0.16 0.10 0.12 0.22 0.08 0.06 0.02 0.00 0.00
0.00 0.00 0.00 0.00 0.00 0.00 0.00 0.00 0.00 0.00 0.00 0.00 0.00 0.00 0.00 0.00 0.00 0.00 0.01 0.06 0.04 0.00 0.00 0.00 0.00 0.00 0.00 0.00 0.00 0.00 0.00 0.00 0.00 0.00 0.00 0.00 0.01 0.07 0.07 0.10 0.06 0.09 0.14 0.04 0.01 0.00 0.00
0.00 0.00 0.00 0.00 0.00 0.00 0.00 0.00 0.00 0.00 0.00 0.00 0.00 0.00 0.00 0.00 0.00 0.00 0.00 0.00 0.00 0.00 0.00 0.00 0.00 0.00 0.00 0.00 0.00 0.00 0.00 0.00 0.00 0.00 0.00 0.00 0.00 0.01 0.01 0.01 0.00 0.00 0.02 0.02 0.01 0.00 0.00
0.00 0.00 0.00 0.00 0.00 0.00 0.00 0.00 0.00 0.00 0.00 0.00 0.00 0.00 0.00 0.00 0.00 0.00 0.00 0.00 0.00 0.00 0.00 0.00 0.00 0.00 0.00 0.00 0.00 0.00 0.00 0.00 0.00 0.00 0.00 0.00 0.00 0.01 0.02 0.01 0.01 0.02 0.01 0.01 0.02 0.00 0.00
0.00 0.00 0.01 0.00 0.00 0.00 0.00 0.00 0.00 0.00 0.00 0.00 0.00 0.00 0.00 0.00 0.00 0.00 0.00 0.00 0.00 0.00 0.00 0.00 0.00 0.00 0.00 0.00 0.00 0.00 0.00 0.00 0.00 0.00 0.00 0.00 0.00 0.00 0.00 0.00 0.00 0.00 0.00 0.00 0.02 0.02 0.00
0.00 0.00 0.00 0.00 0.00 0.00 0.00 0.00 0.00 0.00 0.00 0.00 0.00 0.00 0.00 0.00 0.00 0.00 0.00 0.00 0.00 0.00 0.00 0.00 0.00 0.00 0.00 0.00 0.00 0.00 0.00 0.00 0.00 0.00 0.00 0.00 0.00 0.00 0.00 0.00 0.00 0.00 0.00 0.00 0.00 0.00 0.00
0.00 0.00 0.00 0.00 0.00 0.00 0.00 0.00 0.00 0.00 0.00 0.00 0.00 0.00 0.00 0.00 0.00 0.00 0.00 0.00 0.00 0.00 0.00 0.00 0.00 0.00 0.00 0.00 0.00 0.00 0.00 0.00 0.00 0.00 0.00 0.00 0.00 0.00 0.00 0.00 0.00 0.00 0.00 0.00 0.00 0.00 0.00
0.00 0.00 0.00 0.00 0.00 0.00 0.00 0.00 0.00 0.00 0.00 0.00 0.00 0.00 0.01 0.00 0.00 0.00 0.00 0.00 0.00 0.00 0.00 0.00 0.00 0.00 0.00 0.00 0.00 0.00 0.00 0.00 0.00 0.00 0.00 0.00 0.00 0.00 0.00 0.00 0.00 0.00 0.00 0.00 0.00 0.00 0.00
0.00 0.00 0.00 0.00 0.00 0.00 0.00 0.00 0.00 0.00 0.00 0.00 0.01 0.01 0.00 0.00 0.00 0.00 0.00 0.00 0.00 0.00 0.00 0.00 0.00 0.00 0.00 0.00 0.00 0.00 0.00 0.00 0.00 0.00 0.00 0.00 0.00 0.00 0.00 0.00 0.00 0.00 0.00 0.00 0.00 0.00 0.00
0.00 0.00 0.00 0.00 0.00 0.00 0.00 0.00 0.00 0.00 0.00 0.00 0.01 0.01 0.01 0.00 0.00 0.00 0.00 0.00 0.00 0.00 0.00 0.00 0.00 0.00 0.00 0.01 0.01 0.00 0.00 0.01 0.00 0.00 0.00 0.00 0.00 0.00 0.00 0.00 0.00 0.00 0.00 0.00 0.00 0.00 0.00
0.00 0.00 0.00 0.00 0.01 0.01 0.00 0.00 0.00 0.00 0.00 0.00 0.00 0.00 0.01 0.01 0.00 0.00 0.00 0.00 0.00 0.01 0.01 0.01 0.01 0.02 0.03 0.04 0.04 0.01 0.01 0.01 0.01 0.01 0.00 0.00 0.00 0.01 0.01 0.00 0.00 0.00 0.00 0.00 0.00 0.00 0.00
0.00 0.00 0.00 0.00 0.01 0.00 0.00 0.00 0.00 0.00 0.00 0.00 0.00 0.00 0.00 0.01 0.00 0.00 0.00 0.00 0.00 0.01 0.02 0.04 0.03 0.04 0.06 0.13 0.17 0.03 0.00 0.00 0.00 0.01 0.01 0.02 0.02 0.02 0.01 0.01 0.00 0.00 0.00 0.00 0.02 0.01 0.00
0.01 0.01 0.01 0.00 0.01 0.01 0.01 0.01 0.00 0.00 0.00 0.00 0.00 0.00 0.00 0.01 0.00 0.00 0.00 0.00 0.00 0.00 0.03 0.05 0.11 0.15 0.16 0.24 0.17 0.06 0.00 0.00 0.00 0.00 0.00 0.01 0.01 0.03 0.02 0.03 0.00 0.00 0.00 0.01 0.01 0.00 0.00
0.03 0.03 0.01 0.01 0.01 0.01 0.01 0.01 0.02 0.02 0.02 0.03 0.01 0.00 0.01 0.03 0.00 0.00 0.00 0.00 0.00 0.01 0.03 0.05 0.10 0.15 0.30 0.29 0.19 0.14 0.03 0.00 0.00 0.00 0.00 0.00 0.00 0.00 0.00 0.00 0.00 0.00 0.00 0.00 0.00 0.00 0.00

GFSGBSN_prec_precacc24_078.txt.gz
Total_Precipitation_Accumulation
0.01 0.01 0.02 0.02 0.02 0.03 0.02 0.06 0.10 0.07 0.06 0.07 0.13 0.16 0.15 0.15 0.17 0.21 0.15 0.08 0.11 0.11 0.12 0.11 0.07 0.08 0.08 0.08 0.05 0.17 0.12 0.09 0.17 0.41 0.26 0.07 0.03 0.05 0.04 0.02 0.03 0.00 0.00 0.03 0.15 0.06 0.04
0.01 0.01 0.01 0.02 0.03 0.02 0.02 0.09 0.09 0.06 0.05 0.11 0.16 0.16 0.14 0.14 0.15 0.17 0.12 0.08 0.09 0.14 0.16 0.12 0.13 0.21 0.15 0.08 0.01 0.06 0.11 0.06 0.28 0.43 0.33 0.18 0.01 0.03 0.05 0.05 0.08 0.01 0.00 0.01 0.05 0.05 0.03
0.01 0.01 0.01 0.02 0.02 0.01 0.04 0.10 0.07 0.05 0.07 0.13 0.16 0.14 0.11 0.15 0.16 0.12 0.04 0.03 0.04 0.04 0.06 0.12 0.21 0.28 0.10 0.03 0.02 0.09 0.12 0.07 0.25 0.37 0.30 0.22 0.06 0.05 0.04 0.06 0.09 0.05 0.04 0.03 0.00 0.03 0.08
0.01 0.01 0.01 0.02 0.01 0.02 0.05 0.08 0.06 0.05 0.09 0.14 0.15 0.14 0.15 0.15 0.13 0.08 0.02 0.01 0.01 0.04 0.15 0.23 0.38 0.20 0.05 0.00 0.01 0.03 0.09 0.13 0.13 0.28 0.27 0.30 0.21 0.09 0.06 0.05 0.09 0.15 0.05 0.03 0.00 0.00 0.02
0.00 0.01 0.01 0.01 0.01 0.02 0.06 0.06 0.05 0.06 0.11 0.15 0.15 0.15 0.11 0.06 0.05 0.08 0.02 0.00 0.00 0.01 0.02 0.20 0.23 0.12 0.05 0.03 0.03 0.02 0.12 0.15 0.12 0.38 0.45 0.68 0.60 0.24 0.11 0.11 0.12 0.12 0.03 0.00 0.00 0.00 0.00
0.00 0.01 0.01 0.00 0.01 0.03 0.05 0.05 0.04 0.07 0.11 0.15 0.13 0.12 0.07 0.06 0.07 0.11 0.03 0.00 0.00 0.01 0.00 0.06 0.11 0.12 0.04 0.02 0.11 0.08 0.21 0.27 0.23 0.66 1.08 1.18 0.75 0.33 0.17 0.10 0.05 0.01 0.00 0.00 0.00 0.00 0.00
0.00 0.01 0.00 0.00 0.01 0.03 0.03 0.04 0.04 0.08 0.09 0.12 0.11 0.11 0.09 0.14 0.22 0.16 0.04 0.00 0.03 0.07 0.04 0.08 0.10 0.09 0.13 0.20 0.36 0.26 0.35 0.50 0.54 1.00 1.16 1.01 0.58 0.18 0.02 0.00 0.00 0.00 0.00 0.00 0.00 0.00 0.00
0.00 0.00 0.00 0.00 0.01 0.02 0.02 0.02 0.05 0.06 0.07 0.10 0.11 0.11 0.12 0.17 0.31 0.20 0.03 0.00 0.00 0.02 0.04 0.03 0.07 0.11 0.12 0.35 0.67 0.54 0.38 0.88 0.65 0.95 1.13 0.99 0.24 0.08 0.05 0.02 0.01 0.01 0.00 0.00 0.00 0.00 0.00
0.00 0.00 0.00 0.01 0.01 0.02 0.01 0.02 0.05 0.03 0.07 0.09 0.09 0.11 0.12 0.14 0.29 0.32 0.01 0.00 0.00 0.00 0.09 0.16 0.17 0.24 0.27 0.69 0.71 0.62 0.48 0.98 0.59 0.85 1.09 0.83 0.18 0.16 0.16 0.08 0.02 0.00 0.00 0.00 0.00 0.00 0.00
0.00 0.00 0.00 0.00 0.01 0.01 0.01 0.02 0.03 0.02 0.05 0.05 0.05 0.10 0.09 0.06 0.17 0.07 0.00 0.00 0.00 0.00 0.21 0.32 0.30 0.33 0.45 0.68 0.80 0.48 0.92 1.13 0.54 0.88 1.02 0.76 0.40 0.33 0.38 0.17 0.04 0.01 0.00 0.00 0.00 0.00 0.00
0.00 0.00 0.00 0.01 0.01 0.01 0.01 0.01 0.01 0.01 0.05 0.04 0.02 0.05 0.05 0.01 0.00 0.01 0.01 0.00 0.00 0.02 0.37 0.61 0.41 0.48 0.49 0.42 0.42 0.58 0.84 0.94 0.35 0.58 0.77 0.69 0.51 0.34 0.61 0.39 0.10 0.07 0.00 0.00 0.00 0.00 0.00
0.00 0.00 0.00 0.01 0.00 0.01 0.01 0.01 0.01 0.01 0.04 0.02 0.00 0.01 0.02 0.00 0.00 0.00 0.00 0.00 0.00 0.02 0.26 0.40 0.62 0.44 0.37 0.33 0.35 0.67 0.63 0.64 0.25 0.41 0.33 0.50 0.50 0.35 0.47 0.57 0.30 0.07 0.02 0.00 0.00 0.00 0.01
0.00 0.00 0.00 0.00 0.00 0.00 0.00 0.00 0.00 0.01 0.02 0.02 0.00 0.00 0.00 0.00 0.00 0.00 0.00 0.00 0.01 0.05 0.09 0.17 0.43 0.38 0.39 0.46 0.44 0.45 0.48 0.29 0.25 0.38 0.46 0.65 0.46 0.34 0.29 0.50 0.43 0.11 0.05 0.10 0.09 0.08 0.02
0.00 0.00 0.00 0.00 0.00 0.00 0.00 0.00 0.00 0.00 0.01 0.01 0.00 0.00 0.00 0.00 0.00 0.00 0.00 0.01 0.03 0.07 0.10 0.15 0.08 0.11 0.13 0.10 0.15 0.24 0.18 0.10 0.05 0.05 0.23 0.31 0.39 0.37 0.28 0.26 0.45 0.21 0.04 0.05 0.02 0.01 0.00
0.00 0.00 0.00 0.00 0.00 0.00 0.00 0.00 0.00 0.00 0.00 0.00 0.00 0.00 0.00 0.00 0.00 0.00 0.00 0.01 0.06 0.09 0.10 0.06 0.02 0.03 0.04 0.03 0.05 0.10 0.07 0.02 0.03 0.05 0.10 0.07 0.11 0.21 0.22 0.08 0.24 0.36 0.11 0.00 0.00 0.00 0.00
0.00 0.00 0.00 0.00 0.00 0.00 0.00 0.00 0.00 0.00 0.00 0.00 0.00 0.00 0.00 0.00 0.00 0.00 0.00 0.02 0.03 0.02 0.00 0.00 0.01 0.01 0.01 0.02 0.01 0.01 0.00 0.00 0.00 0.00 0.00 0.01 0.07 0.12 0.16 0.10 0.12 0.22 0.08 0.06 0.02 0.01 0.00
0.00 0.00 0.00 0.00 0.00 0.00 0.00 0.00 0.00 0.00 0.00 0.00 0.00 0.00 0.00 0.00 0.00 0.00 0.00 0.01 0.00 0.00 0.00 0.00 0.00 0.00 0.00 0.00 0.00 0.00 0.00 0.00 0.00 0.00 0.00 0.00 0.01 0.07 0.08 0.10 0.06 0.10 0.14 0.04 0.02 0.00 0.00
0.00 0.00 0.00 0.00 0.00 0.00 0.00 0.00 0.00 0.00 0.00 0.00 0.00 0.00 0.00 0.00 0.00 0.00 0.00 0.00 0.00 0.00 0.00 0.00 0.00 0.00 0.00 0.00 0.00 0.00 0.00 0.00 0.00 0.00 0.00 0.00 0.00 0.01 0.01 0.01 0.00 0.01 0.02 0.02 0.01 0.00 0.00
0.00 0.00 0.00 0.00 0.00 0.00 0.00 0.00 0.00 0.00 0.00 0.00 0.00 0.00 0.00 0.00 0.00 0.00 0.00 0.00 0.00 0.00 0.00 0.00 0.00 0.00 0.00 0.00 0.00 0.00 0.00 0.00 0.00 0.00 0.00 0.00 0.00 0.02 0.03 0.02 0.01 0.02 0.01 0.02 0.02 0.02 0.00
0.00 0.00 0.00 0.00 0.00 0.00 0.00 0.00 0.00 0.00 0.00 0.00 0.00 0.00 0.00 0.00 0.00 0.00 0.00 0.00 0.00 0.00 0.00 0.00 0.00 0.00 0.00 0.00 0.00 0.00 0.00 0.00 0.00 0.00 0.00 0.00 0.00 0.00 0.00 0.00 0.00 0.00 0.00 0.00 0.02 0.04 0.01
0.00 0.00 0.00 0.00 0.00 0.00 0.00 0.00 0.00 0.00 0.00 0.00 0.00 0.00 0.00 0.00 0.00 0.00 0.00 0.00 0.00 0.00 0.00 0.00 0.00 0.00 0.00 0.00 0.00 0.00 0.00 0.00 0.00 0.00 0.00 0.00 0.00 0.00 0.00 0.00 0.00 0.00 0.00 0.00 0.01 0.00 0.01
0.00 0.00 0.00 0.00 0.00 0.00 0.00 0.00 0.00 0.00 0.00 0.00 0.00 0.00 0.00 0.00 0.00 0.00 0.00 0.00 0.00 0.00 0.00 0.00 0.00 0.00 0.00 0.00 0.00 0.00 0.00 0.00 0.00 0.00 0.00 0.00 0.00 0.00 0.00 0.00 0.00 0.00 0.00 0.00 0.00 0.00 0.00
0.00 0.00 0.00 0.00 0.00 0.00 0.00 0.00 0.00 0.00 0.00 0.00 0.00 0.00 0.00 0.00 0.00 0.00 0.00 0.00 0.00 0.00 0.00 0.00 0.00 0.00 0.00 0.01 0.00 0.00 0.00 0.00 0.00 0.00 0.00 0.00 0.00 0.00 0.00 0.00 0.00 0.00 0.00 0.00 0.00 0.00 0.00
0.00 0.00 0.00 0.00 0.00 0.00 0.00 0.00 0.00 0.00 0.00 0.00 0.00 0.01 0.00 0.00 0.00 0.00 0.00 0.00 0.00 0.00 0.00 0.00 0.00 0.00 0.01 0.03 0.01 0.01 0.00 0.00 0.00 0.00 0.00 0.00 0.00 0.00 0.00 0.00 0.00 0.00 0.00 0.00 0.00 0.00 0.00
0.00 0.00 0.00 0.00 0.00 0.00 0.00 0.00 0.00 0.00 0.00 0.00 0.00 0.01 0.01 0.00 0.00 0.00 0.00 0.00 0.00 0.00 0.00 0.00 0.00 0.00 0.00 0.02 0.04 0.03 0.01 0.01 0.00 0.00 0.00 0.00 0.00 0.00 0.00 0.00 0.00 0.00 0.00 0.00 0.00 0.00 0.00
0.00 0.00 0.00 0.00 0.00 0.01 0.00 0.00 0.00 0.00 0.00 0.00 0.00 0.00 0.01 0.01 0.00 0.00 0.00 0.00 0.00 0.01 0.01 0.01 0.01 0.02 0.04 0.06 0.09 0.13 0.04 0.01 0.01 0.01 0.00 0.00 0.00 0.01 0.01 0.00 0.00 0.00 0.00 0.00 0.00 0.00 0.00
0.00 0.00 0.00 0.00 0.00 0.00 0.00 0.00 0.00 0.00 0.00 0.00 0.00 0.00 0.00 0.01 0.00 0.00 0.00 0.00 0.00 0.01 0.02 0.04 0.03 0.04 0.08 0.17 0.22 0.13 0.03 0.00 0.00 0.01 0.00 0.01 0.02 0.04 0.02 0.01 0.00 0.00 0.00 0.00 0.02 0.01 0.00
0.01 0.01 0.01 0.00 0.00 0.00 0.00 0.00 0.00 0.00 0.00 0.00 0.00 0.00 0.00 0.00 0.00 0.00 0.00 0.00 0.00 0.00 0.03 0.05 0.11 0.15 0.17 0.33 0.33 0.20 0.06 0.01 0.00 0.00 0.00 0.01 0.02 0.04 0.03 0.04 0.00 0.00 0.00 0.01 0.01 0.00 0.00
0.03 0.03 0.02 0.01 0.00 0.01 0.01 0.01 0.01 0.02 0.02 0.03 0.01 0.00 0.00 0.02 0.00 0.00 0.00 0.00 0.00 0.01 0.03 0.05 0.10 0.15 0.31 0.33 0.35 0.28 0.16 0.06 0.01 0.00 0.00 0.00 0.00 0.00 0.00 0.00 0.00 0.00 0.00 0.00 0.00 0.00 0.00

GFSGBSN_prec_precacc24_081.txt.gz
Total_Precipitation_Accumulation
0.01 0.01 0.01 0.02 0.02 0.02 0.01 0.05 0.09 0.07 0.06 0.07 0.11 0.14 0.14 0.16 0.16 0.20 0.14 0.08 0.11 0.09 0.10 0.09 0.07 0.07 0.04 0.02 0.01 0.12 0.10 0.10 0.17 0.41 0.27 0.11 0.03 0.05 0.04 0.03 0.03 0.00 0.02 0.04 0.15 0.06 0.04
0.01 0.01 0.01 0.01 0.02 0.01 0.02 0.07 0.08 0.06 0.05 0.09 0.14 0.14 0.14 0.14 0.15 0.16 0.11 0.07 0.06 0.10 0.14 0.11 0.10 0.17 0.08 0.02 0.01 0.04 0.10 0.06 0.28 0.43 0.34 0.22 0.03 0.03 0.05 0.06 0.08 0.02 0.02 0.02 0.05 0.05 0.03
0.00 0.01 0.01 0.01 0.02 0.01 0.03 0.08 0.06 0.04 0.07 0.12 0.14 0.12 0.10 0.14 0.15 0.12 0.03 0.02 0.03 0.03 0.04 0.10 0.16 0.22 0.06 0.00 0.02 0.07 0.11 0.05 0.24 0.38 0.31 0.24 0.05 0.06 0.04 0.08 0.11 0.06 0.05 0.03 0.00 0.03 0.08
0.00 0.00 0.01 0.01 0.01 0.01 0.03 0.07 0.04 0.04 0.08 0.13 0.13 0.12 0.13 0.13 0.12 0.08 0.01 0.01 0.01 0.01 0.07 0.16 0.28 0.15 0.04 0.00 0.01 0.01 0.08 0.05 0.11 0.31 0.28 0.31 0.20 0.09 0.07 0.05 0.12 0.18 0.07 0.03 0.00 0.00 0.02
0.00 0.01 0.01 0.00 0.01 0.02 0.03 0.04 0.02 0.04 0.09 0.13 0.12 0.12 0.08 0.05 0.05 0.08 0.01 0.00 0.00 0.00 0.01 0.12 0.16 0.09 0.03 0.02 0.02 0.00 0.09 0.06 0.10 0.41 0.39 0.64 0.48 0.20 0.11 0.12 0.14 0.15 0.04 0.01 0.00 0.00 0.00
0.00 0.00 0.00 0.00 0.01 0.01 0.02 0.02 0.03 0.06 0.08 0.13 0.11 0.11 0.07 0.06 0.06 0.10 0.01 0.00 0.00 0.01 0.00 0.02 0.07 0.10 0.04 0.02 0.08 0.06 0.19 0.16 0.20 0.67 0.98 1.15 0.66 0.29 0.16 0.10 0.05 0.02 0.01 0.00 0.00 0.00 0.00
0.00 0.00 0.00 0.00 0.01 0.01 0.02 0.02 0.03 0.05 0.07 0.11 0.11 0.11 0.10 0.13 0.20 0.15 0.03 0.00 0.03 0.07 0.04 0.07 0.09 0.06 0.11 0.20 0.30 0.23 0.33 0.41 0.47 0.97 1.05 1.05 0.58 0.17 0.02 0.00 0.00 0.00 0.00 0.00 0.00 0.00 0.00
0.00 0.00 0.00 0.00 0.00 0.01 0.02 0.02 0.02 0.02 0.06 0.09 0.08 0.10 0.09 0.10 0.27 0.14 0.03 0.00 0.00 0.02 0.04 0.02 0.05 0.07 0.10 0.34 0.54 0.50 0.36 0.82 0.63 0.90 0.91 0.89 0.27 0.08 0.04 0.01 0.01 0.01 0.00 0.00 0.00 0.00 0.00
0.00 0.00 0.00 0.00 0.00 0.00 0.01 0.01 0.02 0.02 0.05 0.05 0.05 0.05 0.03 0.01 0.07 0.18 0.01 0.00 0.00 0.00 0.09 0.16 0.16 0.15 0.21 0.61 0.60 0.60 0.48 0.96 0.55 0.68 0.93 0.57 0.13 0.11 0.10 0.05 0.01 0.00 0.00 0.00 0.00 0.00 0.00
0.00 0.00 0.00 0.00 0.00 0.00 0.00 0.01 0.01 0.01 0.03 0.02 0.02 0.04 0.01 0.00 0.00 0.00 0.00 0.00 0.00 0.00 0.21 0.32 0.29 0.26 0.39 0.53 0.71 0.48 0.91 1.09 0.46 0.66 0.85 0.56 0.18 0.20 0.24 0.07 0.02 0.01 0.00 0.00 0.00 0.00 0.00
0.00 0.00 0.00 0.00 0.00 0.00 0.00 0.00 0.01 0.01 0.01 0.02 0.01 0.02 0.01 0.00 0.00 0.00 0.00 0.00 0.00 0.02 0.36 0.57 0.35 0.36 0.32 0.28 0.39 0.58 0.84 0.93 0.32 0.54 0.75 0.58 0.37 0.20 0.39 0.23 0.04 0.02 0.00 0.00 0.00 0.00 0.00
0.00 0.00 0.00 0.00 0.00 0.00 0.00 0.00 0.00 0.00 0.01 0.01 0.00 0.00 0.00 0.00 0.00 0.00 0.00 0.00 0.00 0.02 0.22 0.33 0.49 0.29 0.20 0.30 0.35 0.67 0.61 0.63 0.24 0.31 0.38 0.50 0.47 0.33 0.43 0.53 0.26 0.05 0.02 0.00 0.00 0.00 0.01
0.00 0.00 0.00 0.00 0.00 0.00 0.00 0.00 0.00 0.00 0.01 0.01 0.00 0.00 0.00 0.00 0.00 0.00 0.00 0.00 0.00 0.04 0.07 0.13 0.30 0.33 0.34 0.44 0.44 0.43 0.43 0.28 0.24 0.33 0.53 0.69 0.47 0.34 0.29 0.50 0.43 0.11 0.05 0.10 0.09 0.08 0.02
0.00 0.00 0.00 0.00 0.00 0.00 0.00 0.00 0.00 0.00 0.01 0.01 0.00 0.00 0.00 0.00 0.00 0.00 0.00 0.00 0.02 0.06 0.07 0.09 0.05 0.08 0.11 0.09 0.14 0.23 0.15 0.10 0.05 0.05 0.24 0.33 0.40 0.37 0.28 0.26 0.45 0.21 0.04 0.05 0.02 0.01 0.00
0.00 0.00 0.00 0.00 0.00 0.00 0.00 0.00 0.00 0.00 0.00 0.00 0.00 0.00 0.00 0.00 0.00 0.00 0.00 0.00 0.02 0.03 0.02 0.03 0.01 0.02 0.02 0.03 0.04 0.09 0.06 0.02 0.03 0.05 0.11 0.08 0.11 0.21 0.22 0.08 0.24 0.36 0.11 0.00 0.00 0.00 0.00
0.00 0.00 0.00 0.00 0.00 0.00 0.00 0.00 0.00 0.00 0.00 0.00 0.00 0.00 0.00 0.00 0.00 0.00 0.00 0.01 0.01 0.00 0.00 0.00 0.00 0.00 0.01 0.01 0.01 0.01 0.00 0.00 0.00 0.00 0.00 0.01 0.07 0.12 0.16 0.10 0.12 0.22 0.08 0.06 0.03 0.01 0.00
0.00 0.00 0.00 0.00 0.00 0.00 0.00 0.00 0.00 0.00 0.00 0.00 0.00 0.00 0.00 0.00 0.00 0.00 0.00 0.01 0.00 0.00 0.00 0.00 0.00 0.00 0.00 0.00 0.00 0.00 0.00 0.00 0.00 0.00 0.00 0.00 0.01 0.07 0.08 0.11 0.06 0.10 0.14 0.04 0.02 0.00 0.00
0.00 0.00 0.00 0.00 0.00 0.00 0.00 0.00 0.00 0.00 0.00 0.00 0.00 0.00 0.00 0.00 0.00 0.00 0.00 0.00 0.00 0.00 0.00 0.00 0.00 0.00 0.00 0.00 0.00 0.00 0.00 0.00 0.00 0.00 0.00 0.00 0.00 0.01 0.02 0.01 0.00 0.01 0.02 0.03 0.01 0.00 0.00
0.00 0.00 0.00 0.00 0.00 0.00 0.00 0.00 0.00 0.00 0.00 0.00 0.00 0.00 0.00 0.00 0.00 0.00 0.00 0.00 0.00 0.00 0.00 0.00 0.00 0.00 0.00 0.00 0.00 0.00 0.00 0.00 0.00 0.00 0.00 0.00 0.00 0.02 0.04 0.02 0.02 0.02 0.01 0.02 0.02 0.02 0.01
0.00 0.00 0.00 0.00 0.00 0.00 0.00 0.00 0.00 0.00 0.00 0.00 0.00 0.00 0.00 0.00 0.00 0.00 0.00 0.00 0.00 0.00 0.00 0.00 0.00 0.00 0.00 0.00 0.00 0.00 0.00 0.00 0.00 0.00 0.00 0.02 0.02 0.00 0.00 0.00 0.00 0.00 0.00 0.00 0.03 0.05 0.01
0.00 0.00 0.00 0.00 0.00 0.00 0.00 0.00 0.00 0.00 0.00 0.00 0.00 0.00 0.00 0.00 0.00 0.00 0.00 0.00 0.00 0.00 0.00 0.00 0.00 0.00 0.00 0.00 0.00 0.00 0.00 0.00 0.00 0.00 0.00 0.02 0.05 0.00 0.00 0.00 0.00 0.00 0.00 0.00 0.01 0.00 0.01
0.00 0.00 0.00 0.00 0.00 0.00 0.00 0.00 0.00 0.00 0.00 0.00 0.00 0.00 0.00 0.00 0.00 0.00 0.00 0.00 0.00 0.00 0.00 0.00 0.00 0.00 0.00 0.00 0.01 0.01 0.01 0.01 0.00 0.00 0.00 0.00 0.00 0.00 0.00 0.00 0.00 0.00 0.00 0.00 0.00 0.00 0.00
0.00 0.00 0.00 0.00 0.00 0.00 0.00 0.00 0.00 0.00 0.00 0.00 0.00 0.00 0.00 0.00 0.00 0.00 0.00 0.00 0.00 0.00 0.00 0.00 0.00 0.00 0.01 0.03 0.03 0.02 0.01 0.01 0.01 0.00 0.00 0.00 0.00 0.00 0.00 0.00 0.00 0.00 0.00 0.00 0.00 0.00 0.00
0.00 0.00 0.00 0.00 0.00 0.00 0.00 0.00 0.00 0.00 0.00 0.00 0.00 0.01 0.00 0.00 0.00 0.00 0.00 0.00 0.00 0.00 0.00 0.00 0.00 0.00 0.01 0.03 0.03 0.04 0.05 0.02 0.00 0.00 0.00 0.00 0.00 0.00 0.01 0.00 0.00 0.00 0.00 0.00 0.00 0.00 0.00
0.01 0.00 0.00 0.00 0.00 0.00 0.00 0.00 0.00 0.00 0.00 0.00 0.00 0.00 0.01 0.00 0.00 0.00 0.00 0.00 0.00 0.00 0.00 0.00 0.00 0.00 0.00 0.03 0.05 0.08 0.11 0.08 0.05 0.02 0.00 0.00 0.01 0.01 0.01 0.00 0.00 0.00 0.00 0.00 0.00 0.00 0.00
0.01 0.00 0.00 0.00 0.00 0.00 0.00 0.00 0.00 0.00 0.00 0.00 0.00 0.00 0.01 0.01 0.00 0.00 0.00 0.00 0.00 0.01 0.01 0.01 0.01 0.02 0.04 0.07 0.12 0.17 0.14 0.05 0.01 0.01 0.00 0.00 0.00 0.04 0.03 0.01 0.00 0.00 0.00 0.00 0.00 0.00 0.00
0.00 0.00 0.00 0.00 0.00 0.00 0.00 0.00 0.00 0.00 0.00 0.00 0.00 0.00 0.00 0.01 0.00 0.00 0.00 0.00 0.00 0.01 0.02 0.04 0.03 0.04 0.08 0.18 0.25 0.14 0.07 0.06 0.04 0.01 0.00 0.02 0.05 0.08 0.05 0.03 0.00 0.00 0.00 0.00 0.02 0.01 0.00
0.01 0.01 0.01 0.00 0.00 0.00 0.00 0.00 0.00 0.00 0.00 0.00 0.00 0.00 0.00 0.00 0.00 0.00 0.00 0.00 0.00 0.00 0.03 0.05 0.11 0.15 0.17 0.34 0.44 0.28 0.09 0.02 0.01 0.00 0.00 0.01 0.03 0.06 0.05 0.06 0.01 0.00 0.00 0.01 0.01 0.00 0.00
0.03 0.03 0.02 0.01 0.00 0.00 0.00 0.00 0.01 0.01 0.02 0.03 0.01 0.00 0.00 0.02 0.00 0.00 0.00 0.00 0.00 0.01 0.03 0.05 0.10 0.15 0.31 0.34 0.36 0.32 0.26 0.22 0.08 0.05 0.02 0.01 0.00 0.00 0.00 0.00 0.00 0.00 0.00 0.00 0.00 0.00 0.00

GFSGBSN_prec_precacc24_084.txt.gz
Total_Precipitation_Accumulation
0.00 0.01 0.01 0.01 0.01 0.01 0.02 0.04 0.07 0.05 0.05 0.07 0.11 0.12 0.12 0.14 0.16 0.19 0.13 0.06 0.10 0.08 0.09 0.09 0.06 0.06 0.01 0.01 0.01 0.10 0.07 0.09 0.14 0.39 0.28 0.18 0.02 0.03 0.04 0.05 0.04 0.02 0.04 0.07 0.16 0.06 0.04
0.00 0.01 0.01 0.01 0.01 0.01 0.02 0.05 0.05 0.03 0.05 0.09 0.13 0.10 0.10 0.12 0.14 0.16 0.10 0.06 0.05 0.08 0.12 0.10 0.08 0.09 0.02 0.01 0.00 0.03 0.03 0.06 0.28 0.44 0.34 0.27 0.04 0.01 0.05 0.08 0.10 0.02 0.03 0.07 0.06 0.05 0.03
0.00 0.00 0.01 0.01 0.01 0.01 0.02 0.05 0.02 0.02 0.05 0.10 0.12 0.09 0.09 0.12 0.11 0.10 0.03 0.01 0.02 0.01 0.03 0.07 0.11 0.11 0.03 0.00 0.01 0.04 0.05 0.06 0.21 0.41 0.32 0.31 0.06 0.06 0.04 0.11 0.12 0.06 0.06 0.06 0.01 0.03 0.08
0.00 0.00 0.00 0.00 0.00 0.01 0.02 0.04 0.02 0.03 0.06 0.10 0.09 0.09 0.09 0.07 0.08 0.07 0.01 0.01 0.01 0.00 0.02 0.05 0.15 0.08 0.03 0.00 0.00 0.00 0.05 0.04 0.10 0.33 0.29 0.36 0.17 0.09 0.08 0.06 0.16 0.20 0.08 0.04 0.00 0.00 0.02
0.00 0.00 0.00 0.00 0.00 0.01 0.02 0.02 0.02 0.03 0.05 0.10 0.10 0.10 0.07 0.05 0.05 0.08 0.01 0.00 0.00 0.00 0.00 0.02 0.06 0.05 0.02 0.00 0.00 0.00 0.08 0.04 0.08 0.42 0.37 0.59 0.39 0.17 0.12 0.15 0.18 0.18 0.04 0.01 0.00 0.00 0.00
0.00 0.00 0.00 0.00 0.00 0.01 0.01 0.02 0.02 0.02 0.05 0.10 0.08 0.08 0.06 0.05 0.05 0.08 0.01 0.00 0.00 0.01 0.00 0.01 0.05 0.06 0.04 0.01 0.03 0.04 0.18 0.11 0.13 0.65 0.87 1.15 0.50 0.22 0.14 0.12 0.07 0.03 0.01 0.01 0.00 0.00 0.00
0.00 0.00 0.00 0.00 0.00 0.00 0.01 0.02 0.02 0.02 0.06 0.07 0.05 0.05 0.04 0.05 0.07 0.07 0.02 0.00 0.03 0.07 0.03 0.07 0.08 0.04 0.07 0.15 0.25 0.19 0.30 0.20 0.34 0.97 1.05 1.31 0.41 0.12 0.02 0.01 0.00 0.00 0.01 0.00 0.00 0.00 0.00
0.00 0.00 0.00 0.00 0.00 0.00 0.01 0.01 0.02 0.02 0.04 0.04 0.03 0.04 0.02 0.01 0.01 0.02 0.00 0.00 0.00 0.02 0.04 0.02 0.04 0.06 0.09 0.28 0.51 0.39 0.31 0.45 0.59 0.89 0.91 1.01 0.27 0.07 0.03 0.01 0.01 0.01 0.00 0.00 0.00 0.00 0.00
0.00 0.00 0.00 0.00 0.00 0.00 0.00 0.01 0.01 0.01 0.02 0.03 0.02 0.02 0.01 0.00 0.00 0.00 0.00 0.00 0.00 0.00 0.09 0.15 0.13 0.10 0.17 0.56 0.56 0.50 0.38 0.82 0.53 0.63 0.73 0.55 0.12 0.09 0.10 0.05 0.02 0.00 0.00 0.00 0.00 0.00 0.01
0.00 0.00 0.00 0.00 0.00 0.00 0.00 0.00 0.00 0.01 0.01 0.02 0.02 0.02 0.01 0.00 0.00 0.00 0.00 0.00 0.00 0.00 0.18 0.28 0.21 0.17 0.33 0.48 0.62 0.45 0.66 1.01 0.42 0.46 0.62 0.35 0.07 0.16 0.23 0.07 0.02 0.01 0.00 0.00 0.00 0.00 0.01
0.00 0.00 0.00 0.00 0.00 0.00 0.00 0.00 0.00 0.00 0.01 0.01 0.01 0.01 0.00 0.00 0.00 0.00 0.00 0.00 0.00 0.01 0.30 0.48 0.28 0.28 0.27 0.23 0.24 0.51 0.65 0.79 0.21 0.38 0.56 0.35 0.10 0.14 0.32 0.18 0.03 0.01 0.00 0.00 0.00 0.00 0.00
0.00 0.00 0.00 0.00 0.00 0.00 0.00 0.00 0.00 0.00 0.01 0.01 0.01 0.00 0.00 0.00 0.00 0.00 0.00 0.00 0.00 0.01 0.16 0.29 0.44 0.24 0.17 0.19 0.31 0.61 0.56 0.48 0.16 0.26 0.30 0.24 0.14 0.15 0.31 0.36 0.16 0.04 0.02 0.00 0.00 0.00 0.01
0.00 0.00 0.00 0.00 0.00 0.00 0.00 0.00 0.00 0.00 0.00 0.01 0.00 0.00 0.00 0.00 0.00 0.00 0.00 0.00 0.00 0.02 0.03 0.05 0.22 0.30 0.31 0.39 0.43 0.41 0.42 0.25 0.21 0.26 0.44 0.42 0.34 0.22 0.22 0.46 0.36 0.09 0.05 0.11 0.10 0.08 0.02
0.00 0.00 0.00 0.00 0.00 0.00 0.00 0.00 0.00 0.00 0.00 0.00 0.00 0.00 0.00 0.00 0.00 0.00 0.00 0.00 0.01 0.04 0.02 0.02 0.02 0.05 0.07 0.08 0.13 0.19 0.15 0.10 0.05 0.04 0.21 0.33 0.40 0.34 0.24 0.26 0.46 0.21 0.05 0.05 0.02 0.01 0.00
0.00 0.00 0.00 0.00 0.00 0.00 0.00 0.00 0.00 0.00 0.00 0.00 0.00 0.00 0.00 0.00 0.00 0.00 0.00 0.00 0.01 0.01 0.01 0.01 0.01 0.01 0.02 0.03 0.04 0.07 0.06 0.02 0.03 0.05 0.11 0.08 0.11 0.21 0.21 0.08 0.25 0.36 0.12 0.01 0.00 0.00 0.00
0.00 0.00 0.00 0.00 0.00 0.00 0.00 0.00 0.00 0.00 0.00 0.00 0.00 0.00 0.00 0.00 0.00 0.00 0.00 0.00 0.01 0.00 0.00 0.00 0.00 0.00 0.01 0.01 0.01 0.01 0.00 0.00 0.00 0.00 0.00 0.01 0.07 0.12 0.16 0.11 0.12 0.22 0.08 0.06 0.03 0.02 0.00
0.00 0.00 0.00 0.00 0.00 0.00 0.00 0.00 0.00 0.00 0.00 0.00 0.00 0.00 0.00 0.00 0.00 0.00 0.00 0.00 0.00 0.00 0.00 0.00 0.00 0.00 0.00 0.00 0.00 0.00 0.00 0.00 0.00 0.00 0.00 0.00 0.01 0.07 0.09 0.12 0.07 0.10 0.15 0.04 0.02 0.00 0.00
0.00 0.00 0.00 0.00 0.00 0.00 0.00 0.00 0.00 0.00 0.00 0.00 0.00 0.00 0.00 0.00 0.00 0.00 0.00 0.00 0.00 0.00 0.00 0.00 0.00 0.00 0.00 0.00 0.00 0.00 0.00 0.00 0.00 0.00 0.00 0.00 0.00 0.02 0.02 0.01 0.00 0.01 0.02 0.03 0.01 0.00 0.00
0.00 0.00 0.00 0.00 0.00 0.00 0.00 0.00 0.00 0.00 0.00 0.00 0.00 0.00 0.00 0.00 0.00 0.00 0.00 0.00 0.00 0.00 0.00 0.00 0.00 0.00 0.00 0.00 0.00 0.00 0.00 0.00 0.00 0.00 0.00 0.00 0.01 0.03 0.05 0.03 0.02 0.03 0.01 0.02 0.02 0.02 0.01
0.02 0.00 0.00 0.00 0.00 0.00 0.00 0.00 0.00 0.00 0.00 0.00 0.00 0.00 0.00 0.00 0.00 0.00 0.00 0.00 0.00 0.00 0.00 0.00 0.00 0.00 0.00 0.00 0.00 0.00 0.00 0.00 0.00 0.00 0.00 0.02 0.02 0.00 0.00 0.00 0.00 0.00 0.00 0.00 0.03 0.06 0.01
0.04 0.00 0.00 0.00 0.00 0.00 0.00 0.00 0.00 0.00 0.00 0.00 0.00 0.00 0.00 0.00 0.00 0.00 0.00 0.00 0.00 0.00 0.00 0.00 0.00 0.00 0.00 0.00 0.00 0.00 0.00 0.00 0.00 0.00 0.02 0.09 0.15 0.03 0.00 0.00 0.00 0.00 0.00 0.00 0.01 0.01 0.01
0.07 0.01 0.00 0.00 0.00 0.00 0.00 0.00 0.00 0.00 0.00 0.00 0.00 0.00 0.00 0.00 0.00 0.00 0.00 0.00 0.00 0.00 0.00 0.00 0.00 0.00 0.00 0.01 0.03 0.04 0.05 0.05 0.02 0.02 0.01 0.05 0.06 0.05 0.06 0.02 0.00 0.00 0.00 0.00 0.00 0.00 0.00
0.06 0.02 0.00 0.00 0.00 0.00 0.00 0.00 0.00 0.00 0.00 0.00 0.00 0.00 0.00 0.00 0.00 0.00 0.00 0.00 0.00 0.00 0.00 0.00 0.00 0.00 0.01 0.03 0.04 0.04 0.07 0.10 0.11 0.08 0.03 0.00 0.00 0.02 0.02 0.01 0.01 0.01 0.00 0.00 0.00 0.00 0.00
0.05 0.02 0.00 0.00 0.00 0.00 0.00 0.00 0.00 0.00 0.00 0.00 0.00 0.00 0.00 0.00 0.00 0.00 0.00 0.00 0.00 0.00 0.00 0.00 0.00 0.00 0.01 0.03 0.03 0.04 0.06 0.06 0.04 0.04 0.14 0.06 0.01 0.01 0.02 0.00 0.01 0.00 0.00 0.00 0.00 0.00 0.00
0.04 0.00 0.00 0.00 0.00 0.00 0.00 0.00 0.00 0.00 0.00 0.00 0.00 0.00 0.01 0.00 0.00 0.00 0.00 0.00 0.00 0.00 0.00 0.00 0.00 0.00 0.00 0.03 0.06 0.08 0.12 0.15 0.10 0.06 0.01 0.02 0.02 0.04 0.01 0.00 0.00 0.00 0.00 0.00 0.00 0.00 0.00
0.06 0.01 0.00 0.00 0.00 0.00 0.00 0.00 0.00 0.00 0.00 0.00 0.00 0.00 0.00 0.00 0.00 0.00 0.00 0.00 0.00 0.01 0.01 0.01 0.01 0.02 0.04 0.07 0.13 0.19 0.15 0.14 0.09 0.08 0.15 0.02 0.01 0.08 0.06 0.01 0.00 0.00 0.00 0.00 0.00 0.00 0.00
0.07 0.01 0.00 0.00 0.00 0.00 0.00 0.00 0.00 0.00 0.00 0.00 0.00 0.00 0.00 0.00 0.00 0.00 0.00 0.00 0.00 0.01 0.02 0.04 0.03 0.04 0.08 0.18 0.26 0.15 0.08 0.08 0.12 0.06 0.04 0.12 0.09 0.09 0.07 0.04 0.00 0.00 0.00 0.00 0.01 0.01 0.00
0.06 0.03 0.01 0.00 0.00 0.00 0.00 0.00 0.00 0.00 0.00 0.00 0.00 0.00 0.00 0.00 0.00 0.00 0.00 0.00 0.00 0.00 0.03 0.05 0.11 0.15 0.17 0.34 0.44 0.30 0.10 0.04 0.04 0.05 0.01 0.02 0.05 0.07 0.06 0.08 0.01 0.00 0.00 0.00 0.00 0.00 0.00
0.11 0.06 0.02 0.01 0.00 0.00 0.00 0.00 0.00 0.01 0.01 0.02 0.01 0.00 0.00 0.02 0.00 0.00 0.00 0.00 0.00 0.01 0.03 0.05 0.10 0.15 0.31 0.34 0.36 0.32 0.26 0.23 0.10 0.06 0.02 0.02 0.00 0.00 0.00 0.00 0.00 0.00 0.00 0.00 0.00 0.00 0.00

GFSGBSN_prec_precacc24_090.txt.gz
Total_Precipitation_Accumulation
0.00 0.00 0.01 0.00 0.00 0.01 0.01 0.02 0.02 0.03 0.03 0.06 0.08 0.06 0.07 0.08 0.08 0.07 0.04 0.03 0.08 0.04 0.04 0.03 0.02 0.01 0.01 0.02 0.01 0.08 0.03 0.06 0.04 0.28 0.32 0.28 0.12 0.03 0.03 0.05 0.17 0.22 0.15 0.16 0.21 0.07 0.06
0.00 0.00 0.00 0.00 0.00 0.01 0.01 0.01 0.02 0.02 0.03 0.06 0.08 0.05 0.05 0.07 0.08 0.05 0.01 0.01 0.02 0.04 0.06 0.02 0.02 0.00 0.01 0.01 0.00 0.03 0.01 0.05 0.06 0.34 0.37 0.37 0.13 0.02 0.03 0.07 0.15 0.10 0.21 0.22 0.17 0.07 0.03
0.01 0.01 0.00 0.00 0.00 0.00 0.00 0.01 0.01 0.02 0.03 0.04 0.06 0.04 0.04 0.05 0.06 0.05 0.00 0.00 0.00 0.00 0.00 0.00 0.00 0.00 0.00 0.00 0.01 0.02 0.00 0.03 0.08 0.28 0.43 0.40 0.08 0.03 0.02 0.09 0.12 0.10 0.28 0.31 0.17 0.08 0.10
0.03 0.01 0.00 0.00 0.00 0.00 0.01 0.01 0.01 0.02 0.03 0.04 0.04 0.04 0.03 0.03 0.03 0.04 0.01 0.00 0.00 0.00 0.00 0.00 0.00 0.00 0.01 0.00 0.00 0.00 0.00 0.01 0.07 0.18 0.30 0.45 0.16 0.05 0.03 0.03 0.15 0.22 0.20 0.28 0.13 0.04 0.06
0.03 0.02 0.01 0.00 0.00 0.00 0.00 0.00 0.01 0.02 0.03 0.03 0.04 0.02 0.02 0.01 0.01 0.03 0.00 0.00 0.00 0.00 0.00 0.00 0.00 0.01 0.00 0.00 0.00 0.00 0.00 0.02 0.10 0.24 0.34 0.69 0.33 0.08 0.07 0.10 0.16 0.18 0.06 0.06 0.12 0.06 0.03
0.03 0.02 0.01 0.00 0.00 0.00 0.00 0.01 0.01 0.01 0.02 0.03 0.03 0.02 0.01 0.01 0.00 0.02 0.00 0.00 0.00 0.00 0.00 0.00 0.00 0.01 0.00 0.01 0.00 0.00 0.01 0.01 0.10 0.34 0.68 1.21 0.35 0.09 0.05 0.07 0.05 0.03 0.01 0.01 0.03 0.04 0.01
0.04 0.03 0.03 0.01 0.00 0.00 0.00 0.00 0.00 0.01 0.02 0.02 0.02 0.02 0.02 0.01 0.00 0.00 0.00 0.00 0.00 0.01 0.00 0.00 0.01 0.00 0.00 0.01 0.02 0.01 0.01 0.05 0.15 0.44 0.86 1.41 0.23 0.05 0.00 0.01 0.00 0.01 0.01 0.01 0.00 0.01 0.02
0.06 0.05 0.03 0.01 0.00 0.00 0.00 0.00 0.00 0.00 0.01 0.02 0.02 0.02 0.01 0.01 0.00 0.00 0.00 0.00 0.00 0.00 0.00 0.01 0.01 0.03 0.05 0.00 0.06 0.07 0.04 0.15 0.25 0.41 0.83 1.01 0.16 0.01 0.00 0.01 0.01 0.01 0.01 0.01 0.00 0.00 0.02
0.10 0.07 0.04 0.02 0.00 0.00 0.00 0.00 0.00 0.00 0.00 0.01 0.01 0.02 0.01 0.00 0.00 0.00 0.00 0.00 0.00 0.00 0.03 0.12 0.11 0.06 0.02 0.02 0.17 0.24 0.10 0.17 0.21 0.51 0.72 0.60 0.11 0.00 0.01 0.02 0.02 0.01 0.00 0.01 0.00 0.00 0.01
0.10 0.06 0.05 0.01 0.00 0.00 0.00 0.00 0.00 0.00 0.00 0.01 0.01 0.02 0.01 0.00 0.00 0.00 0.00 0.00 0.00 0.00 0.07 0.22 0.18 0.10 0.06 0.09 0.39 0.23 0.14 0.32 0.19 0.44 0.59 0.33 0.04 0.00 0.02 0.02 0.00 0.01 0.00 0.01 0.00 0.00 0.01
0.15 0.13 0.11 0.05 0.00 0.00 0.00 0.00 0.00 0.00 0.00 0.00 0.01 0.01 0.00 0.00 0.00 0.00 0.00 0.00 0.00 0.00 0.16 0.37 0.22 0.24 0.17 0.07 0.05 0.13 0.23 0.34 0.11 0.33 0.53 0.30 0.03 0.00 0.01 0.01 0.01 0.02 0.00 0.00 0.00 0.01 0.01
0.18 0.12 0.11 0.09 0.01 0.00 0.00 0.00 0.00 0.00 0.00 0.00 0.00 0.00 0.00 0.00 0.00 0.00 0.00 0.00 0.00 0.00 0.08 0.24 0.40 0.20 0.06 0.04 0.06 0.12 0.33 0.27 0.11 0.16 0.22 0.12 0.02 0.01 0.01 0.09 0.03 0.03 0.02 0.01 0.01 0.02 0.02
0.34 0.13 0.07 0.06 0.03 0.00 0.00 0.00 0.00 0.00 0.00 0.00 0.00 0.00 0.00 0.00 0.00 0.00 0.00 0.00 0.00 0.00 0.00 0.01 0.15 0.17 0.12 0.12 0.08 0.16 0.23 0.09 0.10 0.10 0.29 0.15 0.06 0.02 0.03 0.23 0.27 0.07 0.06 0.12 0.11 0.10 0.02
0.46 0.40 0.25 0.19 0.12 0.03 0.00 0.00 0.00 0.00 0.00 0.00 0.00 0.00 0.00 0.00 0.00 0.00 0.00 0.00 0.00 0.00 0.00 0.00 0.00 0.03 0.06 0.06 0.08 0.14 0.07 0.02 0.00 0.02 0.11 0.14 0.12 0.01 0.01 0.10 0.34 0.16 0.04 0.04 0.03 0.01 0.00
0.37 0.39 0.35 0.27 0.21 0.09 0.00 0.00 0.00 0.00 0.00 0.00 0.00 0.00 0.00 0.00 0.00 0.00 0.00 0.00 0.00 0.00 0.00 0.00 0.00 0.01 0.02 0.03 0.03 0.07 0.05 0.01 0.01 0.01 0.07 0.07 0.04 0.00 0.01 0.01 0.18 0.32 0.12 0.01 0.03 0.01 0.00
0.44 0.32 0.29 0.30 0.20 0.06 0.00 0.00 0.00 0.00 0.00 0.00 0.00 0.00 0.00 0.00 0.00 0.00 0.00 0.00 0.00 0.00 0.00 0.00 0.00 0.00 0.01 0.01 0.01 0.01 0.00 0.00 0.00 0.00 0.02 0.07 0.13 0.05 0.03 0.04 0.08 0.20 0.09 0.08 0.05 0.02 0.00
0.56 0.48 0.28 0.23 0.20 0.06 0.00 0.00 0.00 0.00 0.00 0.00 0.00 0.00 0.00 0.00 0.00 0.00 0.00 0.00 0.00 0.00 0.00 0.00 0.00 0.00 0.00 0.00 0.01 0.01 0.00 0.00 0.00 0.00 0.01 0.02 0.06 0.14 0.15 0.12 0.06 0.09 0.16 0.05 0.03 0.00 0.00
0.63 0.65 0.46 0.26 0.20 0.05 0.00 0.00 0.00 0.00 0.00 0.00 0.00 0.00 0.00 0.00 0.00 0.00 0.00 0.00 0.00 0.00 0.00 0.00 0.00 0.00 0.00 0.00 0.01 0.01 0.01 0.03 0.01 0.00 0.01 0.01 0.06 0.07 0.04 0.01 0.01 0.02 0.03 0.05 0.04 0.01 0.00
0.45 0.55 0.48 0.38 0.23 0.06 0.00 0.00 0.00 0.00 0.00 0.00 0.00 0.00 0.00 0.00 0.00 0.00 0.00 0.00 0.00 0.00 0.00 0.00 0.00 0.00 0.00 0.00 0.00 0.00 0.01 0.00 0.03 0.06 0.07 0.03 0.10 0.12 0.16 0.11 0.04 0.05 0.02 0.03 0.03 0.05 0.03
0.68 0.48 0.44 0.37 0.33 0.07 0.00 0.00 0.00 0.00 0.00 0.00 0.00 0.00 0.00 0.00 0.00 0.00 0.00 0.00 0.00 0.00 0.00 0.00 0.00 0.00 0.00 0.00 0.00 0.01 0.02 0.03 0.01 0.07 0.18 0.27 0.13 0.02 0.04 0.03 0.00 0.01 0.00 0.01 0.06 0.11 0.02
0.85 0.68 0.53 0.41 0.33 0.09 0.00 0.00 0.00 0.00 0.00 0.00 0.00 0.00 0.00 0.00 0.00 0.00 0.00 0.00 0.00 0.00 0.00 0.00 0.00 0.00 0.00 0.00 0.00 0.00 0.02 0.03 0.05 0.05 0.17 0.60 0.60 0.10 0.02 0.01 0.01 0.01 0.00 0.00 0.02 0.02 0.02
0.72 0.78 0.57 0.47 0.32 0.08 0.00 0.00 0.00 0.00 0.00 0.00 0.00 0.00 0.00 0.00 0.00 0.00 0.00 0.00 0.00 0.00 0.00 0.00 0.00 0.00 0.00 0.01 0.03 0.05 0.07 0.10 0.09 0.08 0.19 0.33 0.38 0.27 0.22 0.14 0.08 0.02 0.00 0.00 0.00 0.00 0.00
0.68 0.64 0.50 0.44 0.34 0.06 0.00 0.00 0.00 0.00 0.00 0.00 0.00 0.00 0.00 0.00 0.00 0.00 0.00 0.00 0.00 0.00 0.00 0.00 0.00 0.00 0.01 0.03 0.04 0.04 0.07 0.11 0.22 0.25 0.15 0.32 0.36 0.28 0.16 0.05 0.19 0.18 0.00 0.00 0.00 0.00 0.00
0.90 0.77 0.44 0.38 0.28 0.06 0.00 0.00 0.00 0.00 0.00 0.00 0.00 0.00 0.00 0.00 0.00 0.00 0.00 0.00 0.00 0.00 0.00 0.00 0.00 0.00 0.01 0.03 0.03 0.04 0.06 0.06 0.05 0.11 0.25 0.19 0.24 0.29 0.23 0.05 0.07 0.01 0.00 0.00 0.00 0.00 0.00
0.72 0.68 0.55 0.34 0.21 0.04 0.00 0.00 0.00 0.00 0.00 0.00 0.00 0.00 0.00 0.00 0.00 0.00 0.00 0.00 0.00 0.00 0.00 0.00 0.00 0.00 0.00 0.03 0.06 0.09 0.13 0.16 0.11 0.06 0.04 0.20 0.22 0.27 0.19 0.05 0.01 0.00 0.00 0.00 0.00 0.00 0.00
0.67 0.54 0.51 0.38 0.16 0.04 0.00 0.00 0.00 0.00 0.00 0.00 0.00 0.00 0.00 0.00 0.00 0.00 0.00 0.00 0.00 0.00 0.00 0.01 0.01 0.02 0.04 0.06 0.12 0.19 0.15 0.16 0.16 0.13 0.16 0.05 0.12 0.31 0.23 0.10 0.02 0.00 0.00 0.00 0.00 0.00 0.00
0.96 0.55 0.35 0.27 0.13 0.02 0.00 0.00 0.00 0.00 0.00 0.00 0.00 0.00 0.00 0.00 0.00 0.00 0.00 0.00 0.00 0.01 0.01 0.02 0.03 0.04 0.08 0.17 0.25 0.15 0.08 0.08 0.14 0.17 0.08 0.25 0.20 0.15 0.14 0.12 0.01 0.00 0.00 0.00 0.00 0.00 0.00
0.89 0.79 0.49 0.20 0.08 0.01 0.00 0.00 0.00 0.00 0.00 0.00 0.00 0.00 0.00 0.00 0.00 0.00 0.00 0.00 0.00 0.00 0.01 0.02 0.09 0.14 0.15 0.32 0.44 0.30 0.11 0.04 0.04 0.07 0.04 0.07 0.17 0.17 0.13 0.16 0.03 0.00 0.00 0.00 0.00 0.00 0.00
0.96 0.54 0.37 0.19 0.06 0.01 0.00 0.00 0.00 0.00 0.00 0.01 0.00 0.00 0.00 0.01 0.00 0.00 0.00 0.00 0.00 0.00 0.00 0.01 0.06 0.14 0.29 0.32 0.35 0.31 0.26 0.23 0.09 0.06 0.02 0.03 0.03 0.06 0.05 0.04 0.00 0.00 0.00 0.00 0.00 0.00 0.00

GFSGBSN_prec_precacc24_093.txt.gz
Total_Precipitation_Accumulation
0.00 0.00 0.01 0.00 0.00 0.00 0.00 0.02 0.02 0.02 0.03 0.05 0.06 0.03 0.04 0.05 0.04 0.04 0.01 0.01 0.03 0.03 0.01 0.00 0.00 0.01 0.00 0.02 0.01 0.08 0.03 0.06 0.03 0.08 0.29 0.62 0.29 0.06 0.03 0.06 0.22 0.29 0.17 0.22 0.28 0.14 0.07
0.01 0.01 0.01 0.00 0.00 0.00 0.00 0.01 0.02 0.02 0.02 0.05 0.06 0.03 0.04 0.04 0.02 0.02 0.01 0.00 0.00 0.00 0.01 0.01 0.00 0.00 0.01 0.01 0.00 0.02 0.01 0.05 0.04 0.18 0.27 0.59 0.38 0.07 0.03 0.08 0.17 0.14 0.24 0.25 0.20 0.18 0.05
0.03 0.03 0.01 0.01 0.00 0.00 0.00 0.01 0.01 0.01 0.02 0.03 0.04 0.03 0.03 0.03 0.02 0.02 0.00 0.00 0.00 0.00 0.00 0.00 0.00 0.00 0.00 0.00 0.01 0.01 0.00 0.03 0.07 0.23 0.40 0.51 0.23 0.07 0.02 0.09 0.12 0.09 0.34 0.39 0.25 0.17 0.17
0.05 0.03 0.02 0.01 0.01 0.00 0.00 0.00 0.01 0.01 0.02 0.03 0.03 0.03 0.02 0.02 0.01 0.00 0.00 0.00 0.00 0.00 0.00 0.00 0.00 0.00 0.01 0.00 0.00 0.00 0.00 0.01 0.08 0.18 0.19 0.42 0.16 0.06 0.04 0.03 0.15 0.20 0.27 0.36 0.29 0.14 0.11
0.07 0.04 0.03 0.01 0.01 0.00 0.00 0.00 0.01 0.01 0.02 0.02 0.03 0.02 0.01 0.01 0.00 0.00 0.00 0.00 0.00 0.00 0.00 0.00 0.00 0.00 0.00 0.00 0.00 0.00 0.00 0.03 0.10 0.20 0.29 0.64 0.30 0.07 0.06 0.08 0.13 0.15 0.13 0.16 0.20 0.17 0.10
0.08 0.05 0.03 0.03 0.05 0.03 0.01 0.00 0.01 0.01 0.02 0.02 0.02 0.01 0.01 0.01 0.00 0.00 0.00 0.00 0.00 0.00 0.00 0.00 0.00 0.00 0.00 0.01 0.00 0.00 0.00 0.01 0.10 0.26 0.56 1.03 0.29 0.06 0.03 0.05 0.03 0.03 0.02 0.02 0.06 0.10 0.08
0.09 0.08 0.07 0.06 0.05 0.04 0.02 0.00 0.00 0.01 0.01 0.01 0.02 0.01 0.02 0.01 0.00 0.00 0.00 0.00 0.00 0.00 0.00 0.00 0.00 0.00 0.00 0.00 0.00 0.00 0.00 0.02 0.12 0.30 0.69 1.34 0.21 0.04 0.00 0.01 0.00 0.01 0.01 0.01 0.00 0.02 0.04
0.10 0.11 0.10 0.08 0.07 0.05 0.01 0.00 0.00 0.00 0.01 0.01 0.01 0.02 0.01 0.01 0.00 0.00 0.00 0.00 0.00 0.00 0.00 0.00 0.00 0.01 0.00 0.00 0.01 0.01 0.01 0.05 0.19 0.27 0.60 0.93 0.16 0.01 0.00 0.01 0.01 0.01 0.00 0.01 0.02 0.04 0.05
0.16 0.14 0.11 0.09 0.05 0.04 0.01 0.00 0.00 0.00 0.00 0.01 0.01 0.02 0.01 0.00 0.00 0.00 0.00 0.00 0.00 0.00 0.02 0.10 0.07 0.02 0.00 0.00 0.01 0.01 0.04 0.09 0.10 0.31 0.58 0.54 0.11 0.00 0.01 0.02 0.02 0.01 0.00 0.01 0.01 0.00 0.02
0.18 0.16 0.14 0.13 0.08 0.06 0.04 0.01 0.00 0.00 0.00 0.00 0.01 0.02 0.01 0.00 0.00 0.00 0.00 0.00 0.00 0.00 0.07 0.19 0.12 0.05 0.03 0.07 0.17 0.03 0.03 0.07 0.05 0.28 0.51 0.31 0.04 0.00 0.02 0.02 0.00 0.02 0.01 0.01 0.02 0.00 0.01
0.22 0.23 0.23 0.23 0.15 0.08 0.07 0.04 0.00 0.00 0.00 0.00 0.00 0.01 0.00 0.00 0.00 0.00 0.00 0.00 0.00 0.00 0.11 0.29 0.11 0.06 0.04 0.05 0.04 0.05 0.05 0.11 0.05 0.26 0.50 0.30 0.02 0.00 0.01 0.00 0.00 0.01 0.00 0.00 0.01 0.01 0.01
0.24 0.23 0.23 0.24 0.24 0.15 0.10 0.02 0.00 0.00 0.00 0.00 0.00 0.00 0.00 0.00 0.00 0.00 0.00 0.00 0.00 0.00 0.03 0.11 0.19 0.10 0.05 0.03 0.03 0.07 0.25 0.14 0.10 0.16 0.22 0.12 0.01 0.01 0.01 0.01 0.00 0.01 0.01 0.01 0.01 0.01 0.02
0.38 0.28 0.22 0.22 0.22 0.15 0.14 0.05 0.00 0.00 0.00 0.00 0.00 0.00 0.00 0.00 0.00 0.00 0.00 0.00 0.00 0.00 0.00 0.01 0.11 0.10 0.05 0.04 0.03 0.13 0.19 0.07 0.10 0.10 0.28 0.15 0.04 0.01 0.01 0.05 0.05 0.02 0.05 0.12 0.09 0.09 0.02
0.48 0.49 0.40 0.36 0.32 0.24 0.22 0.11 0.01 0.00 0.00 0.00 0.00 0.00 0.00 0.00 0.00 0.00 0.00 0.00 0.00 0.00 0.00 0.00 0.00 0.03 0.05 0.03 0.02 0.06 0.02 0.01 0.00 0.02 0.11 0.14 0.12 0.01 0.01 0.02 0.03 0.03 0.04 0.04 0.02 0.01 0.00
0.38 0.46 0.48 0.43 0.46 0.41 0.34 0.17 0.03 0.00 0.00 0.00 0.00 0.00 0.00 0.00 0.00 0.00 0.00 0.00 0.00 0.00 0.00 0.00 0.00 0.01 0.02 0.03 0.03 0.04 0.02 0.00 0.00 0.00 0.07 0.07 0.04 0.00 0.00 0.01 0.05 0.17 0.12 0.01 0.04 0.01 0.00
0.46 0.38 0.44 0.45 0.42 0.36 0.27 0.19 0.02 0.00 0.00 0.00 0.00 0.00 0.00 0.00 0.00 0.00 0.00 0.00 0.00 0.00 0.00 0.00 0.00 0.00 0.00 0.01 0.01 0.01 0.00 0.00 0.00 0.00 0.02 0.09 0.12 0.02 0.01 0.02 0.02 0.16 0.08 0.08 0.06 0.03 0.00
0.57 0.53 0.40 0.42 0.44 0.33 0.24 0.14 0.01 0.00 0.00 0.00 0.00 0.00 0.00 0.00 0.00 0.00 0.00 0.00 0.00 0.00 0.00 0.00 0.00 0.00 0.00 0.00 0.01 0.01 0.01 0.00 0.00 0.00 0.01 0.05 0.10 0.13 0.12 0.06 0.02 0.05 0.11 0.05 0.03 0.00 0.00
0.64 0.70 0.62 0.47 0.48 0.37 0.28 0.15 0.00 0.00 0.00 0.00 0.00 0.00 0.00 0.00 0.00 0.00 0.00 0.00 0.00 0.00 0.00 0.00 0.00 0.00 0.00 0.00 0.01 0.01 0.01 0.03 0.02 0.03 0.06 0.05 0.11 0.12 0.07 0.02 0.01 0.02 0.02 0.06 0.04 0.01 0.00
0.49 0.62 0.67 0.65 0.47 0.36 0.31 0.20 0.01 0.00 0.00 0.00 0.00 0.00 0.00 0.00 0.00 0.00 0.00 0.00 0.00 0.00 0.00 0.00 0.00 0.00 0.00 0.00 0.00 0.00 0.01 0.00 0.03 0.10 0.14 0.16 0.22 0.22 0.23 0.16 0.08 0.07 0.02 0.04 0.06 0.07 0.04
0.86 0.61 0.64 0.62 0.58 0.43 0.33 0.12 0.00 0.00 0.00 0.00 0.00 0.00 0.00 0.00 0.00 0.00 0.00 0.00 0.00 0.00 0.00 0.00 0.00 0.00 0.00 0.00 0.00 0.01 0.02 0.03 0.01 0.08 0.23 0.45 0.48 0.10 0.09 0.05 0.01 0.01 0.00 0.01 0.09 0.17 0.03
0.97 0.78 0.69 0.65 0.57 0.47 0.30 0.09 0.00 0.00 0.00 0.00 0.00 0.00 0.00 0.00 0.00 0.00 0.00 0.00 0.00 0.00 0.00 0.00 0.00 0.00 0.00 0.00 0.00 0.00 0.02 0.03 0.05 0.05 0.19 0.65 0.70 0.21 0.04 0.03 0.07 0.03 0.01 0.01 0.07 0.03 0.02
0.82 0.87 0.76 0.86 0.63 0.46 0.30 0.07 0.00 0.00 0.00 0.00 0.00 0.00 0.00 0.00 0.00 0.00 0.00 0.00 0.00 0.00 0.00 0.00 0.00 0.00 0.00 0.01 0.03 0.05 0.07 0.10 0.09 0.08 0.20 0.41 0.47 0.32 0.24 0.15 0.10 0.03 0.00 0.00 0.00 0.00 0.00
0.73 0.73 0.66 0.72 0.78 0.54 0.26 0.03 0.00 0.00 0.00 0.00 0.00 0.00 0.00 0.00 0.00 0.00 0.00 0.00 0.00 0.00 0.00 0.00 0.00 0.00 0.01 0.03 0.04 0.04 0.07 0.11 0.22 0.25 0.15 0.34 0.39 0.31 0.23 0.10 0.29 0.30 0.02 0.00 0.00 0.00 0.00
0.93 0.86 0.54 0.53 0.58 0.56 0.31 0.02 0.00 0.00 0.00 0.00 0.00 0.00 0.00 0.00 0.00 0.00 0.00 0.00 0.00 0.00 0.00 0.00 0.00 0.00 0.01 0.03 0.03 0.04 0.06 0.06 0.05 0.11 0.25 0.19 0.24 0.29 0.30 0.20 0.15 0.02 0.00 0.00 0.00 0.00 0.00
0.73 0.71 0.62 0.50 0.45 0.40 0.28 0.03 0.00 0.00 0.00 0.00 0.00 0.00 0.00 0.00 0.00 0.00 0.00 0.00 0.00 0.00 0.00 0.00 0.00 0.00 0.00 0.03 0.06 0.08 0.13 0.16 0.11 0.06 0.04 0.20 0.22 0.27 0.25 0.19 0.03 0.00 0.00 0.00 0.00 0.00 0.00
0.68 0.59 0.65 0.79 0.56 0.32 0.22 0.05 0.00 0.00 0.00 0.00 0.00 0.00 0.00 0.00 0.00 0.00 0.00 0.00 0.00 0.00 0.00 0.00 0.01 0.02 0.04 0.06 0.12 0.19 0.15 0.16 0.16 0.16 0.17 0.05 0.12 0.31 0.25 0.21 0.06 0.00 0.00 0.00 0.00 0.00 0.00
1.00 0.66 0.45 0.53 0.74 0.43 0.23 0.08 0.00 0.00 0.00 0.00 0.00 0.00 0.00 0.00 0.00 0.00 0.00 0.00 0.00 0.00 0.00 0.00 0.00 0.03 0.08 0.16 0.23 0.15 0.08 0.08 0.14 0.18 0.10 0.27 0.22 0.16 0.15 0.15 0.02 0.00 0.00 0.00 0.00 0.00 0.00
0.95 0.96 0.78 0.34 0.34 0.43 0.26 0.05 0.00 0.00 0.00 0.00 0.00 0.00 0.00 0.00 0.00 0.00 0.00 0.00 0.00 0.00 0.00 0.00 0.01 0.04 0.14 0.31 0.42 0.30 0.11 0.04 0.04 0.07 0.04 0.07 0.17 0.18 0.13 0.17 0.03 0.00 0.00 0.00 0.00 0.00 0.00
0.98 0.62 0.58 0.54 0.32 0.21 0.15 0.02 0.00 0.00 0.00 0.00 0.00 0.00 0.00 0.00 0.00 0.00 0.00 0.00 0.00 0.00 0.00 0.00 0.01 0.06 0.24 0.31 0.35 0.31 0.26 0.23 0.09 0.06 0.02 0.03 0.03 0.07 0.06 0.05 0.01 0.00 0.00 0.00 0.00 0.00 0.00

GFSGBSN_prec_precacc24_096.txt.gz
Total_Precipitation_Accumulation
0.02 0.02 0.01 0.02 0.03 0.01 0.00 0.01 0.01 0.01 0.02 0.03 0.04 0.03 0.03 0.04 0.02 0.01 0.01 0.01 0.00 0.00 0.00 0.00 0.00 0.01 0.00 0.02 0.01 0.07 0.03 0.06 0.03 0.04 0.20 0.74 0.31 0.07 0.04 0.07 0.47 0.39 0.35 0.25 0.33 0.17 0.06
0.06 0.07 0.06 0.03 0.04 0.04 0.01 0.00 0.01 0.01 0.02 0.03 0.05 0.03 0.03 0.03 0.01 0.01 0.00 0.00 0.00 0.00 0.00 0.00 0.00 0.00 0.01 0.01 0.00 0.02 0.01 0.05 0.04 0.13 0.22 0.69 0.43 0.08 0.03 0.08 0.20 0.24 0.47 0.33 0.28 0.22 0.08
0.08 0.09 0.07 0.04 0.04 0.04 0.03 0.01 0.00 0.01 0.01 0.02 0.04 0.03 0.02 0.02 0.01 0.00 0.00 0.00 0.00 0.00 0.00 0.00 0.00 0.00 0.00 0.00 0.00 0.01 0.00 0.03 0.06 0.19 0.39 0.60 0.28 0.07 0.02 0.10 0.11 0.13 0.45 0.54 0.31 0.31 0.22
0.09 0.08 0.07 0.06 0.04 0.05 0.04 0.03 0.01 0.01 0.01 0.02 0.03 0.03 0.02 0.02 0.01 0.00 0.00 0.00 0.00 0.00 0.00 0.00 0.00 0.00 0.01 0.00 0.00 0.00 0.00 0.01 0.08 0.18 0.17 0.42 0.17 0.07 0.04 0.03 0.14 0.19 0.39 0.54 0.37 0.32 0.28
0.10 0.08 0.08 0.08 0.07 0.07 0.07 0.05 0.02 0.01 0.01 0.02 0.02 0.02 0.01 0.01 0.00 0.00 0.00 0.00 0.00 0.00 0.00 0.00 0.00 0.00 0.00 0.00 0.00 0.00 0.00 0.03 0.10 0.20 0.20 0.56 0.20 0.07 0.06 0.08 0.13 0.12 0.18 0.22 0.26 0.24 0.27
0.08 0.08 0.09 0.10 0.13 0.11 0.09 0.07 0.03 0.01 0.01 0.01 0.02 0.01 0.01 0.01 0.00 0.00 0.00 0.00 0.00 0.00 0.00 0.00 0.00 0.00 0.00 0.01 0.00 0.00 0.00 0.01 0.10 0.24 0.35 0.90 0.21 0.06 0.03 0.05 0.04 0.03 0.02 0.03 0.08 0.15 0.12
0.09 0.09 0.11 0.12 0.13 0.12 0.09 0.06 0.04 0.01 0.01 0.01 0.01 0.01 0.02 0.01 0.00 0.00 0.00 0.00 0.00 0.00 0.00 0.00 0.00 0.00 0.00 0.00 0.00 0.00 0.00 0.02 0.11 0.23 0.53 1.23 0.18 0.04 0.00 0.01 0.00 0.01 0.01 0.01 0.01 0.03 0.05
0.10 0.11 0.12 0.16 0.16 0.16 0.13 0.08 0.05 0.02 0.01 0.01 0.01 0.01 0.01 0.01 0.00 0.00 0.00 0.00 0.00 0.00 0.00 0.00 0.00 0.00 0.00 0.00 0.01 0.00 0.01 0.04 0.17 0.14 0.43 0.89 0.15 0.01 0.00 0.00 0.01 0.01 0.00 0.02 0.02 0.04 0.06
0.16 0.14 0.12 0.13 0.15 0.16 0.15 0.12 0.07 0.03 0.00 0.01 0.00 0.01 0.01 0.00 0.00 0.00 0.00 0.00 0.00 0.00 0.00 0.02 0.03 0.01 0.00 0.00 0.01 0.01 0.04 0.04 0.06 0.11 0.36 0.51 0.11 0.00 0.01 0.02 0.01 0.01 0.00 0.01 0.01 0.02 0.05
0.18 0.16 0.15 0.15 0.16 0.17 0.19 0.22 0.16 0.05 0.01 0.00 0.00 0.01 0.01 0.00 0.00 0.00 0.00 0.00 0.00 0.00 0.03 0.08 0.04 0.02 0.01 0.00 0.01 0.01 0.02 0.02 0.02 0.13 0.35 0.25 0.04 0.00 0.01 0.02 0.00 0.02 0.01 0.01 0.02 0.01 0.02
0.22 0.23 0.23 0.23 0.23 0.24 0.25 0.32 0.30 0.17 0.03 0.00 0.00 0.01 0.00 0.00 0.00 0.00 0.00 0.00 0.00 0.00 0.04 0.13 0.06 0.04 0.02 0.01 0.00 0.02 0.01 0.05 0.03 0.14 0.39 0.24 0.02 0.00 0.01 0.00 0.00 0.01 0.00 0.01 0.02 0.01 0.01
0.24 0.23 0.23 0.24 0.27 0.29 0.29 0.29 0.28 0.17 0.04 0.00 0.00 0.00 0.00 0.00 0.00 0.00 0.00 0.00 0.00 0.00 0.01 0.04 0.06 0.07 0.04 0.02 0.02 0.01 0.02 0.05 0.05 0.12 0.20 0.11 0.01 0.01 0.01 0.01 0.00 0.01 0.02 0.01 0.02 0.03 0.03
0.38 0.28 0.22 0.22 0.24 0.26 0.29 0.35 0.35 0.16 0.04 0.00 0.00 0.00 0.00 0.00 0.00 0.00 0.00 0.00 0.00 0.00 0.00 0.01 0.07 0.04 0.04 0.03 0.01 0.02 0.02 0.03 0.06 0.09 0.27 0.14 0.04 0.01 0.01 0.05 0.05 0.02 0.07 0.13 0.09 0.16 0.05
0.48 0.49 0.40 0.37 0.35 0.35 0.39 0.41 0.41 0.24 0.07 0.00 0.00 0.00 0.00 0.00 0.00 0.00 0.00 0.00 0.00 0.00 0.00 0.00 0.00 0.02 0.03 0.02 0.01 0.04 0.02 0.01 0.00 0.02 0.11 0.14 0.12 0.01 0.01 0.02 0.03 0.02 0.05 0.05 0.02 0.01 0.00
0.38 0.46 0.48 0.43 0.47 0.52 0.55 0.43 0.38 0.23 0.06 0.00 0.00 0.00 0.00 0.00 0.00 0.00 0.00 0.00 0.00 0.00 0.00 0.00 0.00 0.01 0.01 0.02 0.01 0.03 0.02 0.00 0.00 0.01 0.08 0.07 0.04 0.00 0.00 0.01 0.03 0.05 0.04 0.02 0.04 0.01 0.00
0.46 0.38 0.44 0.45 0.43 0.46 0.46 0.45 0.39 0.23 0.07 0.00 0.00 0.00 0.00 0.00 0.00 0.00 0.00 0.00 0.00 0.00 0.00 0.00 0.00 0.00 0.00 0.01 0.01 0.01 0.00 0.00 0.00 0.00 0.03 0.09 0.12 0.02 0.00 0.02 0.02 0.03 0.02 0.06 0.07 0.05 0.00
0.58 0.53 0.40 0.43 0.46 0.42 0.44 0.45 0.39 0.26 0.09 0.00 0.00 0.00 0.00 0.00 0.00 0.00 0.00 0.00 0.00 0.00 0.00 0.00 0.00 0.00 0.00 0.00 0.01 0.01 0.01 0.00 0.00 0.00 0.01 0.07 0.14 0.13 0.12 0.05 0.02 0.01 0.04 0.04 0.03 0.00 0.00
0.65 0.70 0.63 0.47 0.51 0.45 0.51 0.59 0.45 0.23 0.04 0.00 0.00 0.00 0.00 0.00 0.00 0.00 0.00 0.00 0.00 0.00 0.00 0.00 0.00 0.00 0.00 0.00 0.01 0.01 0.01 0.04 0.02 0.03 0.07 0.12 0.21 0.18 0.07 0.03 0.02 0.03 0.03 0.06 0.04 0.01 0.00
0.51 0.64 0.68 0.67 0.53 0.50 0.48 0.69 0.54 0.24 0.03 0.00 0.00 0.01 0.00 0.00 0.00 0.00 0.00 0.00 0.00 0.00 0.00 0.00 0.00 0.00 0.00 0.00 0.00 0.00 0.01 0.00 0.03 0.11 0.17 0.19 0.40 0.34 0.26 0.20 0.18 0.18 0.02 0.04 0.05 0.07 0.04
0.88 0.63 0.67 0.66 0.65 0.58 0.51 0.48 0.42 0.17 0.03 0.00 0.00 0.00 0.00 0.00 0.00 0.00 0.00 0.00 0.00 0.00 0.00 0.00 0.00 0.00 0.00 0.00 0.00 0.01 0.02 0.03 0.01 0.08 0.24 0.47 0.54 0.28 0.20 0.16 0.11 0.10 0.07 0.02 0.10 0.19 0.03
0.99 0.82 0.77 0.72 0.66 0.62 0.62 0.47 0.24 0.10 0.01 0.00 0.00 0.00 0.00 0.00 0.00 0.00 0.00 0.00 0.00 0.00 0.00 0.00 0.00 0.00 0.00 0.00 0.00 0.00 0.02 0.03 0.05 0.05 0.20 0.65 0.70 0.22 0.07 0.05 0.17 0.14 0.05 0.09 0.14 0.04 0.03
0.89 0.97 0.89 1.00 0.78 0.63 0.52 0.54 0.24 0.06 0.00 0.00 0.00 0.00 0.00 0.00 0.00 0.00 0.00 0.00 0.00 0.00 0.00 0.00 0.00 0.00 0.00 0.01 0.03 0.05 0.07 0.10 0.09 0.08 0.20 0.41 0.47 0.35 0.26 0.15 0.10 0.03 0.02 0.05 0.05 0.01 0.01
0.80 0.80 0.73 0.87 0.91 0.71 0.45 0.44 0.26 0.04 0.00 0.00 0.00 0.00 0.00 0.00 0.00 0.00 0.00 0.00 0.00 0.00 0.00 0.00 0.00 0.00 0.01 0.03 0.04 0.04 0.07 0.11 0.22 0.25 0.15 0.34 0.39 0.31 0.23 0.11 0.32 0.32 0.02 0.00 0.00 0.00 0.00
0.95 0.88 0.56 0.59 0.66 0.70 0.60 0.42 0.23 0.03 0.00 0.00 0.00 0.00 0.00 0.00 0.00 0.00 0.00 0.00 0.00 0.00 0.00 0.00 0.00 0.00 0.01 0.03 0.03 0.04 0.06 0.06 0.05 0.11 0.25 0.19 0.24 0.29 0.30 0.22 0.22 0.04 0.00 0.00 0.00 0.00 0.00
0.74 0.72 0.62 0.51 0.51 0.51 0.58 0.45 0.17 0.01 0.00 0.00 0.00 0.00 0.00 0.00 0.00 0.00 0.00 0.00 0.00 0.00 0.00 0.00 0.00 0.00 0.00 0.03 0.06 0.08 0.13 0.16 0.11 0.06 0.04 0.20 0.22 0.27 0.25 0.21 0.07 0.00 0.00 0.00 0.00 0.00 0.00
0.69 0.60 0.65 0.81 0.61 0.44 0.43 0.32 0.17 0.02 0.00 0.00 0.00 0.00 0.00 0.00 0.00 0.00 0.00 0.00 0.00 0.00 0.00 0.00 0.00 0.00 0.02 0.05 0.11 0.18 0.15 0.15 0.16 0.17 0.17 0.05 0.12 0.31 0.26 0.22 0.07 0.00 0.00 0.00 0.00 0.00 0.00
1.00 0.66 0.45 0.54 0.79 0.62 0.47 0.27 0.15 0.04 0.00 0.00 0.00 0.00 0.00 0.00 0.00 0.00 0.00 0.00 0.00 0.00 0.00 0.00 0.00 0.01 0.05 0.15 0.20 0.13 0.08 0.08 0.14 0.18 0.10 0.27 0.22 0.16 0.15 0.15 0.02 0.00 0.00 0.00 0.00 0.00 0.00
0.94 0.95 0.78 0.35 0.36 0.62 0.62 0.33 0.16 0.03 0.00 0.00 0.00 0.00 0.00 0.00 0.00 0.00 0.00 0.00 0.00 0.00 0.00 0.00 0.00 0.01 0.08 0.27 0.42 0.29 0.11 0.04 0.04 0.07 0.04 0.07 0.17 0.18 0.13 0.16 0.03 0.00 0.00 0.00 0.00 0.00 0.00
0.97 0.61 0.58 0.54 0.34 0.28 0.42 0.34 0.18 0.02 0.00 0.00 0.00 0.00 0.00 0.00 0.00 0.00 0.00 0.00 0.00 0.00 0.00 0.00 0.00 0.01 0.06 0.15 0.31 0.31 0.26 0.23 0.09 0.06 0.02 0.03 0.03 0.08 0.07 0.05 0.01 0.01 0.00 0.00 0.00 0.00 0.00

GFSGBSN_prec_precacc24_099.txt.gz
Total_Precipitation_Accumulation
0.07 0.07 0.06 0.06 0.07 0.04 0.03 0.03 0.02 0.01 0.01 0.02 0.03 0.02 0.02 0.03 0.02 0.01 0.01 0.01 0.00 0.00 0.00 0.00 0.00 0.01 0.00 0.02 0.01 0.06 0.03 0.06 0.03 0.04 0.26 0.74 0.33 0.09 0.06 0.21 0.86 0.91 0.74 0.29 0.26 0.13 0.04
0.09 0.11 0.10 0.07 0.07 0.07 0.05 0.03 0.03 0.02 0.01 0.02 0.04 0.02 0.03 0.03 0.01 0.01 0.00 0.00 0.00 0.00 0.00 0.00 0.00 0.00 0.01 0.01 0.00 0.01 0.01 0.05 0.03 0.13 0.18 0.63 0.43 0.08 0.04 0.17 0.41 0.69 0.99 0.38 0.27 0.22 0.07
0.10 0.11 0.09 0.07 0.07 0.07 0.06 0.04 0.04 0.03 0.02 0.02 0.03 0.03 0.02 0.02 0.01 0.00 0.00 0.00 0.00 0.00 0.00 0.00 0.00 0.00 0.00 0.00 0.00 0.00 0.00 0.03 0.06 0.19 0.34 0.53 0.27 0.07 0.03 0.14 0.12 0.37 1.02 0.70 0.32 0.32 0.22
0.10 0.09 0.08 0.08 0.08 0.09 0.10 0.08 0.07 0.06 0.02 0.02 0.02 0.03 0.02 0.02 0.01 0.00 0.00 0.00 0.00 0.00 0.00 0.00 0.00 0.00 0.01 0.00 0.00 0.00 0.00 0.01 0.08 0.18 0.13 0.35 0.14 0.06 0.04 0.04 0.12 0.20 0.65 0.93 0.43 0.36 0.33
0.10 0.09 0.09 0.09 0.10 0.13 0.14 0.13 0.09 0.06 0.04 0.02 0.01 0.01 0.01 0.01 0.00 0.00 0.00 0.00 0.00 0.00 0.00 0.00 0.00 0.00 0.00 0.00 0.00 0.00 0.00 0.03 0.10 0.19 0.13 0.47 0.15 0.07 0.06 0.07 0.12 0.12 0.22 0.46 0.48 0.32 0.44
0.09 0.08 0.09 0.11 0.14 0.15 0.15 0.14 0.12 0.11 0.09 0.03 0.01 0.01 0.01 0.01 0.00 0.00 0.00 0.00 0.00 0.00 0.00 0.00 0.00 0.00 0.00 0.01 0.00 0.00 0.00 0.01 0.09 0.21 0.23 0.78 0.17 0.06 0.03 0.04 0.03 0.03 0.02 0.05 0.19 0.23 0.31
0.09 0.09 0.11 0.12 0.13 0.13 0.13 0.13 0.15 0.13 0.08 0.02 0.01 0.01 0.02 0.01 0.00 0.00 0.00 0.00 0.00 0.00 0.00 0.00 0.00 0.00 0.00 0.00 0.00 0.00 0.00 0.02 0.10 0.16 0.29 1.05 0.14 0.04 0.00 0.01 0.00 0.01 0.01 0.01 0.01 0.06 0.13
0.10 0.11 0.12 0.16 0.16 0.16 0.15 0.14 0.17 0.18 0.13 0.08 0.02 0.01 0.01 0.01 0.00 0.00 0.00 0.00 0.00 0.00 0.00 0.00 0.00 0.00 0.00 0.00 0.00 0.00 0.01 0.04 0.16 0.07 0.19 0.70 0.12 0.01 0.00 0.00 0.01 0.01 0.00 0.02 0.02 0.05 0.07
0.16 0.14 0.12 0.13 0.15 0.16 0.16 0.17 0.20 0.20 0.17 0.13 0.03 0.01 0.01 0.00 0.00 0.00 0.00 0.00 0.00 0.00 0.00 0.01 0.00 0.00 0.00 0.00 0.01 0.01 0.04 0.04 0.06 0.06 0.17 0.42 0.09 0.00 0.01 0.02 0.01 0.01 0.00 0.01 0.01 0.02 0.05
0.18 0.16 0.15 0.15 0.16 0.17 0.19 0.23 0.29 0.31 0.33 0.24 0.08 0.02 0.01 0.00 0.00 0.00 0.00 0.00 0.00 0.00 0.01 0.04 0.01 0.00 0.00 0.00 0.01 0.01 0.02 0.01 0.01 0.08 0.20 0.19 0.04 0.00 0.01 0.02 0.00 0.02 0.01 0.01 0.02 0.01 0.02
0.22 0.23 0.23 0.23 0.23 0.24 0.25 0.33 0.38 0.39 0.40 0.31 0.14 0.03 0.00 0.00 0.00 0.00 0.00 0.00 0.00 0.00 0.01 0.02 0.03 0.03 0.01 0.00 0.00 0.01 0.00 0.01 0.00 0.08 0.23 0.16 0.02 0.00 0.01 0.00 0.00 0.01 0.00 0.01 0.02 0.01 0.01
0.24 0.23 0.23 0.24 0.27 0.29 0.29 0.30 0.34 0.36 0.37 0.32 0.15 0.03 0.00 0.00 0.00 0.00 0.00 0.00 0.00 0.00 0.01 0.01 0.01 0.04 0.02 0.01 0.01 0.01 0.00 0.00 0.00 0.03 0.13 0.10 0.01 0.01 0.01 0.01 0.00 0.01 0.02 0.01 0.02 0.04 0.04
0.38 0.28 0.22 0.22 0.24 0.26 0.29 0.35 0.44 0.38 0.32 0.24 0.12 0.04 0.00 0.00 0.00 0.00 0.00 0.00 0.00 0.00 0.00 0.00 0.03 0.02 0.02 0.01 0.00 0.00 0.01 0.00 0.01 0.02 0.18 0.11 0.04 0.01 0.01 0.05 0.05 0.02 0.07 0.12 0.11 0.22 0.06
0.48 0.49 0.41 0.37 0.35 0.35 0.39 0.41 0.47 0.48 0.41 0.29 0.10 0.02 0.00 0.00 0.00 0.00 0.00 0.00 0.00 0.00 0.00 0.00 0.00 0.01 0.01 0.01 0.00 0.00 0.01 0.00 0.00 0.02 0.10 0.12 0.11 0.01 0.01 0.02 0.03 0.02 0.07 0.11 0.02 0.02 0.02
0.39 0.47 0.49 0.44 0.47 0.52 0.55 0.43 0.44 0.51 0.54 0.37 0.15 0.01 0.00 0.00 0.00 0.00 0.00 0.00 0.00 0.00 0.00 0.00 0.00 0.01 0.01 0.02 0.01 0.03 0.02 0.00 0.00 0.01 0.08 0.07 0.04 0.00 0.00 0.01 0.04 0.06 0.05 0.04 0.09 0.02 0.00
0.48 0.40 0.46 0.46 0.43 0.46 0.46 0.45 0.42 0.46 0.51 0.31 0.15 0.02 0.00 0.00 0.00 0.00 0.00 0.00 0.00 0.00 0.00 0.00 0.00 0.00 0.00 0.01 0.00 0.01 0.00 0.00 0.00 0.00 0.03 0.09 0.13 0.02 0.01 0.04 0.04 0.03 0.03 0.05 0.08 0.09 0.00
0.69 0.62 0.46 0.44 0.46 0.42 0.44 0.45 0.42 0.44 0.52 0.28 0.10 0.05 0.00 0.00 0.00 0.00 0.00 0.00 0.00 0.00 0.00 0.00 0.00 0.00 0.00 0.00 0.01 0.01 0.01 0.00 0.00 0.00 0.01 0.07 0.17 0.15 0.16 0.08 0.03 0.03 0.03 0.02 0.02 0.01 0.00
0.72 0.79 0.69 0.49 0.52 0.46 0.52 0.60 0.52 0.47 0.50 0.35 0.08 0.02 0.00 0.00 0.00 0.00 0.00 0.00 0.00 0.00 0.00 0.00 0.00 0.00 0.00 0.00 0.01 0.01 0.01 0.04 0.02 0.03 0.08 0.14 0.24 0.19 0.08 0.08 0.06 0.07 0.05 0.06 0.04 0.01 0.00
0.60 0.73 0.73 0.69 0.54 0.50 0.48 0.72 0.67 0.55 0.41 0.22 0.09 0.03 0.03 0.00 0.01 0.02 0.00 0.00 0.00 0.00 0.00 0.00 0.00 0.00 0.00 0.00 0.00 0.00 0.01 0.00 0.03 0.11 0.18 0.22 0.43 0.39 0.29 0.23 0.21 0.19 0.03 0.04 0.04 0.07 0.04
0.93 0.66 0.69 0.69 0.66 0.59 0.52 0.54 0.61 0.52 0.36 0.20 0.08 0.01 0.03 0.01 0.01 0.01 0.00 0.00 0.00 0.00 0.00 0.00 0.00 0.00 0.00 0.00 0.00 0.01 0.02 0.03 0.01 0.08 0.24 0.48 0.54 0.30 0.27 0.25 0.20 0.18 0.12 0.04 0.11 0.20 0.03
1.00 0.83 0.78 0.75 0.72 0.66 0.65 0.54 0.45 0.35 0.30 0.21 0.04 0.00 0.00 0.00 0.00 0.01 0.00 0.00 0.00 0.00 0.00 0.00 0.00 0.00 0.00 0.00 0.00 0.00 0.02 0.03 0.05 0.05 0.20 0.65 0.70 0.23 0.07 0.05 0.20 0.18 0.12 0.19 0.29 0.06 0.03
0.90 0.99 1.01 1.20 0.94 0.79 0.69 0.71 0.40 0.30 0.26 0.18 0.01 0.00 0.00 0.00 0.00 0.00 0.00 0.00 0.00 0.00 0.00 0.00 0.00 0.00 0.00 0.01 0.03 0.05 0.07 0.10 0.09 0.08 0.20 0.41 0.47 0.35 0.26 0.15 0.10 0.03 0.04 0.11 0.14 0.14 0.06
0.81 0.84 0.88 1.00 1.05 0.87 0.62 0.68 0.43 0.26 0.27 0.12 0.01 0.00 0.00 0.00 0.00 0.00 0.00 0.00 0.00 0.00 0.00 0.00 0.00 0.00 0.01 0.03 0.04 0.04 0.07 0.11 0.22 0.25 0.15 0.34 0.39 0.31 0.23 0.11 0.32 0.33 0.02 0.00 0.01 0.01 0.04
0.95 0.89 0.59 0.64 0.72 0.85 0.75 0.59 0.43 0.24 0.10 0.01 0.00 0.00 0.00 0.00 0.00 0.00 0.00 0.00 0.00 0.00 0.00 0.00 0.00 0.00 0.01 0.03 0.03 0.04 0.06 0.06 0.05 0.11 0.25 0.19 0.24 0.30 0.30 0.22 0.23 0.04 0.00 0.00 0.00 0.00 0.00
0.75 0.73 0.64 0.52 0.55 0.66 0.70 0.66 0.31 0.13 0.03 0.01 0.00 0.00 0.00 0.00 0.00 0.00 0.00 0.00 0.00 0.00 0.00 0.00 0.00 0.00 0.00 0.01 0.05 0.08 0.13 0.16 0.11 0.06 0.04 0.20 0.22 0.27 0.25 0.21 0.07 0.00 0.00 0.00 0.00 0.00 0.00
0.69 0.60 0.67 0.81 0.63 0.50 0.49 0.47 0.28 0.15 0.05 0.00 0.00 0.00 0.00 0.00 0.00 0.00 0.00 0.00 0.00 0.00 0.00 0.00 0.00 0.00 0.00 0.02 0.09 0.18 0.15 0.15 0.16 0.17 0.17 0.05 0.12 0.31 0.26 0.22 0.07 0.00 0.00 0.00 0.00 0.00 0.00
1.00 0.66 0.46 0.54 0.79 0.64 0.57 0.45 0.29 0.26 0.04 0.00 0.00 0.00 0.00 0.00 0.00 0.00 0.00 0.00 0.00 0.00 0.00 0.00 0.00 0.00 0.01 0.06 0.10 0.13 0.08 0.08 0.14 0.18 0.10 0.27 0.21 0.15 0.15 0.15 0.02 0.00 0.00 0.00 0.00 0.00 0.00
0.95 0.95 0.78 0.35 0.36 0.63 0.76 0.55 0.32 0.22 0.03 0.00 0.00 0.00 0.00 0.00 0.00 0.00 0.00 0.00 0.00 0.00 0.00 0.00 0.00 0.00 0.01 0.10 0.27 0.24 0.11 0.04 0.04 0.07 0.04 0.07 0.17 0.17 0.12 0.15 0.03 0.00 0.00 0.00 0.00 0.00 0.00
0.98 0.60 0.58 0.54 0.33 0.30 0.58 0.58 0.42 0.17 0.03 0.00 0.00 0.00 0.00 0.00 0.00 0.00 0.00 0.00 0.00 0.00 0.00 0.00 0.00 0.00 0.01 0.05 0.17 0.18 0.23 0.23 0.09 0.06 0.02 0.03 0.03 0.08 0.07 0.05 0.01 0.01 0.00 0.00 0.00 0.00 0.00

GFSGBSN_prec_precacc24_102.txt.gz
Total_Precipitation_Accumulation
0.09 0.09 0.08 0.08 0.10 0.09 0.07 0.06 0.04 0.02 0.01 0.02 0.02 0.02 0.02 0.02 0.02 0.01 0.01 0.01 0.00 0.00 0.00 0.00 0.00 0.00 0.00 0.02 0.01 0.06 0.03 0.06 0.03 0.06 0.33 0.78 0.41 0.14 0.07 0.21 1.08 1.31 1.11 0.59 0.42 0.16 0.04
0.10 0.12 0.11 0.08 0.08 0.08 0.09 0.06 0.08 0.05 0.01 0.02 0.03 0.02 0.02 0.03 0.01 0.01 0.00 0.00 0.00 0.00 0.00 0.00 0.00 0.00 0.01 0.01 0.00 0.01 0.01 0.04 0.01 0.13 0.20 0.65 0.47 0.13 0.03 0.18 0.56 1.05 1.39 0.83 0.45 0.22 0.07
0.10 0.11 0.10 0.08 0.08 0.08 0.08 0.11 0.11 0.09 0.05 0.02 0.03 0.02 0.02 0.02 0.01 0.00 0.00 0.00 0.00 0.00 0.00 0.00 0.00 0.00 0.00 0.00 0.00 0.00 0.00 0.01 0.01 0.18 0.34 0.51 0.28 0.07 0.02 0.14 0.16 0.62 1.40 1.12 0.50 0.31 0.17
0.10 0.09 0.09 0.08 0.08 0.09 0.10 0.11 0.12 0.12 0.08 0.06 0.04 0.03 0.02 0.01 0.01 0.00 0.00 0.00 0.00 0.00 0.00 0.00 0.00 0.00 0.01 0.00 0.00 0.00 0.00 0.00 0.05 0.16 0.12 0.32 0.13 0.06 0.03 0.04 0.13 0.28 1.12 1.41 0.64 0.38 0.32
0.10 0.09 0.09 0.08 0.10 0.12 0.14 0.13 0.12 0.11 0.11 0.10 0.08 0.04 0.02 0.01 0.00 0.00 0.00 0.00 0.00 0.00 0.00 0.00 0.00 0.00 0.00 0.00 0.00 0.00 0.00 0.03 0.10 0.16 0.12 0.40 0.13 0.07 0.06 0.08 0.13 0.15 0.42 0.82 0.79 0.43 0.45
0.09 0.08 0.10 0.11 0.14 0.15 0.15 0.14 0.14 0.16 0.17 0.18 0.14 0.07 0.02 0.01 0.00 0.00 0.00 0.00 0.00 0.00 0.00 0.00 0.00 0.00 0.00 0.01 0.00 0.00 0.00 0.01 0.09 0.18 0.14 0.63 0.13 0.06 0.03 0.04 0.03 0.03 0.07 0.17 0.41 0.41 0.40
0.10 0.09 0.11 0.12 0.13 0.13 0.13 0.13 0.15 0.17 0.17 0.13 0.11 0.06 0.04 0.02 0.00 0.00 0.00 0.00 0.00 0.00 0.00 0.00 0.00 0.00 0.00 0.00 0.00 0.00 0.00 0.02 0.10 0.12 0.09 0.67 0.10 0.04 0.00 0.01 0.00 0.01 0.02 0.04 0.08 0.11 0.29
0.11 0.11 0.12 0.16 0.17 0.16 0.15 0.14 0.17 0.19 0.18 0.17 0.16 0.13 0.08 0.02 0.00 0.00 0.00 0.00 0.00 0.00 0.00 0.00 0.00 0.00 0.00 0.00 0.00 0.00 0.01 0.04 0.14 0.04 0.06 0.41 0.10 0.01 0.00 0.00 0.01 0.01 0.00 0.02 0.04 0.05 0.13
0.16 0.14 0.12 0.13 0.15 0.17 0.16 0.17 0.20 0.20 0.19 0.22 0.23 0.19 0.11 0.03 0.00 0.00 0.00 0.00 0.00 0.00 0.00 0.00 0.00 0.00 0.00 0.00 0.01 0.01 0.03 0.02 0.04 0.01 0.05 0.29 0.08 0.00 0.01 0.01 0.01 0.01 0.00 0.01 0.02 0.03 0.05
0.19 0.16 0.15 0.15 0.16 0.17 0.19 0.23 0.29 0.31 0.33 0.35 0.36 0.27 0.14 0.04 0.00 0.00 0.00 0.00 0.00 0.00 0.01 0.02 0.01 0.00 0.00 0.00 0.01 0.01 0.01 0.01 0.01 0.03 0.04 0.09 0.03 0.00 0.01 0.02 0.00 0.02 0.01 0.01 0.02 0.01 0.02
0.22 0.24 0.24 0.24 0.23 0.24 0.25 0.33 0.38 0.39 0.41 0.42 0.43 0.27 0.18 0.06 0.00 0.00 0.00 0.00 0.00 0.00 0.01 0.01 0.02 0.00 0.00 0.00 0.00 0.00 0.00 0.01 0.00 0.04 0.08 0.07 0.01 0.00 0.01 0.00 0.00 0.01 0.00 0.01 0.02 0.01 0.01
0.25 0.24 0.23 0.24 0.28 0.30 0.29 0.31 0.34 0.36 0.38 0.39 0.36 0.24 0.17 0.07 0.00 0.00 0.00 0.00 0.00 0.00 0.00 0.00 0.01 0.01 0.00 0.00 0.00 0.00 0.00 0.00 0.00 0.02 0.07 0.06 0.01 0.01 0.01 0.01 0.00 0.01 0.02 0.02 0.03 0.05 0.05
0.40 0.29 0.23 0.23 0.25 0.27 0.30 0.36 0.44 0.38 0.32 0.29 0.29 0.27 0.19 0.07 0.00 0.00 0.00 0.00 0.00 0.00 0.00 0.00 0.01 0.01 0.01 0.00 0.00 0.00 0.01 0.00 0.01 0.01 0.13 0.08 0.04 0.01 0.01 0.05 0.05 0.02 0.07 0.11 0.12 0.25 0.06
0.50 0.51 0.42 0.38 0.36 0.37 0.41 0.42 0.47 0.48 0.42 0.39 0.26 0.25 0.19 0.05 0.00 0.00 0.00 0.00 0.00 0.00 0.00 0.00 0.00 0.00 0.01 0.00 0.00 0.00 0.01 0.00 0.00 0.01 0.05 0.10 0.10 0.01 0.01 0.02 0.03 0.03 0.09 0.11 0.02 0.02 0.02
0.41 0.48 0.50 0.45 0.49 0.54 0.58 0.45 0.44 0.51 0.59 0.57 0.36 0.16 0.16 0.03 0.00 0.00 0.00 0.00 0.00 0.00 0.00 0.00 0.00 0.01 0.01 0.01 0.01 0.01 0.01 0.00 0.00 0.00 0.06 0.07 0.04 0.00 0.00 0.01 0.04 0.07 0.06 0.05 0.12 0.04 0.00
0.50 0.42 0.48 0.49 0.47 0.48 0.50 0.47 0.42 0.46 0.57 0.55 0.33 0.22 0.16 0.02 0.00 0.00 0.00 0.00 0.00 0.00 0.00 0.00 0.00 0.00 0.00 0.01 0.00 0.01 0.00 0.00 0.00 0.00 0.03 0.09 0.13 0.02 0.01 0.06 0.05 0.04 0.04 0.06 0.11 0.18 0.03
0.71 0.64 0.49 0.49 0.49 0.44 0.47 0.46 0.42 0.44 0.60 0.53 0.27 0.21 0.14 0.01 0.00 0.00 0.01 0.00 0.00 0.00 0.00 0.00 0.00 0.00 0.00 0.00 0.01 0.01 0.01 0.00 0.00 0.00 0.01 0.07 0.18 0.15 0.19 0.10 0.05 0.06 0.06 0.03 0.03 0.01 0.00
0.75 0.84 0.82 0.67 0.65 0.51 0.54 0.60 0.52 0.48 0.59 0.65 0.29 0.20 0.10 0.02 0.01 0.01 0.01 0.00 0.00 0.00 0.00 0.00 0.00 0.00 0.00 0.00 0.01 0.01 0.01 0.04 0.02 0.03 0.08 0.14 0.26 0.21 0.08 0.11 0.10 0.10 0.09 0.13 0.07 0.02 0.00
0.64 0.78 0.85 0.87 0.63 0.54 0.49 0.72 0.67 0.57 0.58 0.42 0.25 0.21 0.16 0.02 0.02 0.02 0.01 0.00 0.00 0.00 0.00 0.00 0.00 0.00 0.00 0.00 0.00 0.00 0.01 0.00 0.03 0.11 0.18 0.23 0.45 0.40 0.28 0.24 0.23 0.23 0.08 0.10 0.13 0.11 0.04
0.96 0.70 0.73 0.72 0.71 0.63 0.54 0.55 0.61 0.55 0.58 0.45 0.28 0.14 0.16 0.03 0.02 0.02 0.01 0.00 0.00 0.00 0.00 0.00 0.00 0.00 0.00 0.00 0.00 0.01 0.02 0.03 0.01 0.08 0.24 0.47 0.54 0.30 0.28 0.28 0.24 0.20 0.16 0.13 0.21 0.34 0.04
1.01 0.84 0.79 0.78 0.77 0.72 0.67 0.55 0.45 0.41 0.52 0.47 0.19 0.04 0.03 0.01 0.01 0.02 0.01 0.00 0.00 0.00 0.00 0.00 0.00 0.00 0.00 0.00 0.00 0.00 0.02 0.03 0.05 0.05 0.20 0.65 0.70 0.23 0.07 0.05 0.20 0.18 0.13 0.21 0.35 0.10 0.04
0.91 1.00 1.04 1.34 1.15 1.19 0.92 0.81 0.47 0.41 0.52 0.47 0.09 0.00 0.00 0.01 0.01 0.01 0.01 0.00 0.00 0.00 0.00 0.00 0.00 0.00 0.00 0.01 0.03 0.05 0.07 0.10 0.09 0.08 0.20 0.41 0.47 0.35 0.26 0.15 0.10 0.03 0.04 0.11 0.15 0.18 0.14
0.82 0.84 0.90 1.05 1.16 1.02 0.74 0.80 0.55 0.41 0.55 0.37 0.05 0.00 0.00 0.01 0.00 0.00 0.01 0.00 0.00 0.00 0.00 0.00 0.00 0.00 0.00 0.02 0.03 0.04 0.07 0.11 0.22 0.25 0.15 0.34 0.39 0.31 0.23 0.11 0.32 0.33 0.02 0.00 0.01 0.01 0.05
0.96 0.89 0.59 0.66 0.78 0.96 0.97 0.86 0.64 0.37 0.22 0.07 0.01 0.00 0.00 0.00 0.00 0.00 0.00 0.00 0.00 0.00 0.00 0.00 0.00 0.00 0.00 0.00 0.01 0.03 0.05 0.06 0.05 0.11 0.25 0.19 0.24 0.30 0.31 0.22 0.23 0.04 0.00 0.00 0.00 0.00 0.00
0.76 0.73 0.65 0.53 0.57 0.70 0.85 0.88 0.36 0.14 0.06 0.04 0.00 0.00 0.00 0.00 0.00 0.00 0.00 0.00 0.00 0.00 0.00 0.00 0.00 0.00 0.00 0.00 0.02 0.05 0.12 0.15 0.11 0.06 0.04 0.20 0.22 0.27 0.25 0.21 0.07 0.00 0.00 0.00 0.00 0.02 0.00
0.70 0.61 0.67 0.82 0.63 0.51 0.58 0.64 0.31 0.16 0.09 0.03 0.00 0.00 0.00 0.00 0.00 0.00 0.00 0.00 0.00 0.00 0.00 0.00 0.00 0.00 0.00 0.01 0.04 0.07 0.12 0.15 0.16 0.17 0.17 0.05 0.12 0.31 0.25 0.22 0.07 0.00 0.00 0.00 0.00 0.00 0.00
1.02 0.67 0.46 0.54 0.79 0.64 0.62 0.66 0.41 0.31 0.12 0.01 0.00 0.00 0.00 0.00 0.00 0.00 0.00 0.00 0.00 0.00 0.00 0.00 0.00 0.00 0.00 0.02 0.05 0.03 0.05 0.08 0.14 0.18 0.10 0.27 0.20 0.13 0.13 0.15 0.02 0.00 0.00 0.00 0.00 0.00 0.00
0.96 0.96 0.78 0.35 0.36 0.63 0.78 0.75 0.58 0.32 0.13 0.01 0.00 0.00 0.00 0.00 0.00 0.00 0.00 0.00 0.00 0.00 0.00 0.00 0.00 0.00 0.00 0.01 0.11 0.10 0.05 0.03 0.04 0.07 0.04 0.07 0.16 0.15 0.11 0.14 0.03 0.00 0.00 0.00 0.00 0.00 0.00
0.99 0.61 0.58 0.54 0.33 0.30 0.60 0.66 0.68 0.32 0.13 0.00 0.00 0.00 0.00 0.00 0.00 0.00 0.00 0.00 0.00 0.00 0.00 0.00 0.00 0.00 0.00 0.00 0.01 0.04 0.11 0.17 0.09 0.06 0.02 0.03 0.03 0.08 0.07 0.05 0.01 0.01 0.00 0.00 0.00 0.00 0.00

GFSGBSN_prec_precacc24_108.txt.gz
Total_Precipitation_Accumulation
0.09 0.10 0.08 0.09 0.11 0.09 0.07 0.07 0.08 0.06 0.08 0.12 0.09 0.08 0.05 0.03 0.02 0.01 0.01 0.01 0.00 0.00 0.00 0.00 0.00 0.00 0.00 0.02 0.01 0.03 0.01 0.03 0.02 0.06 0.31 0.68 0.49 0.28 0.12 0.19 1.07 1.33 1.13 0.64 0.62 0.49 0.33
0.11 0.12 0.11 0.08 0.08 0.08 0.09 0.06 0.08 0.10 0.09 0.09 0.11 0.12 0.07 0.05 0.02 0.01 0.01 0.01 0.00 0.00 0.00 0.00 0.00 0.00 0.01 0.01 0.00 0.00 0.00 0.02 0.01 0.10 0.18 0.55 0.47 0.19 0.04 0.15 0.54 1.11 1.49 0.83 0.68 0.59 0.22
0.11 0.12 0.10 0.08 0.08 0.08 0.08 0.11 0.11 0.10 0.09 0.08 0.10 0.12 0.11 0.05 0.01 0.00 0.00 0.00 0.00 0.00 0.00 0.00 0.00 0.00 0.00 0.00 0.00 0.00 0.00 0.01 0.00 0.13 0.32 0.39 0.26 0.08 0.01 0.09 0.12 0.67 1.57 1.25 0.76 0.80 0.31
0.11 0.10 0.09 0.09 0.08 0.09 0.09 0.11 0.12 0.12 0.09 0.09 0.11 0.14 0.11 0.08 0.01 0.00 0.00 0.00 0.00 0.00 0.00 0.00 0.00 0.00 0.01 0.00 0.00 0.00 0.00 0.00 0.02 0.08 0.09 0.15 0.10 0.05 0.03 0.03 0.08 0.25 1.19 1.62 0.94 0.91 0.67
0.12 0.10 0.09 0.09 0.11 0.13 0.14 0.14 0.12 0.11 0.11 0.12 0.15 0.14 0.11 0.08 0.02 0.01 0.00 0.00 0.00 0.00 0.00 0.00 0.00 0.00 0.00 0.00 0.00 0.00 0.00 0.03 0.05 0.05 0.08 0.17 0.07 0.06 0.06 0.06 0.09 0.11 0.45 0.95 1.08 0.81 0.87
0.11 0.10 0.11 0.12 0.15 0.16 0.16 0.15 0.14 0.16 0.17 0.19 0.19 0.15 0.11 0.06 0.02 0.01 0.00 0.00 0.00 0.00 0.00 0.00 0.00 0.00 0.00 0.00 0.00 0.00 0.00 0.00 0.04 0.07 0.08 0.28 0.07 0.05 0.03 0.03 0.02 0.02 0.08 0.22 0.54 0.71 0.67
0.12 0.12 0.13 0.14 0.15 0.14 0.14 0.14 0.15 0.17 0.16 0.13 0.14 0.13 0.12 0.06 0.03 0.00 0.00 0.00 0.00 0.00 0.00 0.00 0.00 0.00 0.00 0.00 0.00 0.00 0.00 0.01 0.01 0.05 0.06 0.22 0.05 0.03 0.00 0.00 0.00 0.00 0.01 0.06 0.15 0.26 0.50
0.13 0.13 0.14 0.18 0.19 0.18 0.16 0.16 0.18 0.19 0.18 0.17 0.16 0.17 0.12 0.05 0.02 0.00 0.00 0.00 0.00 0.00 0.00 0.00 0.00 0.00 0.00 0.00 0.00 0.00 0.00 0.01 0.01 0.02 0.01 0.10 0.03 0.01 0.00 0.00 0.00 0.00 0.00 0.02 0.08 0.15 0.21
0.18 0.16 0.14 0.15 0.17 0.19 0.18 0.19 0.21 0.20 0.19 0.22 0.23 0.22 0.19 0.10 0.05 0.04 0.01 0.00 0.00 0.00 0.00 0.00 0.00 0.00 0.00 0.00 0.00 0.01 0.00 0.00 0.00 0.00 0.01 0.06 0.02 0.00 0.00 0.00 0.00 0.00 0.00 0.01 0.03 0.08 0.09
0.21 0.18 0.17 0.17 0.18 0.20 0.22 0.26 0.32 0.31 0.33 0.35 0.36 0.40 0.29 0.18 0.06 0.01 0.00 0.00 0.00 0.00 0.00 0.00 0.00 0.00 0.00 0.00 0.00 0.00 0.00 0.01 0.00 0.00 0.00 0.02 0.00 0.00 0.00 0.01 0.00 0.02 0.01 0.01 0.02 0.03 0.04
0.24 0.25 0.26 0.26 0.26 0.26 0.28 0.37 0.41 0.39 0.40 0.42 0.43 0.39 0.30 0.22 0.15 0.05 0.00 0.00 0.00 0.00 0.01 0.00 0.00 0.00 0.00 0.00 0.00 0.00 0.00 0.01 0.00 0.00 0.01 0.01 0.00 0.00 0.00 0.00 0.00 0.01 0.00 0.01 0.03 0.01 0.01
0.25 0.26 0.25 0.26 0.30 0.33 0.33 0.34 0.38 0.36 0.37 0.40 0.36 0.27 0.25 0.18 0.09 0.04 0.00 0.00 0.00 0.01 0.02 0.00 0.00 0.00 0.00 0.00 0.00 0.00 0.00 0.00 0.00 0.00 0.00 0.00 0.00 0.00 0.00 0.01 0.00 0.01 0.02 0.02 0.04 0.06 0.06
0.41 0.30 0.25 0.25 0.29 0.30 0.33 0.41 0.49 0.39 0.33 0.31 0.29 0.30 0.27 0.17 0.11 0.01 0.00 0.00 0.01 0.04 0.01 0.00 0.00 0.00 0.00 0.00 0.00 0.00 0.00 0.00 0.01 0.01 0.00 0.01 0.01 0.01 0.00 0.03 0.03 0.01 0.09 0.12 0.14 0.27 0.07
0.52 0.53 0.44 0.41 0.40 0.40 0.46 0.49 0.54 0.53 0.46 0.40 0.27 0.29 0.25 0.11 0.10 0.02 0.00 0.00 0.02 0.04 0.00 0.00 0.00 0.00 0.00 0.00 0.00 0.00 0.00 0.00 0.00 0.01 0.03 0.03 0.04 0.01 0.00 0.02 0.04 0.07 0.13 0.12 0.02 0.02 0.02
0.43 0.50 0.53 0.49 0.54 0.58 0.64 0.54 0.55 0.61 0.64 0.62 0.59 0.34 0.23 0.10 0.04 0.01 0.00 0.01 0.03 0.01 0.00 0.00 0.00 0.00 0.00 0.00 0.00 0.00 0.00 0.00 0.00 0.00 0.05 0.06 0.04 0.00 0.00 0.01 0.07 0.13 0.13 0.09 0.14 0.04 0.00
0.51 0.45 0.52 0.54 0.50 0.52 0.57 0.61 0.56 0.57 0.59 0.59 0.58 0.49 0.32 0.15 0.01 0.00 0.00 0.00 0.00 0.00 0.00 0.00 0.00 0.00 0.00 0.00 0.00 0.00 0.00 0.00 0.00 0.00 0.03 0.09 0.14 0.02 0.01 0.06 0.10 0.12 0.13 0.20 0.20 0.24 0.05
0.73 0.67 0.56 0.54 0.53 0.47 0.54 0.63 0.60 0.49 0.60 0.56 0.39 0.38 0.37 0.20 0.06 0.02 0.02 0.00 0.00 0.00 0.00 0.00 0.00 0.00 0.00 0.00 0.01 0.01 0.01 0.00 0.00 0.00 0.01 0.08 0.20 0.15 0.17 0.11 0.07 0.11 0.13 0.13 0.21 0.14 0.02
0.77 0.89 0.88 0.73 0.70 0.57 0.62 0.69 0.57 0.48 0.60 0.71 0.38 0.30 0.20 0.19 0.11 0.03 0.02 0.01 0.00 0.00 0.00 0.00 0.00 0.00 0.00 0.00 0.00 0.01 0.01 0.04 0.02 0.03 0.08 0.14 0.28 0.21 0.07 0.11 0.13 0.16 0.23 0.40 0.23 0.09 0.03
0.66 0.83 0.89 0.92 0.65 0.56 0.53 0.77 0.70 0.57 0.59 0.50 0.37 0.43 0.34 0.25 0.06 0.04 0.03 0.00 0.00 0.00 0.00 0.00 0.00 0.00 0.00 0.00 0.00 0.00 0.01 0.00 0.03 0.11 0.18 0.23 0.45 0.39 0.27 0.24 0.24 0.24 0.11 0.20 0.47 0.39 0.06
0.97 0.74 0.77 0.78 0.76 0.65 0.58 0.61 0.63 0.55 0.60 0.60 0.50 0.40 0.43 0.38 0.07 0.03 0.01 0.00 0.00 0.00 0.00 0.00 0.00 0.00 0.00 0.00 0.00 0.01 0.02 0.03 0.01 0.08 0.23 0.46 0.52 0.30 0.27 0.28 0.24 0.20 0.16 0.13 0.28 0.56 0.24
1.00 0.88 0.83 0.84 0.83 0.81 1.09 0.77 0.46 0.42 0.53 0.69 0.55 0.20 0.08 0.11 0.05 0.02 0.01 0.00 0.00 0.00 0.00 0.00 0.00 0.00 0.00 0.00 0.00 0.00 0.01 0.03 0.05 0.05 0.17 0.57 0.55 0.19 0.07 0.05 0.20 0.18 0.13 0.21 0.37 0.17 0.13
0.86 1.02 1.08 1.36 1.20 1.39 1.56 1.03 0.54 0.43 0.58 0.65 0.35 0.13 0.02 0.02 0.03 0.02 0.01 0.00 0.00 0.00 0.00 0.00 0.00 0.00 0.00 0.00 0.00 0.01 0.02 0.05 0.07 0.06 0.19 0.35 0.41 0.30 0.20 0.13 0.10 0.03 0.04 0.11 0.15 0.18 0.14
0.76 0.85 0.94 1.07 1.18 1.12 0.92 0.94 0.84 0.58 0.63 0.51 0.19 0.08 0.07 0.03 0.01 0.01 0.01 0.00 0.00 0.00 0.00 0.00 0.00 0.00 0.00 0.00 0.00 0.00 0.00 0.01 0.12 0.17 0.11 0.34 0.39 0.30 0.21 0.10 0.32 0.32 0.02 0.00 0.01 0.01 0.05
0.92 0.89 0.62 0.69 0.79 1.00 1.06 0.98 0.77 0.48 0.32 0.14 0.07 0.08 0.10 0.01 0.00 0.00 0.00 0.00 0.00 0.00 0.00 0.00 0.00 0.00 0.00 0.00 0.00 0.00 0.00 0.00 0.00 0.06 0.12 0.13 0.23 0.29 0.29 0.22 0.22 0.05 0.00 0.00 0.00 0.00 0.00
0.72 0.74 0.67 0.55 0.58 0.71 0.89 1.00 0.48 0.25 0.12 0.10 0.03 0.05 0.01 0.01 0.00 0.00 0.00 0.00 0.00 0.00 0.00 0.00 0.00 0.00 0.00 0.00 0.00 0.00 0.01 0.01 0.01 0.00 0.03 0.18 0.20 0.23 0.23 0.21 0.06 0.00 0.00 0.00 0.01 0.04 0.02
0.64 0.60 0.69 0.83 0.64 0.51 0.60 0.71 0.39 0.18 0.10 0.04 0.01 0.01 0.00 0.00 0.00 0.00 0.00 0.00 0.00 0.00 0.00 0.00 0.00 0.00 0.00 0.00 0.00 0.01 0.01 0.02 0.08 0.09 0.02 0.03 0.10 0.24 0.20 0.21 0.07 0.00 0.00 0.00 0.00 0.01 0.04
0.95 0.66 0.47 0.55 0.80 0.64 0.63 0.72 0.55 0.33 0.12 0.02 0.01 0.00 0.00 0.00 0.00 0.00 0.00 0.00 0.00 0.00 0.00 0.00 0.00 0.00 0.00 0.00 0.00 0.01 0.01 0.00 0.02 0.12 0.05 0.16 0.13 0.07 0.09 0.11 0.01 0.00 0.00 0.00 0.01 0.00 0.00
0.92 0.95 0.79 0.36 0.36 0.63 0.79 0.81 0.78 0.53 0.16 0.02 0.00 0.00 0.00 0.00 0.00 0.00 0.00 0.00 0.00 0.00 0.00 0.00 0.00 0.00 0.00 0.00 0.00 0.00 0.00 0.00 0.00 0.02 0.03 0.05 0.13 0.12 0.08 0.10 0.02 0.00 0.00 0.00 0.00 0.00 0.00
0.92 0.59 0.58 0.54 0.34 0.30 0.60 0.67 0.78 0.57 0.20 0.02 0.00 0.00 0.00 0.00 0.00 0.00 0.00 0.00 0.00 0.00 0.00 0.00 0.00 0.00 0.00 0.00 0.00 0.00 0.00 0.00 0.00 0.00 0.00 0.01 0.03 0.08 0.07 0.04 0.01 0.01 0.00 0.00 0.00 0.00 0.00

GFSGBSN_prec_precacc24_111.txt.gz
Total_Precipitation_Accumulation
0.10 0.10 0.09 0.09 0.11 0.09 0.07 0.06 0.08 0.06 0.08 0.11 0.08 0.08 0.05 0.03 0.03 0.01 0.01 0.01 0.01 0.00 0.00 0.00 0.00 0.00 0.00 0.01 0.00 0.00 0.00 0.01 0.02 0.05 0.30 0.67 0.53 0.32 0.21 0.23 1.05 1.29 1.11 0.66 0.63 0.54 0.44
0.11 0.12 0.12 0.09 0.09 0.08 0.09 0.06 0.08 0.10 0.09 0.09 0.10 0.12 0.08 0.07 0.03 0.01 0.00 0.01 0.00 0.00 0.00 0.00 0.00 0.00 0.01 0.01 0.00 0.00 0.00 0.01 0.01 0.07 0.17 0.53 0.48 0.26 0.11 0.17 0.56 1.12 1.40 0.80 0.66 0.59 0.30
0.11 0.12 0.11 0.09 0.09 0.08 0.08 0.11 0.11 0.10 0.09 0.08 0.10 0.11 0.11 0.08 0.03 0.01 0.00 0.00 0.00 0.00 0.00 0.00 0.00 0.00 0.00 0.00 0.00 0.00 0.00 0.00 0.00 0.11 0.25 0.34 0.24 0.12 0.06 0.08 0.12 0.68 1.52 1.18 0.72 0.78 0.31
0.12 0.11 0.11 0.10 0.09 0.10 0.10 0.11 0.12 0.12 0.09 0.09 0.10 0.13 0.11 0.09 0.04 0.02 0.01 0.00 0.00 0.00 0.00 0.00 0.00 0.00 0.01 0.00 0.00 0.00 0.00 0.00 0.02 0.07 0.04 0.05 0.09 0.08 0.05 0.04 0.07 0.24 1.16 1.57 0.91 0.90 0.68
0.13 0.11 0.11 0.11 0.13 0.14 0.15 0.14 0.12 0.11 0.11 0.12 0.15 0.14 0.10 0.08 0.05 0.02 0.00 0.00 0.00 0.00 0.00 0.00 0.00 0.00 0.00 0.00 0.00 0.00 0.00 0.02 0.03 0.02 0.00 0.01 0.04 0.04 0.05 0.06 0.07 0.08 0.44 0.94 1.06 0.81 0.88
0.11 0.11 0.12 0.14 0.16 0.18 0.18 0.17 0.16 0.17 0.17 0.18 0.19 0.15 0.11 0.06 0.03 0.01 0.00 0.00 0.00 0.00 0.00 0.00 0.00 0.00 0.00 0.00 0.00 0.00 0.00 0.00 0.03 0.01 0.00 0.05 0.03 0.05 0.02 0.05 0.03 0.02 0.08 0.22 0.54 0.70 0.68
0.12 0.12 0.13 0.15 0.16 0.15 0.16 0.16 0.19 0.19 0.16 0.13 0.14 0.13 0.11 0.06 0.03 0.01 0.00 0.00 0.00 0.00 0.00 0.00 0.00 0.00 0.00 0.00 0.00 0.00 0.00 0.01 0.00 0.02 0.02 0.07 0.04 0.03 0.00 0.00 0.00 0.00 0.01 0.06 0.15 0.26 0.50
0.12 0.13 0.15 0.19 0.20 0.19 0.18 0.18 0.21 0.21 0.18 0.18 0.17 0.17 0.12 0.06 0.04 0.01 0.00 0.00 0.00 0.00 0.00 0.00 0.00 0.00 0.00 0.00 0.00 0.00 0.00 0.01 0.01 0.01 0.01 0.03 0.02 0.00 0.00 0.00 0.00 0.00 0.00 0.01 0.08 0.15 0.21
0.17 0.16 0.14 0.16 0.19 0.21 0.20 0.20 0.24 0.23 0.20 0.25 0.26 0.23 0.20 0.13 0.09 0.05 0.01 0.00 0.00 0.00 0.00 0.00 0.00 0.00 0.00 0.00 0.00 0.00 0.00 0.00 0.00 0.00 0.00 0.00 0.02 0.00 0.00 0.00 0.01 0.01 0.00 0.01 0.03 0.08 0.09
0.21 0.19 0.17 0.18 0.19 0.22 0.24 0.29 0.34 0.32 0.34 0.36 0.39 0.41 0.29 0.19 0.07 0.01 0.00 0.00 0.00 0.00 0.00 0.00 0.00 0.00 0.00 0.00 0.00 0.00 0.00 0.00 0.00 0.00 0.00 0.00 0.00 0.00 0.00 0.01 0.00 0.02 0.01 0.01 0.02 0.03 0.04
0.21 0.26 0.26 0.27 0.27 0.27 0.29 0.39 0.43 0.40 0.41 0.44 0.48 0.43 0.30 0.22 0.16 0.07 0.00 0.00 0.00 0.00 0.01 0.00 0.00 0.00 0.00 0.00 0.00 0.00 0.00 0.00 0.00 0.00 0.00 0.01 0.00 0.00 0.00 0.00 0.00 0.01 0.00 0.01 0.03 0.01 0.00
0.19 0.26 0.26 0.27 0.31 0.34 0.34 0.36 0.40 0.37 0.39 0.45 0.45 0.31 0.25 0.19 0.10 0.04 0.01 0.00 0.00 0.01 0.02 0.00 0.00 0.00 0.00 0.00 0.00 0.00 0.00 0.00 0.00 0.00 0.00 0.00 0.00 0.00 0.00 0.00 0.00 0.01 0.03 0.03 0.04 0.06 0.05
0.26 0.29 0.26 0.26 0.30 0.32 0.34 0.42 0.51 0.41 0.39 0.41 0.38 0.33 0.28 0.18 0.11 0.02 0.00 0.00 0.01 0.04 0.01 0.00 0.00 0.00 0.00 0.00 0.00 0.00 0.00 0.00 0.00 0.00 0.00 0.00 0.00 0.00 0.00 0.02 0.03 0.02 0.12 0.14 0.14 0.26 0.06
0.22 0.45 0.45 0.42 0.42 0.41 0.46 0.49 0.56 0.57 0.55 0.48 0.30 0.30 0.27 0.11 0.12 0.07 0.00 0.00 0.02 0.05 0.00 0.00 0.00 0.00 0.00 0.00 0.00 0.00 0.00 0.00 0.00 0.00 0.01 0.00 0.01 0.00 0.00 0.02 0.06 0.09 0.16 0.17 0.05 0.03 0.03
0.16 0.28 0.51 0.50 0.56 0.59 0.64 0.55 0.57 0.66 0.69 0.65 0.59 0.46 0.29 0.12 0.13 0.12 0.00 0.01 0.03 0.01 0.00 0.00 0.00 0.00 0.00 0.00 0.00 0.00 0.00 0.00 0.00 0.00 0.02 0.00 0.00 0.00 0.00 0.01 0.08 0.13 0.17 0.14 0.17 0.05 0.01
0.22 0.29 0.49 0.56 0.52 0.53 0.57 0.62 0.58 0.58 0.61 0.59 0.59 0.59 0.36 0.20 0.07 0.02 0.01 0.01 0.00 0.00 0.00 0.00 0.00 0.00 0.00 0.00 0.00 0.00 0.00 0.00 0.00 0.00 0.02 0.06 0.09 0.01 0.01 0.06 0.11 0.13 0.17 0.26 0.26 0.28 0.07
0.36 0.46 0.54 0.56 0.55 0.48 0.54 0.64 0.62 0.49 0.60 0.56 0.40 0.46 0.47 0.33 0.11 0.03 0.03 0.00 0.00 0.00 0.00 0.00 0.00 0.00 0.00 0.00 0.00 0.01 0.01 0.00 0.00 0.00 0.01 0.08 0.18 0.12 0.14 0.10 0.07 0.12 0.15 0.17 0.40 0.22 0.06
0.35 0.57 0.82 0.75 0.72 0.57 0.62 0.69 0.58 0.48 0.60 0.72 0.40 0.38 0.37 0.31 0.17 0.04 0.03 0.01 0.00 0.00 0.00 0.00 0.00 0.00 0.00 0.00 0.00 0.00 0.01 0.02 0.02 0.03 0.08 0.15 0.28 0.17 0.06 0.11 0.13 0.16 0.23 0.40 0.27 0.20 0.05
0.34 0.53 0.82 0.93 0.69 0.56 0.53 0.77 0.70 0.57 0.59 0.50 0.38 0.50 0.44 0.31 0.09 0.05 0.04 0.00 0.00 0.00 0.00 0.00 0.00 0.00 0.00 0.00 0.00 0.00 0.00 0.00 0.03 0.09 0.17 0.23 0.43 0.36 0.23 0.22 0.24 0.24 0.10 0.19 0.47 0.39 0.08
0.57 0.48 0.70 0.78 0.79 0.68 0.59 0.61 0.63 0.55 0.60 0.61 0.50 0.47 0.47 0.45 0.11 0.04 0.01 0.00 0.00 0.00 0.00 0.00 0.00 0.00 0.00 0.00 0.00 0.00 0.00 0.00 0.01 0.05 0.15 0.41 0.48 0.29 0.26 0.27 0.24 0.20 0.16 0.13 0.28 0.55 0.25
0.42 0.48 0.65 0.83 0.86 0.85 1.10 0.78 0.47 0.42 0.53 0.69 0.56 0.22 0.09 0.12 0.07 0.03 0.01 0.00 0.00 0.00 0.00 0.00 0.00 0.00 0.00 0.00 0.00 0.00 0.00 0.00 0.01 0.03 0.11 0.36 0.45 0.17 0.06 0.05 0.20 0.18 0.13 0.21 0.36 0.17 0.13
0.43 0.62 0.87 1.33 1.21 1.42 1.58 1.08 0.55 0.43 0.58 0.65 0.35 0.17 0.04 0.05 0.03 0.03 0.01 0.00 0.00 0.00 0.00 0.00 0.00 0.00 0.00 0.00 0.00 0.00 0.00 0.00 0.01 0.02 0.08 0.23 0.30 0.27 0.14 0.08 0.09 0.03 0.04 0.11 0.15 0.18 0.14
0.33 0.54 0.77 1.01 1.18 1.13 0.93 0.96 0.85 0.58 0.63 0.51 0.19 0.08 0.08 0.04 0.01 0.01 0.01 0.00 0.00 0.00 0.00 0.00 0.00 0.00 0.00 0.00 0.00 0.00 0.00 0.00 0.00 0.01 0.02 0.08 0.28 0.23 0.15 0.08 0.23 0.25 0.02 0.00 0.01 0.01 0.05
0.50 0.59 0.51 0.66 0.79 1.00 1.06 0.98 0.78 0.48 0.32 0.14 0.07 0.08 0.12 0.02 0.00 0.00 0.00 0.00 0.00 0.00 0.00 0.00 0.00 0.00 0.00 0.00 0.00 0.00 0.00 0.00 0.00 0.00 0.00 0.00 0.09 0.26 0.25 0.21 0.19 0.04 0.00 0.00 0.00 0.00 0.00
0.29 0.49 0.59 0.53 0.58 0.71 0.89 1.00 0.48 0.26 0.13 0.10 0.03 0.05 0.01 0.01 0.00 0.00 0.00 0.00 0.00 0.00 0.00 0.00 0.00 0.00 0.00 0.00 0.00 0.00 0.00 0.00 0.01 0.00 0.00 0.00 0.01 0.15 0.21 0.20 0.06 0.00 0.00 0.00 0.01 0.04 0.02
0.23 0.42 0.63 0.82 0.64 0.51 0.60 0.71 0.39 0.18 0.10 0.05 0.02 0.01 0.00 0.00 0.00 0.00 0.00 0.00 0.00 0.00 0.00 0.00 0.00 0.00 0.00 0.00 0.00 0.00 0.00 0.00 0.05 0.06 0.00 0.00 0.02 0.14 0.15 0.19 0.07 0.00 0.00 0.00 0.00 0.01 0.04
0.50 0.52 0.42 0.55 0.80 0.64 0.63 0.72 0.55 0.33 0.12 0.03 0.01 0.00 0.00 0.00 0.00 0.00 0.00 0.00 0.00 0.00 0.00 0.00 0.00 0.00 0.00 0.00 0.00 0.00 0.00 0.00 0.00 0.05 0.02 0.05 0.03 0.03 0.05 0.08 0.01 0.00 0.00 0.00 0.01 0.00 0.00
0.51 0.82 0.76 0.35 0.36 0.63 0.79 0.81 0.78 0.54 0.16 0.02 0.01 0.00 0.00 0.00 0.00 0.00 0.00 0.00 0.00 0.00 0.00 0.00 0.00 0.00 0.00 0.00 0.00 0.00 0.00 0.00 0.00 0.00 0.00 0.02 0.03 0.04 0.04 0.07 0.01 0.00 0.00 0.00 0.00 0.00 0.00
0.43 0.44 0.56 0.54 0.34 0.30 0.60 0.67 0.78 0.60 0.23 0.03 0.00 0.00 0.00 0.00 0.00 0.00 0.00 0.00 0.00 0.00 0.00 0.00 0.00 0.00 0.00 0.00 0.00 0.00 0.00 0.00 0.00 0.00 0.00 0.00 0.01 0.04 0.06 0.03 0.01 0.01 0.00 0.00 0.00 0.00 0.00

GFSGBSN_prec_precacc24_114.txt.gz
Total_Precipitation_Accumulation
0.10 0.10 0.09 0.09 0.11 0.09 0.07 0.06 0.07 0.06 0.08 0.11 0.08 0.07 0.04 0.03 0.04 0.05 0.03 0.02 0.01 0.01 0.00 0.00 0.00 0.00 0.00 0.00 0.00 0.00 0.00 0.00 0.00 0.03 0.25 0.62 0.45 0.33 0.23 0.27 1.02 1.19 1.10 0.62 0.64 0.57 0.43
0.12 0.13 0.13 0.09 0.10 0.09 0.09 0.06 0.08 0.10 0.08 0.09 0.10 0.11 0.07 0.07 0.05 0.06 0.06 0.01 0.00 0.00 0.00 0.00 0.00 0.00 0.00 0.00 0.00 0.00 0.00 0.00 0.00 0.01 0.12 0.47 0.43 0.27 0.16 0.22 0.58 1.10 1.34 0.71 0.59 0.58 0.30
0.10 0.12 0.12 0.10 0.10 0.10 0.09 0.11 0.11 0.10 0.08 0.08 0.10 0.11 0.10 0.08 0.04 0.04 0.06 0.03 0.00 0.00 0.00 0.00 0.00 0.00 0.00 0.00 0.00 0.00 0.00 0.00 0.00 0.04 0.16 0.31 0.24 0.14 0.10 0.09 0.12 0.66 1.38 1.02 0.61 0.75 0.31
0.10 0.11 0.12 0.11 0.10 0.11 0.11 0.12 0.13 0.12 0.09 0.09 0.11 0.13 0.11 0.09 0.04 0.04 0.07 0.06 0.01 0.00 0.00 0.00 0.00 0.00 0.00 0.00 0.00 0.00 0.00 0.00 0.01 0.04 0.02 0.05 0.09 0.10 0.08 0.06 0.07 0.22 1.08 1.38 0.82 0.87 0.65
0.10 0.10 0.11 0.12 0.13 0.15 0.16 0.16 0.14 0.13 0.12 0.13 0.15 0.14 0.10 0.08 0.05 0.02 0.03 0.03 0.01 0.00 0.00 0.00 0.00 0.00 0.00 0.00 0.00 0.00 0.00 0.01 0.00 0.00 0.00 0.01 0.03 0.06 0.05 0.06 0.06 0.07 0.43 0.90 0.96 0.75 0.85
0.09 0.10 0.12 0.14 0.17 0.18 0.18 0.18 0.17 0.19 0.19 0.21 0.21 0.15 0.11 0.06 0.03 0.02 0.01 0.01 0.00 0.00 0.00 0.00 0.00 0.00 0.00 0.00 0.00 0.00 0.00 0.00 0.00 0.00 0.00 0.00 0.01 0.06 0.01 0.07 0.08 0.04 0.09 0.22 0.52 0.67 0.67
0.10 0.09 0.11 0.14 0.16 0.16 0.17 0.17 0.20 0.21 0.18 0.15 0.17 0.17 0.12 0.06 0.04 0.03 0.00 0.00 0.00 0.00 0.00 0.00 0.00 0.00 0.00 0.00 0.00 0.00 0.00 0.00 0.00 0.00 0.00 0.00 0.03 0.06 0.05 0.00 0.00 0.00 0.01 0.06 0.15 0.25 0.48
0.09 0.09 0.12 0.19 0.22 0.21 0.20 0.19 0.22 0.22 0.20 0.20 0.22 0.22 0.14 0.06 0.06 0.05 0.01 0.01 0.00 0.00 0.00 0.00 0.00 0.00 0.00 0.00 0.00 0.00 0.00 0.00 0.00 0.00 0.00 0.00 0.01 0.00 0.00 0.00 0.00 0.00 0.00 0.01 0.07 0.15 0.20
0.09 0.10 0.10 0.16 0.20 0.23 0.22 0.23 0.26 0.24 0.21 0.26 0.30 0.29 0.24 0.13 0.09 0.06 0.02 0.00 0.00 0.00 0.00 0.00 0.00 0.00 0.00 0.00 0.00 0.00 0.00 0.00 0.00 0.00 0.00 0.00 0.01 0.00 0.00 0.00 0.00 0.00 0.00 0.01 0.02 0.08 0.10
0.12 0.14 0.13 0.17 0.21 0.23 0.27 0.31 0.35 0.34 0.35 0.39 0.46 0.51 0.35 0.19 0.07 0.01 0.00 0.00 0.00 0.00 0.00 0.00 0.00 0.00 0.00 0.00 0.00 0.00 0.00 0.00 0.00 0.00 0.00 0.00 0.00 0.00 0.00 0.01 0.00 0.01 0.01 0.00 0.02 0.03 0.05
0.11 0.13 0.15 0.22 0.28 0.28 0.31 0.39 0.44 0.42 0.43 0.48 0.58 0.53 0.36 0.23 0.16 0.07 0.02 0.00 0.00 0.00 0.02 0.00 0.00 0.00 0.00 0.00 0.00 0.00 0.00 0.00 0.00 0.00 0.00 0.00 0.00 0.00 0.00 0.00 0.00 0.00 0.00 0.01 0.03 0.01 0.00
0.08 0.15 0.14 0.18 0.30 0.35 0.35 0.36 0.41 0.39 0.41 0.51 0.54 0.43 0.35 0.19 0.10 0.05 0.03 0.00 0.00 0.02 0.03 0.00 0.00 0.00 0.00 0.00 0.00 0.00 0.00 0.00 0.00 0.00 0.00 0.00 0.00 0.00 0.00 0.00 0.00 0.00 0.03 0.03 0.04 0.06 0.04
0.06 0.17 0.19 0.20 0.29 0.34 0.35 0.43 0.53 0.44 0.43 0.48 0.46 0.47 0.33 0.18 0.12 0.03 0.01 0.00 0.03 0.07 0.02 0.00 0.00 0.00 0.00 0.00 0.00 0.00 0.00 0.00 0.00 0.00 0.00 0.00 0.00 0.00 0.00 0.00 0.01 0.02 0.14 0.16 0.15 0.26 0.07
0.06 0.13 0.20 0.23 0.32 0.40 0.46 0.51 0.58 0.60 0.57 0.50 0.33 0.31 0.28 0.13 0.12 0.08 0.01 0.01 0.08 0.06 0.00 0.00 0.00 0.00 0.00 0.00 0.00 0.00 0.00 0.00 0.00 0.00 0.00 0.00 0.00 0.00 0.00 0.01 0.06 0.10 0.20 0.23 0.18 0.08 0.05
0.07 0.11 0.18 0.24 0.36 0.51 0.64 0.57 0.60 0.67 0.69 0.65 0.59 0.48 0.32 0.15 0.14 0.16 0.02 0.06 0.06 0.01 0.00 0.00 0.00 0.00 0.00 0.00 0.00 0.00 0.00 0.00 0.00 0.00 0.01 0.00 0.00 0.00 0.00 0.01 0.07 0.13 0.19 0.17 0.21 0.06 0.01
0.11 0.13 0.24 0.26 0.33 0.47 0.57 0.62 0.60 0.58 0.61 0.59 0.59 0.59 0.43 0.32 0.11 0.06 0.02 0.04 0.01 0.00 0.00 0.00 0.00 0.00 0.00 0.00 0.00 0.00 0.00 0.00 0.00 0.00 0.01 0.02 0.03 0.00 0.00 0.06 0.13 0.14 0.17 0.28 0.29 0.30 0.08
0.22 0.20 0.28 0.34 0.35 0.42 0.54 0.64 0.62 0.49 0.60 0.56 0.42 0.48 0.54 0.42 0.13 0.03 0.04 0.02 0.00 0.00 0.00 0.00 0.00 0.00 0.00 0.00 0.00 0.00 0.00 0.00 0.00 0.00 0.01 0.06 0.15 0.07 0.11 0.09 0.07 0.13 0.15 0.17 0.45 0.24 0.16
0.18 0.25 0.43 0.49 0.53 0.52 0.62 0.69 0.58 0.48 0.60 0.72 0.41 0.48 0.44 0.35 0.22 0.06 0.04 0.01 0.00 0.00 0.00 0.00 0.00 0.00 0.00 0.00 0.00 0.00 0.00 0.01 0.00 0.02 0.07 0.14 0.22 0.15 0.05 0.11 0.13 0.16 0.23 0.38 0.25 0.23 0.07
0.26 0.29 0.42 0.55 0.47 0.50 0.54 0.78 0.71 0.57 0.59 0.50 0.40 0.58 0.55 0.34 0.11 0.07 0.04 0.00 0.00 0.00 0.00 0.00 0.00 0.00 0.00 0.00 0.00 0.00 0.00 0.00 0.00 0.04 0.12 0.21 0.36 0.31 0.15 0.17 0.23 0.22 0.10 0.18 0.46 0.38 0.08
0.34 0.27 0.34 0.41 0.46 0.61 0.59 0.61 0.63 0.55 0.60 0.61 0.51 0.49 0.49 0.47 0.12 0.05 0.02 0.00 0.00 0.00 0.00 0.00 0.00 0.00 0.00 0.00 0.00 0.00 0.00 0.00 0.00 0.01 0.05 0.20 0.42 0.28 0.24 0.26 0.24 0.20 0.16 0.13 0.26 0.52 0.24
0.23 0.20 0.30 0.44 0.52 0.76 1.10 0.78 0.47 0.42 0.53 0.69 0.56 0.23 0.10 0.13 0.07 0.03 0.01 0.00 0.00 0.00 0.00 0.00 0.00 0.00 0.00 0.00 0.00 0.00 0.00 0.00 0.00 0.00 0.02 0.06 0.11 0.13 0.05 0.04 0.19 0.17 0.13 0.21 0.36 0.16 0.13
0.22 0.25 0.50 0.90 0.89 1.34 1.58 1.08 0.55 0.43 0.58 0.65 0.35 0.17 0.04 0.05 0.03 0.03 0.01 0.00 0.00 0.00 0.00 0.00 0.00 0.00 0.00 0.00 0.00 0.00 0.00 0.00 0.00 0.00 0.01 0.08 0.09 0.08 0.04 0.01 0.02 0.01 0.04 0.11 0.15 0.18 0.14
0.16 0.23 0.44 0.63 0.84 1.07 0.93 0.96 0.85 0.58 0.64 0.51 0.19 0.08 0.08 0.04 0.01 0.01 0.01 0.00 0.00 0.00 0.00 0.00 0.00 0.00 0.00 0.00 0.00 0.00 0.00 0.00 0.00 0.00 0.00 0.02 0.03 0.03 0.07 0.06 0.13 0.15 0.02 0.00 0.01 0.01 0.05
0.08 0.14 0.18 0.31 0.52 0.94 1.06 0.99 0.78 0.48 0.33 0.14 0.07 0.08 0.12 0.02 0.00 0.00 0.00 0.00 0.00 0.00 0.00 0.00 0.00 0.00 0.00 0.00 0.00 0.00 0.00 0.00 0.00 0.00 0.00 0.00 0.00 0.00 0.07 0.16 0.16 0.04 0.00 0.00 0.00 0.00 0.00
0.05 0.06 0.12 0.21 0.37 0.67 0.89 1.00 0.48 0.27 0.13 0.11 0.04 0.05 0.01 0.01 0.00 0.00 0.00 0.00 0.00 0.00 0.00 0.00 0.00 0.00 0.00 0.00 0.00 0.00 0.00 0.00 0.00 0.00 0.00 0.00 0.00 0.00 0.06 0.16 0.06 0.00 0.00 0.00 0.01 0.04 0.02
0.04 0.08 0.18 0.45 0.48 0.48 0.60 0.71 0.39 0.19 0.11 0.06 0.02 0.01 0.00 0.00 0.00 0.00 0.00 0.00 0.00 0.00 0.00 0.00 0.00 0.00 0.00 0.00 0.00 0.00 0.00 0.00 0.01 0.05 0.00 0.00 0.00 0.01 0.02 0.12 0.05 0.00 0.00 0.00 0.00 0.01 0.04
0.07 0.12 0.12 0.28 0.67 0.63 0.63 0.72 0.55 0.33 0.13 0.03 0.02 0.00 0.00 0.00 0.00 0.00 0.00 0.00 0.00 0.00 0.00 0.00 0.00 0.00 0.00 0.00 0.00 0.00 0.00 0.00 0.00 0.01 0.01 0.02 0.01 0.01 0.01 0.04 0.00 0.00 0.00 0.00 0.01 0.00 0.00
0.09 0.18 0.31 0.16 0.29 0.63 0.79 0.81 0.78 0.54 0.17 0.04 0.01 0.00 0.00 0.00 0.00 0.00 0.00 0.00 0.00 0.00 0.00 0.00 0.00 0.00 0.00 0.00 0.00 0.00 0.00 0.00 0.00 0.00 0.00 0.00 0.01 0.02 0.01 0.01 0.00 0.00 0.00 0.00 0.00 0.00 0.00
0.07 0.10 0.23 0.36 0.29 0.29 0.60 0.67 0.78 0.60 0.24 0.05 0.02 0.01 0.00 0.00 0.00 0.00 0.00 0.00 0.00 0.00 0.00 0.00 0.00 0.00 0.00 0.00 0.00 0.00 0.00 0.00 0.00 0.00 0.00 0.00 0.01 0.02 0.02 0.01 0.01 0.01 0.00 0.00 0.00 0.00 0.00

GFSGBSN_prec_precacc24_117.txt.gz
Total_Precipitation_Accumulation
0.11 0.12 0.10 0.11 0.13 0.10 0.08 0.08 0.08 0.06 0.08 0.12 0.09 0.07 0.04 0.03 0.04 0.05 0.13 0.15 0.05 0.02 0.01 0.01 0.00 0.00 0.00 0.00 0.00 0.00 0.00 0.00 0.00 0.03 0.20 0.28 0.29 0.31 0.23 0.27 0.98 1.13 1.08 0.56 0.57 0.50 0.43
0.12 0.13 0.13 0.11 0.11 0.10 0.10 0.07 0.09 0.10 0.09 0.10 0.11 0.12 0.07 0.07 0.05 0.06 0.09 0.09 0.04 0.01 0.00 0.00 0.00 0.00 0.00 0.00 0.00 0.00 0.00 0.00 0.00 0.01 0.05 0.23 0.19 0.23 0.16 0.21 0.56 1.07 1.32 0.68 0.56 0.47 0.28
0.09 0.11 0.12 0.11 0.11 0.11 0.10 0.12 0.12 0.10 0.09 0.09 0.11 0.12 0.11 0.08 0.04 0.04 0.07 0.08 0.06 0.01 0.00 0.00 0.00 0.00 0.00 0.00 0.00 0.00 0.00 0.00 0.00 0.01 0.08 0.18 0.08 0.10 0.09 0.08 0.11 0.65 1.33 0.94 0.54 0.67 0.24
0.08 0.10 0.11 0.11 0.11 0.12 0.12 0.14 0.14 0.13 0.10 0.10 0.13 0.15 0.12 0.09 0.04 0.04 0.07 0.07 0.05 0.03 0.00 0.00 0.00 0.01 0.00 0.00 0.00 0.00 0.00 0.00 0.00 0.00 0.01 0.04 0.08 0.10 0.07 0.06 0.06 0.21 1.00 1.30 0.65 0.78 0.60
0.07 0.10 0.10 0.12 0.13 0.16 0.17 0.17 0.15 0.14 0.13 0.15 0.17 0.15 0.12 0.09 0.05 0.02 0.03 0.04 0.01 0.01 0.00 0.00 0.00 0.00 0.00 0.00 0.00 0.00 0.00 0.00 0.00 0.00 0.00 0.01 0.03 0.06 0.05 0.06 0.06 0.07 0.35 0.81 0.88 0.65 0.78
0.06 0.09 0.11 0.12 0.12 0.16 0.19 0.18 0.18 0.20 0.20 0.22 0.22 0.17 0.15 0.08 0.03 0.02 0.02 0.01 0.00 0.00 0.00 0.00 0.00 0.00 0.00 0.00 0.00 0.00 0.00 0.00 0.00 0.00 0.00 0.00 0.01 0.06 0.02 0.09 0.10 0.09 0.14 0.23 0.48 0.60 0.61
0.06 0.06 0.08 0.10 0.12 0.13 0.16 0.18 0.22 0.22 0.20 0.16 0.18 0.20 0.18 0.09 0.05 0.04 0.01 0.00 0.00 0.00 0.00 0.00 0.00 0.00 0.00 0.00 0.00 0.00 0.00 0.00 0.00 0.00 0.00 0.00 0.03 0.06 0.07 0.04 0.01 0.01 0.01 0.05 0.15 0.24 0.46
0.04 0.04 0.06 0.12 0.15 0.17 0.20 0.22 0.24 0.23 0.21 0.21 0.23 0.28 0.22 0.08 0.07 0.05 0.01 0.01 0.00 0.00 0.00 0.00 0.00 0.00 0.00 0.00 0.00 0.00 0.00 0.00 0.00 0.00 0.00 0.01 0.01 0.01 0.01 0.01 0.00 0.00 0.00 0.02 0.09 0.11 0.17
0.04 0.04 0.04 0.09 0.15 0.20 0.23 0.26 0.27 0.26 0.24 0.30 0.34 0.37 0.32 0.17 0.11 0.06 0.02 0.00 0.00 0.00 0.00 0.00 0.00 0.00 0.00 0.00 0.00 0.00 0.00 0.00 0.00 0.00 0.00 0.01 0.00 0.00 0.00 0.00 0.00 0.00 0.01 0.01 0.04 0.08 0.08
0.04 0.04 0.05 0.07 0.14 0.19 0.27 0.31 0.36 0.38 0.39 0.43 0.50 0.59 0.40 0.22 0.08 0.01 0.00 0.00 0.00 0.00 0.01 0.00 0.00 0.00 0.00 0.00 0.00 0.00 0.00 0.00 0.00 0.00 0.00 0.00 0.00 0.00 0.00 0.00 0.01 0.00 0.01 0.00 0.01 0.03 0.05
0.05 0.04 0.05 0.05 0.14 0.24 0.26 0.35 0.47 0.45 0.45 0.51 0.63 0.59 0.41 0.28 0.16 0.09 0.05 0.00 0.00 0.00 0.03 0.00 0.00 0.00 0.00 0.00 0.00 0.00 0.00 0.00 0.00 0.00 0.00 0.00 0.00 0.00 0.00 0.00 0.00 0.00 0.00 0.00 0.02 0.01 0.00
0.06 0.04 0.05 0.04 0.09 0.24 0.26 0.34 0.44 0.42 0.42 0.54 0.57 0.45 0.40 0.21 0.11 0.06 0.05 0.00 0.00 0.03 0.04 0.00 0.00 0.00 0.00 0.00 0.00 0.00 0.00 0.00 0.00 0.00 0.00 0.00 0.00 0.00 0.00 0.00 0.00 0.00 0.02 0.03 0.04 0.06 0.04
0.08 0.04 0.06 0.05 0.11 0.21 0.23 0.38 0.55 0.46 0.43 0.48 0.47 0.47 0.34 0.18 0.13 0.04 0.02 0.00 0.05 0.08 0.02 0.00 0.00 0.00 0.00 0.00 0.00 0.00 0.00 0.00 0.00 0.00 0.00 0.00 0.00 0.00 0.00 0.00 0.01 0.02 0.13 0.15 0.16 0.27 0.07
0.09 0.07 0.07 0.07 0.13 0.20 0.25 0.40 0.57 0.60 0.57 0.52 0.35 0.31 0.30 0.14 0.13 0.09 0.02 0.04 0.13 0.06 0.00 0.00 0.00 0.00 0.00 0.00 0.00 0.00 0.00 0.00 0.00 0.00 0.00 0.00 0.00 0.00 0.00 0.01 0.06 0.11 0.21 0.32 0.41 0.18 0.10
0.09 0.09 0.07 0.08 0.12 0.21 0.31 0.40 0.56 0.67 0.69 0.66 0.61 0.49 0.33 0.16 0.14 0.17 0.03 0.12 0.09 0.01 0.00 0.00 0.00 0.00 0.00 0.00 0.00 0.00 0.00 0.00 0.00 0.00 0.01 0.00 0.00 0.00 0.00 0.01 0.08 0.14 0.20 0.17 0.25 0.09 0.07
0.12 0.11 0.10 0.12 0.11 0.18 0.31 0.43 0.57 0.58 0.61 0.59 0.60 0.59 0.46 0.32 0.11 0.07 0.04 0.07 0.01 0.00 0.00 0.00 0.00 0.00 0.00 0.00 0.00 0.00 0.00 0.00 0.00 0.00 0.00 0.00 0.02 0.00 0.00 0.06 0.13 0.14 0.17 0.28 0.28 0.29 0.16
0.23 0.16 0.17 0.14 0.11 0.15 0.30 0.50 0.62 0.49 0.60 0.56 0.42 0.49 0.59 0.43 0.13 0.04 0.06 0.02 0.00 0.00 0.00 0.00 0.00 0.00 0.00 0.00 0.00 0.00 0.00 0.00 0.00 0.00 0.00 0.03 0.10 0.04 0.09 0.09 0.07 0.13 0.14 0.17 0.45 0.24 0.26
0.18 0.21 0.27 0.29 0.25 0.21 0.34 0.54 0.58 0.48 0.60 0.72 0.41 0.49 0.45 0.37 0.22 0.06 0.04 0.01 0.00 0.00 0.00 0.00 0.00 0.00 0.00 0.00 0.00 0.00 0.00 0.00 0.00 0.00 0.02 0.09 0.18 0.10 0.01 0.09 0.13 0.16 0.23 0.36 0.25 0.23 0.10
0.22 0.22 0.23 0.28 0.23 0.20 0.23 0.58 0.70 0.57 0.59 0.50 0.40 0.59 0.56 0.34 0.11 0.07 0.04 0.00 0.00 0.00 0.00 0.00 0.00 0.00 0.00 0.00 0.00 0.00 0.00 0.00 0.00 0.00 0.04 0.08 0.24 0.20 0.08 0.11 0.18 0.20 0.10 0.17 0.44 0.36 0.07
0.17 0.14 0.14 0.16 0.22 0.25 0.26 0.49 0.63 0.55 0.60 0.61 0.51 0.49 0.49 0.47 0.12 0.05 0.02 0.00 0.00 0.00 0.00 0.00 0.00 0.00 0.00 0.00 0.00 0.00 0.00 0.00 0.00 0.00 0.01 0.03 0.07 0.20 0.19 0.23 0.23 0.19 0.16 0.13 0.23 0.46 0.24
0.12 0.11 0.14 0.19 0.28 0.38 0.81 0.69 0.47 0.42 0.53 0.69 0.56 0.23 0.10 0.13 0.07 0.03 0.01 0.00 0.00 0.00 0.00 0.00 0.00 0.00 0.00 0.00 0.00 0.00 0.00 0.00 0.00 0.00 0.00 0.01 0.01 0.02 0.02 0.02 0.14 0.15 0.12 0.19 0.31 0.15 0.13
0.13 0.16 0.32 0.50 0.58 0.96 1.28 1.01 0.55 0.43 0.58 0.65 0.35 0.17 0.04 0.05 0.03 0.03 0.01 0.00 0.00 0.00 0.00 0.00 0.00 0.00 0.00 0.00 0.00 0.00 0.00 0.00 0.00 0.00 0.00 0.00 0.00 0.03 0.02 0.00 0.00 0.01 0.04 0.10 0.14 0.18 0.14
0.11 0.15 0.28 0.34 0.40 0.59 0.67 0.93 0.85 0.58 0.64 0.51 0.19 0.08 0.08 0.04 0.01 0.01 0.01 0.00 0.00 0.00 0.00 0.00 0.00 0.00 0.00 0.00 0.00 0.00 0.00 0.00 0.00 0.00 0.00 0.00 0.00 0.01 0.00 0.00 0.04 0.03 0.00 0.00 0.01 0.01 0.05
0.05 0.05 0.08 0.16 0.21 0.44 0.75 0.96 0.78 0.48 0.33 0.15 0.07 0.08 0.12 0.02 0.00 0.00 0.00 0.00 0.00 0.00 0.00 0.00 0.00 0.00 0.00 0.00 0.00 0.00 0.00 0.00 0.00 0.00 0.00 0.00 0.00 0.00 0.00 0.02 0.08 0.03 0.00 0.00 0.00 0.00 0.00
0.04 0.03 0.05 0.05 0.13 0.31 0.61 0.97 0.48 0.27 0.13 0.11 0.04 0.05 0.01 0.01 0.00 0.00 0.00 0.00 0.00 0.00 0.00 0.00 0.00 0.00 0.00 0.00 0.00 0.00 0.00 0.00 0.00 0.00 0.00 0.00 0.00 0.00 0.00 0.02 0.04 0.00 0.00 0.00 0.01 0.04 0.02
0.03 0.02 0.04 0.04 0.09 0.19 0.38 0.67 0.39 0.19 0.11 0.06 0.02 0.01 0.00 0.00 0.00 0.00 0.00 0.00 0.00 0.00 0.00 0.00 0.00 0.00 0.00 0.00 0.00 0.00 0.00 0.00 0.00 0.01 0.00 0.00 0.00 0.00 0.00 0.02 0.01 0.00 0.00 0.00 0.00 0.01 0.04
0.03 0.01 0.02 0.02 0.07 0.22 0.40 0.64 0.55 0.33 0.13 0.03 0.02 0.01 0.00 0.00 0.00 0.00 0.00 0.00 0.00 0.00 0.00 0.00 0.00 0.00 0.00 0.00 0.00 0.00 0.00 0.00 0.00 0.00 0.00 0.00 0.00 0.00 0.00 0.00 0.00 0.00 0.00 0.00 0.01 0.00 0.00
0.03 0.02 0.02 0.02 0.03 0.21 0.53 0.76 0.78 0.54 0.17 0.04 0.01 0.00 0.00 0.00 0.00 0.00 0.00 0.00 0.00 0.00 0.00 0.00 0.00 0.00 0.00 0.00 0.00 0.00 0.00 0.00 0.00 0.00 0.00 0.00 0.00 0.01 0.00 0.00 0.00 0.00 0.00 0.00 0.00 0.00 0.00
0.04 0.02 0.01 0.01 0.03 0.09 0.45 0.65 0.78 0.60 0.24 0.05 0.02 0.01 0.00 0.00 0.00 0.00 0.00 0.00 0.00 0.00 0.00 0.00 0.00 0.00 0.00 0.00 0.00 0.00 0.00 0.00 0.00 0.00 0.00 0.00 0.00 0.01 0.01 0.00 0.00 0.00 0.00 0.00 0.00 0.00 0.00

GFSGBSN_prec_precacc24_120.txt.gz
Total_Precipitation_Accumulation
0.11 0.11 0.11 0.10 0.11 0.11 0.09 0.08 0.09 0.07 0.10 0.14 0.11 0.10 0.07 0.03 0.03 0.05 0.13 0.24 0.22 0.07 0.01 0.01 0.00 0.00 0.00 0.00 0.00 0.00 0.00 0.00 0.00 0.03 0.18 0.14 0.28 0.31 0.23 0.25 0.73 1.03 0.90 0.53 0.51 0.47 0.43
0.08 0.09 0.12 0.09 0.08 0.08 0.10 0.08 0.10 0.11 0.10 0.11 0.13 0.14 0.11 0.10 0.05 0.06 0.09 0.09 0.10 0.11 0.01 0.01 0.00 0.00 0.00 0.00 0.00 0.00 0.00 0.00 0.00 0.01 0.03 0.07 0.15 0.24 0.17 0.21 0.51 0.96 1.09 0.60 0.48 0.43 0.25
0.05 0.08 0.09 0.08 0.09 0.07 0.08 0.13 0.14 0.12 0.11 0.11 0.14 0.14 0.14 0.15 0.06 0.04 0.08 0.08 0.08 0.05 0.00 0.00 0.00 0.00 0.00 0.00 0.00 0.00 0.00 0.00 0.00 0.00 0.00 0.02 0.02 0.10 0.10 0.08 0.11 0.59 1.19 0.77 0.47 0.53 0.19
0.05 0.07 0.06 0.08 0.08 0.08 0.09 0.12 0.16 0.16 0.13 0.13 0.15 0.17 0.15 0.15 0.09 0.05 0.07 0.08 0.06 0.05 0.02 0.00 0.00 0.01 0.00 0.00 0.00 0.00 0.00 0.00 0.00 0.00 0.00 0.00 0.02 0.09 0.07 0.05 0.06 0.17 0.86 1.11 0.57 0.59 0.43
0.05 0.06 0.05 0.07 0.07 0.09 0.12 0.16 0.17 0.16 0.15 0.16 0.20 0.18 0.16 0.15 0.08 0.03 0.03 0.04 0.02 0.03 0.02 0.01 0.00 0.00 0.00 0.00 0.00 0.00 0.00 0.00 0.00 0.00 0.00 0.01 0.03 0.06 0.05 0.07 0.06 0.07 0.30 0.75 0.82 0.57 0.61
0.06 0.06 0.06 0.06 0.05 0.08 0.13 0.16 0.19 0.22 0.22 0.25 0.24 0.20 0.22 0.12 0.07 0.02 0.03 0.05 0.03 0.02 0.00 0.00 0.00 0.00 0.00 0.00 0.00 0.00 0.00 0.00 0.00 0.00 0.00 0.00 0.01 0.06 0.02 0.11 0.12 0.09 0.14 0.22 0.47 0.56 0.57
0.06 0.05 0.06 0.05 0.04 0.06 0.13 0.16 0.20 0.24 0.23 0.20 0.22 0.25 0.27 0.13 0.09 0.04 0.01 0.01 0.01 0.00 0.00 0.00 0.00 0.00 0.00 0.00 0.00 0.00 0.00 0.00 0.00 0.00 0.00 0.00 0.03 0.06 0.07 0.05 0.02 0.01 0.01 0.05 0.14 0.23 0.46
0.07 0.07 0.07 0.06 0.06 0.08 0.12 0.18 0.21 0.26 0.26 0.27 0.30 0.34 0.27 0.11 0.10 0.05 0.01 0.01 0.00 0.00 0.00 0.00 0.00 0.00 0.00 0.00 0.00 0.00 0.00 0.00 0.00 0.00 0.00 0.01 0.01 0.01 0.01 0.02 0.02 0.02 0.01 0.02 0.09 0.11 0.16
0.09 0.10 0.08 0.07 0.06 0.10 0.12 0.15 0.22 0.28 0.29 0.37 0.42 0.42 0.36 0.20 0.14 0.06 0.03 0.01 0.00 0.00 0.00 0.00 0.00 0.00 0.00 0.00 0.00 0.00 0.00 0.00 0.00 0.00 0.00 0.01 0.00 0.00 0.00 0.00 0.00 0.00 0.02 0.01 0.04 0.06 0.06
0.12 0.14 0.10 0.08 0.06 0.10 0.12 0.11 0.23 0.38 0.42 0.47 0.56 0.64 0.43 0.24 0.10 0.02 0.04 0.01 0.00 0.00 0.02 0.00 0.00 0.00 0.00 0.00 0.00 0.00 0.00 0.00 0.00 0.00 0.00 0.00 0.00 0.00 0.00 0.00 0.01 0.00 0.01 0.00 0.01 0.02 0.05
0.15 0.14 0.10 0.07 0.06 0.09 0.09 0.08 0.18 0.31 0.44 0.53 0.68 0.62 0.45 0.29 0.16 0.11 0.08 0.00 0.00 0.00 0.04 0.01 0.00 0.00 0.00 0.00 0.00 0.00 0.00 0.00 0.00 0.00 0.00 0.00 0.00 0.00 0.00 0.00 0.00 0.00 0.00 0.00 0.01 0.00 0.00
0.14 0.11 0.10 0.05 0.05 0.09 0.08 0.07 0.16 0.25 0.39 0.56 0.59 0.46 0.41 0.22 0.11 0.06 0.05 0.00 0.00 0.03 0.04 0.00 0.00 0.00 0.00 0.00 0.00 0.00 0.00 0.00 0.00 0.00 0.00 0.00 0.00 0.00 0.00 0.00 0.00 0.00 0.01 0.02 0.03 0.04 0.04
0.13 0.10 0.09 0.06 0.09 0.11 0.07 0.09 0.20 0.30 0.39 0.50 0.48 0.48 0.34 0.18 0.13 0.04 0.02 0.00 0.05 0.09 0.02 0.00 0.00 0.00 0.00 0.00 0.00 0.00 0.00 0.00 0.00 0.00 0.00 0.00 0.00 0.00 0.00 0.00 0.01 0.02 0.10 0.12 0.13 0.17 0.08
0.12 0.11 0.08 0.06 0.10 0.09 0.08 0.10 0.18 0.36 0.50 0.52 0.36 0.31 0.30 0.14 0.13 0.09 0.02 0.04 0.14 0.07 0.00 0.00 0.00 0.00 0.00 0.00 0.00 0.00 0.00 0.00 0.00 0.00 0.00 0.00 0.00 0.00 0.00 0.01 0.06 0.10 0.18 0.36 0.49 0.22 0.13
0.11 0.11 0.08 0.08 0.11 0.10 0.10 0.14 0.22 0.44 0.63 0.66 0.62 0.49 0.33 0.16 0.15 0.17 0.04 0.13 0.10 0.01 0.00 0.00 0.00 0.00 0.00 0.00 0.00 0.00 0.00 0.00 0.00 0.00 0.00 0.00 0.00 0.00 0.00 0.01 0.07 0.13 0.19 0.18 0.33 0.18 0.09
0.13 0.12 0.10 0.12 0.10 0.09 0.11 0.18 0.20 0.35 0.54 0.59 0.60 0.59 0.46 0.32 0.11 0.07 0.04 0.07 0.01 0.00 0.00 0.00 0.00 0.00 0.00 0.00 0.00 0.00 0.00 0.00 0.00 0.00 0.00 0.00 0.01 0.00 0.00 0.05 0.12 0.14 0.17 0.27 0.27 0.29 0.19
0.24 0.17 0.17 0.14 0.10 0.07 0.10 0.19 0.23 0.24 0.51 0.56 0.42 0.49 0.59 0.43 0.13 0.04 0.06 0.02 0.00 0.00 0.00 0.00 0.00 0.00 0.00 0.00 0.00 0.00 0.00 0.00 0.00 0.00 0.00 0.01 0.06 0.03 0.07 0.08 0.07 0.12 0.14 0.17 0.45 0.24 0.28
0.18 0.20 0.26 0.28 0.22 0.13 0.11 0.11 0.13 0.26 0.55 0.72 0.41 0.49 0.45 0.37 0.22 0.06 0.04 0.01 0.00 0.00 0.00 0.00 0.00 0.00 0.00 0.00 0.00 0.00 0.00 0.00 0.00 0.00 0.00 0.03 0.08 0.03 0.01 0.08 0.12 0.15 0.22 0.36 0.25 0.23 0.10
0.21 0.20 0.22 0.26 0.17 0.07 0.05 0.09 0.16 0.33 0.56 0.50 0.40 0.58 0.55 0.34 0.11 0.07 0.04 0.00 0.00 0.00 0.00 0.00 0.00 0.00 0.00 0.00 0.00 0.00 0.00 0.00 0.00 0.00 0.01 0.04 0.06 0.08 0.04 0.07 0.08 0.09 0.10 0.17 0.44 0.36 0.08
0.16 0.11 0.10 0.12 0.15 0.10 0.08 0.13 0.22 0.38 0.57 0.61 0.51 0.49 0.48 0.47 0.12 0.05 0.02 0.00 0.00 0.00 0.00 0.00 0.00 0.00 0.00 0.00 0.00 0.00 0.00 0.00 0.00 0.00 0.00 0.01 0.00 0.02 0.08 0.12 0.14 0.10 0.10 0.12 0.21 0.42 0.24
0.10 0.06 0.06 0.13 0.20 0.23 0.48 0.31 0.22 0.32 0.52 0.69 0.56 0.23 0.10 0.13 0.07 0.03 0.01 0.00 0.00 0.00 0.00 0.00 0.00 0.00 0.00 0.00 0.00 0.00 0.00 0.00 0.00 0.00 0.00 0.00 0.00 0.00 0.00 0.00 0.03 0.04 0.07 0.12 0.24 0.14 0.11
0.06 0.06 0.19 0.36 0.43 0.78 1.06 0.54 0.31 0.37 0.58 0.65 0.35 0.17 0.04 0.05 0.03 0.03 0.01 0.00 0.00 0.00 0.00 0.00 0.00 0.00 0.00 0.00 0.00 0.00 0.00 0.00 0.00 0.00 0.00 0.00 0.00 0.00 0.00 0.00 0.00 0.00 0.02 0.05 0.09 0.16 0.13
0.04 0.08 0.21 0.19 0.27 0.42 0.48 0.53 0.59 0.54 0.64 0.51 0.19 0.08 0.08 0.04 0.01 0.01 0.01 0.00 0.00 0.00 0.00 0.00 0.00 0.00 0.00 0.00 0.00 0.00 0.00 0.00 0.00 0.00 0.00 0.00 0.00 0.01 0.00 0.00 0.01 0.00 0.00 0.00 0.01 0.01 0.05
0.03 0.03 0.06 0.10 0.13 0.30 0.46 0.57 0.55 0.46 0.33 0.15 0.07 0.08 0.12 0.02 0.00 0.00 0.00 0.00 0.00 0.00 0.00 0.00 0.00 0.00 0.00 0.00 0.00 0.00 0.00 0.00 0.00 0.00 0.00 0.00 0.00 0.00 0.00 0.00 0.01 0.01 0.00 0.00 0.00 0.00 0.00
0.02 0.03 0.05 0.03 0.06 0.19 0.31 0.55 0.31 0.25 0.13 0.11 0.04 0.05 0.01 0.01 0.00 0.00 0.00 0.00 0.00 0.00 0.00 0.00 0.00 0.00 0.00 0.00 0.00 0.00 0.00 0.00 0.00 0.00 0.00 0.00 0.00 0.00 0.00 0.00 0.00 0.00 0.00 0.00 0.01 0.04 0.02
0.02 0.02 0.04 0.02 0.03 0.08 0.17 0.39 0.22 0.16 0.11 0.06 0.02 0.01 0.00 0.00 0.00 0.00 0.00 0.00 0.00 0.00 0.00 0.00 0.00 0.00 0.00 0.00 0.00 0.00 0.00 0.00 0.00 0.00 0.00 0.00 0.00 0.00 0.00 0.00 0.00 0.00 0.00 0.00 0.00 0.01 0.04
0.03 0.02 0.03 0.02 0.01 0.02 0.17 0.45 0.41 0.29 0.13 0.03 0.02 0.01 0.00 0.00 0.00 0.00 0.00 0.00 0.00 0.00 0.00 0.00 0.00 0.00 0.00 0.00 0.00 0.00 0.00 0.00 0.00 0.00 0.00 0.00 0.00 0.00 0.00 0.00 0.00 0.00 0.00 0.00 0.01 0.00 0.00
0.03 0.02 0.02 0.01 0.01 0.02 0.17 0.48 0.62 0.51 0.17 0.04 0.01 0.00 0.00 0.00 0.00 0.00 0.00 0.00 0.00 0.00 0.00 0.00 0.00 0.00 0.00 0.00 0.00 0.00 0.00 0.00 0.00 0.00 0.00 0.00 0.00 0.00 0.00 0.00 0.00 0.00 0.00 0.00 0.00 0.00 0.00
0.03 0.02 0.01 0.01 0.01 0.02 0.18 0.33 0.61 0.58 0.24 0.05 0.02 0.01 0.00 0.00 0.00 0.00 0.00 0.00 0.00 0.00 0.00 0.00 0.00 0.00 0.00 0.00 0.00 0.00 0.00 0.00 0.00 0.00 0.00 0.00 0.00 0.00 0.00 0.00 0.00 0.00 0.00 0.00 0.00 0.00 0.00

GFSGBSN_prec_precacc24_123.txt.gz
Total_Precipitation_Accumulation
0.06 0.07 0.09 0.07 0.07 0.08 0.06 0.07 0.09 0.09 0.14 0.22 0.21 0.19 0.15 0.15 0.15 0.08 0.13 0.25 0.31 0.18 0.02 0.01 0.00 0.00 0.00 0.00 0.00 0.00 0.00 0.00 0.00 0.02 0.09 0.12 0.25 0.28 0.21 0.11 0.33 0.52 0.51 0.48 0.50 0.46 0.42
0.06 0.07 0.08 0.05 0.05 0.05 0.06 0.07 0.11 0.19 0.23 0.25 0.26 0.28 0.22 0.21 0.20 0.16 0.10 0.09 0.13 0.30 0.11 0.01 0.01 0.00 0.00 0.00 0.00 0.00 0.00 0.00 0.00 0.01 0.03 0.07 0.15 0.26 0.17 0.12 0.28 0.51 0.57 0.54 0.47 0.42 0.25
0.04 0.07 0.07 0.06 0.06 0.04 0.05 0.12 0.16 0.20 0.22 0.22 0.24 0.26 0.25 0.24 0.20 0.19 0.10 0.08 0.09 0.16 0.04 0.00 0.01 0.00 0.00 0.00 0.00 0.00 0.00 0.00 0.00 0.00 0.00 0.02 0.02 0.11 0.10 0.03 0.06 0.33 0.61 0.61 0.46 0.51 0.18
0.05 0.07 0.07 0.07 0.05 0.04 0.06 0.12 0.17 0.17 0.17 0.17 0.20 0.22 0.24 0.28 0.14 0.12 0.08 0.08 0.06 0.09 0.03 0.00 0.01 0.01 0.00 0.00 0.00 0.00 0.00 0.00 0.00 0.00 0.00 0.01 0.04 0.10 0.09 0.05 0.06 0.12 0.59 0.73 0.51 0.55 0.38
0.07 0.09 0.08 0.08 0.05 0.04 0.08 0.12 0.14 0.15 0.17 0.21 0.26 0.24 0.23 0.25 0.14 0.09 0.03 0.05 0.04 0.07 0.02 0.01 0.01 0.00 0.00 0.00 0.00 0.00 0.00 0.00 0.00 0.00 0.01 0.03 0.06 0.06 0.06 0.09 0.07 0.07 0.27 0.51 0.61 0.50 0.44
0.10 0.13 0.12 0.07 0.04 0.05 0.10 0.13 0.13 0.17 0.20 0.29 0.30 0.27 0.31 0.19 0.13 0.07 0.04 0.07 0.06 0.06 0.01 0.00 0.00 0.00 0.00 0.00 0.00 0.00 0.00 0.00 0.00 0.00 0.01 0.02 0.03 0.06 0.03 0.13 0.14 0.09 0.15 0.20 0.36 0.48 0.38
0.11 0.16 0.14 0.06 0.04 0.06 0.12 0.13 0.12 0.19 0.21 0.24 0.27 0.33 0.34 0.16 0.11 0.05 0.01 0.03 0.02 0.00 0.00 0.00 0.00 0.00 0.00 0.00 0.00 0.00 0.00 0.00 0.00 0.00 0.00 0.01 0.04 0.06 0.07 0.05 0.03 0.03 0.03 0.05 0.14 0.20 0.38
0.12 0.18 0.12 0.07 0.06 0.09 0.12 0.14 0.11 0.16 0.19 0.28 0.33 0.38 0.31 0.17 0.14 0.05 0.01 0.01 0.00 0.00 0.00 0.00 0.00 0.00 0.00 0.00 0.00 0.00 0.00 0.00 0.00 0.00 0.01 0.02 0.02 0.01 0.01 0.03 0.03 0.04 0.02 0.02 0.09 0.11 0.14
0.14 0.17 0.10 0.08 0.06 0.11 0.13 0.12 0.10 0.15 0.15 0.31 0.43 0.43 0.37 0.22 0.15 0.06 0.03 0.01 0.00 0.00 0.00 0.00 0.00 0.00 0.00 0.00 0.00 0.00 0.00 0.00 0.00 0.00 0.00 0.01 0.00 0.00 0.00 0.00 0.00 0.01 0.02 0.01 0.04 0.06 0.06
0.17 0.16 0.10 0.09 0.06 0.11 0.13 0.11 0.11 0.13 0.12 0.27 0.51 0.64 0.44 0.24 0.10 0.02 0.04 0.01 0.00 0.00 0.02 0.00 0.00 0.00 0.00 0.00 0.00 0.00 0.00 0.00 0.00 0.00 0.00 0.00 0.00 0.00 0.00 0.00 0.01 0.00 0.02 0.01 0.01 0.02 0.05
0.19 0.14 0.10 0.07 0.06 0.09 0.10 0.08 0.11 0.09 0.07 0.24 0.55 0.60 0.45 0.29 0.16 0.12 0.08 0.00 0.00 0.00 0.04 0.01 0.00 0.00 0.00 0.00 0.00 0.00 0.00 0.00 0.00 0.00 0.00 0.00 0.00 0.00 0.00 0.00 0.00 0.00 0.00 0.00 0.01 0.00 0.00
0.16 0.11 0.10 0.05 0.05 0.09 0.08 0.07 0.10 0.07 0.05 0.24 0.44 0.43 0.41 0.22 0.11 0.06 0.05 0.00 0.00 0.03 0.04 0.00 0.00 0.00 0.00 0.00 0.00 0.00 0.00 0.00 0.00 0.00 0.00 0.00 0.00 0.00 0.00 0.00 0.00 0.00 0.01 0.02 0.02 0.04 0.05
0.14 0.10 0.09 0.06 0.09 0.11 0.08 0.09 0.11 0.08 0.11 0.26 0.36 0.44 0.34 0.18 0.13 0.04 0.02 0.00 0.05 0.09 0.02 0.00 0.00 0.00 0.00 0.00 0.00 0.00 0.00 0.00 0.00 0.00 0.00 0.00 0.00 0.00 0.00 0.00 0.01 0.02 0.09 0.11 0.10 0.12 0.12
0.12 0.10 0.08 0.06 0.10 0.09 0.08 0.10 0.12 0.12 0.16 0.23 0.26 0.29 0.30 0.14 0.13 0.09 0.02 0.04 0.14 0.08 0.00 0.00 0.00 0.00 0.00 0.00 0.00 0.00 0.00 0.00 0.00 0.00 0.00 0.00 0.00 0.00 0.00 0.01 0.06 0.10 0.16 0.32 0.51 0.30 0.14
0.10 0.11 0.07 0.08 0.11 0.10 0.10 0.13 0.16 0.16 0.15 0.30 0.47 0.47 0.33 0.16 0.15 0.17 0.04 0.13 0.10 0.01 0.00 0.00 0.00 0.00 0.00 0.00 0.00 0.00 0.00 0.00 0.00 0.00 0.00 0.00 0.00 0.00 0.00 0.01 0.07 0.12 0.19 0.18 0.31 0.17 0.10
0.11 0.10 0.09 0.11 0.10 0.09 0.11 0.17 0.17 0.12 0.10 0.28 0.45 0.57 0.46 0.32 0.11 0.07 0.04 0.07 0.01 0.00 0.00 0.00 0.00 0.00 0.00 0.00 0.00 0.00 0.00 0.00 0.00 0.00 0.00 0.00 0.01 0.00 0.00 0.02 0.11 0.14 0.16 0.26 0.25 0.25 0.19
0.12 0.08 0.12 0.12 0.10 0.06 0.10 0.19 0.20 0.05 0.07 0.28 0.31 0.44 0.59 0.43 0.13 0.04 0.06 0.02 0.00 0.00 0.00 0.00 0.00 0.00 0.00 0.00 0.00 0.00 0.00 0.00 0.00 0.00 0.00 0.01 0.03 0.01 0.02 0.06 0.06 0.11 0.14 0.17 0.45 0.24 0.28
0.12 0.11 0.21 0.26 0.21 0.12 0.11 0.10 0.06 0.01 0.10 0.37 0.33 0.46 0.45 0.37 0.21 0.05 0.04 0.01 0.00 0.00 0.00 0.00 0.00 0.00 0.00 0.00 0.00 0.00 0.00 0.00 0.00 0.00 0.00 0.01 0.04 0.02 0.00 0.03 0.08 0.11 0.19 0.35 0.24 0.22 0.10
0.12 0.12 0.17 0.24 0.16 0.06 0.05 0.05 0.03 0.02 0.18 0.28 0.31 0.55 0.52 0.34 0.10 0.05 0.04 0.00 0.00 0.00 0.00 0.00 0.00 0.00 0.00 0.00 0.00 0.00 0.00 0.00 0.00 0.00 0.00 0.01 0.03 0.02 0.00 0.03 0.05 0.07 0.09 0.16 0.44 0.35 0.07
0.12 0.09 0.08 0.10 0.14 0.10 0.06 0.07 0.02 0.02 0.23 0.40 0.43 0.48 0.46 0.47 0.11 0.03 0.01 0.00 0.00 0.00 0.00 0.00 0.00 0.00 0.00 0.00 0.00 0.00 0.00 0.00 0.00 0.00 0.00 0.00 0.00 0.00 0.00 0.04 0.05 0.03 0.05 0.10 0.19 0.40 0.23
0.09 0.05 0.04 0.10 0.14 0.19 0.45 0.24 0.02 0.07 0.23 0.47 0.52 0.23 0.10 0.13 0.07 0.02 0.01 0.00 0.00 0.00 0.00 0.00 0.00 0.00 0.00 0.00 0.00 0.00 0.00 0.00 0.00 0.00 0.00 0.00 0.00 0.00 0.00 0.00 0.00 0.00 0.00 0.01 0.09 0.12 0.11
0.06 0.04 0.07 0.16 0.27 0.62 0.89 0.37 0.15 0.13 0.32 0.47 0.34 0.17 0.04 0.05 0.03 0.02 0.01 0.00 0.00 0.00 0.00 0.00 0.00 0.00 0.00 0.00 0.00 0.00 0.00 0.00 0.00 0.00 0.00 0.00 0.00 0.00 0.00 0.00 0.00 0.00 0.00 0.00 0.00 0.04 0.08
0.04 0.03 0.06 0.07 0.13 0.26 0.31 0.28 0.41 0.32 0.37 0.39 0.18 0.08 0.08 0.04 0.01 0.01 0.01 0.00 0.00 0.00 0.00 0.00 0.00 0.00 0.00 0.00 0.00 0.00 0.00 0.00 0.00 0.00 0.00 0.00 0.00 0.00 0.00 0.00 0.00 0.00 0.00 0.00 0.00 0.00 0.01
0.02 0.03 0.04 0.05 0.07 0.15 0.31 0.39 0.36 0.25 0.23 0.13 0.07 0.08 0.12 0.02 0.00 0.00 0.00 0.00 0.00 0.00 0.00 0.00 0.00 0.00 0.00 0.00 0.00 0.00 0.00 0.00 0.00 0.00 0.00 0.00 0.00 0.00 0.00 0.00 0.00 0.01 0.00 0.00 0.00 0.00 0.00
0.02 0.02 0.03 0.03 0.02 0.05 0.18 0.34 0.18 0.14 0.10 0.11 0.04 0.05 0.01 0.00 0.00 0.00 0.00 0.00 0.00 0.00 0.00 0.00 0.00 0.00 0.00 0.00 0.00 0.00 0.00 0.00 0.00 0.00 0.00 0.00 0.00 0.00 0.00 0.00 0.00 0.00 0.00 0.00 0.01 0.04 0.02
0.02 0.02 0.03 0.02 0.01 0.01 0.11 0.25 0.11 0.04 0.06 0.06 0.02 0.01 0.00 0.00 0.00 0.00 0.00 0.00 0.00 0.00 0.00 0.00 0.00 0.00 0.00 0.00 0.00 0.00 0.00 0.00 0.00 0.00 0.00 0.00 0.00 0.00 0.00 0.00 0.00 0.00 0.00 0.00 0.00 0.01 0.04
0.03 0.01 0.02 0.02 0.01 0.00 0.06 0.28 0.26 0.07 0.08 0.03 0.02 0.01 0.00 0.00 0.00 0.00 0.00 0.00 0.00 0.00 0.00 0.00 0.00 0.00 0.00 0.00 0.00 0.00 0.00 0.00 0.00 0.00 0.00 0.00 0.00 0.00 0.00 0.00 0.00 0.00 0.00 0.00 0.01 0.00 0.00
0.03 0.01 0.02 0.01 0.01 0.00 0.03 0.26 0.46 0.32 0.13 0.04 0.01 0.00 0.00 0.00 0.00 0.00 0.00 0.00 0.00 0.00 0.00 0.00 0.00 0.00 0.00 0.00 0.00 0.00 0.00 0.00 0.00 0.00 0.00 0.00 0.00 0.00 0.00 0.00 0.00 0.00 0.00 0.00 0.00 0.00 0.00
0.03 0.01 0.01 0.01 0.01 0.00 0.02 0.09 0.37 0.42 0.21 0.05 0.02 0.01 0.00 0.00 0.00 0.00 0.00 0.00 0.00 0.00 0.00 0.00 0.00 0.00 0.00 0.00 0.00 0.00 0.00 0.00 0.00 0.00 0.00 0.00 0.00 0.00 0.00 0.00 0.00 0.00 0.00 0.00 0.00 0.00 0.00

GFSGBSN_prec_precacc24_126.txt.gz
Total_Precipitation_Accumulation
0.04 0.05 0.08 0.07 0.05 0.04 0.03 0.06 0.14 0.21 0.25 0.33 0.36 0.33 0.26 0.23 0.39 0.40 0.26 0.25 0.34 0.28 0.06 0.03 0.01 0.00 0.00 0.00 0.00 0.00 0.00 0.00 0.00 0.00 0.01 0.08 0.17 0.23 0.18 0.10 0.10 0.11 0.14 0.17 0.28 0.43 0.42
0.06 0.08 0.11 0.09 0.07 0.04 0.04 0.07 0.11 0.21 0.27 0.31 0.34 0.36 0.30 0.25 0.30 0.40 0.27 0.10 0.14 0.40 0.16 0.02 0.01 0.00 0.00 0.00 0.00 0.00 0.00 0.00 0.00 0.00 0.00 0.03 0.11 0.23 0.17 0.11 0.12 0.15 0.16 0.09 0.26 0.38 0.24
0.07 0.13 0.15 0.13 0.08 0.04 0.06 0.08 0.12 0.16 0.22 0.24 0.29 0.30 0.31 0.28 0.24 0.31 0.19 0.09 0.16 0.51 0.13 0.02 0.01 0.00 0.00 0.00 0.00 0.00 0.00 0.00 0.00 0.00 0.00 0.02 0.01 0.14 0.12 0.02 0.00 0.08 0.22 0.19 0.28 0.50 0.16
0.10 0.15 0.18 0.13 0.06 0.04 0.09 0.12 0.13 0.14 0.15 0.16 0.24 0.23 0.30 0.31 0.18 0.16 0.10 0.08 0.12 0.28 0.09 0.01 0.01 0.01 0.00 0.00 0.00 0.00 0.00 0.00 0.00 0.00 0.00 0.01 0.07 0.13 0.10 0.04 0.03 0.04 0.11 0.24 0.30 0.53 0.37
0.12 0.16 0.18 0.12 0.05 0.05 0.11 0.15 0.12 0.14 0.16 0.19 0.24 0.24 0.28 0.26 0.15 0.11 0.03 0.05 0.08 0.11 0.03 0.01 0.01 0.00 0.00 0.00 0.00 0.00 0.00 0.00 0.00 0.00 0.01 0.05 0.09 0.08 0.07 0.08 0.06 0.04 0.07 0.15 0.30 0.38 0.44
0.13 0.18 0.16 0.09 0.05 0.06 0.12 0.16 0.12 0.16 0.18 0.22 0.20 0.24 0.34 0.19 0.14 0.09 0.05 0.09 0.08 0.06 0.01 0.00 0.00 0.00 0.00 0.00 0.00 0.00 0.00 0.00 0.00 0.00 0.01 0.04 0.06 0.09 0.05 0.17 0.20 0.10 0.11 0.09 0.14 0.29 0.29
0.14 0.20 0.14 0.08 0.05 0.07 0.13 0.16 0.13 0.18 0.16 0.21 0.19 0.28 0.31 0.16 0.13 0.06 0.02 0.04 0.02 0.00 0.00 0.00 0.00 0.00 0.00 0.00 0.00 0.00 0.00 0.00 0.00 0.00 0.01 0.04 0.06 0.07 0.08 0.06 0.04 0.05 0.07 0.08 0.07 0.15 0.21
0.15 0.20 0.13 0.08 0.06 0.09 0.14 0.15 0.12 0.17 0.17 0.22 0.21 0.26 0.25 0.16 0.14 0.05 0.01 0.01 0.00 0.00 0.00 0.00 0.00 0.00 0.00 0.00 0.00 0.00 0.00 0.00 0.00 0.00 0.01 0.04 0.03 0.02 0.02 0.04 0.05 0.07 0.04 0.03 0.08 0.11 0.09
0.17 0.18 0.11 0.09 0.06 0.11 0.14 0.13 0.11 0.16 0.17 0.25 0.25 0.26 0.27 0.19 0.14 0.06 0.03 0.01 0.00 0.00 0.00 0.00 0.00 0.00 0.00 0.00 0.00 0.00 0.00 0.00 0.00 0.00 0.00 0.02 0.01 0.01 0.02 0.00 0.00 0.01 0.02 0.01 0.04 0.06 0.05
0.19 0.17 0.11 0.10 0.07 0.11 0.14 0.11 0.11 0.14 0.13 0.18 0.23 0.39 0.30 0.20 0.10 0.02 0.04 0.01 0.00 0.00 0.02 0.00 0.00 0.00 0.00 0.00 0.00 0.00 0.00 0.00 0.00 0.00 0.00 0.00 0.00 0.00 0.00 0.00 0.01 0.00 0.02 0.01 0.01 0.02 0.05
0.19 0.14 0.10 0.07 0.06 0.09 0.10 0.08 0.11 0.09 0.07 0.13 0.26 0.36 0.27 0.23 0.16 0.12 0.08 0.00 0.00 0.00 0.04 0.01 0.00 0.00 0.00 0.00 0.00 0.00 0.00 0.00 0.00 0.00 0.00 0.00 0.00 0.00 0.00 0.00 0.00 0.00 0.00 0.00 0.01 0.00 0.00
0.16 0.11 0.10 0.04 0.05 0.09 0.08 0.07 0.10 0.07 0.05 0.17 0.22 0.22 0.25 0.14 0.11 0.06 0.05 0.00 0.00 0.03 0.04 0.00 0.00 0.00 0.00 0.00 0.00 0.00 0.00 0.00 0.00 0.00 0.00 0.00 0.00 0.00 0.00 0.00 0.00 0.00 0.01 0.02 0.02 0.04 0.04
0.12 0.09 0.08 0.05 0.08 0.10 0.06 0.08 0.11 0.08 0.11 0.21 0.19 0.21 0.16 0.11 0.13 0.04 0.02 0.00 0.05 0.09 0.02 0.00 0.00 0.00 0.00 0.00 0.00 0.00 0.00 0.00 0.00 0.00 0.00 0.00 0.00 0.00 0.00 0.00 0.01 0.02 0.09 0.10 0.08 0.16 0.12
0.10 0.09 0.07 0.05 0.09 0.08 0.06 0.10 0.12 0.12 0.16 0.14 0.10 0.07 0.11 0.09 0.13 0.09 0.02 0.04 0.14 0.08 0.00 0.00 0.00 0.00 0.00 0.00 0.00 0.00 0.00 0.00 0.00 0.00 0.00 0.00 0.00 0.00 0.00 0.01 0.06 0.09 0.14 0.31 0.53 0.32 0.14
0.08 0.09 0.06 0.06 0.09 0.08 0.07 0.12 0.16 0.16 0.10 0.10 0.25 0.33 0.17 0.13 0.15 0.17 0.04 0.12 0.10 0.01 0.00 0.00 0.00 0.00 0.00 0.00 0.00 0.00 0.00 0.00 0.00 0.00 0.00 0.00 0.00 0.00 0.00 0.01 0.06 0.11 0.18 0.18 0.28 0.15 0.09
0.09 0.08 0.06 0.08 0.06 0.06 0.07 0.15 0.17 0.12 0.03 0.04 0.26 0.38 0.31 0.30 0.11 0.07 0.04 0.07 0.01 0.00 0.00 0.00 0.00 0.00 0.00 0.00 0.00 0.00 0.00 0.00 0.00 0.00 0.00 0.00 0.00 0.00 0.00 0.01 0.09 0.13 0.16 0.25 0.21 0.14 0.16
0.10 0.06 0.08 0.08 0.06 0.05 0.08 0.18 0.20 0.05 0.00 0.03 0.15 0.28 0.45 0.42 0.13 0.04 0.06 0.02 0.00 0.00 0.00 0.00 0.00 0.00 0.00 0.00 0.00 0.00 0.00 0.00 0.00 0.00 0.00 0.01 0.02 0.00 0.00 0.02 0.04 0.07 0.11 0.15 0.43 0.23 0.28
0.09 0.07 0.07 0.08 0.07 0.06 0.08 0.09 0.06 0.00 0.00 0.06 0.13 0.29 0.36 0.35 0.20 0.04 0.03 0.00 0.00 0.00 0.00 0.00 0.00 0.00 0.00 0.00 0.00 0.00 0.00 0.00 0.00 0.00 0.00 0.00 0.02 0.00 0.00 0.00 0.04 0.08 0.15 0.28 0.21 0.22 0.10
0.08 0.06 0.05 0.07 0.06 0.02 0.04 0.05 0.03 0.00 0.01 0.08 0.15 0.38 0.39 0.32 0.09 0.04 0.03 0.00 0.00 0.00 0.00 0.00 0.00 0.00 0.00 0.00 0.00 0.00 0.00 0.00 0.00 0.00 0.00 0.00 0.01 0.00 0.00 0.01 0.02 0.02 0.04 0.10 0.35 0.31 0.07
0.08 0.04 0.04 0.06 0.09 0.06 0.05 0.07 0.02 0.00 0.01 0.16 0.23 0.35 0.33 0.45 0.10 0.03 0.01 0.00 0.00 0.00 0.00 0.00 0.00 0.00 0.00 0.00 0.00 0.00 0.00 0.00 0.00 0.00 0.00 0.00 0.00 0.00 0.00 0.00 0.01 0.00 0.00 0.01 0.08 0.24 0.22
0.08 0.04 0.04 0.06 0.09 0.14 0.43 0.24 0.02 0.00 0.01 0.22 0.37 0.18 0.07 0.12 0.06 0.01 0.00 0.00 0.00 0.00 0.00 0.00 0.00 0.00 0.00 0.00 0.00 0.00 0.00 0.00 0.00 0.00 0.00 0.00 0.00 0.00 0.00 0.00 0.00 0.00 0.00 0.00 0.02 0.08 0.10
0.05 0.03 0.04 0.03 0.06 0.23 0.66 0.26 0.08 0.02 0.06 0.18 0.26 0.17 0.04 0.04 0.02 0.01 0.00 0.00 0.00 0.00 0.00 0.00 0.00 0.00 0.00 0.00 0.00 0.00 0.00 0.00 0.00 0.00 0.00 0.00 0.00 0.00 0.00 0.00 0.00 0.00 0.00 0.00 0.00 0.00 0.00
0.03 0.03 0.04 0.02 0.02 0.11 0.19 0.16 0.30 0.17 0.09 0.14 0.14 0.08 0.07 0.04 0.01 0.00 0.00 0.00 0.00 0.00 0.00 0.00 0.00 0.00 0.00 0.00 0.00 0.00 0.00 0.00 0.00 0.00 0.00 0.00 0.00 0.00 0.00 0.00 0.00 0.00 0.00 0.00 0.00 0.00 0.00
0.02 0.02 0.04 0.03 0.02 0.03 0.09 0.13 0.14 0.11 0.11 0.08 0.06 0.08 0.12 0.02 0.00 0.00 0.00 0.00 0.00 0.00 0.00 0.00 0.00 0.00 0.00 0.00 0.00 0.00 0.00 0.00 0.00 0.00 0.00 0.00 0.00 0.00 0.00 0.00 0.00 0.01 0.00 0.00 0.00 0.00 0.00
0.01 0.02 0.03 0.01 0.01 0.01 0.03 0.12 0.13 0.13 0.07 0.08 0.04 0.05 0.01 0.00 0.00 0.00 0.00 0.00 0.00 0.00 0.00 0.00 0.00 0.00 0.00 0.00 0.00 0.00 0.00 0.00 0.00 0.00 0.00 0.00 0.00 0.00 0.00 0.00 0.00 0.00 0.00 0.00 0.00 0.02 0.02
0.01 0.02 0.02 0.01 0.01 0.01 0.02 0.08 0.08 0.02 0.02 0.03 0.02 0.01 0.00 0.00 0.00 0.00 0.00 0.00 0.00 0.00 0.00 0.00 0.00 0.00 0.00 0.00 0.00 0.00 0.00 0.00 0.00 0.00 0.00 0.00 0.00 0.00 0.00 0.00 0.00 0.00 0.00 0.00 0.00 0.01 0.04
0.01 0.01 0.02 0.01 0.01 0.00 0.01 0.06 0.14 0.02 0.01 0.02 0.02 0.01 0.00 0.00 0.00 0.00 0.00 0.00 0.00 0.00 0.00 0.00 0.00 0.00 0.00 0.00 0.00 0.00 0.00 0.00 0.00 0.00 0.00 0.00 0.00 0.00 0.00 0.00 0.00 0.00 0.00 0.00 0.01 0.00 0.00
0.01 0.01 0.02 0.01 0.01 0.00 0.00 0.06 0.20 0.22 0.03 0.03 0.01 0.00 0.00 0.00 0.00 0.00 0.00 0.00 0.00 0.00 0.00 0.00 0.00 0.00 0.00 0.00 0.00 0.00 0.00 0.00 0.00 0.00 0.00 0.00 0.00 0.00 0.00 0.00 0.00 0.00 0.00 0.00 0.00 0.00 0.00
0.02 0.02 0.01 0.02 0.02 0.00 0.00 0.01 0.10 0.27 0.12 0.05 0.02 0.01 0.00 0.00 0.00 0.00 0.00 0.00 0.00 0.00 0.00 0.00 0.00 0.00 0.00 0.00 0.00 0.00 0.00 0.00 0.00 0.00 0.00 0.00 0.00 0.00 0.00 0.00 0.00 0.00 0.00 0.00 0.00 0.00 0.00

GFSGBSN_prec_precacc24_132.txt.gz
Total_Precipitation_Accumulation
0.12 0.13 0.18 0.20 0.11 0.08 0.09 0.14 0.16 0.25 0.30 0.33 0.36 0.33 0.31 0.31 0.45 0.53 0.34 0.26 0.34 0.38 0.27 0.05 0.01 0.00 0.00 0.00 0.00 0.00 0.02 0.05 0.02 0.00 0.01 0.04 0.08 0.09 0.12 0.09 0.10 0.08 0.07 0.07 0.08 0.10 0.13
0.13 0.15 0.19 0.18 0.11 0.06 0.11 0.16 0.17 0.24 0.38 0.34 0.33 0.29 0.30 0.29 0.32 0.44 0.29 0.10 0.15 0.55 0.27 0.05 0.01 0.00 0.00 0.00 0.00 0.00 0.01 0.00 0.00 0.00 0.00 0.02 0.07 0.16 0.16 0.11 0.13 0.09 0.04 0.03 0.01 0.01 0.08
0.12 0.17 0.20 0.16 0.11 0.06 0.13 0.16 0.16 0.23 0.31 0.25 0.27 0.21 0.23 0.27 0.25 0.31 0.20 0.12 0.40 0.75 0.17 0.03 0.01 0.00 0.00 0.00 0.00 0.00 0.00 0.00 0.00 0.00 0.00 0.00 0.01 0.13 0.14 0.03 0.00 0.03 0.03 0.02 0.00 0.00 0.01
0.14 0.18 0.20 0.15 0.08 0.06 0.13 0.17 0.17 0.21 0.26 0.20 0.22 0.14 0.21 0.25 0.17 0.15 0.11 0.16 0.43 0.54 0.13 0.01 0.00 0.01 0.00 0.00 0.00 0.00 0.00 0.00 0.00 0.00 0.00 0.00 0.06 0.14 0.11 0.05 0.02 0.02 0.02 0.02 0.00 0.00 0.02
0.16 0.18 0.18 0.13 0.06 0.07 0.13 0.19 0.15 0.18 0.25 0.23 0.19 0.17 0.20 0.19 0.14 0.11 0.07 0.13 0.21 0.14 0.03 0.01 0.01 0.00 0.00 0.00 0.00 0.00 0.00 0.00 0.00 0.00 0.01 0.05 0.09 0.10 0.08 0.08 0.06 0.03 0.03 0.01 0.00 0.00 0.01
0.16 0.18 0.15 0.09 0.05 0.08 0.14 0.18 0.15 0.18 0.23 0.24 0.16 0.17 0.24 0.14 0.12 0.09 0.06 0.11 0.08 0.06 0.01 0.00 0.00 0.00 0.00 0.00 0.00 0.00 0.00 0.00 0.00 0.00 0.02 0.06 0.09 0.10 0.07 0.19 0.25 0.16 0.15 0.05 0.01 0.00 0.01
0.16 0.19 0.13 0.06 0.03 0.07 0.14 0.17 0.15 0.20 0.18 0.22 0.17 0.22 0.23 0.12 0.10 0.06 0.03 0.04 0.02 0.00 0.00 0.00 0.00 0.00 0.00 0.00 0.00 0.00 0.00 0.00 0.00 0.00 0.01 0.05 0.07 0.08 0.09 0.07 0.07 0.10 0.13 0.12 0.02 0.00 0.00
0.16 0.19 0.12 0.06 0.04 0.08 0.13 0.15 0.13 0.19 0.19 0.24 0.20 0.21 0.20 0.13 0.12 0.05 0.01 0.01 0.00 0.00 0.00 0.00 0.00 0.00 0.00 0.00 0.00 0.00 0.00 0.00 0.00 0.00 0.01 0.05 0.03 0.02 0.03 0.06 0.07 0.08 0.05 0.02 0.04 0.01 0.00
0.17 0.18 0.10 0.07 0.04 0.09 0.12 0.12 0.11 0.16 0.19 0.26 0.25 0.21 0.18 0.12 0.09 0.02 0.02 0.01 0.00 0.00 0.00 0.00 0.00 0.00 0.00 0.00 0.00 0.00 0.00 0.00 0.00 0.00 0.01 0.02 0.01 0.01 0.03 0.02 0.01 0.01 0.02 0.01 0.03 0.00 0.00
0.19 0.16 0.09 0.07 0.04 0.08 0.11 0.08 0.09 0.14 0.13 0.18 0.22 0.25 0.15 0.06 0.04 0.01 0.04 0.01 0.00 0.00 0.02 0.00 0.00 0.00 0.00 0.00 0.00 0.00 0.00 0.00 0.00 0.00 0.00 0.00 0.00 0.00 0.00 0.01 0.01 0.01 0.02 0.01 0.00 0.00 0.02
0.19 0.13 0.09 0.05 0.04 0.06 0.07 0.04 0.08 0.09 0.07 0.12 0.25 0.24 0.15 0.07 0.01 0.07 0.08 0.00 0.00 0.00 0.03 0.01 0.00 0.00 0.00 0.00 0.00 0.00 0.00 0.00 0.00 0.00 0.00 0.00 0.00 0.00 0.00 0.01 0.00 0.02 0.01 0.00 0.00 0.00 0.00
0.16 0.10 0.09 0.02 0.03 0.06 0.04 0.03 0.07 0.07 0.05 0.17 0.22 0.19 0.16 0.03 0.02 0.02 0.05 0.00 0.00 0.01 0.02 0.00 0.00 0.00 0.00 0.00 0.00 0.00 0.00 0.00 0.00 0.00 0.00 0.00 0.00 0.00 0.00 0.00 0.00 0.01 0.01 0.01 0.01 0.04 0.04
0.12 0.08 0.07 0.02 0.04 0.06 0.03 0.03 0.06 0.07 0.10 0.19 0.19 0.17 0.07 0.01 0.02 0.03 0.02 0.00 0.04 0.05 0.01 0.00 0.00 0.00 0.00 0.00 0.00 0.00 0.00 0.00 0.00 0.00 0.00 0.00 0.00 0.00 0.00 0.00 0.00 0.02 0.06 0.08 0.06 0.15 0.12
0.09 0.07 0.05 0.02 0.05 0.04 0.01 0.02 0.05 0.07 0.12 0.12 0.09 0.02 0.05 0.03 0.03 0.07 0.02 0.04 0.12 0.03 0.00 0.00 0.00 0.00 0.00 0.00 0.00 0.00 0.00 0.00 0.00 0.00 0.00 0.00 0.00 0.00 0.00 0.01 0.03 0.05 0.11 0.30 0.54 0.33 0.14
0.07 0.07 0.03 0.02 0.04 0.03 0.01 0.02 0.05 0.06 0.05 0.04 0.03 0.14 0.10 0.06 0.10 0.16 0.04 0.12 0.07 0.00 0.00 0.00 0.00 0.00 0.00 0.00 0.00 0.00 0.00 0.00 0.00 0.00 0.00 0.00 0.00 0.00 0.00 0.00 0.03 0.04 0.10 0.14 0.26 0.15 0.09
0.08 0.05 0.02 0.03 0.03 0.02 0.00 0.02 0.04 0.02 0.01 0.00 0.01 0.10 0.14 0.18 0.10 0.07 0.04 0.07 0.00 0.00 0.00 0.00 0.00 0.00 0.00 0.00 0.00 0.00 0.00 0.00 0.00 0.00 0.00 0.00 0.00 0.00 0.00 0.00 0.04 0.05 0.07 0.10 0.12 0.08 0.14
0.08 0.03 0.02 0.03 0.03 0.01 0.00 0.01 0.02 0.00 0.00 0.00 0.02 0.11 0.22 0.23 0.07 0.03 0.05 0.01 0.00 0.00 0.00 0.00 0.00 0.00 0.00 0.00 0.00 0.00 0.00 0.00 0.00 0.00 0.00 0.00 0.00 0.00 0.00 0.00 0.01 0.02 0.03 0.05 0.26 0.11 0.26
0.07 0.01 0.01 0.02 0.03 0.00 0.00 0.00 0.01 0.00 0.00 0.00 0.03 0.19 0.26 0.18 0.11 0.03 0.01 0.00 0.00 0.00 0.00 0.00 0.00 0.00 0.00 0.00 0.00 0.00 0.00 0.00 0.00 0.00 0.00 0.00 0.00 0.00 0.00 0.00 0.00 0.02 0.01 0.00 0.04 0.14 0.07
0.06 0.01 0.01 0.01 0.04 0.01 0.00 0.00 0.00 0.00 0.00 0.00 0.03 0.16 0.21 0.10 0.05 0.03 0.00 0.00 0.00 0.00 0.00 0.00 0.00 0.00 0.00 0.00 0.00 0.00 0.00 0.00 0.00 0.00 0.00 0.00 0.00 0.00 0.00 0.01 0.01 0.00 0.00 0.00 0.00 0.01 0.04
0.05 0.00 0.00 0.01 0.04 0.03 0.00 0.00 0.01 0.00 0.00 0.00 0.01 0.08 0.06 0.09 0.05 0.02 0.00 0.00 0.00 0.00 0.00 0.00 0.00 0.00 0.00 0.00 0.00 0.00 0.00 0.00 0.00 0.00 0.00 0.00 0.00 0.00 0.00 0.00 0.00 0.00 0.00 0.00 0.00 0.01 0.01
0.05 0.00 0.00 0.01 0.03 0.04 0.01 0.01 0.00 0.00 0.00 0.00 0.00 0.02 0.02 0.02 0.02 0.01 0.00 0.00 0.00 0.00 0.00 0.00 0.00 0.00 0.00 0.00 0.00 0.00 0.00 0.00 0.00 0.00 0.00 0.00 0.00 0.00 0.00 0.00 0.00 0.00 0.00 0.00 0.00 0.00 0.00
0.03 0.00 0.00 0.00 0.01 0.03 0.01 0.04 0.01 0.00 0.00 0.00 0.00 0.04 0.02 0.03 0.00 0.00 0.00 0.00 0.00 0.00 0.00 0.00 0.00 0.00 0.00 0.00 0.00 0.00 0.00 0.00 0.00 0.00 0.00 0.00 0.00 0.00 0.00 0.00 0.00 0.00 0.00 0.00 0.00 0.00 0.00
0.03 0.00 0.00 0.00 0.00 0.01 0.01 0.02 0.00 0.00 0.01 0.00 0.00 0.00 0.01 0.01 0.01 0.00 0.00 0.00 0.00 0.00 0.00 0.00 0.00 0.00 0.00 0.00 0.00 0.00 0.00 0.00 0.00 0.00 0.00 0.00 0.00 0.00 0.00 0.00 0.00 0.00 0.00 0.00 0.00 0.00 0.00
0.03 0.01 0.01 0.01 0.01 0.00 0.00 0.01 0.01 0.01 0.01 0.01 0.00 0.00 0.02 0.01 0.00 0.00 0.00 0.00 0.00 0.00 0.00 0.00 0.00 0.00 0.00 0.00 0.00 0.00 0.00 0.00 0.00 0.00 0.00 0.00 0.00 0.00 0.00 0.00 0.00 0.00 0.00 0.00 0.00 0.00 0.00
0.02 0.02 0.01 0.02 0.02 0.00 0.00 0.01 0.00 0.01 0.01 0.02 0.01 0.00 0.00 0.00 0.00 0.00 0.00 0.00 0.00 0.00 0.00 0.00 0.00 0.00 0.00 0.00 0.00 0.00 0.00 0.00 0.00 0.00 0.00 0.00 0.00 0.00 0.00 0.00 0.00 0.00 0.00 0.00 0.00 0.00 0.00
0.02 0.02 0.02 0.02 0.02 0.02 0.01 0.01 0.00 0.00 0.01 0.02 0.01 0.00 0.00 0.00 0.00 0.00 0.00 0.00 0.00 0.00 0.00 0.00 0.00 0.00 0.00 0.00 0.00 0.00 0.00 0.00 0.00 0.00 0.00 0.00 0.00 0.00 0.00 0.00 0.00 0.00 0.00 0.00 0.00 0.00 0.00
0.02 0.02 0.02 0.02 0.03 0.03 0.03 0.02 0.01 0.01 0.01 0.01 0.01 0.01 0.00 0.00 0.00 0.00 0.00 0.00 0.00 0.00 0.00 0.00 0.00 0.00 0.00 0.00 0.00 0.00 0.00 0.00 0.00 0.00 0.00 0.00 0.00 0.00 0.00 0.00 0.00 0.00 0.00 0.00 0.00 0.00 0.00
0.02 0.02 0.03 0.04 0.03 0.04 0.04 0.05 0.04 0.04 0.03 0.02 0.01 0.00 0.00 0.00 0.00 0.00 0.00 0.00 0.00 0.00 0.00 0.00 0.00 0.00 0.00 0.00 0.00 0.00 0.00 0.00 0.00 0.00 0.00 0.00 0.00 0.00 0.00 0.00 0.00 0.00 0.00 0.00 0.00 0.00 0.00
0.02 0.02 0.03 0.06 0.05 0.04 0.04 0.06 0.07 0.11 0.10 0.07 0.02 0.01 0.00 0.00 0.00 0.00 0.00 0.00 0.00 0.00 0.00 0.00 0.00 0.00 0.00 0.00 0.00 0.00 0.00 0.00 0.00 0.00 0.00 0.00 0.00 0.00 0.00 0.00 0.00 0.00 0.00 0.00 0.00 0.00 0.00

GFSGBSN_prec_precacc24_135.txt.gz
Total_Precipitation_Accumulation
0.13 0.13 0.18 0.20 0.13 0.10 0.11 0.16 0.17 0.26 0.32 0.34 0.37 0.36 0.32 0.30 0.44 0.53 0.35 0.26 0.34 0.45 0.28 0.05 0.01 0.00 0.00 0.00 0.00 0.00 0.04 0.13 0.03 0.00 0.00 0.02 0.02 0.04 0.04 0.05 0.08 0.05 0.02 0.03 0.04 0.04 0.02
0.13 0.15 0.19 0.18 0.13 0.08 0.12 0.17 0.17 0.24 0.39 0.36 0.34 0.30 0.30 0.27 0.31 0.44 0.30 0.10 0.19 0.68 0.28 0.05 0.01 0.00 0.00 0.00 0.00 0.00 0.03 0.01 0.00 0.00 0.00 0.00 0.03 0.10 0.08 0.08 0.10 0.07 0.03 0.02 0.01 0.00 0.00
0.12 0.16 0.19 0.16 0.12 0.07 0.13 0.16 0.16 0.23 0.31 0.26 0.28 0.22 0.23 0.24 0.23 0.32 0.26 0.26 0.56 0.82 0.17 0.03 0.01 0.00 0.00 0.00 0.00 0.00 0.00 0.00 0.00 0.00 0.00 0.00 0.01 0.08 0.10 0.03 0.00 0.02 0.03 0.02 0.00 0.00 0.01
0.13 0.17 0.19 0.14 0.08 0.07 0.13 0.17 0.17 0.21 0.26 0.20 0.24 0.15 0.22 0.23 0.14 0.19 0.20 0.26 0.47 0.55 0.13 0.01 0.00 0.01 0.00 0.00 0.00 0.00 0.00 0.00 0.00 0.00 0.00 0.00 0.05 0.09 0.09 0.04 0.02 0.01 0.02 0.02 0.00 0.00 0.00
0.15 0.16 0.17 0.11 0.05 0.06 0.12 0.18 0.15 0.18 0.25 0.23 0.19 0.18 0.23 0.19 0.11 0.11 0.08 0.13 0.21 0.14 0.03 0.01 0.01 0.00 0.00 0.00 0.00 0.00 0.00 0.00 0.00 0.00 0.01 0.04 0.08 0.08 0.07 0.08 0.06 0.04 0.04 0.02 0.00 0.00 0.00
0.15 0.17 0.14 0.08 0.03 0.06 0.12 0.16 0.13 0.18 0.23 0.24 0.16 0.17 0.25 0.14 0.11 0.08 0.06 0.11 0.08 0.06 0.01 0.00 0.00 0.00 0.00 0.00 0.00 0.00 0.00 0.00 0.00 0.00 0.03 0.07 0.11 0.09 0.09 0.19 0.24 0.19 0.16 0.05 0.01 0.00 0.00
0.15 0.18 0.12 0.05 0.02 0.06 0.12 0.14 0.11 0.18 0.18 0.22 0.17 0.22 0.23 0.12 0.10 0.05 0.03 0.04 0.02 0.00 0.00 0.00 0.00 0.00 0.00 0.00 0.00 0.00 0.00 0.00 0.00 0.00 0.01 0.06 0.07 0.07 0.09 0.08 0.08 0.12 0.14 0.12 0.02 0.00 0.00
0.16 0.18 0.11 0.05 0.03 0.07 0.11 0.12 0.10 0.17 0.18 0.22 0.19 0.21 0.20 0.11 0.10 0.04 0.01 0.01 0.00 0.00 0.00 0.00 0.00 0.00 0.00 0.00 0.00 0.00 0.00 0.00 0.00 0.00 0.02 0.06 0.03 0.02 0.03 0.07 0.09 0.10 0.05 0.02 0.04 0.01 0.00
0.17 0.17 0.09 0.06 0.02 0.07 0.11 0.10 0.09 0.14 0.18 0.23 0.22 0.21 0.17 0.09 0.05 0.00 0.02 0.01 0.00 0.00 0.00 0.00 0.00 0.00 0.00 0.00 0.00 0.00 0.00 0.00 0.00 0.00 0.01 0.02 0.00 0.01 0.03 0.03 0.02 0.02 0.03 0.02 0.03 0.00 0.00
0.18 0.15 0.09 0.06 0.03 0.06 0.10 0.06 0.07 0.12 0.12 0.17 0.19 0.23 0.15 0.06 0.03 0.01 0.04 0.01 0.00 0.00 0.02 0.00 0.00 0.00 0.00 0.00 0.00 0.00 0.00 0.00 0.00 0.00 0.00 0.00 0.00 0.00 0.00 0.01 0.01 0.02 0.03 0.01 0.00 0.00 0.01
0.19 0.13 0.08 0.04 0.02 0.06 0.06 0.02 0.06 0.08 0.07 0.11 0.20 0.20 0.15 0.07 0.00 0.05 0.07 0.00 0.00 0.00 0.02 0.01 0.00 0.00 0.00 0.00 0.00 0.00 0.00 0.00 0.00 0.00 0.00 0.00 0.00 0.00 0.00 0.01 0.00 0.02 0.01 0.00 0.00 0.00 0.00
0.16 0.10 0.08 0.01 0.02 0.05 0.03 0.01 0.05 0.06 0.04 0.12 0.13 0.15 0.16 0.03 0.01 0.01 0.04 0.00 0.00 0.01 0.02 0.00 0.00 0.00 0.00 0.00 0.00 0.00 0.00 0.00 0.00 0.00 0.00 0.00 0.00 0.00 0.00 0.00 0.00 0.01 0.01 0.00 0.00 0.03 0.05
0.12 0.08 0.06 0.01 0.03 0.04 0.02 0.02 0.04 0.05 0.04 0.08 0.10 0.15 0.07 0.00 0.01 0.02 0.02 0.00 0.04 0.05 0.00 0.00 0.00 0.00 0.00 0.00 0.00 0.00 0.00 0.00 0.00 0.00 0.00 0.00 0.00 0.00 0.00 0.00 0.00 0.01 0.04 0.08 0.06 0.16 0.13
0.09 0.07 0.04 0.01 0.03 0.03 0.01 0.02 0.03 0.03 0.03 0.04 0.06 0.01 0.03 0.02 0.00 0.02 0.02 0.04 0.12 0.03 0.00 0.00 0.00 0.00 0.00 0.00 0.00 0.00 0.00 0.00 0.00 0.00 0.00 0.00 0.00 0.00 0.00 0.00 0.01 0.02 0.06 0.26 0.52 0.32 0.14
0.07 0.07 0.02 0.01 0.02 0.03 0.01 0.01 0.03 0.01 0.00 0.02 0.03 0.03 0.05 0.04 0.01 0.05 0.03 0.11 0.07 0.00 0.00 0.00 0.00 0.00 0.00 0.00 0.00 0.00 0.00 0.00 0.00 0.00 0.00 0.00 0.00 0.00 0.00 0.00 0.01 0.01 0.04 0.08 0.22 0.14 0.09
0.08 0.05 0.01 0.01 0.01 0.01 0.00 0.00 0.02 0.00 0.00 0.00 0.01 0.01 0.10 0.12 0.05 0.04 0.03 0.07 0.00 0.00 0.00 0.00 0.00 0.00 0.00 0.00 0.00 0.00 0.00 0.00 0.00 0.00 0.00 0.00 0.00 0.00 0.00 0.00 0.02 0.03 0.02 0.03 0.05 0.03 0.12
0.08 0.02 0.01 0.01 0.01 0.01 0.00 0.00 0.00 0.00 0.00 0.00 0.01 0.03 0.11 0.10 0.02 0.02 0.04 0.01 0.00 0.00 0.00 0.00 0.00 0.00 0.00 0.00 0.00 0.00 0.00 0.00 0.00 0.00 0.00 0.00 0.00 0.00 0.00 0.00 0.00 0.01 0.01 0.00 0.06 0.02 0.22
0.07 0.01 0.01 0.00 0.00 0.00 0.00 0.00 0.00 0.00 0.00 0.00 0.02 0.10 0.09 0.06 0.05 0.01 0.01 0.00 0.00 0.00 0.00 0.00 0.00 0.00 0.00 0.00 0.00 0.00 0.00 0.00 0.00 0.00 0.00 0.00 0.00 0.00 0.00 0.00 0.00 0.00 0.00 0.00 0.00 0.03 0.05
0.05 0.01 0.00 0.00 0.00 0.00 0.00 0.00 0.00 0.00 0.00 0.00 0.02 0.09 0.12 0.03 0.02 0.02 0.00 0.00 0.00 0.00 0.00 0.00 0.00 0.00 0.00 0.00 0.00 0.00 0.00 0.00 0.00 0.00 0.00 0.00 0.00 0.00 0.00 0.00 0.00 0.00 0.00 0.00 0.00 0.00 0.01
0.04 0.00 0.00 0.00 0.00 0.00 0.00 0.00 0.00 0.00 0.00 0.00 0.00 0.01 0.02 0.02 0.01 0.01 0.00 0.00 0.00 0.00 0.00 0.00 0.00 0.00 0.00 0.00 0.00 0.00 0.00 0.00 0.00 0.00 0.00 0.00 0.00 0.00 0.00 0.00 0.00 0.00 0.00 0.00 0.00 0.00 0.00
0.04 0.00 0.00 0.00 0.00 0.00 0.00 0.00 0.00 0.00 0.00 0.00 0.00 0.00 0.01 0.01 0.00 0.00 0.00 0.00 0.00 0.00 0.00 0.00 0.00 0.00 0.00 0.00 0.00 0.00 0.00 0.00 0.00 0.00 0.00 0.00 0.00 0.00 0.00 0.00 0.00 0.00 0.00 0.00 0.00 0.00 0.00
0.02 0.00 0.00 0.00 0.00 0.00 0.00 0.00 0.00 0.00 0.00 0.00 0.00 0.00 0.00 0.00 0.00 0.00 0.00 0.00 0.00 0.00 0.00 0.00 0.00 0.00 0.00 0.00 0.00 0.00 0.00 0.00 0.00 0.00 0.00 0.00 0.00 0.00 0.00 0.00 0.00 0.00 0.00 0.00 0.00 0.00 0.00
0.03 0.00 0.00 0.00 0.00 0.00 0.00 0.00 0.00 0.00 0.00 0.00 0.00 0.00 0.00 0.00 0.00 0.00 0.00 0.00 0.00 0.00 0.00 0.00 0.00 0.00 0.00 0.00 0.00 0.00 0.00 0.00 0.00 0.00 0.00 0.00 0.00 0.00 0.00 0.00 0.00 0.00 0.00 0.00 0.00 0.00 0.00
0.03 0.01 0.01 0.01 0.01 0.01 0.01 0.01 0.00 0.00 0.00 0.00 0.00 0.00 0.00 0.00 0.00 0.00 0.00 0.00 0.00 0.00 0.00 0.00 0.00 0.00 0.00 0.00 0.00 0.00 0.00 0.00 0.00 0.00 0.00 0.00 0.00 0.00 0.00 0.00 0.00 0.00 0.00 0.00 0.00 0.00 0.00
0.02 0.02 0.01 0.02 0.02 0.02 0.03 0.03 0.01 0.01 0.00 0.01 0.01 0.00 0.00 0.00 0.00 0.00 0.00 0.00 0.00 0.00 0.00 0.00 0.00 0.00 0.00 0.00 0.00 0.00 0.00 0.00 0.00 0.00 0.00 0.00 0.00 0.00 0.00 0.00 0.00 0.00 0.00 0.00 0.00 0.00 0.00
0.02 0.02 0.02 0.02 0.02 0.03 0.03 0.04 0.03 0.03 0.02 0.01 0.01 0.00 0.00 0.00 0.00 0.00 0.00 0.00 0.00 0.00 0.00 0.00 0.00 0.00 0.00 0.00 0.00 0.00 0.00 0.00 0.00 0.00 0.00 0.00 0.00 0.00 0.00 0.00 0.00 0.00 0.00 0.00 0.00 0.00 0.00
0.02 0.02 0.03 0.02 0.03 0.03 0.04 0.05 0.05 0.03 0.04 0.02 0.01 0.01 0.00 0.00 0.00 0.00 0.00 0.00 0.00 0.00 0.00 0.00 0.00 0.00 0.00 0.00 0.00 0.00 0.00 0.00 0.00 0.00 0.00 0.00 0.00 0.00 0.00 0.00 0.00 0.00 0.00 0.00 0.00 0.00 0.00
0.02 0.02 0.04 0.04 0.04 0.04 0.04 0.06 0.07 0.07 0.07 0.06 0.02 0.01 0.01 0.00 0.00 0.00 0.00 0.00 0.00 0.00 0.00 0.00 0.00 0.00 0.00 0.00 0.00 0.00 0.00 0.00 0.00 0.00 0.00 0.00 0.00 0.00 0.00 0.00 0.00 0.00 0.00 0.00 0.00 0.00 0.00
0.03 0.02 0.04 0.06 0.05 0.05 0.05 0.07 0.09 0.12 0.12 0.12 0.05 0.02 0.04 0.02 0.00 0.00 0.00 0.00 0.00 0.00 0.00 0.00 0.00 0.00 0.00 0.00 0.00 0.00 0.00 0.00 0.00 0.00 0.00 0.00 0.00 0.00 0.00 0.00 0.00 0.00 0.00 0.00 0.00 0.00 0.00

GFSGBSN_prec_precacc24_138.txt.gz
Total_Precipitation_Accumulation
0.12 0.14 0.18 0.21 0.14 0.11 0.12 0.16 0.18 0.27 0.32 0.36 0.40 0.37 0.33 0.30 0.43 0.49 0.33 0.25 0.35 0.53 0.30 0.05 0.01 0.00 0.00 0.00 0.00 0.00 0.05 0.14 0.03 0.00 0.00 0.00 0.01 0.02 0.01 0.00 0.02 0.02 0.00 0.00 0.00 0.00 0.01
0.12 0.15 0.19 0.18 0.13 0.08 0.12 0.17 0.17 0.24 0.39 0.37 0.35 0.31 0.30 0.28 0.30 0.38 0.25 0.11 0.25 0.72 0.28 0.04 0.01 0.00 0.00 0.00 0.00 0.01 0.03 0.01 0.00 0.00 0.00 0.00 0.02 0.07 0.04 0.03 0.04 0.01 0.01 0.00 0.00 0.00 0.00
0.11 0.16 0.20 0.16 0.11 0.06 0.13 0.16 0.16 0.23 0.32 0.26 0.29 0.22 0.23 0.26 0.26 0.32 0.25 0.30 0.59 0.82 0.17 0.03 0.01 0.00 0.00 0.00 0.00 0.00 0.00 0.00 0.00 0.00 0.00 0.00 0.00 0.07 0.06 0.01 0.00 0.00 0.01 0.00 0.00 0.00 0.01
0.13 0.16 0.19 0.14 0.08 0.06 0.12 0.16 0.16 0.21 0.26 0.20 0.24 0.16 0.22 0.25 0.21 0.22 0.19 0.21 0.47 0.55 0.13 0.01 0.00 0.00 0.00 0.00 0.00 0.00 0.00 0.00 0.00 0.00 0.00 0.00 0.05 0.06 0.06 0.02 0.01 0.01 0.01 0.01 0.00 0.00 0.00
0.15 0.16 0.17 0.11 0.04 0.06 0.11 0.16 0.13 0.16 0.23 0.21 0.19 0.18 0.23 0.19 0.12 0.13 0.07 0.10 0.20 0.14 0.03 0.01 0.00 0.00 0.00 0.00 0.00 0.00 0.00 0.00 0.00 0.00 0.01 0.04 0.08 0.06 0.06 0.07 0.04 0.04 0.04 0.02 0.00 0.00 0.00
0.14 0.16 0.14 0.07 0.03 0.06 0.11 0.15 0.12 0.16 0.20 0.21 0.14 0.17 0.25 0.14 0.11 0.08 0.05 0.10 0.08 0.06 0.01 0.00 0.00 0.00 0.00 0.00 0.00 0.00 0.00 0.00 0.00 0.00 0.03 0.07 0.11 0.08 0.09 0.17 0.19 0.18 0.16 0.06 0.01 0.00 0.00
0.14 0.18 0.12 0.05 0.02 0.05 0.11 0.13 0.10 0.17 0.16 0.20 0.14 0.18 0.22 0.12 0.09 0.03 0.02 0.04 0.02 0.00 0.00 0.00 0.00 0.00 0.00 0.00 0.00 0.00 0.00 0.00 0.00 0.00 0.01 0.05 0.07 0.04 0.04 0.08 0.09 0.12 0.14 0.13 0.02 0.00 0.00
0.15 0.18 0.10 0.04 0.01 0.05 0.10 0.11 0.09 0.16 0.16 0.21 0.15 0.16 0.17 0.11 0.08 0.01 0.00 0.00 0.00 0.00 0.00 0.00 0.00 0.00 0.00 0.00 0.00 0.00 0.00 0.00 0.00 0.00 0.01 0.06 0.04 0.02 0.03 0.07 0.09 0.10 0.06 0.02 0.04 0.01 0.00
0.16 0.16 0.09 0.05 0.01 0.05 0.08 0.07 0.06 0.13 0.16 0.21 0.17 0.15 0.13 0.09 0.05 0.00 0.01 0.01 0.00 0.00 0.00 0.00 0.00 0.00 0.00 0.00 0.00 0.00 0.00 0.00 0.00 0.00 0.01 0.02 0.00 0.01 0.03 0.02 0.02 0.02 0.04 0.02 0.03 0.00 0.00
0.18 0.15 0.08 0.05 0.01 0.05 0.07 0.04 0.05 0.11 0.11 0.15 0.12 0.13 0.09 0.05 0.03 0.01 0.04 0.01 0.00 0.00 0.01 0.00 0.00 0.00 0.00 0.00 0.00 0.00 0.00 0.00 0.00 0.00 0.00 0.00 0.00 0.00 0.00 0.01 0.02 0.03 0.03 0.01 0.00 0.00 0.00
0.18 0.13 0.08 0.03 0.02 0.04 0.04 0.02 0.05 0.07 0.05 0.07 0.11 0.10 0.09 0.06 0.00 0.05 0.06 0.00 0.00 0.00 0.02 0.01 0.00 0.00 0.00 0.00 0.00 0.00 0.00 0.00 0.00 0.00 0.00 0.00 0.00 0.00 0.00 0.01 0.00 0.03 0.01 0.00 0.00 0.00 0.00
0.15 0.10 0.08 0.01 0.01 0.03 0.02 0.01 0.04 0.04 0.02 0.05 0.04 0.03 0.07 0.03 0.01 0.01 0.02 0.00 0.00 0.00 0.01 0.00 0.00 0.00 0.00 0.00 0.00 0.00 0.00 0.00 0.00 0.00 0.00 0.00 0.00 0.00 0.00 0.00 0.00 0.02 0.01 0.00 0.00 0.03 0.05
0.12 0.08 0.06 0.01 0.02 0.02 0.01 0.01 0.02 0.02 0.00 0.02 0.02 0.01 0.01 0.00 0.01 0.00 0.00 0.00 0.02 0.02 0.00 0.00 0.00 0.00 0.00 0.00 0.00 0.00 0.00 0.00 0.00 0.00 0.00 0.00 0.00 0.00 0.00 0.00 0.00 0.00 0.03 0.10 0.06 0.16 0.15
0.09 0.07 0.04 0.01 0.01 0.02 0.01 0.00 0.01 0.01 0.00 0.02 0.03 0.00 0.02 0.01 0.00 0.01 0.01 0.03 0.06 0.02 0.00 0.00 0.00 0.00 0.00 0.00 0.00 0.00 0.00 0.00 0.00 0.00 0.00 0.00 0.00 0.00 0.00 0.00 0.00 0.00 0.02 0.21 0.40 0.28 0.12
0.06 0.06 0.02 0.00 0.01 0.01 0.00 0.00 0.00 0.00 0.00 0.02 0.03 0.00 0.01 0.01 0.00 0.00 0.02 0.07 0.03 0.00 0.00 0.00 0.00 0.00 0.00 0.00 0.00 0.00 0.00 0.00 0.00 0.00 0.00 0.00 0.00 0.00 0.00 0.00 0.01 0.00 0.02 0.05 0.17 0.13 0.09
0.04 0.04 0.01 0.00 0.00 0.00 0.00 0.00 0.00 0.00 0.00 0.00 0.00 0.00 0.03 0.01 0.00 0.01 0.02 0.03 0.00 0.00 0.00 0.00 0.00 0.00 0.00 0.00 0.00 0.00 0.00 0.00 0.00 0.00 0.00 0.00 0.00 0.00 0.00 0.00 0.00 0.00 0.00 0.00 0.01 0.01 0.11
0.03 0.02 0.01 0.00 0.00 0.00 0.00 0.00 0.00 0.00 0.00 0.00 0.00 0.01 0.05 0.01 0.00 0.01 0.02 0.00 0.00 0.00 0.00 0.00 0.00 0.00 0.00 0.00 0.00 0.00 0.00 0.00 0.00 0.00 0.00 0.00 0.00 0.00 0.00 0.00 0.00 0.00 0.00 0.00 0.00 0.00 0.12
0.03 0.01 0.01 0.00 0.00 0.00 0.00 0.00 0.00 0.00 0.00 0.00 0.00 0.01 0.01 0.02 0.00 0.00 0.00 0.00 0.00 0.00 0.00 0.00 0.00 0.00 0.00 0.00 0.00 0.00 0.00 0.00 0.00 0.00 0.00 0.00 0.00 0.00 0.00 0.00 0.00 0.00 0.00 0.00 0.00 0.00 0.03
0.02 0.00 0.00 0.00 0.00 0.00 0.00 0.00 0.00 0.00 0.00 0.00 0.00 0.01 0.00 0.00 0.00 0.00 0.00 0.00 0.00 0.00 0.00 0.00 0.00 0.00 0.00 0.00 0.00 0.00 0.00 0.00 0.00 0.00 0.00 0.00 0.00 0.00 0.00 0.00 0.00 0.00 0.00 0.00 0.00 0.00 0.00
0.01 0.00 0.00 0.00 0.00 0.00 0.00 0.00 0.00 0.00 0.00 0.00 0.00 0.00 0.00 0.00 0.00 0.00 0.00 0.00 0.00 0.00 0.00 0.00 0.00 0.00 0.00 0.00 0.00 0.00 0.00 0.00 0.00 0.00 0.00 0.00 0.00 0.00 0.00 0.00 0.00 0.00 0.00 0.00 0.00 0.00 0.00
0.01 0.00 0.00 0.00 0.00 0.00 0.00 0.00 0.00 0.00 0.00 0.00 0.00 0.00 0.00 0.00 0.00 0.00 0.00 0.00 0.00 0.00 0.00 0.00 0.00 0.00 0.00 0.00 0.00 0.00 0.00 0.00 0.00 0.00 0.00 0.00 0.00 0.00 0.00 0.00 0.00 0.00 0.00 0.00 0.00 0.00 0.00
0.01 0.00 0.00 0.00 0.00 0.00 0.00 0.00 0.00 0.00 0.00 0.00 0.00 0.00 0.00 0.00 0.00 0.00 0.00 0.00 0.00 0.00 0.00 0.00 0.00 0.00 0.00 0.00 0.00 0.00 0.00 0.00 0.00 0.00 0.00 0.00 0.00 0.00 0.00 0.00 0.00 0.00 0.00 0.00 0.00 0.00 0.00
0.02 0.00 0.00 0.00 0.00 0.00 0.00 0.01 0.00 0.00 0.00 0.00 0.00 0.00 0.00 0.00 0.00 0.00 0.00 0.00 0.00 0.00 0.00 0.00 0.00 0.00 0.00 0.00 0.00 0.00 0.00 0.00 0.00 0.00 0.00 0.00 0.00 0.00 0.00 0.00 0.00 0.00 0.00 0.00 0.00 0.00 0.00
0.02 0.01 0.01 0.01 0.01 0.01 0.02 0.03 0.02 0.01 0.01 0.00 0.00 0.00 0.00 0.00 0.00 0.00 0.00 0.00 0.00 0.00 0.00 0.00 0.00 0.00 0.00 0.00 0.00 0.00 0.00 0.00 0.00 0.00 0.00 0.00 0.00 0.00 0.00 0.00 0.00 0.00 0.00 0.00 0.00 0.00 0.00
0.01 0.02 0.01 0.02 0.02 0.02 0.03 0.04 0.04 0.02 0.03 0.01 0.01 0.00 0.00 0.00 0.00 0.00 0.00 0.00 0.00 0.00 0.00 0.00 0.00 0.00 0.00 0.00 0.00 0.00 0.00 0.00 0.00 0.00 0.00 0.00 0.00 0.00 0.00 0.00 0.00 0.00 0.00 0.00 0.00 0.00 0.00
0.02 0.02 0.02 0.02 0.02 0.03 0.03 0.04 0.05 0.05 0.05 0.02 0.01 0.01 0.00 0.00 0.00 0.00 0.00 0.00 0.00 0.00 0.00 0.00 0.00 0.00 0.00 0.00 0.00 0.00 0.00 0.00 0.00 0.00 0.00 0.00 0.00 0.00 0.00 0.00 0.00 0.00 0.00 0.00 0.00 0.00 0.00
0.04 0.03 0.03 0.02 0.03 0.03 0.04 0.05 0.06 0.06 0.08 0.04 0.01 0.02 0.02 0.01 0.00 0.00 0.00 0.00 0.00 0.00 0.00 0.00 0.00 0.00 0.00 0.00 0.00 0.00 0.00 0.00 0.00 0.00 0.00 0.00 0.00 0.00 0.00 0.00 0.00 0.00 0.00 0.00 0.00 0.00 0.00
0.04 0.03 0.04 0.04 0.04 0.04 0.05 0.06 0.07 0.10 0.13 0.10 0.03 0.03 0.04 0.02 0.00 0.00 0.00 0.00 0.00 0.00 0.00 0.00 0.00 0.00 0.00 0.00 0.00 0.00 0.00 0.00 0.00 0.00 0.00 0.00 0.00 0.00 0.00 0.00 0.00 0.00 0.00 0.00 0.00 0.00 0.00
0.02 0.02 0.04 0.06 0.05 0.05 0.05 0.07 0.09 0.14 0.20 0.19 0.07 0.02 0.08 0.07 0.01 0.00 0.00 0.00 0.00 0.00 0.00 0.00 0.00 0.00 0.00 0.00 0.00 0.00 0.00 0.00 0.00 0.00 0.00 0.00 0.00 0.00 0.00 0.00 0.00 0.00 0.00 0.00 0.00 0.00 0.00

GFSGBSN_prec_precacc24_141.txt.gz
Total_Precipitation_Accumulation
0.12 0.13 0.19 0.21 0.14 0.10 0.12 0.16 0.18 0.28 0.33 0.36 0.40 0.37 0.33 0.31 0.44 0.49 0.24 0.18 0.40 0.53 0.29 0.04 0.00 0.00 0.00 0.00 0.00 0.00 0.05 0.14 0.03 0.00 0.00 0.00 0.00 0.01 0.00 0.00 0.00 0.00 0.00 0.00 0.00 0.00 0.00
0.12 0.15 0.19 0.17 0.12 0.08 0.12 0.17 0.16 0.25 0.41 0.39 0.36 0.31 0.31 0.29 0.31 0.39 0.24 0.11 0.22 0.71 0.28 0.04 0.00 0.00 0.00 0.00 0.00 0.01 0.03 0.01 0.00 0.00 0.00 0.00 0.01 0.06 0.03 0.03 0.03 0.00 0.00 0.00 0.00 0.00 0.00
0.11 0.16 0.20 0.16 0.10 0.06 0.12 0.15 0.15 0.23 0.31 0.26 0.30 0.24 0.25 0.30 0.29 0.34 0.26 0.27 0.54 0.81 0.17 0.02 0.00 0.00 0.00 0.00 0.00 0.00 0.00 0.00 0.00 0.00 0.00 0.00 0.00 0.07 0.06 0.01 0.00 0.00 0.00 0.00 0.00 0.00 0.00
0.12 0.15 0.18 0.13 0.07 0.05 0.11 0.15 0.15 0.20 0.25 0.19 0.22 0.15 0.21 0.26 0.21 0.22 0.19 0.20 0.42 0.52 0.13 0.01 0.00 0.00 0.00 0.00 0.00 0.00 0.00 0.00 0.00 0.00 0.00 0.00 0.05 0.06 0.06 0.02 0.01 0.01 0.01 0.01 0.00 0.00 0.00
0.14 0.14 0.16 0.11 0.04 0.05 0.10 0.16 0.12 0.16 0.23 0.20 0.16 0.17 0.21 0.18 0.12 0.13 0.07 0.10 0.19 0.13 0.03 0.01 0.00 0.00 0.00 0.00 0.00 0.00 0.00 0.00 0.00 0.00 0.01 0.04 0.08 0.06 0.05 0.06 0.04 0.04 0.04 0.02 0.00 0.00 0.00
0.13 0.15 0.13 0.07 0.02 0.05 0.10 0.14 0.11 0.14 0.19 0.19 0.13 0.15 0.21 0.12 0.11 0.08 0.04 0.10 0.08 0.06 0.01 0.00 0.00 0.00 0.00 0.00 0.00 0.00 0.00 0.00 0.00 0.00 0.03 0.08 0.11 0.08 0.08 0.16 0.18 0.14 0.12 0.04 0.01 0.00 0.00
0.13 0.17 0.11 0.04 0.01 0.04 0.10 0.12 0.08 0.15 0.15 0.19 0.13 0.15 0.16 0.09 0.09 0.02 0.02 0.04 0.02 0.00 0.00 0.00 0.00 0.00 0.00 0.00 0.00 0.00 0.00 0.00 0.00 0.00 0.01 0.06 0.07 0.04 0.03 0.05 0.08 0.12 0.14 0.13 0.02 0.00 0.00
0.15 0.17 0.09 0.04 0.01 0.04 0.09 0.08 0.07 0.15 0.15 0.19 0.13 0.10 0.09 0.09 0.08 0.00 0.00 0.00 0.00 0.00 0.00 0.00 0.00 0.00 0.00 0.00 0.00 0.00 0.00 0.00 0.00 0.00 0.01 0.05 0.04 0.02 0.02 0.06 0.09 0.10 0.06 0.01 0.01 0.00 0.00
0.16 0.16 0.08 0.05 0.00 0.04 0.05 0.04 0.06 0.11 0.13 0.17 0.14 0.07 0.04 0.05 0.04 0.00 0.01 0.01 0.00 0.00 0.00 0.00 0.00 0.00 0.00 0.00 0.00 0.00 0.00 0.00 0.00 0.00 0.01 0.02 0.00 0.01 0.03 0.02 0.02 0.02 0.04 0.02 0.01 0.00 0.00
0.17 0.14 0.07 0.05 0.01 0.02 0.03 0.02 0.04 0.07 0.07 0.11 0.08 0.06 0.04 0.03 0.02 0.01 0.04 0.01 0.00 0.00 0.00 0.00 0.00 0.00 0.00 0.00 0.00 0.00 0.00 0.00 0.00 0.00 0.00 0.00 0.00 0.00 0.00 0.01 0.02 0.03 0.03 0.01 0.00 0.00 0.00
0.17 0.12 0.07 0.03 0.01 0.01 0.01 0.01 0.02 0.04 0.02 0.04 0.05 0.04 0.03 0.01 0.00 0.03 0.03 0.00 0.00 0.00 0.01 0.01 0.00 0.00 0.00 0.00 0.00 0.00 0.00 0.00 0.00 0.00 0.00 0.00 0.00 0.00 0.00 0.01 0.00 0.03 0.01 0.00 0.00 0.00 0.00
0.12 0.09 0.06 0.01 0.00 0.00 0.01 0.01 0.01 0.01 0.00 0.03 0.02 0.01 0.01 0.00 0.00 0.00 0.00 0.00 0.00 0.00 0.00 0.00 0.00 0.00 0.00 0.00 0.00 0.00 0.00 0.00 0.00 0.00 0.00 0.00 0.00 0.00 0.00 0.00 0.00 0.02 0.01 0.00 0.00 0.03 0.05
0.07 0.07 0.04 0.00 0.00 0.00 0.00 0.00 0.00 0.00 0.00 0.01 0.01 0.00 0.00 0.00 0.00 0.00 0.00 0.00 0.00 0.00 0.00 0.00 0.00 0.00 0.00 0.00 0.00 0.00 0.00 0.00 0.00 0.00 0.00 0.00 0.00 0.00 0.00 0.00 0.00 0.00 0.03 0.11 0.05 0.17 0.15
0.04 0.04 0.01 0.00 0.00 0.00 0.00 0.00 0.00 0.00 0.00 0.01 0.01 0.00 0.00 0.00 0.00 0.00 0.01 0.00 0.01 0.02 0.00 0.00 0.00 0.00 0.00 0.00 0.00 0.00 0.00 0.00 0.00 0.00 0.00 0.00 0.00 0.00 0.00 0.00 0.00 0.00 0.01 0.12 0.18 0.20 0.08
0.02 0.02 0.00 0.00 0.00 0.00 0.00 0.00 0.00 0.00 0.00 0.00 0.00 0.00 0.00 0.00 0.00 0.00 0.00 0.00 0.01 0.00 0.00 0.00 0.00 0.00 0.00 0.00 0.00 0.00 0.00 0.00 0.00 0.00 0.00 0.00 0.00 0.00 0.00 0.00 0.00 0.00 0.01 0.04 0.12 0.09 0.02
0.02 0.01 0.00 0.00 0.00 0.00 0.00 0.00 0.00 0.00 0.00 0.00 0.00 0.00 0.00 0.00 0.00 0.00 0.00 0.00 0.00 0.00 0.00 0.00 0.00 0.00 0.00 0.00 0.00 0.00 0.00 0.00 0.00 0.00 0.00 0.00 0.00 0.00 0.00 0.00 0.00 0.00 0.00 0.00 0.00 0.01 0.03
0.02 0.00 0.00 0.00 0.00 0.00 0.00 0.00 0.00 0.00 0.00 0.00 0.00 0.00 0.00 0.00 0.00 0.00 0.00 0.00 0.00 0.00 0.00 0.00 0.00 0.00 0.00 0.00 0.00 0.00 0.00 0.00 0.00 0.00 0.00 0.00 0.00 0.00 0.00 0.00 0.00 0.00 0.00 0.00 0.00 0.00 0.02
0.02 0.00 0.00 0.00 0.00 0.00 0.00 0.00 0.00 0.00 0.00 0.00 0.00 0.00 0.00 0.00 0.00 0.00 0.00 0.00 0.00 0.00 0.00 0.00 0.00 0.00 0.00 0.00 0.00 0.00 0.00 0.00 0.00 0.00 0.00 0.00 0.00 0.00 0.00 0.00 0.00 0.00 0.00 0.00 0.00 0.00 0.00
0.01 0.00 0.00 0.00 0.00 0.00 0.00 0.00 0.00 0.00 0.00 0.00 0.00 0.00 0.00 0.00 0.00 0.00 0.00 0.00 0.00 0.00 0.00 0.00 0.00 0.00 0.00 0.00 0.00 0.00 0.00 0.00 0.00 0.00 0.00 0.00 0.00 0.00 0.00 0.00 0.00 0.00 0.00 0.00 0.00 0.00 0.00
0.01 0.00 0.00 0.00 0.00 0.00 0.00 0.00 0.00 0.00 0.00 0.00 0.00 0.00 0.00 0.00 0.00 0.00 0.00 0.00 0.00 0.00 0.00 0.00 0.00 0.00 0.00 0.00 0.00 0.00 0.00 0.00 0.00 0.00 0.00 0.00 0.00 0.00 0.00 0.00 0.00 0.00 0.00 0.00 0.00 0.00 0.00
0.01 0.00 0.00 0.00 0.00 0.00 0.00 0.00 0.00 0.00 0.00 0.00 0.00 0.00 0.00 0.00 0.00 0.00 0.00 0.00 0.00 0.00 0.00 0.00 0.00 0.00 0.00 0.00 0.00 0.00 0.00 0.00 0.00 0.00 0.00 0.00 0.00 0.00 0.00 0.00 0.00 0.00 0.00 0.00 0.00 0.00 0.00
0.01 0.00 0.00 0.00 0.00 0.00 0.00 0.01 0.00 0.00 0.00 0.00 0.00 0.00 0.00 0.00 0.00 0.00 0.00 0.00 0.00 0.00 0.00 0.00 0.00 0.00 0.00 0.00 0.00 0.00 0.00 0.00 0.00 0.00 0.00 0.00 0.00 0.00 0.00 0.00 0.00 0.00 0.00 0.00 0.00 0.00 0.00
0.01 0.00 0.00 0.00 0.00 0.00 0.00 0.01 0.01 0.01 0.00 0.00 0.00 0.00 0.00 0.00 0.00 0.00 0.00 0.00 0.00 0.00 0.00 0.00 0.00 0.00 0.00 0.00 0.00 0.00 0.00 0.00 0.00 0.00 0.00 0.00 0.00 0.00 0.00 0.00 0.00 0.00 0.00 0.00 0.00 0.00 0.00
0.02 0.01 0.01 0.01 0.01 0.01 0.02 0.03 0.03 0.02 0.02 0.00 0.00 0.00 0.00 0.00 0.00 0.00 0.00 0.00 0.00 0.00 0.00 0.00 0.00 0.00 0.00 0.00 0.00 0.00 0.00 0.00 0.00 0.00 0.00 0.00 0.00 0.00 0.00 0.00 0.00 0.00 0.00 0.00 0.00 0.00 0.00
0.01 0.02 0.01 0.02 0.02 0.02 0.03 0.04 0.04 0.05 0.05 0.01 0.01 0.00 0.00 0.00 0.00 0.00 0.00 0.00 0.00 0.00 0.00 0.00 0.00 0.00 0.00 0.00 0.00 0.00 0.00 0.00 0.00 0.00 0.00 0.00 0.00 0.00 0.00 0.00 0.00 0.00 0.00 0.00 0.00 0.00 0.00
0.03 0.03 0.02 0.03 0.03 0.03 0.04 0.04 0.05 0.07 0.08 0.03 0.01 0.01 0.01 0.00 0.00 0.00 0.00 0.00 0.00 0.00 0.00 0.00 0.00 0.00 0.00 0.00 0.00 0.00 0.00 0.00 0.00 0.00 0.00 0.00 0.00 0.00 0.00 0.00 0.00 0.00 0.00 0.00 0.00 0.00 0.00
0.05 0.05 0.04 0.03 0.04 0.03 0.04 0.05 0.07 0.08 0.13 0.07 0.01 0.01 0.03 0.02 0.00 0.00 0.00 0.00 0.00 0.00 0.00 0.00 0.00 0.00 0.00 0.00 0.00 0.00 0.00 0.00 0.00 0.00 0.00 0.00 0.00 0.00 0.00 0.00 0.00 0.00 0.00 0.00 0.00 0.00 0.00
0.04 0.03 0.04 0.05 0.05 0.05 0.05 0.06 0.08 0.11 0.18 0.18 0.05 0.04 0.07 0.06 0.01 0.00 0.00 0.00 0.00 0.00 0.00 0.00 0.00 0.00 0.00 0.00 0.00 0.00 0.00 0.00 0.00 0.00 0.00 0.00 0.00 0.00 0.00 0.00 0.00 0.00 0.00 0.00 0.00 0.00 0.00
0.02 0.02 0.04 0.06 0.05 0.05 0.05 0.07 0.09 0.14 0.22 0.28 0.13 0.04 0.12 0.19 0.06 0.00 0.00 0.00 0.00 0.00 0.00 0.00 0.00 0.00 0.00 0.00 0.00 0.00 0.00 0.00 0.00 0.00 0.00 0.00 0.00 0.00 0.00 0.00 0.00 0.00 0.00 0.00 0.00 0.00 0.00

GFSGBSN_prec_precacc24_147.txt.gz
Total_Precipitation_Accumulation
0.10 0.12 0.15 0.19 0.13 0.10 0.12 0.16 0.19 0.31 0.31 0.29 0.30 0.26 0.23 0.20 0.33 0.47 0.26 0.11 0.15 0.38 0.28 0.04 0.00 0.00 0.00 0.00 0.00 0.00 0.05 0.14 0.03 0.00 0.00 0.00 0.00 0.00 0.00 0.00 0.00 0.00 0.00 0.00 0.00 0.00 0.00
0.10 0.12 0.15 0.16 0.11 0.07 0.11 0.15 0.13 0.16 0.28 0.25 0.23 0.17 0.18 0.17 0.17 0.30 0.25 0.12 0.14 0.42 0.17 0.04 0.00 0.00 0.00 0.00 0.00 0.01 0.03 0.01 0.00 0.00 0.00 0.00 0.00 0.02 0.01 0.01 0.02 0.00 0.00 0.00 0.00 0.00 0.00
0.10 0.12 0.17 0.14 0.08 0.05 0.11 0.12 0.08 0.11 0.18 0.14 0.16 0.10 0.13 0.15 0.14 0.22 0.26 0.27 0.50 0.67 0.13 0.02 0.00 0.00 0.00 0.00 0.00 0.00 0.00 0.00 0.00 0.00 0.00 0.00 0.00 0.05 0.05 0.01 0.00 0.00 0.00 0.00 0.00 0.00 0.00
0.10 0.12 0.16 0.10 0.06 0.04 0.08 0.08 0.05 0.11 0.16 0.12 0.14 0.07 0.08 0.06 0.11 0.14 0.18 0.19 0.41 0.46 0.10 0.01 0.00 0.00 0.00 0.00 0.00 0.00 0.00 0.00 0.00 0.00 0.00 0.00 0.03 0.05 0.04 0.01 0.00 0.01 0.01 0.01 0.00 0.00 0.00
0.10 0.10 0.12 0.07 0.03 0.04 0.06 0.08 0.05 0.09 0.16 0.13 0.08 0.08 0.10 0.03 0.03 0.07 0.07 0.09 0.17 0.07 0.01 0.00 0.00 0.00 0.00 0.00 0.00 0.00 0.00 0.00 0.00 0.00 0.00 0.02 0.05 0.05 0.04 0.04 0.03 0.03 0.03 0.03 0.01 0.00 0.00
0.08 0.07 0.05 0.04 0.02 0.04 0.04 0.06 0.04 0.07 0.11 0.12 0.05 0.05 0.04 0.01 0.01 0.02 0.03 0.04 0.02 0.00 0.00 0.00 0.00 0.00 0.00 0.00 0.00 0.00 0.00 0.00 0.00 0.00 0.02 0.05 0.10 0.07 0.07 0.13 0.15 0.14 0.12 0.05 0.01 0.00 0.00
0.08 0.05 0.01 0.03 0.01 0.02 0.04 0.05 0.04 0.06 0.07 0.09 0.04 0.01 0.01 0.01 0.02 0.01 0.01 0.01 0.00 0.00 0.00 0.00 0.00 0.00 0.00 0.00 0.00 0.00 0.00 0.00 0.00 0.00 0.01 0.04 0.06 0.03 0.02 0.04 0.06 0.10 0.13 0.12 0.02 0.00 0.00
0.08 0.03 0.01 0.02 0.01 0.02 0.03 0.03 0.03 0.05 0.05 0.06 0.02 0.00 0.00 0.00 0.00 0.00 0.00 0.00 0.00 0.00 0.00 0.00 0.00 0.00 0.00 0.00 0.00 0.00 0.00 0.00 0.00 0.00 0.01 0.04 0.03 0.01 0.02 0.04 0.06 0.06 0.05 0.01 0.00 0.00 0.00
0.06 0.02 0.02 0.01 0.00 0.01 0.01 0.02 0.02 0.02 0.05 0.04 0.02 0.00 0.00 0.00 0.00 0.00 0.00 0.00 0.00 0.00 0.00 0.00 0.00 0.00 0.00 0.00 0.00 0.00 0.00 0.00 0.00 0.00 0.01 0.02 0.00 0.01 0.03 0.02 0.02 0.02 0.03 0.01 0.00 0.00 0.00
0.05 0.02 0.01 0.00 0.00 0.00 0.01 0.00 0.01 0.01 0.02 0.02 0.00 0.00 0.00 0.00 0.00 0.00 0.00 0.00 0.00 0.00 0.00 0.00 0.00 0.00 0.00 0.00 0.00 0.00 0.00 0.00 0.00 0.00 0.00 0.00 0.00 0.00 0.00 0.01 0.02 0.03 0.02 0.01 0.00 0.00 0.00
0.03 0.02 0.01 0.00 0.00 0.00 0.00 0.00 0.00 0.00 0.00 0.00 0.00 0.00 0.00 0.00 0.00 0.00 0.00 0.00 0.00 0.00 0.00 0.00 0.00 0.00 0.00 0.00 0.00 0.00 0.00 0.00 0.00 0.00 0.00 0.00 0.00 0.00 0.00 0.01 0.00 0.03 0.01 0.00 0.00 0.00 0.00
0.01 0.01 0.01 0.00 0.00 0.00 0.00 0.00 0.00 0.00 0.00 0.00 0.00 0.00 0.00 0.00 0.00 0.00 0.00 0.00 0.00 0.00 0.00 0.00 0.00 0.00 0.00 0.00 0.00 0.00 0.00 0.00 0.00 0.00 0.00 0.00 0.00 0.00 0.00 0.00 0.00 0.02 0.01 0.00 0.00 0.02 0.03
0.01 0.01 0.01 0.00 0.00 0.00 0.00 0.00 0.00 0.00 0.00 0.00 0.00 0.00 0.00 0.00 0.00 0.00 0.00 0.00 0.00 0.00 0.00 0.00 0.00 0.00 0.00 0.00 0.00 0.00 0.00 0.00 0.00 0.00 0.00 0.00 0.00 0.00 0.00 0.00 0.00 0.00 0.03 0.11 0.05 0.13 0.05
0.01 0.01 0.00 0.00 0.00 0.00 0.00 0.00 0.00 0.00 0.00 0.00 0.00 0.00 0.00 0.00 0.00 0.00 0.00 0.00 0.00 0.00 0.00 0.00 0.00 0.00 0.00 0.00 0.00 0.00 0.00 0.00 0.00 0.00 0.00 0.00 0.00 0.00 0.00 0.00 0.00 0.00 0.00 0.04 0.07 0.06 0.01
0.01 0.00 0.00 0.00 0.01 0.00 0.00 0.00 0.00 0.00 0.00 0.00 0.00 0.00 0.00 0.00 0.00 0.00 0.00 0.00 0.00 0.00 0.00 0.00 0.00 0.00 0.00 0.00 0.00 0.00 0.00 0.00 0.00 0.00 0.00 0.00 0.00 0.00 0.00 0.00 0.00 0.00 0.00 0.00 0.00 0.00 0.00
0.00 0.00 0.00 0.01 0.01 0.00 0.00 0.00 0.00 0.00 0.00 0.00 0.00 0.00 0.00 0.00 0.00 0.00 0.00 0.00 0.00 0.00 0.00 0.00 0.00 0.00 0.00 0.00 0.00 0.00 0.00 0.00 0.00 0.00 0.00 0.00 0.00 0.00 0.00 0.00 0.00 0.00 0.00 0.00 0.00 0.00 0.00
0.00 0.00 0.00 0.01 0.00 0.00 0.00 0.00 0.00 0.00 0.00 0.00 0.00 0.00 0.00 0.00 0.00 0.00 0.00 0.00 0.00 0.00 0.00 0.00 0.00 0.00 0.00 0.00 0.00 0.00 0.00 0.00 0.00 0.00 0.00 0.00 0.00 0.00 0.00 0.00 0.00 0.00 0.00 0.00 0.00 0.00 0.00
0.00 0.01 0.00 0.00 0.00 0.00 0.00 0.00 0.00 0.00 0.00 0.00 0.00 0.00 0.00 0.00 0.00 0.00 0.00 0.00 0.00 0.00 0.00 0.00 0.00 0.00 0.00 0.00 0.00 0.00 0.00 0.00 0.00 0.00 0.00 0.00 0.00 0.00 0.00 0.00 0.00 0.00 0.00 0.00 0.00 0.00 0.00
0.01 0.01 0.00 0.00 0.00 0.00 0.00 0.00 0.00 0.00 0.00 0.00 0.00 0.00 0.00 0.00 0.00 0.00 0.00 0.00 0.00 0.00 0.00 0.00 0.00 0.00 0.00 0.00 0.00 0.00 0.00 0.00 0.00 0.00 0.00 0.00 0.00 0.00 0.00 0.00 0.00 0.00 0.00 0.00 0.00 0.00 0.00
0.01 0.01 0.01 0.01 0.01 0.00 0.00 0.00 0.00 0.00 0.00 0.00 0.00 0.00 0.00 0.00 0.00 0.00 0.00 0.00 0.00 0.00 0.00 0.00 0.00 0.00 0.00 0.00 0.00 0.00 0.00 0.00 0.00 0.00 0.00 0.00 0.00 0.00 0.00 0.00 0.00 0.00 0.00 0.00 0.00 0.00 0.00
0.01 0.01 0.01 0.01 0.01 0.00 0.00 0.00 0.00 0.00 0.00 0.00 0.00 0.00 0.00 0.00 0.00 0.00 0.00 0.00 0.00 0.00 0.00 0.00 0.00 0.00 0.00 0.00 0.00 0.00 0.00 0.00 0.00 0.00 0.00 0.00 0.00 0.00 0.00 0.00 0.00 0.00 0.00 0.00 0.00 0.00 0.00
0.02 0.01 0.01 0.01 0.01 0.00 0.01 0.01 0.01 0.01 0.00 0.00 0.00 0.00 0.00 0.00 0.00 0.00 0.00 0.00 0.00 0.00 0.00 0.00 0.00 0.00 0.00 0.00 0.00 0.00 0.00 0.00 0.00 0.00 0.00 0.00 0.00 0.00 0.00 0.00 0.00 0.00 0.00 0.00 0.00 0.00 0.00
0.03 0.02 0.02 0.02 0.02 0.01 0.01 0.01 0.02 0.02 0.01 0.00 0.00 0.00 0.00 0.00 0.00 0.00 0.00 0.00 0.00 0.00 0.00 0.00 0.00 0.00 0.00 0.00 0.00 0.00 0.00 0.00 0.00 0.00 0.00 0.00 0.00 0.00 0.00 0.00 0.00 0.00 0.00 0.00 0.00 0.00 0.00
0.03 0.02 0.02 0.02 0.03 0.03 0.03 0.03 0.03 0.03 0.04 0.00 0.00 0.00 0.01 0.01 0.00 0.00 0.00 0.00 0.00 0.00 0.00 0.00 0.00 0.00 0.00 0.00 0.00 0.00 0.00 0.00 0.00 0.00 0.00 0.00 0.00 0.00 0.00 0.00 0.00 0.00 0.00 0.00 0.00 0.00 0.00
0.02 0.01 0.01 0.02 0.03 0.04 0.06 0.07 0.06 0.05 0.08 0.03 0.01 0.02 0.04 0.03 0.01 0.00 0.00 0.00 0.00 0.00 0.00 0.00 0.00 0.00 0.00 0.00 0.00 0.00 0.00 0.00 0.00 0.00 0.00 0.00 0.00 0.00 0.00 0.00 0.00 0.00 0.00 0.00 0.00 0.00 0.00
0.03 0.02 0.02 0.03 0.03 0.04 0.04 0.05 0.06 0.08 0.12 0.08 0.02 0.05 0.10 0.10 0.03 0.00 0.00 0.00 0.00 0.00 0.00 0.00 0.00 0.00 0.00 0.00 0.00 0.00 0.00 0.00 0.00 0.00 0.00 0.00 0.00 0.00 0.00 0.00 0.00 0.00 0.00 0.00 0.00 0.00 0.00
0.05 0.05 0.03 0.03 0.04 0.04 0.04 0.05 0.07 0.09 0.17 0.16 0.05 0.04 0.15 0.16 0.04 0.00 0.01 0.00 0.00 0.00 0.00 0.00 0.00 0.00 0.00 0.00 0.00 0.00 0.00 0.00 0.00 0.00 0.00 0.00 0.00 0.00 0.00 0.00 0.00 0.00 0.00 0.00 0.00 0.00 0.00
0.04 0.03 0.04 0.05 0.05 0.05 0.05 0.07 0.08 0.11 0.19 0.25 0.08 0.05 0.15 0.19 0.08 0.02 0.01 0.01 0.01 0.02 0.02 0.01 0.03 0.01 0.00 0.00 0.00 0.00 0.00 0.00 0.00 0.00 0.00 0.00 0.00 0.00 0.00 0.00 0.00 0.00 0.00 0.00 0.00 0.00 0.00
0.02 0.03 0.04 0.06 0.05 0.05 0.06 0.07 0.09 0.14 0.22 0.32 0.18 0.04 0.13 0.30 0.15 0.03 0.01 0.01 0.02 0.01 0.03 0.05 0.05 0.03 0.03 0.04 0.03 0.02 0.00 0.00 0.00 0.00 0.00 0.00 0.00 0.00 0.00 0.00 0.00 0.00 0.00 0.00 0.00 0.00 0.00

GFSGBSN_prec_precacc24_153.txt.gz
Total_Precipitation_Accumulation
0.05 0.05 0.04 0.05 0.06 0.07 0.09 0.09 0.11 0.17 0.16 0.12 0.09 0.07 0.06 0.05 0.04 0.03 0.04 0.10 0.12 0.22 0.12 0.00 0.00 0.00 0.00 0.00 0.00 0.00 0.04 0.12 0.02 0.00 0.00 0.00 0.00 0.00 0.00 0.00 0.00 0.00 0.00 0.00 0.00 0.00 0.00
0.04 0.04 0.04 0.03 0.05 0.06 0.06 0.07 0.05 0.09 0.18 0.14 0.08 0.06 0.05 0.06 0.04 0.02 0.05 0.12 0.12 0.27 0.06 0.00 0.00 0.00 0.00 0.00 0.00 0.01 0.03 0.01 0.00 0.00 0.00 0.00 0.00 0.00 0.00 0.00 0.00 0.00 0.00 0.00 0.00 0.00 0.00
0.03 0.02 0.03 0.02 0.04 0.04 0.04 0.04 0.02 0.04 0.07 0.05 0.06 0.04 0.05 0.08 0.09 0.11 0.16 0.26 0.29 0.12 0.01 0.00 0.00 0.00 0.00 0.00 0.00 0.00 0.00 0.00 0.00 0.00 0.00 0.00 0.00 0.01 0.01 0.01 0.00 0.00 0.00 0.00 0.00 0.00 0.00
0.02 0.01 0.02 0.02 0.03 0.03 0.02 0.02 0.01 0.02 0.01 0.02 0.03 0.04 0.02 0.03 0.07 0.10 0.16 0.15 0.10 0.05 0.00 0.00 0.00 0.00 0.00 0.00 0.00 0.00 0.00 0.00 0.00 0.00 0.00 0.00 0.00 0.01 0.02 0.01 0.00 0.00 0.00 0.01 0.00 0.00 0.00
0.01 0.01 0.01 0.02 0.02 0.02 0.01 0.01 0.00 0.00 0.01 0.01 0.02 0.02 0.03 0.01 0.01 0.04 0.07 0.04 0.01 0.01 0.00 0.00 0.00 0.00 0.00 0.00 0.00 0.00 0.00 0.00 0.00 0.00 0.00 0.00 0.01 0.03 0.03 0.02 0.01 0.02 0.03 0.02 0.01 0.00 0.00
0.01 0.00 0.00 0.01 0.01 0.02 0.01 0.00 0.00 0.00 0.00 0.01 0.01 0.01 0.01 0.00 0.00 0.01 0.00 0.00 0.00 0.00 0.00 0.00 0.00 0.00 0.00 0.00 0.00 0.00 0.00 0.00 0.00 0.00 0.01 0.03 0.06 0.04 0.04 0.08 0.05 0.07 0.07 0.03 0.01 0.00 0.00
0.01 0.01 0.00 0.00 0.00 0.01 0.01 0.00 0.00 0.00 0.00 0.00 0.00 0.00 0.00 0.00 0.00 0.00 0.00 0.00 0.00 0.00 0.00 0.00 0.00 0.00 0.00 0.00 0.00 0.00 0.00 0.00 0.00 0.00 0.00 0.01 0.03 0.02 0.02 0.02 0.03 0.04 0.04 0.02 0.00 0.00 0.00
0.02 0.01 0.00 0.00 0.00 0.01 0.01 0.00 0.00 0.00 0.00 0.00 0.00 0.00 0.00 0.00 0.00 0.00 0.00 0.00 0.00 0.00 0.00 0.00 0.00 0.00 0.00 0.00 0.00 0.00 0.00 0.00 0.00 0.00 0.00 0.02 0.01 0.00 0.00 0.02 0.03 0.03 0.02 0.00 0.00 0.00 0.00
0.03 0.01 0.00 0.00 0.00 0.00 0.00 0.00 0.00 0.00 0.00 0.00 0.00 0.00 0.00 0.00 0.00 0.00 0.00 0.00 0.00 0.00 0.00 0.00 0.00 0.00 0.00 0.00 0.00 0.00 0.00 0.00 0.00 0.00 0.01 0.01 0.00 0.00 0.01 0.02 0.02 0.02 0.03 0.01 0.00 0.00 0.00
0.02 0.01 0.01 0.00 0.00 0.00 0.00 0.00 0.00 0.00 0.00 0.00 0.00 0.00 0.00 0.00 0.00 0.00 0.00 0.00 0.00 0.00 0.00 0.00 0.00 0.00 0.00 0.00 0.00 0.00 0.00 0.00 0.00 0.00 0.00 0.00 0.00 0.00 0.00 0.01 0.02 0.03 0.02 0.00 0.00 0.00 0.00
0.02 0.01 0.01 0.00 0.00 0.00 0.00 0.00 0.00 0.00 0.00 0.00 0.00 0.00 0.00 0.00 0.00 0.00 0.00 0.00 0.00 0.00 0.00 0.00 0.00 0.00 0.00 0.00 0.00 0.00 0.00 0.00 0.00 0.00 0.00 0.00 0.00 0.00 0.00 0.00 0.00 0.02 0.01 0.00 0.00 0.00 0.00
0.02 0.02 0.02 0.01 0.00 0.00 0.00 0.00 0.00 0.00 0.00 0.00 0.00 0.00 0.00 0.00 0.00 0.00 0.00 0.00 0.00 0.00 0.00 0.00 0.00 0.00 0.00 0.00 0.00 0.00 0.00 0.00 0.00 0.00 0.00 0.00 0.00 0.00 0.00 0.00 0.00 0.01 0.01 0.00 0.00 0.01 0.02
0.03 0.02 0.02 0.02 0.01 0.01 0.00 0.00 0.00 0.00 0.00 0.00 0.00 0.00 0.00 0.00 0.00 0.00 0.00 0.00 0.00 0.00 0.00 0.00 0.00 0.00 0.00 0.00 0.00 0.00 0.00 0.00 0.00 0.00 0.00 0.00 0.00 0.00 0.00 0.00 0.00 0.00 0.03 0.11 0.04 0.04 0.04
0.03 0.01 0.01 0.02 0.02 0.01 0.00 0.00 0.00 0.00 0.00 0.00 0.00 0.00 0.00 0.00 0.00 0.00 0.00 0.00 0.00 0.00 0.00 0.00 0.00 0.00 0.00 0.00 0.00 0.00 0.00 0.00 0.00 0.00 0.00 0.00 0.00 0.00 0.00 0.00 0.00 0.00 0.00 0.04 0.04 0.03 0.01
0.02 0.01 0.01 0.02 0.02 0.01 0.00 0.00 0.00 0.00 0.00 0.00 0.00 0.00 0.00 0.00 0.00 0.00 0.00 0.00 0.00 0.00 0.00 0.00 0.00 0.00 0.00 0.00 0.00 0.00 0.00 0.00 0.00 0.00 0.00 0.00 0.00 0.00 0.00 0.00 0.00 0.00 0.00 0.00 0.00 0.00 0.00
0.01 0.01 0.01 0.02 0.01 0.01 0.00 0.00 0.00 0.00 0.00 0.00 0.00 0.00 0.00 0.00 0.00 0.00 0.00 0.00 0.00 0.00 0.00 0.00 0.00 0.00 0.00 0.00 0.00 0.00 0.00 0.00 0.00 0.00 0.00 0.00 0.00 0.00 0.00 0.00 0.00 0.00 0.00 0.00 0.00 0.00 0.00
0.01 0.01 0.01 0.01 0.01 0.00 0.00 0.00 0.00 0.00 0.00 0.00 0.00 0.00 0.00 0.00 0.00 0.00 0.00 0.00 0.00 0.00 0.00 0.00 0.00 0.00 0.00 0.00 0.00 0.00 0.00 0.00 0.00 0.00 0.00 0.00 0.00 0.00 0.00 0.00 0.00 0.00 0.00 0.00 0.00 0.00 0.00
0.01 0.01 0.01 0.02 0.01 0.00 0.00 0.00 0.00 0.00 0.00 0.00 0.00 0.00 0.00 0.00 0.00 0.00 0.00 0.00 0.00 0.00 0.00 0.00 0.00 0.00 0.00 0.00 0.00 0.00 0.00 0.00 0.00 0.00 0.00 0.00 0.00 0.00 0.00 0.00 0.00 0.00 0.00 0.00 0.00 0.00 0.00
0.01 0.01 0.01 0.01 0.01 0.01 0.01 0.00 0.00 0.00 0.00 0.00 0.00 0.00 0.00 0.00 0.00 0.00 0.00 0.00 0.00 0.00 0.00 0.00 0.00 0.00 0.00 0.00 0.00 0.00 0.00 0.00 0.00 0.00 0.00 0.00 0.00 0.00 0.00 0.00 0.00 0.00 0.00 0.00 0.00 0.00 0.00
0.01 0.01 0.01 0.01 0.01 0.01 0.00 0.00 0.00 0.00 0.00 0.00 0.00 0.00 0.00 0.00 0.00 0.00 0.00 0.00 0.00 0.00 0.00 0.00 0.00 0.00 0.00 0.00 0.00 0.00 0.00 0.00 0.00 0.00 0.00 0.00 0.00 0.00 0.00 0.00 0.00 0.00 0.00 0.00 0.00 0.00 0.00
0.01 0.01 0.01 0.02 0.02 0.01 0.01 0.01 0.00 0.00 0.00 0.00 0.00 0.00 0.00 0.00 0.00 0.00 0.00 0.00 0.00 0.00 0.00 0.00 0.00 0.00 0.00 0.00 0.00 0.00 0.00 0.00 0.00 0.00 0.00 0.00 0.00 0.00 0.00 0.00 0.00 0.00 0.00 0.00 0.00 0.00 0.00
0.02 0.02 0.02 0.02 0.02 0.01 0.02 0.02 0.01 0.01 0.00 0.00 0.00 0.00 0.00 0.00 0.00 0.00 0.00 0.00 0.00 0.00 0.00 0.00 0.00 0.00 0.00 0.00 0.00 0.00 0.00 0.00 0.00 0.00 0.00 0.00 0.00 0.00 0.00 0.00 0.00 0.00 0.00 0.00 0.00 0.00 0.00
0.03 0.03 0.03 0.03 0.02 0.02 0.02 0.02 0.03 0.02 0.01 0.00 0.00 0.00 0.00 0.00 0.00 0.00 0.00 0.00 0.00 0.00 0.00 0.00 0.00 0.00 0.00 0.00 0.00 0.00 0.00 0.00 0.00 0.00 0.00 0.00 0.00 0.00 0.00 0.00 0.00 0.00 0.00 0.00 0.00 0.00 0.00
0.03 0.02 0.02 0.03 0.03 0.03 0.04 0.04 0.09 0.10 0.06 0.00 0.00 0.01 0.03 0.01 0.01 0.00 0.00 0.00 0.00 0.00 0.00 0.00 0.00 0.00 0.00 0.00 0.00 0.00 0.00 0.00 0.00 0.00 0.00 0.00 0.00 0.00 0.00 0.00 0.00 0.00 0.00 0.00 0.00 0.00 0.00
0.01 0.01 0.01 0.02 0.03 0.04 0.07 0.09 0.11 0.09 0.10 0.04 0.02 0.04 0.07 0.06 0.02 0.01 0.00 0.00 0.00 0.00 0.00 0.00 0.00 0.00 0.00 0.00 0.00 0.00 0.00 0.00 0.00 0.00 0.00 0.00 0.00 0.00 0.00 0.00 0.00 0.00 0.00 0.00 0.00 0.00 0.00
0.02 0.01 0.01 0.02 0.03 0.04 0.05 0.05 0.06 0.08 0.12 0.09 0.03 0.07 0.15 0.16 0.05 0.01 0.01 0.01 0.01 0.00 0.00 0.00 0.00 0.00 0.00 0.00 0.00 0.03 0.01 0.00 0.00 0.00 0.00 0.00 0.00 0.00 0.00 0.00 0.00 0.00 0.00 0.00 0.00 0.00 0.00
0.04 0.03 0.02 0.02 0.03 0.03 0.04 0.05 0.07 0.09 0.17 0.16 0.06 0.06 0.22 0.22 0.06 0.01 0.03 0.02 0.02 0.01 0.01 0.00 0.00 0.00 0.00 0.00 0.04 0.03 0.01 0.00 0.00 0.00 0.00 0.00 0.00 0.00 0.00 0.00 0.00 0.00 0.00 0.00 0.00 0.00 0.00
0.03 0.02 0.02 0.02 0.02 0.03 0.04 0.06 0.08 0.12 0.20 0.26 0.08 0.05 0.19 0.25 0.10 0.03 0.02 0.03 0.03 0.03 0.04 0.03 0.08 0.04 0.04 0.05 0.05 0.02 0.03 0.01 0.01 0.00 0.00 0.00 0.01 0.02 0.02 0.03 0.01 0.00 0.00 0.00 0.00 0.00 0.00
0.01 0.01 0.01 0.01 0.02 0.02 0.03 0.06 0.08 0.13 0.23 0.33 0.18 0.04 0.14 0.34 0.17 0.03 0.02 0.02 0.02 0.02 0.07 0.11 0.14 0.11 0.15 0.15 0.13 0.11 0.08 0.05 0.04 0.03 0.00 0.02 0.02 0.01 0.01 0.01 0.00 0.00 0.00 0.00 0.00 0.00 0.00

GFSGBSN_prec_precacc24_156.txt.gz
Total_Precipitation_Accumulation
0.02 0.04 0.03 0.04 0.05 0.05 0.05 0.05 0.06 0.10 0.09 0.08 0.06 0.06 0.05 0.03 0.02 0.02 0.04 0.10 0.11 0.17 0.03 0.00 0.00 0.00 0.00 0.00 0.00 0.00 0.03 0.09 0.01 0.00 0.00 0.00 0.00 0.00 0.00 0.00 0.00 0.00 0.00 0.00 0.00 0.00 0.00
0.01 0.03 0.03 0.02 0.04 0.03 0.02 0.02 0.01 0.02 0.05 0.08 0.07 0.05 0.05 0.05 0.03 0.02 0.05 0.12 0.12 0.17 0.01 0.00 0.00 0.00 0.00 0.00 0.00 0.01 0.03 0.00 0.00 0.00 0.00 0.00 0.00 0.00 0.00 0.00 0.00 0.00 0.00 0.00 0.00 0.00 0.00
0.01 0.01 0.03 0.02 0.02 0.02 0.02 0.01 0.00 0.00 0.01 0.03 0.05 0.04 0.05 0.07 0.09 0.11 0.16 0.24 0.20 0.07 0.00 0.00 0.00 0.00 0.00 0.00 0.00 0.00 0.00 0.00 0.00 0.00 0.00 0.00 0.00 0.00 0.00 0.00 0.00 0.00 0.00 0.00 0.00 0.00 0.00
0.00 0.01 0.02 0.02 0.02 0.01 0.01 0.01 0.00 0.00 0.00 0.01 0.02 0.02 0.01 0.03 0.07 0.10 0.15 0.11 0.04 0.00 0.00 0.00 0.00 0.00 0.00 0.00 0.00 0.00 0.00 0.00 0.00 0.00 0.00 0.00 0.00 0.00 0.00 0.00 0.00 0.00 0.00 0.00 0.00 0.00 0.00
0.00 0.00 0.01 0.01 0.01 0.01 0.00 0.00 0.00 0.00 0.00 0.00 0.00 0.01 0.02 0.01 0.01 0.03 0.03 0.00 0.00 0.00 0.00 0.00 0.00 0.00 0.00 0.00 0.00 0.00 0.00 0.00 0.00 0.00 0.00 0.00 0.00 0.01 0.01 0.01 0.01 0.02 0.02 0.02 0.01 0.00 0.00
0.00 0.00 0.00 0.01 0.01 0.01 0.00 0.00 0.00 0.00 0.00 0.00 0.00 0.00 0.01 0.00 0.00 0.00 0.00 0.00 0.00 0.00 0.00 0.00 0.00 0.00 0.00 0.00 0.00 0.00 0.00 0.00 0.00 0.00 0.00 0.01 0.02 0.01 0.02 0.06 0.04 0.05 0.04 0.02 0.01 0.00 0.00
0.01 0.00 0.00 0.00 0.00 0.00 0.00 0.00 0.00 0.00 0.00 0.00 0.00 0.00 0.00 0.00 0.00 0.00 0.00 0.00 0.00 0.00 0.00 0.00 0.00 0.00 0.00 0.00 0.00 0.00 0.00 0.00 0.00 0.00 0.00 0.01 0.02 0.01 0.01 0.02 0.02 0.02 0.02 0.01 0.00 0.00 0.00
0.02 0.01 0.01 0.00 0.00 0.00 0.00 0.00 0.00 0.00 0.00 0.00 0.00 0.00 0.00 0.00 0.00 0.00 0.00 0.00 0.00 0.00 0.00 0.00 0.00 0.00 0.00 0.00 0.00 0.00 0.00 0.00 0.00 0.00 0.00 0.01 0.01 0.00 0.00 0.01 0.02 0.03 0.02 0.00 0.00 0.00 0.00
0.02 0.01 0.01 0.00 0.00 0.00 0.00 0.00 0.00 0.00 0.00 0.00 0.00 0.00 0.00 0.00 0.00 0.00 0.00 0.00 0.00 0.00 0.00 0.00 0.00 0.00 0.00 0.00 0.00 0.00 0.00 0.00 0.00 0.00 0.00 0.00 0.00 0.00 0.00 0.00 0.02 0.02 0.03 0.01 0.00 0.00 0.00
0.02 0.01 0.01 0.00 0.00 0.00 0.00 0.00 0.00 0.00 0.00 0.00 0.00 0.00 0.00 0.00 0.00 0.00 0.00 0.00 0.00 0.00 0.00 0.00 0.00 0.00 0.00 0.00 0.00 0.00 0.00 0.00 0.00 0.00 0.00 0.00 0.00 0.00 0.00 0.00 0.02 0.03 0.02 0.00 0.00 0.00 0.00
0.02 0.01 0.01 0.01 0.00 0.00 0.00 0.00 0.00 0.00 0.00 0.00 0.00 0.00 0.00 0.00 0.00 0.00 0.00 0.00 0.00 0.00 0.00 0.00 0.00 0.00 0.00 0.00 0.00 0.00 0.00 0.00 0.00 0.00 0.00 0.00 0.00 0.00 0.00 0.00 0.00 0.01 0.00 0.00 0.00 0.00 0.00
0.03 0.02 0.02 0.01 0.01 0.00 0.00 0.00 0.00 0.00 0.00 0.00 0.00 0.00 0.00 0.00 0.00 0.00 0.00 0.00 0.00 0.00 0.00 0.00 0.00 0.00 0.00 0.00 0.00 0.00 0.00 0.00 0.00 0.00 0.00 0.00 0.00 0.00 0.00 0.00 0.00 0.00 0.00 0.00 0.00 0.01 0.02
0.03 0.02 0.02 0.02 0.02 0.01 0.00 0.00 0.00 0.00 0.00 0.00 0.00 0.00 0.00 0.00 0.00 0.00 0.00 0.00 0.00 0.00 0.00 0.00 0.00 0.00 0.00 0.00 0.00 0.00 0.00 0.00 0.00 0.00 0.00 0.00 0.00 0.00 0.00 0.00 0.00 0.00 0.03 0.11 0.04 0.04 0.03
0.03 0.01 0.02 0.02 0.02 0.01 0.00 0.00 0.00 0.00 0.00 0.00 0.00 0.00 0.00 0.00 0.00 0.00 0.00 0.00 0.00 0.00 0.00 0.00 0.00 0.00 0.00 0.00 0.00 0.00 0.00 0.00 0.00 0.00 0.00 0.00 0.00 0.00 0.00 0.00 0.00 0.00 0.00 0.04 0.04 0.03 0.01
0.02 0.01 0.01 0.02 0.02 0.01 0.00 0.00 0.00 0.00 0.00 0.00 0.00 0.00 0.00 0.00 0.00 0.00 0.00 0.00 0.00 0.00 0.00 0.00 0.00 0.00 0.00 0.00 0.00 0.00 0.00 0.00 0.00 0.00 0.00 0.00 0.00 0.00 0.00 0.00 0.00 0.00 0.00 0.00 0.00 0.00 0.00
0.01 0.01 0.01 0.02 0.02 0.01 0.00 0.00 0.00 0.00 0.00 0.00 0.00 0.00 0.00 0.00 0.00 0.00 0.00 0.00 0.00 0.00 0.00 0.00 0.00 0.00 0.00 0.00 0.00 0.00 0.00 0.00 0.00 0.00 0.00 0.00 0.00 0.00 0.00 0.00 0.00 0.00 0.00 0.00 0.00 0.00 0.00
0.01 0.01 0.01 0.01 0.01 0.00 0.00 0.00 0.00 0.00 0.00 0.00 0.00 0.00 0.00 0.00 0.00 0.00 0.00 0.00 0.00 0.00 0.00 0.00 0.00 0.00 0.00 0.00 0.00 0.00 0.00 0.00 0.00 0.00 0.00 0.00 0.00 0.00 0.00 0.00 0.00 0.00 0.00 0.00 0.00 0.00 0.00
0.01 0.01 0.01 0.02 0.01 0.00 0.00 0.00 0.00 0.00 0.00 0.00 0.00 0.00 0.00 0.00 0.00 0.00 0.00 0.00 0.00 0.00 0.00 0.00 0.00 0.00 0.00 0.00 0.00 0.00 0.00 0.00 0.00 0.00 0.00 0.00 0.00 0.00 0.00 0.00 0.00 0.00 0.00 0.00 0.00 0.00 0.00
0.01 0.01 0.01 0.01 0.01 0.01 0.01 0.00 0.00 0.00 0.00 0.00 0.00 0.00 0.00 0.00 0.00 0.00 0.00 0.00 0.00 0.00 0.00 0.00 0.00 0.00 0.00 0.00 0.00 0.00 0.00 0.00 0.00 0.00 0.00 0.00 0.00 0.00 0.00 0.00 0.00 0.00 0.00 0.00 0.00 0.00 0.00
0.01 0.01 0.01 0.01 0.01 0.01 0.00 0.00 0.00 0.00 0.00 0.00 0.00 0.00 0.00 0.00 0.00 0.00 0.00 0.00 0.00 0.00 0.00 0.00 0.00 0.00 0.00 0.00 0.00 0.00 0.00 0.00 0.00 0.00 0.00 0.00 0.00 0.00 0.00 0.00 0.00 0.00 0.00 0.00 0.00 0.00 0.00
0.01 0.01 0.01 0.02 0.02 0.01 0.01 0.01 0.00 0.00 0.00 0.00 0.00 0.00 0.00 0.00 0.00 0.00 0.00 0.00 0.00 0.00 0.00 0.00 0.00 0.00 0.00 0.00 0.00 0.00 0.00 0.00 0.00 0.00 0.00 0.00 0.00 0.00 0.00 0.00 0.00 0.00 0.00 0.00 0.00 0.00 0.00
0.02 0.02 0.02 0.02 0.02 0.01 0.02 0.02 0.01 0.01 0.00 0.00 0.00 0.00 0.00 0.00 0.00 0.00 0.00 0.00 0.00 0.00 0.00 0.00 0.00 0.00 0.00 0.00 0.00 0.00 0.00 0.00 0.00 0.00 0.00 0.00 0.00 0.00 0.00 0.00 0.00 0.00 0.00 0.00 0.00 0.00 0.00
0.02 0.03 0.03 0.03 0.03 0.02 0.02 0.02 0.03 0.03 0.01 0.00 0.00 0.00 0.00 0.00 0.00 0.00 0.00 0.00 0.00 0.00 0.00 0.00 0.00 0.00 0.00 0.00 0.00 0.00 0.00 0.00 0.00 0.00 0.00 0.00 0.00 0.00 0.01 0.00 0.00 0.00 0.00 0.00 0.00 0.00 0.00
0.02 0.01 0.02 0.02 0.02 0.03 0.04 0.04 0.09 0.11 0.07 0.00 0.00 0.01 0.03 0.02 0.01 0.00 0.00 0.00 0.00 0.00 0.00 0.00 0.00 0.00 0.00 0.00 0.00 0.00 0.00 0.00 0.00 0.00 0.00 0.00 0.00 0.01 0.01 0.00 0.00 0.00 0.00 0.00 0.00 0.00 0.00
0.01 0.00 0.00 0.01 0.02 0.04 0.07 0.09 0.11 0.09 0.10 0.04 0.02 0.05 0.08 0.06 0.02 0.01 0.00 0.00 0.00 0.00 0.00 0.00 0.00 0.00 0.00 0.00 0.00 0.00 0.00 0.00 0.00 0.00 0.00 0.00 0.00 0.02 0.03 0.00 0.00 0.00 0.00 0.00 0.00 0.00 0.00
0.02 0.01 0.01 0.01 0.01 0.02 0.04 0.04 0.05 0.08 0.12 0.09 0.03 0.07 0.17 0.18 0.05 0.01 0.01 0.01 0.02 0.01 0.00 0.00 0.00 0.00 0.00 0.00 0.00 0.03 0.01 0.00 0.00 0.00 0.00 0.00 0.00 0.01 0.00 0.00 0.00 0.00 0.00 0.00 0.00 0.00 0.00
0.04 0.03 0.02 0.02 0.01 0.01 0.02 0.03 0.06 0.09 0.17 0.16 0.06 0.06 0.24 0.24 0.06 0.01 0.03 0.03 0.02 0.02 0.01 0.00 0.00 0.00 0.00 0.00 0.04 0.03 0.01 0.00 0.00 0.00 0.00 0.00 0.01 0.01 0.00 0.01 0.00 0.00 0.00 0.00 0.00 0.00 0.00
0.02 0.02 0.02 0.02 0.02 0.02 0.01 0.02 0.05 0.09 0.18 0.25 0.08 0.05 0.19 0.25 0.10 0.03 0.02 0.03 0.03 0.03 0.05 0.03 0.08 0.04 0.04 0.06 0.06 0.03 0.04 0.02 0.02 0.01 0.02 0.04 0.04 0.03 0.03 0.06 0.02 0.00 0.00 0.00 0.00 0.00 0.00
0.01 0.01 0.01 0.01 0.01 0.01 0.01 0.02 0.03 0.07 0.18 0.30 0.17 0.04 0.14 0.35 0.17 0.03 0.02 0.02 0.02 0.02 0.08 0.12 0.14 0.11 0.15 0.16 0.13 0.12 0.09 0.07 0.04 0.04 0.00 0.02 0.02 0.01 0.03 0.02 0.00 0.00 0.00 0.00 0.00 0.00 0.00

GFSGBSN_prec_precacc24_159.txt.gz
Total_Precipitation_Accumulation
0.01 0.03 0.03 0.03 0.03 0.03 0.03 0.03 0.05 0.08 0.07 0.07 0.05 0.03 0.03 0.03 0.02 0.02 0.04 0.09 0.11 0.10 0.01 0.00 0.00 0.00 0.00 0.00 0.00 0.00 0.01 0.01 0.00 0.00 0.00 0.00 0.00 0.00 0.00 0.00 0.00 0.00 0.00 0.00 0.00 0.00 0.00
0.01 0.02 0.03 0.02 0.01 0.02 0.02 0.01 0.01 0.02 0.04 0.06 0.06 0.04 0.04 0.05 0.03 0.02 0.05 0.11 0.07 0.03 0.00 0.00 0.00 0.00 0.00 0.00 0.00 0.00 0.00 0.00 0.00 0.00 0.00 0.00 0.00 0.00 0.00 0.00 0.00 0.00 0.00 0.00 0.00 0.00 0.00
0.01 0.01 0.03 0.01 0.01 0.01 0.01 0.01 0.00 0.00 0.01 0.02 0.03 0.03 0.04 0.07 0.08 0.08 0.09 0.09 0.04 0.00 0.00 0.00 0.00 0.00 0.00 0.00 0.00 0.00 0.00 0.00 0.00 0.00 0.00 0.00 0.00 0.00 0.00 0.00 0.00 0.00 0.00 0.00 0.00 0.00 0.00
0.00 0.01 0.01 0.01 0.01 0.00 0.00 0.00 0.00 0.00 0.00 0.00 0.00 0.01 0.00 0.03 0.07 0.05 0.05 0.01 0.00 0.00 0.00 0.00 0.00 0.00 0.00 0.00 0.00 0.00 0.00 0.00 0.00 0.00 0.00 0.00 0.00 0.00 0.00 0.00 0.00 0.00 0.00 0.00 0.00 0.00 0.00
0.01 0.00 0.01 0.01 0.01 0.00 0.00 0.00 0.00 0.00 0.00 0.00 0.00 0.00 0.00 0.00 0.00 0.02 0.01 0.00 0.00 0.00 0.00 0.00 0.00 0.00 0.00 0.00 0.00 0.00 0.00 0.00 0.00 0.00 0.00 0.00 0.00 0.00 0.00 0.01 0.00 0.01 0.01 0.02 0.00 0.00 0.00
0.01 0.00 0.00 0.01 0.01 0.01 0.00 0.00 0.00 0.00 0.00 0.00 0.00 0.00 0.00 0.00 0.00 0.00 0.00 0.00 0.00 0.00 0.00 0.00 0.00 0.00 0.00 0.00 0.00 0.00 0.00 0.00 0.00 0.00 0.00 0.00 0.00 0.00 0.00 0.03 0.02 0.02 0.03 0.02 0.00 0.00 0.00
0.01 0.01 0.00 0.00 0.00 0.00 0.00 0.00 0.00 0.00 0.00 0.00 0.00 0.00 0.00 0.00 0.00 0.00 0.00 0.00 0.00 0.00 0.00 0.00 0.00 0.00 0.00 0.00 0.00 0.00 0.00 0.00 0.00 0.00 0.00 0.00 0.00 0.00 0.00 0.01 0.01 0.00 0.00 0.00 0.00 0.00 0.00
0.02 0.01 0.01 0.00 0.00 0.00 0.00 0.00 0.00 0.00 0.00 0.00 0.00 0.00 0.00 0.00 0.00 0.00 0.00 0.00 0.00 0.00 0.00 0.00 0.00 0.00 0.00 0.00 0.00 0.00 0.00 0.00 0.00 0.00 0.00 0.00 0.00 0.00 0.00 0.00 0.00 0.01 0.02 0.00 0.00 0.00 0.00
0.02 0.01 0.01 0.01 0.00 0.00 0.00 0.00 0.00 0.00 0.00 0.00 0.00 0.00 0.00 0.00 0.00 0.00 0.00 0.00 0.00 0.00 0.00 0.00 0.00 0.00 0.00 0.00 0.00 0.00 0.00 0.00 0.00 0.00 0.00 0.00 0.00 0.00 0.00 0.00 0.00 0.01 0.02 0.01 0.00 0.00 0.00
0.01 0.01 0.01 0.00 0.00 0.00 0.00 0.00 0.00 0.00 0.00 0.00 0.00 0.00 0.00 0.00 0.00 0.00 0.00 0.00 0.00 0.00 0.00 0.00 0.00 0.00 0.00 0.00 0.00 0.00 0.00 0.00 0.00 0.00 0.00 0.00 0.00 0.00 0.00 0.00 0.02 0.01 0.01 0.00 0.00 0.00 0.00
0.02 0.02 0.01 0.01 0.00 0.00 0.00 0.00 0.01 0.01 0.00 0.00 0.00 0.00 0.00 0.00 0.00 0.00 0.00 0.00 0.00 0.00 0.00 0.00 0.00 0.00 0.00 0.00 0.00 0.00 0.00 0.00 0.00 0.00 0.00 0.00 0.00 0.00 0.00 0.00 0.00 0.01 0.00 0.00 0.00 0.00 0.00
0.03 0.02 0.02 0.02 0.01 0.00 0.00 0.00 0.00 0.00 0.00 0.00 0.00 0.00 0.00 0.00 0.00 0.00 0.00 0.00 0.00 0.00 0.00 0.00 0.00 0.00 0.00 0.00 0.00 0.00 0.00 0.00 0.00 0.00 0.00 0.00 0.00 0.00 0.00 0.00 0.00 0.00 0.00 0.00 0.00 0.00 0.01
0.04 0.02 0.03 0.02 0.02 0.01 0.00 0.00 0.00 0.00 0.00 0.00 0.00 0.00 0.00 0.00 0.00 0.00 0.00 0.00 0.00 0.00 0.00 0.00 0.00 0.00 0.00 0.00 0.00 0.00 0.00 0.00 0.00 0.00 0.00 0.00 0.00 0.00 0.00 0.00 0.00 0.00 0.02 0.07 0.02 0.02 0.02
0.04 0.01 0.02 0.02 0.02 0.01 0.00 0.00 0.00 0.00 0.00 0.00 0.00 0.00 0.00 0.00 0.00 0.00 0.00 0.00 0.00 0.00 0.00 0.00 0.00 0.00 0.00 0.00 0.00 0.00 0.00 0.00 0.00 0.00 0.00 0.00 0.00 0.00 0.00 0.00 0.00 0.00 0.00 0.03 0.03 0.02 0.01
0.02 0.01 0.01 0.02 0.02 0.01 0.00 0.00 0.00 0.00 0.00 0.00 0.00 0.00 0.00 0.00 0.00 0.00 0.00 0.00 0.00 0.00 0.00 0.00 0.00 0.00 0.00 0.00 0.00 0.00 0.00 0.00 0.00 0.00 0.00 0.00 0.00 0.00 0.00 0.00 0.00 0.00 0.00 0.00 0.00 0.00 0.00
0.02 0.01 0.01 0.02 0.02 0.01 0.00 0.00 0.00 0.00 0.00 0.00 0.00 0.00 0.00 0.00 0.00 0.00 0.00 0.00 0.00 0.00 0.00 0.00 0.00 0.00 0.00 0.00 0.00 0.00 0.00 0.00 0.00 0.00 0.00 0.00 0.00 0.00 0.00 0.00 0.00 0.00 0.00 0.00 0.00 0.00 0.00
0.01 0.01 0.01 0.01 0.01 0.00 0.00 0.00 0.00 0.00 0.00 0.00 0.00 0.00 0.00 0.00 0.00 0.00 0.00 0.00 0.00 0.00 0.00 0.00 0.00 0.00 0.00 0.00 0.00 0.00 0.00 0.00 0.00 0.00 0.00 0.00 0.00 0.00 0.00 0.00 0.00 0.00 0.00 0.00 0.00 0.00 0.00
0.01 0.01 0.01 0.02 0.01 0.00 0.00 0.00 0.00 0.00 0.00 0.00 0.00 0.00 0.00 0.00 0.00 0.00 0.00 0.00 0.00 0.00 0.00 0.00 0.00 0.00 0.00 0.00 0.00 0.00 0.00 0.00 0.00 0.00 0.00 0.00 0.00 0.00 0.00 0.00 0.00 0.00 0.00 0.00 0.00 0.00 0.00
0.01 0.01 0.01 0.01 0.01 0.01 0.01 0.00 0.00 0.00 0.00 0.00 0.00 0.00 0.00 0.00 0.00 0.00 0.00 0.00 0.00 0.00 0.00 0.00 0.00 0.00 0.00 0.00 0.00 0.00 0.00 0.00 0.00 0.00 0.00 0.00 0.00 0.00 0.00 0.00 0.00 0.00 0.00 0.00 0.00 0.00 0.00
0.01 0.01 0.01 0.01 0.01 0.01 0.00 0.00 0.00 0.00 0.00 0.00 0.00 0.00 0.00 0.00 0.00 0.00 0.00 0.00 0.00 0.00 0.00 0.00 0.00 0.00 0.00 0.00 0.00 0.00 0.00 0.00 0.00 0.00 0.00 0.00 0.00 0.00 0.00 0.00 0.00 0.00 0.00 0.00 0.00 0.00 0.00
0.01 0.01 0.01 0.02 0.02 0.01 0.01 0.01 0.00 0.00 0.00 0.00 0.00 0.00 0.00 0.00 0.00 0.00 0.00 0.00 0.00 0.00 0.00 0.00 0.00 0.00 0.00 0.00 0.00 0.00 0.00 0.00 0.00 0.00 0.00 0.00 0.00 0.00 0.00 0.00 0.00 0.00 0.00 0.00 0.00 0.00 0.00
0.02 0.02 0.02 0.02 0.02 0.01 0.02 0.02 0.01 0.01 0.00 0.00 0.00 0.00 0.00 0.00 0.00 0.00 0.00 0.00 0.00 0.00 0.00 0.00 0.00 0.00 0.00 0.00 0.00 0.00 0.00 0.00 0.00 0.00 0.00 0.00 0.00 0.00 0.00 0.00 0.00 0.00 0.00 0.00 0.00 0.00 0.00
0.02 0.03 0.03 0.03 0.03 0.02 0.02 0.02 0.03 0.03 0.01 0.00 0.00 0.00 0.00 0.00 0.00 0.00 0.00 0.00 0.00 0.00 0.00 0.00 0.00 0.00 0.00 0.00 0.00 0.00 0.00 0.00 0.00 0.00 0.00 0.00 0.00 0.02 0.01 0.00 0.00 0.00 0.00 0.00 0.00 0.00 0.00
0.02 0.01 0.02 0.02 0.02 0.02 0.02 0.03 0.08 0.11 0.07 0.00 0.00 0.01 0.04 0.02 0.01 0.00 0.00 0.00 0.00 0.00 0.00 0.00 0.00 0.00 0.00 0.00 0.00 0.00 0.00 0.00 0.00 0.00 0.00 0.00 0.01 0.04 0.03 0.01 0.02 0.00 0.00 0.00 0.00 0.00 0.00
0.01 0.00 0.00 0.01 0.02 0.02 0.04 0.06 0.10 0.09 0.10 0.04 0.02 0.05 0.08 0.06 0.02 0.01 0.00 0.00 0.00 0.00 0.00 0.00 0.00 0.00 0.00 0.00 0.00 0.00 0.00 0.00 0.00 0.00 0.00 0.00 0.00 0.04 0.05 0.01 0.00 0.00 0.00 0.00 0.00 0.00 0.00
0.01 0.01 0.01 0.01 0.01 0.01 0.01 0.01 0.03 0.06 0.11 0.08 0.03 0.08 0.18 0.18 0.05 0.01 0.01 0.01 0.02 0.01 0.00 0.00 0.00 0.00 0.00 0.00 0.00 0.03 0.01 0.00 0.00 0.00 0.00 0.00 0.00 0.03 0.03 0.02 0.00 0.00 0.00 0.00 0.00 0.00 0.00
0.03 0.03 0.02 0.02 0.01 0.01 0.00 0.00 0.02 0.06 0.14 0.15 0.06 0.07 0.25 0.25 0.07 0.01 0.03 0.03 0.02 0.02 0.01 0.00 0.00 0.00 0.00 0.00 0.04 0.03 0.01 0.00 0.00 0.00 0.00 0.00 0.01 0.02 0.01 0.03 0.00 0.00 0.00 0.00 0.00 0.00 0.00
0.02 0.02 0.01 0.01 0.01 0.01 0.01 0.01 0.02 0.04 0.14 0.21 0.07 0.04 0.18 0.25 0.10 0.03 0.02 0.03 0.03 0.03 0.05 0.03 0.08 0.04 0.04 0.06 0.07 0.03 0.05 0.03 0.02 0.01 0.02 0.05 0.05 0.04 0.03 0.08 0.02 0.00 0.00 0.00 0.00 0.00 0.00
0.00 0.00 0.00 0.01 0.01 0.00 0.00 0.01 0.01 0.03 0.13 0.24 0.15 0.03 0.11 0.34 0.17 0.03 0.02 0.02 0.02 0.02 0.08 0.12 0.14 0.11 0.16 0.16 0.14 0.13 0.09 0.07 0.04 0.04 0.00 0.03 0.02 0.01 0.03 0.02 0.00 0.00 0.00 0.00 0.00 0.00 0.00

GFSGBSN_prec_precacc24_162.txt.gz
Total_Precipitation_Accumulation
0.01 0.02 0.02 0.02 0.01 0.02 0.02 0.02 0.05 0.08 0.06 0.05 0.03 0.01 0.02 0.03 0.02 0.01 0.03 0.09 0.10 0.01 0.00 0.00 0.00 0.00 0.00 0.00 0.00 0.00 0.00 0.00 0.00 0.00 0.00 0.00 0.00 0.00 0.00 0.00 0.00 0.00 0.00 0.00 0.00 0.00 0.00
0.01 0.01 0.02 0.00 0.01 0.01 0.01 0.01 0.00 0.02 0.04 0.05 0.04 0.04 0.03 0.03 0.02 0.02 0.05 0.09 0.01 0.00 0.00 0.00 0.00 0.00 0.00 0.00 0.00 0.00 0.00 0.00 0.00 0.00 0.00 0.00 0.00 0.00 0.00 0.00 0.00 0.00 0.00 0.00 0.00 0.00 0.00
0.01 0.01 0.01 0.00 0.00 0.00 0.00 0.00 0.00 0.00 0.00 0.01 0.02 0.03 0.04 0.04 0.05 0.05 0.05 0.02 0.00 0.00 0.00 0.00 0.00 0.00 0.00 0.00 0.00 0.00 0.00 0.00 0.00 0.00 0.00 0.00 0.00 0.00 0.00 0.00 0.00 0.00 0.00 0.00 0.00 0.00 0.00
0.01 0.01 0.01 0.01 0.00 0.00 0.00 0.00 0.00 0.00 0.00 0.00 0.00 0.00 0.00 0.00 0.00 0.00 0.00 0.00 0.00 0.00 0.00 0.00 0.00 0.00 0.00 0.00 0.00 0.00 0.00 0.00 0.00 0.00 0.00 0.00 0.00 0.00 0.00 0.00 0.00 0.00 0.00 0.00 0.00 0.00 0.00
0.02 0.01 0.01 0.01 0.01 0.01 0.01 0.00 0.00 0.00 0.00 0.00 0.00 0.00 0.00 0.00 0.00 0.00 0.00 0.00 0.00 0.00 0.00 0.00 0.00 0.00 0.00 0.00 0.00 0.00 0.00 0.00 0.00 0.00 0.00 0.00 0.00 0.00 0.00 0.00 0.00 0.00 0.01 0.01 0.00 0.00 0.00
0.01 0.01 0.01 0.01 0.01 0.01 0.01 0.01 0.01 0.01 0.00 0.00 0.00 0.00 0.00 0.00 0.00 0.00 0.00 0.00 0.00 0.00 0.00 0.00 0.00 0.00 0.00 0.00 0.00 0.00 0.00 0.00 0.00 0.00 0.00 0.00 0.00 0.00 0.00 0.01 0.01 0.01 0.01 0.01 0.00 0.00 0.00
0.01 0.01 0.00 0.00 0.00 0.01 0.01 0.01 0.01 0.01 0.00 0.00 0.00 0.00 0.00 0.00 0.00 0.00 0.00 0.00 0.00 0.00 0.00 0.00 0.00 0.00 0.00 0.00 0.00 0.00 0.00 0.00 0.00 0.00 0.00 0.00 0.00 0.00 0.00 0.00 0.00 0.00 0.00 0.00 0.00 0.00 0.00
0.02 0.01 0.01 0.00 0.00 0.00 0.00 0.01 0.01 0.01 0.01 0.00 0.00 0.00 0.00 0.00 0.00 0.00 0.00 0.00 0.00 0.00 0.00 0.00 0.00 0.00 0.00 0.00 0.00 0.00 0.00 0.00 0.00 0.00 0.00 0.00 0.00 0.00 0.00 0.00 0.00 0.00 0.01 0.00 0.00 0.00 0.00
0.02 0.01 0.01 0.01 0.00 0.00 0.00 0.00 0.00 0.01 0.00 0.00 0.00 0.00 0.00 0.00 0.00 0.00 0.00 0.00 0.00 0.00 0.00 0.00 0.00 0.00 0.00 0.00 0.00 0.00 0.00 0.00 0.00 0.00 0.00 0.00 0.00 0.00 0.00 0.00 0.00 0.01 0.01 0.00 0.00 0.00 0.00
0.02 0.01 0.01 0.00 0.00 0.00 0.00 0.00 0.01 0.00 0.00 0.00 0.00 0.00 0.00 0.00 0.00 0.00 0.00 0.00 0.00 0.00 0.00 0.00 0.00 0.00 0.00 0.00 0.00 0.00 0.00 0.00 0.00 0.00 0.00 0.00 0.00 0.00 0.00 0.00 0.01 0.00 0.00 0.00 0.00 0.00 0.00
0.03 0.02 0.02 0.01 0.00 0.00 0.00 0.00 0.01 0.01 0.00 0.00 0.00 0.00 0.00 0.00 0.00 0.00 0.00 0.00 0.00 0.00 0.00 0.00 0.00 0.00 0.00 0.00 0.00 0.00 0.00 0.00 0.00 0.00 0.00 0.00 0.00 0.00 0.00 0.00 0.00 0.00 0.00 0.00 0.00 0.00 0.00
0.03 0.03 0.02 0.02 0.01 0.00 0.00 0.00 0.00 0.00 0.00 0.00 0.00 0.00 0.00 0.00 0.00 0.00 0.00 0.00 0.00 0.00 0.00 0.00 0.00 0.00 0.00 0.00 0.00 0.00 0.00 0.00 0.00 0.00 0.00 0.00 0.00 0.00 0.00 0.00 0.00 0.00 0.00 0.00 0.00 0.00 0.00
0.04 0.02 0.03 0.02 0.02 0.01 0.00 0.00 0.00 0.00 0.00 0.00 0.00 0.00 0.00 0.00 0.00 0.00 0.00 0.00 0.00 0.00 0.00 0.00 0.00 0.00 0.00 0.00 0.00 0.00 0.00 0.00 0.00 0.00 0.00 0.00 0.00 0.00 0.00 0.00 0.00 0.00 0.00 0.02 0.00 0.01 0.00
0.04 0.01 0.02 0.02 0.02 0.01 0.00 0.00 0.00 0.00 0.00 0.00 0.00 0.00 0.00 0.00 0.00 0.00 0.00 0.00 0.00 0.00 0.00 0.00 0.00 0.00 0.00 0.00 0.00 0.00 0.00 0.00 0.00 0.00 0.00 0.00 0.00 0.00 0.00 0.00 0.00 0.00 0.00 0.01 0.01 0.01 0.00
0.02 0.01 0.01 0.02 0.02 0.01 0.00 0.00 0.00 0.00 0.00 0.00 0.00 0.00 0.00 0.00 0.00 0.00 0.00 0.00 0.00 0.00 0.00 0.00 0.00 0.00 0.00 0.00 0.00 0.00 0.00 0.00 0.00 0.00 0.00 0.00 0.00 0.00 0.00 0.00 0.00 0.00 0.00 0.00 0.00 0.00 0.00
0.02 0.01 0.01 0.02 0.02 0.01 0.00 0.00 0.00 0.00 0.00 0.00 0.00 0.00 0.00 0.00 0.00 0.00 0.00 0.00 0.00 0.00 0.00 0.00 0.00 0.00 0.00 0.00 0.00 0.00 0.00 0.00 0.00 0.00 0.00 0.00 0.00 0.00 0.00 0.00 0.00 0.00 0.00 0.00 0.00 0.00 0.00
0.01 0.01 0.01 0.01 0.01 0.00 0.00 0.00 0.00 0.00 0.00 0.00 0.00 0.00 0.00 0.00 0.00 0.00 0.00 0.00 0.00 0.00 0.00 0.00 0.00 0.00 0.00 0.00 0.00 0.00 0.00 0.00 0.00 0.00 0.00 0.00 0.00 0.00 0.00 0.00 0.00 0.00 0.00 0.00 0.00 0.00 0.00
0.01 0.01 0.01 0.02 0.01 0.00 0.00 0.00 0.00 0.00 0.00 0.00 0.00 0.00 0.00 0.00 0.00 0.00 0.00 0.00 0.00 0.00 0.00 0.00 0.00 0.00 0.00 0.00 0.00 0.00 0.00 0.00 0.00 0.00 0.00 0.00 0.00 0.00 0.00 0.00 0.00 0.00 0.00 0.00 0.00 0.00 0.00
0.01 0.01 0.01 0.01 0.01 0.01 0.01 0.00 0.00 0.00 0.00 0.00 0.00 0.00 0.00 0.00 0.00 0.00 0.00 0.00 0.00 0.00 0.00 0.00 0.00 0.00 0.00 0.00 0.00 0.00 0.00 0.00 0.00 0.00 0.00 0.00 0.00 0.00 0.00 0.00 0.00 0.00 0.00 0.00 0.00 0.00 0.00
0.01 0.01 0.01 0.01 0.01 0.01 0.00 0.00 0.00 0.00 0.00 0.00 0.00 0.00 0.00 0.00 0.00 0.00 0.00 0.00 0.00 0.00 0.00 0.00 0.00 0.00 0.00 0.00 0.00 0.00 0.00 0.00 0.00 0.00 0.00 0.00 0.00 0.00 0.00 0.00 0.00 0.00 0.00 0.00 0.00 0.00 0.00
0.01 0.01 0.01 0.02 0.02 0.01 0.01 0.01 0.00 0.00 0.00 0.00 0.00 0.00 0.00 0.00 0.00 0.00 0.00 0.00 0.00 0.00 0.00 0.00 0.00 0.00 0.00 0.00 0.00 0.00 0.00 0.00 0.00 0.00 0.00 0.00 0.00 0.00 0.00 0.00 0.00 0.00 0.00 0.00 0.00 0.00 0.00
0.02 0.02 0.02 0.02 0.02 0.01 0.02 0.02 0.01 0.01 0.00 0.00 0.00 0.00 0.00 0.00 0.00 0.00 0.00 0.00 0.00 0.00 0.00 0.00 0.00 0.00 0.00 0.00 0.00 0.00 0.00 0.00 0.00 0.00 0.00 0.00 0.00 0.00 0.00 0.00 0.00 0.00 0.00 0.00 0.00 0.00 0.00
0.02 0.03 0.03 0.03 0.03 0.02 0.01 0.01 0.02 0.02 0.01 0.00 0.00 0.00 0.00 0.00 0.00 0.00 0.00 0.00 0.00 0.00 0.00 0.00 0.00 0.00 0.00 0.00 0.00 0.00 0.00 0.00 0.00 0.00 0.00 0.00 0.01 0.03 0.02 0.00 0.00 0.00 0.00 0.00 0.00 0.00 0.00
0.02 0.01 0.02 0.02 0.02 0.02 0.02 0.02 0.07 0.10 0.06 0.01 0.00 0.01 0.04 0.02 0.01 0.00 0.00 0.00 0.00 0.00 0.00 0.00 0.00 0.00 0.00 0.00 0.00 0.00 0.00 0.00 0.00 0.00 0.00 0.00 0.03 0.07 0.03 0.01 0.02 0.00 0.00 0.00 0.00 0.00 0.00
0.01 0.00 0.00 0.01 0.02 0.02 0.04 0.05 0.07 0.07 0.07 0.03 0.02 0.05 0.08 0.06 0.02 0.01 0.00 0.00 0.00 0.00 0.00 0.00 0.00 0.00 0.00 0.00 0.00 0.00 0.00 0.00 0.00 0.00 0.00 0.00 0.00 0.06 0.06 0.02 0.00 0.00 0.00 0.00 0.00 0.00 0.00
0.01 0.01 0.01 0.01 0.01 0.01 0.01 0.01 0.01 0.03 0.07 0.07 0.02 0.07 0.18 0.18 0.05 0.01 0.01 0.01 0.02 0.01 0.00 0.00 0.00 0.00 0.00 0.00 0.00 0.03 0.01 0.00 0.00 0.00 0.00 0.00 0.00 0.04 0.05 0.03 0.00 0.00 0.00 0.00 0.00 0.00 0.00
0.01 0.02 0.02 0.02 0.01 0.01 0.00 0.00 0.01 0.03 0.10 0.13 0.05 0.05 0.23 0.24 0.07 0.01 0.03 0.03 0.02 0.02 0.01 0.00 0.00 0.00 0.00 0.00 0.04 0.03 0.01 0.00 0.00 0.00 0.00 0.00 0.01 0.02 0.01 0.03 0.00 0.00 0.00 0.00 0.00 0.00 0.00
0.00 0.01 0.01 0.01 0.01 0.01 0.01 0.01 0.01 0.02 0.08 0.16 0.06 0.01 0.15 0.23 0.10 0.03 0.02 0.03 0.03 0.03 0.05 0.03 0.08 0.04 0.04 0.07 0.07 0.03 0.05 0.03 0.02 0.01 0.02 0.05 0.05 0.04 0.04 0.10 0.03 0.00 0.00 0.00 0.00 0.00 0.00
0.00 0.00 0.00 0.01 0.01 0.00 0.00 0.01 0.01 0.01 0.04 0.15 0.11 0.02 0.07 0.29 0.16 0.03 0.02 0.02 0.02 0.02 0.08 0.12 0.14 0.11 0.16 0.17 0.14 0.13 0.09 0.08 0.05 0.04 0.00 0.03 0.02 0.01 0.03 0.03 0.00 0.00 0.00 0.00 0.00 0.00 0.00

GFSGBSN_prec_precacc24_165.txt.gz
Total_Precipitation_Accumulation
0.00 0.01 0.01 0.01 0.01 0.01 0.01 0.01 0.04 0.06 0.05 0.04 0.02 0.01 0.02 0.03 0.01 0.00 0.02 0.02 0.01 0.00 0.00 0.00 0.00 0.00 0.00 0.00 0.00 0.00 0.00 0.00 0.00 0.00 0.00 0.00 0.00 0.00 0.00 0.00 0.00 0.00 0.00 0.00 0.00 0.00 0.00
0.00 0.00 0.00 0.00 0.00 0.00 0.00 0.00 0.00 0.01 0.01 0.01 0.02 0.02 0.02 0.02 0.01 0.01 0.02 0.02 0.00 0.00 0.00 0.00 0.00 0.00 0.00 0.00 0.00 0.00 0.00 0.00 0.00 0.00 0.00 0.00 0.00 0.00 0.00 0.00 0.00 0.00 0.00 0.00 0.00 0.00 0.00
0.01 0.01 0.01 0.00 0.00 0.00 0.00 0.00 0.00 0.00 0.00 0.00 0.00 0.00 0.01 0.01 0.02 0.03 0.02 0.00 0.00 0.00 0.00 0.00 0.00 0.00 0.00 0.00 0.00 0.00 0.00 0.00 0.00 0.00 0.00 0.00 0.00 0.00 0.00 0.00 0.00 0.00 0.00 0.00 0.00 0.00 0.00
0.01 0.02 0.01 0.02 0.01 0.01 0.00 0.00 0.00 0.00 0.00 0.00 0.00 0.00 0.00 0.00 0.00 0.00 0.00 0.00 0.00 0.00 0.00 0.00 0.00 0.00 0.00 0.00 0.00 0.00 0.00 0.00 0.00 0.00 0.00 0.00 0.00 0.00 0.00 0.00 0.00 0.00 0.00 0.00 0.00 0.00 0.00
0.02 0.01 0.01 0.01 0.02 0.02 0.01 0.01 0.00 0.00 0.00 0.00 0.00 0.00 0.00 0.00 0.00 0.00 0.00 0.00 0.00 0.00 0.00 0.00 0.00 0.00 0.00 0.00 0.00 0.00 0.00 0.00 0.00 0.00 0.00 0.00 0.00 0.00 0.00 0.00 0.00 0.00 0.00 0.00 0.00 0.00 0.00
0.02 0.01 0.01 0.01 0.01 0.02 0.02 0.02 0.02 0.02 0.01 0.00 0.00 0.00 0.00 0.00 0.00 0.00 0.00 0.00 0.00 0.00 0.00 0.00 0.00 0.00 0.00 0.00 0.00 0.00 0.00 0.00 0.00 0.00 0.00 0.00 0.00 0.00 0.00 0.00 0.01 0.00 0.00 0.00 0.00 0.00 0.00
0.02 0.01 0.01 0.01 0.01 0.01 0.02 0.02 0.02 0.02 0.01 0.00 0.00 0.00 0.00 0.00 0.00 0.00 0.00 0.00 0.00 0.00 0.00 0.00 0.00 0.00 0.00 0.00 0.00 0.00 0.00 0.00 0.00 0.00 0.00 0.00 0.00 0.00 0.00 0.00 0.00 0.00 0.00 0.00 0.00 0.00 0.00
0.02 0.01 0.01 0.00 0.00 0.00 0.00 0.01 0.02 0.01 0.01 0.00 0.00 0.00 0.00 0.00 0.00 0.00 0.00 0.00 0.00 0.00 0.00 0.00 0.00 0.00 0.00 0.00 0.00 0.00 0.00 0.00 0.00 0.00 0.00 0.00 0.00 0.00 0.00 0.00 0.00 0.00 0.00 0.00 0.00 0.00 0.00
0.02 0.01 0.01 0.01 0.00 0.00 0.00 0.00 0.00 0.01 0.00 0.00 0.00 0.00 0.00 0.00 0.00 0.00 0.00 0.00 0.00 0.00 0.00 0.00 0.00 0.00 0.00 0.00 0.00 0.00 0.00 0.00 0.00 0.00 0.00 0.00 0.00 0.00 0.00 0.00 0.00 0.00 0.00 0.00 0.00 0.00 0.00
0.02 0.01 0.01 0.00 0.00 0.00 0.00 0.00 0.01 0.00 0.00 0.00 0.00 0.00 0.00 0.00 0.00 0.00 0.00 0.00 0.00 0.00 0.00 0.00 0.00 0.00 0.00 0.00 0.00 0.00 0.00 0.00 0.00 0.00 0.00 0.00 0.00 0.00 0.00 0.00 0.00 0.00 0.00 0.00 0.00 0.00 0.00
0.03 0.02 0.02 0.01 0.00 0.00 0.00 0.00 0.01 0.01 0.00 0.00 0.00 0.00 0.00 0.00 0.00 0.00 0.00 0.00 0.00 0.00 0.00 0.00 0.00 0.00 0.00 0.00 0.00 0.00 0.00 0.00 0.00 0.00 0.00 0.00 0.00 0.00 0.00 0.00 0.00 0.00 0.00 0.00 0.00 0.00 0.00
0.03 0.03 0.02 0.02 0.01 0.00 0.00 0.00 0.00 0.00 0.00 0.00 0.00 0.00 0.00 0.00 0.00 0.00 0.00 0.00 0.00 0.00 0.00 0.00 0.00 0.00 0.00 0.00 0.00 0.00 0.00 0.00 0.00 0.00 0.00 0.00 0.00 0.00 0.00 0.00 0.00 0.00 0.00 0.00 0.00 0.00 0.00
0.04 0.02 0.03 0.02 0.02 0.01 0.00 0.00 0.00 0.00 0.00 0.00 0.00 0.00 0.00 0.00 0.00 0.00 0.00 0.00 0.00 0.00 0.00 0.00 0.00 0.00 0.00 0.00 0.00 0.00 0.00 0.00 0.00 0.00 0.00 0.00 0.00 0.00 0.00 0.00 0.00 0.00 0.00 0.00 0.00 0.00 0.00
0.04 0.01 0.02 0.02 0.02 0.01 0.00 0.00 0.00 0.00 0.00 0.00 0.00 0.00 0.00 0.00 0.00 0.00 0.00 0.00 0.00 0.00 0.00 0.00 0.00 0.00 0.00 0.00 0.00 0.00 0.00 0.00 0.00 0.00 0.00 0.00 0.00 0.00 0.00 0.00 0.00 0.00 0.00 0.00 0.00 0.00 0.00
0.02 0.01 0.01 0.02 0.02 0.01 0.00 0.00 0.00 0.00 0.00 0.00 0.00 0.00 0.00 0.00 0.00 0.00 0.00 0.00 0.00 0.00 0.00 0.00 0.00 0.00 0.00 0.00 0.00 0.00 0.00 0.00 0.00 0.00 0.00 0.00 0.00 0.00 0.00 0.00 0.00 0.00 0.00 0.00 0.00 0.00 0.00
0.02 0.01 0.01 0.02 0.02 0.01 0.00 0.00 0.00 0.00 0.00 0.00 0.00 0.00 0.00 0.00 0.00 0.00 0.00 0.00 0.00 0.00 0.00 0.00 0.00 0.00 0.00 0.00 0.00 0.00 0.00 0.00 0.00 0.00 0.00 0.00 0.00 0.00 0.00 0.00 0.00 0.00 0.00 0.00 0.00 0.00 0.00
0.01 0.01 0.01 0.01 0.01 0.00 0.00 0.00 0.00 0.00 0.00 0.00 0.00 0.00 0.00 0.00 0.00 0.00 0.00 0.00 0.00 0.00 0.00 0.00 0.00 0.00 0.00 0.00 0.00 0.00 0.00 0.00 0.00 0.00 0.00 0.00 0.00 0.00 0.00 0.00 0.00 0.00 0.00 0.00 0.00 0.00 0.00
0.01 0.01 0.01 0.02 0.01 0.00 0.00 0.00 0.00 0.00 0.00 0.00 0.00 0.00 0.00 0.00 0.00 0.00 0.00 0.00 0.00 0.00 0.00 0.00 0.00 0.00 0.00 0.00 0.00 0.00 0.00 0.00 0.00 0.00 0.00 0.00 0.00 0.00 0.00 0.00 0.00 0.00 0.00 0.00 0.00 0.00 0.00
0.01 0.01 0.01 0.01 0.01 0.01 0.01 0.00 0.00 0.00 0.00 0.00 0.00 0.00 0.00 0.00 0.00 0.00 0.00 0.00 0.00 0.00 0.00 0.00 0.00 0.00 0.00 0.00 0.00 0.00 0.00 0.00 0.00 0.00 0.00 0.00 0.00 0.00 0.00 0.00 0.00 0.00 0.00 0.00 0.00 0.00 0.00
0.01 0.01 0.01 0.01 0.01 0.01 0.00 0.00 0.00 0.00 0.00 0.00 0.00 0.00 0.00 0.00 0.00 0.00 0.00 0.00 0.00 0.00 0.00 0.00 0.00 0.00 0.00 0.00 0.00 0.00 0.00 0.00 0.00 0.00 0.00 0.00 0.00 0.00 0.00 0.00 0.00 0.00 0.00 0.00 0.00 0.00 0.00
0.01 0.01 0.01 0.02 0.02 0.01 0.01 0.01 0.00 0.00 0.00 0.00 0.00 0.00 0.00 0.00 0.00 0.00 0.00 0.00 0.00 0.00 0.00 0.00 0.00 0.00 0.00 0.00 0.00 0.00 0.00 0.00 0.00 0.00 0.00 0.00 0.00 0.00 0.00 0.00 0.00 0.00 0.00 0.00 0.00 0.00 0.00
0.02 0.02 0.02 0.02 0.02 0.01 0.02 0.01 0.01 0.01 0.00 0.00 0.00 0.00 0.00 0.00 0.00 0.00 0.00 0.00 0.00 0.00 0.00 0.00 0.00 0.00 0.00 0.00 0.00 0.00 0.00 0.00 0.00 0.00 0.00 0.00 0.00 0.00 0.00 0.00 0.00 0.00 0.00 0.00 0.00 0.00 0.00
0.02 0.03 0.03 0.03 0.03 0.02 0.01 0.01 0.02 0.02 0.01 0.00 0.00 0.00 0.00 0.00 0.00 0.00 0.00 0.00 0.00 0.00 0.00 0.00 0.00 0.00 0.00 0.00 0.00 0.00 0.00 0.00 0.00 0.00 0.00 0.00 0.01 0.04 0.03 0.00 0.00 0.00 0.00 0.00 0.00 0.00 0.00
0.01 0.01 0.02 0.02 0.02 0.02 0.02 0.02 0.05 0.09 0.05 0.01 0.00 0.01 0.03 0.02 0.01 0.00 0.00 0.00 0.00 0.00 0.00 0.00 0.00 0.00 0.00 0.00 0.00 0.00 0.00 0.00 0.00 0.00 0.00 0.00 0.03 0.09 0.05 0.01 0.02 0.00 0.00 0.00 0.00 0.00 0.00
0.00 0.00 0.00 0.01 0.02 0.02 0.04 0.05 0.06 0.04 0.05 0.03 0.02 0.05 0.08 0.06 0.02 0.01 0.00 0.00 0.00 0.00 0.00 0.00 0.00 0.00 0.00 0.00 0.00 0.00 0.00 0.00 0.00 0.00 0.00 0.00 0.00 0.08 0.08 0.02 0.00 0.00 0.00 0.00 0.00 0.00 0.00
0.00 0.00 0.00 0.01 0.01 0.01 0.01 0.01 0.00 0.01 0.04 0.05 0.02 0.07 0.18 0.18 0.05 0.01 0.01 0.01 0.02 0.01 0.00 0.00 0.00 0.00 0.00 0.00 0.00 0.03 0.01 0.00 0.00 0.00 0.00 0.00 0.00 0.04 0.06 0.05 0.00 0.00 0.00 0.00 0.00 0.00 0.00
0.00 0.00 0.00 0.00 0.00 0.00 0.00 0.00 0.00 0.01 0.05 0.09 0.05 0.05 0.22 0.24 0.07 0.01 0.03 0.03 0.02 0.02 0.01 0.00 0.00 0.00 0.00 0.00 0.04 0.03 0.01 0.00 0.00 0.00 0.00 0.00 0.01 0.02 0.02 0.06 0.00 0.00 0.00 0.00 0.00 0.01 0.00
0.00 0.00 0.00 0.00 0.00 0.01 0.01 0.01 0.01 0.00 0.02 0.07 0.03 0.01 0.12 0.19 0.09 0.03 0.02 0.03 0.03 0.03 0.05 0.03 0.08 0.04 0.04 0.07 0.07 0.03 0.05 0.03 0.02 0.01 0.02 0.05 0.05 0.04 0.04 0.11 0.04 0.00 0.00 0.01 0.00 0.00 0.00
0.00 0.01 0.00 0.01 0.01 0.00 0.00 0.01 0.01 0.01 0.02 0.06 0.04 0.00 0.03 0.17 0.11 0.03 0.01 0.02 0.02 0.02 0.08 0.12 0.14 0.11 0.16 0.17 0.14 0.13 0.09 0.08 0.05 0.04 0.00 0.03 0.02 0.01 0.03 0.03 0.00 0.00 0.00 0.00 0.00 0.00 0.00